<?xml version="1.0" encoding="UTF-8" ?>
<gpx version="1.1" 
creator="Memory-Map 6.4.3.1278 https://memory-map.com"
 xmlns:xsi="http://www.w3.org/2001/XMLSchema-instance"
 xmlns="http://www.topografix.com/GPX/1/1"
 xmlns:xstyle="http://www.topografix.com/GPX/gpx_style/0/2"
 xmlns:xgarmin="http://www.garmin.com/xmlschemas/GpxExtensions/v3"
 xsi:schemaLocation="http://www.topografix.com/GPX/1/1 http://www.topografix.com/GPX/1/1/gpx.xsd http://www.topografix.com/GPX/gpx_style/0/2 http://www.topografix.com/GPX/gpx_style/0/2/gpx_style.xsd http://www.garmin.com/xmlschemas/GpxExtensions/v3 https://www8.garmin.com/xmlschemas/GpxExtensionsv3.xsd">
<trk>
<name>1455 Bois d'Ostabat</name>
<src>mmid:5BFAC5535C6EB6C3</src>
<type>Track</type>
<extensions> <xstyle:line>
<xstyle:color>0000ff</xstyle:color>
<xstyle:opacity>1.0</xstyle:opacity>
<xstyle:width>2.0</xstyle:width>
<xstyle:pattern>Solid</xstyle:pattern>
</xstyle:line></extensions>
<trkseg>
<trkpt lat="43.2564650000" lon="-1.0720220000"><ele>166</ele><time>2026-04-07T07:13:20Z</time></trkpt>
<trkpt lat="43.2564670000" lon="-1.0720200000"><ele>166</ele><time>2026-04-07T07:13:22Z</time></trkpt>
<trkpt lat="43.2564470000" lon="-1.0719720000"><ele>166</ele><time>2026-04-07T07:13:42Z</time></trkpt>
<trkpt lat="43.2564320000" lon="-1.0719470000"><ele>166</ele><time>2026-04-07T07:13:45Z</time></trkpt>
<trkpt lat="43.2564170000" lon="-1.0719070000"><ele>166</ele><time>2026-04-07T07:13:47Z</time></trkpt>
<trkpt lat="43.2564070000" lon="-1.0718670000"><ele>166</ele><time>2026-04-07T07:13:49Z</time></trkpt>
<trkpt lat="43.2563970000" lon="-1.0718370000"><ele>166</ele><time>2026-04-07T07:13:52Z</time></trkpt>
<trkpt lat="43.2563900000" lon="-1.0718130000"><ele>166</ele><time>2026-04-07T07:13:55Z</time></trkpt>
<trkpt lat="43.2563820000" lon="-1.0717920000"><ele>166</ele><time>2026-04-07T07:14:00Z</time></trkpt>
<trkpt lat="43.2563770000" lon="-1.0717670000"><ele>166</ele><time>2026-04-07T07:14:04Z</time></trkpt>
<trkpt lat="43.2563970000" lon="-1.0717520000"><ele>166</ele><time>2026-04-07T07:14:22Z</time></trkpt>
<trkpt lat="43.2563900000" lon="-1.0717220000"><ele>165</ele><time>2026-04-07T07:14:25Z</time></trkpt>
<trkpt lat="43.2563800000" lon="-1.0716870000"><ele>165</ele><time>2026-04-07T07:14:27Z</time></trkpt>
<trkpt lat="43.2563750000" lon="-1.0716620000"><ele>165</ele><time>2026-04-07T07:14:30Z</time></trkpt>
<trkpt lat="43.2563570000" lon="-1.0716520000"><ele>165</ele><time>2026-04-07T07:14:41Z</time></trkpt>
<trkpt lat="43.2563970000" lon="-1.0716430000"><ele>165</ele><time>2026-04-07T07:15:30Z</time></trkpt>
<trkpt lat="43.2563900000" lon="-1.0716170000"><ele>165</ele><time>2026-04-07T07:15:33Z</time></trkpt>
<trkpt lat="43.2563770000" lon="-1.0715870000"><ele>164</ele><time>2026-04-07T07:15:35Z</time></trkpt>
<trkpt lat="43.2563670000" lon="-1.0715600000"><ele>164</ele><time>2026-04-07T07:15:37Z</time></trkpt>
<trkpt lat="43.2563550000" lon="-1.0715370000"><ele>164</ele><time>2026-04-07T07:15:39Z</time></trkpt>
<trkpt lat="43.2563400000" lon="-1.0715070000"><ele>164</ele><time>2026-04-07T07:15:41Z</time></trkpt>
<trkpt lat="43.2563270000" lon="-1.0714870000"><ele>164</ele><time>2026-04-07T07:15:43Z</time></trkpt>
<trkpt lat="43.2563170000" lon="-1.0714600000"><ele>164</ele><time>2026-04-07T07:15:45Z</time></trkpt>
<trkpt lat="43.2563050000" lon="-1.0714370000"><ele>164</ele><time>2026-04-07T07:15:47Z</time></trkpt>
<trkpt lat="43.2562920000" lon="-1.0714130000"><ele>164</ele><time>2026-04-07T07:15:49Z</time></trkpt>
<trkpt lat="43.2562800000" lon="-1.0713920000"><ele>164</ele><time>2026-04-07T07:15:51Z</time></trkpt>
<trkpt lat="43.2562650000" lon="-1.0713720000"><ele>164</ele><time>2026-04-07T07:15:53Z</time></trkpt>
<trkpt lat="43.2562420000" lon="-1.0713450000"><ele>164</ele><time>2026-04-07T07:15:56Z</time></trkpt>
<trkpt lat="43.2562300000" lon="-1.0713170000"><ele>163</ele><time>2026-04-07T07:15:58Z</time></trkpt>
<trkpt lat="43.2562050000" lon="-1.0713050000"><ele>163</ele><time>2026-04-07T07:16:00Z</time></trkpt>
<trkpt lat="43.2561770000" lon="-1.0713020000"><ele>163</ele><time>2026-04-07T07:16:02Z</time></trkpt>
<trkpt lat="43.2561550000" lon="-1.0712950000"><ele>163</ele><time>2026-04-07T07:16:04Z</time></trkpt>
<trkpt lat="43.2561370000" lon="-1.0712820000"><ele>163</ele><time>2026-04-07T07:16:06Z</time></trkpt>
<trkpt lat="43.2561170000" lon="-1.0712620000"><ele>163</ele><time>2026-04-07T07:16:08Z</time></trkpt>
<trkpt lat="43.2560950000" lon="-1.0712470000"><ele>163</ele><time>2026-04-07T07:16:10Z</time></trkpt>
<trkpt lat="43.2560720000" lon="-1.0712320000"><ele>163</ele><time>2026-04-07T07:16:12Z</time></trkpt>
<trkpt lat="43.2560520000" lon="-1.0712220000"><ele>163</ele><time>2026-04-07T07:16:14Z</time></trkpt>
<trkpt lat="43.2560350000" lon="-1.0712120000"><ele>163</ele><time>2026-04-07T07:16:16Z</time></trkpt>
<trkpt lat="43.2560170000" lon="-1.0711900000"><ele>162</ele><time>2026-04-07T07:16:18Z</time></trkpt>
<trkpt lat="43.2560020000" lon="-1.0711770000"><ele>162</ele><time>2026-04-07T07:16:20Z</time></trkpt>
<trkpt lat="43.2559800000" lon="-1.0711620000"><ele>162</ele><time>2026-04-07T07:16:22Z</time></trkpt>
<trkpt lat="43.2559670000" lon="-1.0711420000"><ele>162</ele><time>2026-04-07T07:16:24Z</time></trkpt>
<trkpt lat="43.2559520000" lon="-1.0711100000"><ele>162</ele><time>2026-04-07T07:16:27Z</time></trkpt>
<trkpt lat="43.2559370000" lon="-1.0710870000"><ele>162</ele><time>2026-04-07T07:16:29Z</time></trkpt>
<trkpt lat="43.2559170000" lon="-1.0710750000"><ele>162</ele><time>2026-04-07T07:16:31Z</time></trkpt>
<trkpt lat="43.2558900000" lon="-1.0710720000"><ele>162</ele><time>2026-04-07T07:16:33Z</time></trkpt>
<trkpt lat="43.2558670000" lon="-1.0710770000"><ele>161</ele><time>2026-04-07T07:16:35Z</time></trkpt>
<trkpt lat="43.2558470000" lon="-1.0710900000"><ele>161</ele><time>2026-04-07T07:16:37Z</time></trkpt>
<trkpt lat="43.2558270000" lon="-1.0711030000"><ele>161</ele><time>2026-04-07T07:16:39Z</time></trkpt>
<trkpt lat="43.2558120000" lon="-1.0711200000"><ele>161</ele><time>2026-04-07T07:16:43Z</time></trkpt>
<trkpt lat="43.2558200000" lon="-1.0710920000"><ele>161</ele><time>2026-04-07T07:16:47Z</time></trkpt>
<trkpt lat="43.2558320000" lon="-1.0710750000"><ele>161</ele><time>2026-04-07T07:16:50Z</time></trkpt>
<trkpt lat="43.2558420000" lon="-1.0710470000"><ele>160</ele><time>2026-04-07T07:17:10Z</time></trkpt>
<trkpt lat="43.2558550000" lon="-1.0710070000"><ele>160</ele><time>2026-04-07T07:17:12Z</time></trkpt>
<trkpt lat="43.2558670000" lon="-1.0709720000"><ele>160</ele><time>2026-04-07T07:17:14Z</time></trkpt>
<trkpt lat="43.2558850000" lon="-1.0709350000"><ele>160</ele><time>2026-04-07T07:17:16Z</time></trkpt>
<trkpt lat="43.2558920000" lon="-1.0709070000"><ele>160</ele><time>2026-04-07T07:17:18Z</time></trkpt>
<trkpt lat="43.2559020000" lon="-1.0708820000"><ele>160</ele><time>2026-04-07T07:17:20Z</time></trkpt>
<trkpt lat="43.2559120000" lon="-1.0708570000"><ele>160</ele><time>2026-04-07T07:17:22Z</time></trkpt>
<trkpt lat="43.2559220000" lon="-1.0708330000"><ele>159</ele><time>2026-04-07T07:17:24Z</time></trkpt>
<trkpt lat="43.2559300000" lon="-1.0708120000"><ele>159</ele><time>2026-04-07T07:17:26Z</time></trkpt>
<trkpt lat="43.2559400000" lon="-1.0707870000"><ele>159</ele><time>2026-04-07T07:17:28Z</time></trkpt>
<trkpt lat="43.2559470000" lon="-1.0707620000"><ele>159</ele><time>2026-04-07T07:17:30Z</time></trkpt>
<trkpt lat="43.2559670000" lon="-1.0707470000"><ele>159</ele><time>2026-04-07T07:17:32Z</time></trkpt>
<trkpt lat="43.2559870000" lon="-1.0707270000"><ele>159</ele><time>2026-04-07T07:17:35Z</time></trkpt>
<trkpt lat="43.2560050000" lon="-1.0707050000"><ele>159</ele><time>2026-04-07T07:17:37Z</time></trkpt>
<trkpt lat="43.2560220000" lon="-1.0706850000"><ele>159</ele><time>2026-04-07T07:17:39Z</time></trkpt>
<trkpt lat="43.2560450000" lon="-1.0706620000"><ele>158</ele><time>2026-04-07T07:17:41Z</time></trkpt>
<trkpt lat="43.2560650000" lon="-1.0706530000"><ele>158</ele><time>2026-04-07T07:17:43Z</time></trkpt>
<trkpt lat="43.2560720000" lon="-1.0706250000"><ele>158</ele><time>2026-04-07T07:17:59Z</time></trkpt>
<trkpt lat="43.2560900000" lon="-1.0706070000"><ele>157</ele><time>2026-04-07T07:18:01Z</time></trkpt>
<trkpt lat="43.2561120000" lon="-1.0705920000"><ele>157</ele><time>2026-04-07T07:18:04Z</time></trkpt>
<trkpt lat="43.2561320000" lon="-1.0705820000"><ele>157</ele><time>2026-04-07T07:18:06Z</time></trkpt>
<trkpt lat="43.2561470000" lon="-1.0705630000"><ele>157</ele><time>2026-04-07T07:18:08Z</time></trkpt>
<trkpt lat="43.2561670000" lon="-1.0705470000"><ele>156</ele><time>2026-04-07T07:18:10Z</time></trkpt>
<trkpt lat="43.2561870000" lon="-1.0705320000"><ele>156</ele><time>2026-04-07T07:18:12Z</time></trkpt>
<trkpt lat="43.2562070000" lon="-1.0705220000"><ele>156</ele><time>2026-04-07T07:18:14Z</time></trkpt>
<trkpt lat="43.2562270000" lon="-1.0705170000"><ele>156</ele><time>2026-04-07T07:18:16Z</time></trkpt>
<trkpt lat="43.2562520000" lon="-1.0705100000"><ele>156</ele><time>2026-04-07T07:18:18Z</time></trkpt>
<trkpt lat="43.2562720000" lon="-1.0705050000"><ele>156</ele><time>2026-04-07T07:18:20Z</time></trkpt>
<trkpt lat="43.2562950000" lon="-1.0705000000"><ele>156</ele><time>2026-04-07T07:18:22Z</time></trkpt>
<trkpt lat="43.2563150000" lon="-1.0704920000"><ele>155</ele><time>2026-04-07T07:18:24Z</time></trkpt>
<trkpt lat="43.2563370000" lon="-1.0704820000"><ele>155</ele><time>2026-04-07T07:18:27Z</time></trkpt>
<trkpt lat="43.2563570000" lon="-1.0704680000"><ele>155</ele><time>2026-04-07T07:18:29Z</time></trkpt>
<trkpt lat="43.2563750000" lon="-1.0704550000"><ele>155</ele><time>2026-04-07T07:18:32Z</time></trkpt>
<trkpt lat="43.2563920000" lon="-1.0704350000"><ele>155</ele><time>2026-04-07T07:18:35Z</time></trkpt>
<trkpt lat="43.2564070000" lon="-1.0704120000"><ele>154</ele><time>2026-04-07T07:18:37Z</time></trkpt>
<trkpt lat="43.2564220000" lon="-1.0703880000"><ele>154</ele><time>2026-04-07T07:18:45Z</time></trkpt>
<trkpt lat="43.2564320000" lon="-1.0703620000"><ele>154</ele><time>2026-04-07T07:18:47Z</time></trkpt>
<trkpt lat="43.2564370000" lon="-1.0703300000"><ele>154</ele><time>2026-04-07T07:18:49Z</time></trkpt>
<trkpt lat="43.2564450000" lon="-1.0702930000"><ele>154</ele><time>2026-04-07T07:18:51Z</time></trkpt>
<trkpt lat="43.2564420000" lon="-1.0702700000"><ele>154</ele><time>2026-04-07T07:18:53Z</time></trkpt>
<trkpt lat="43.2564450000" lon="-1.0702420000"><ele>153</ele><time>2026-04-07T07:19:37Z</time></trkpt>
<trkpt lat="43.2564270000" lon="-1.0702470000"><ele>153</ele><time>2026-04-07T07:19:41Z</time></trkpt>
<trkpt lat="43.2564270000" lon="-1.0702720000"><ele>153</ele><time>2026-04-07T07:19:43Z</time></trkpt>
<trkpt lat="43.2564300000" lon="-1.0703020000"><ele>153</ele><time>2026-04-07T07:19:45Z</time></trkpt>
<trkpt lat="43.2564350000" lon="-1.0703320000"><ele>153</ele><time>2026-04-07T07:19:48Z</time></trkpt>
<trkpt lat="43.2564520000" lon="-1.0703600000"><ele>153</ele><time>2026-04-07T07:19:51Z</time></trkpt>
<trkpt lat="43.2564750000" lon="-1.0703770000"><ele>154</ele><time>2026-04-07T07:19:53Z</time></trkpt>
<trkpt lat="43.2565000000" lon="-1.0703870000"><ele>154</ele><time>2026-04-07T07:19:55Z</time></trkpt>
<trkpt lat="43.2565220000" lon="-1.0703970000"><ele>153</ele><time>2026-04-07T07:19:57Z</time></trkpt>
<trkpt lat="43.2565420000" lon="-1.0703970000"><ele>153</ele><time>2026-04-07T07:19:59Z</time></trkpt>
<trkpt lat="43.2565620000" lon="-1.0703920000"><ele>153</ele><time>2026-04-07T07:20:01Z</time></trkpt>
<trkpt lat="43.2565820000" lon="-1.0703920000"><ele>153</ele><time>2026-04-07T07:20:04Z</time></trkpt>
<trkpt lat="43.2565950000" lon="-1.0703670000"><ele>153</ele><time>2026-04-07T07:20:29Z</time></trkpt>
<trkpt lat="43.2566120000" lon="-1.0703520000"><ele>153</ele><time>2026-04-07T07:20:32Z</time></trkpt>
<trkpt lat="43.2566370000" lon="-1.0703370000"><ele>152</ele><time>2026-04-07T07:20:38Z</time></trkpt>
<trkpt lat="43.2566620000" lon="-1.0703270000"><ele>152</ele><time>2026-04-07T07:20:40Z</time></trkpt>
<trkpt lat="43.2566820000" lon="-1.0703170000"><ele>152</ele><time>2026-04-07T07:20:42Z</time></trkpt>
<trkpt lat="43.2567070000" lon="-1.0703070000"><ele>152</ele><time>2026-04-07T07:20:44Z</time></trkpt>
<trkpt lat="43.2567350000" lon="-1.0702970000"><ele>152</ele><time>2026-04-07T07:20:46Z</time></trkpt>
<trkpt lat="43.2567620000" lon="-1.0702850000"><ele>151</ele><time>2026-04-07T07:20:48Z</time></trkpt>
<trkpt lat="43.2567920000" lon="-1.0702700000"><ele>151</ele><time>2026-04-07T07:20:50Z</time></trkpt>
<trkpt lat="43.2568170000" lon="-1.0702620000"><ele>151</ele><time>2026-04-07T07:20:52Z</time></trkpt>
<trkpt lat="43.2568420000" lon="-1.0702520000"><ele>151</ele><time>2026-04-07T07:20:54Z</time></trkpt>
<trkpt lat="43.2568620000" lon="-1.0702420000"><ele>151</ele><time>2026-04-07T07:20:56Z</time></trkpt>
<trkpt lat="43.2568850000" lon="-1.0702370000"><ele>151</ele><time>2026-04-07T07:21:00Z</time></trkpt>
<trkpt lat="43.2569050000" lon="-1.0702270000"><ele>150</ele><time>2026-04-07T07:21:02Z</time></trkpt>
<trkpt lat="43.2569250000" lon="-1.0702170000"><ele>150</ele><time>2026-04-07T07:21:04Z</time></trkpt>
<trkpt lat="43.2569470000" lon="-1.0701970000"><ele>150</ele><time>2026-04-07T07:21:07Z</time></trkpt>
<trkpt lat="43.2569720000" lon="-1.0701900000"><ele>150</ele><time>2026-04-07T07:21:09Z</time></trkpt>
<trkpt lat="43.2569970000" lon="-1.0701820000"><ele>150</ele><time>2026-04-07T07:21:11Z</time></trkpt>
<trkpt lat="43.2570220000" lon="-1.0701720000"><ele>149</ele><time>2026-04-07T07:21:13Z</time></trkpt>
<trkpt lat="43.2570570000" lon="-1.0701670000"><ele>149</ele><time>2026-04-07T07:21:15Z</time></trkpt>
<trkpt lat="43.2570830000" lon="-1.0701570000"><ele>149</ele><time>2026-04-07T07:21:17Z</time></trkpt>
<trkpt lat="43.2571070000" lon="-1.0701470000"><ele>149</ele><time>2026-04-07T07:21:19Z</time></trkpt>
<trkpt lat="43.2571270000" lon="-1.0701370000"><ele>149</ele><time>2026-04-07T07:21:21Z</time></trkpt>
<trkpt lat="43.2571450000" lon="-1.0701250000"><ele>148</ele><time>2026-04-07T07:21:23Z</time></trkpt>
<trkpt lat="43.2571670000" lon="-1.0701180000"><ele>148</ele><time>2026-04-07T07:21:25Z</time></trkpt>
<trkpt lat="43.2571870000" lon="-1.0701170000"><ele>148</ele><time>2026-04-07T07:21:26Z</time></trkpt>
<trkpt lat="43.2572070000" lon="-1.0701170000"><ele>148</ele><time>2026-04-07T07:21:27Z</time></trkpt>
<trkpt lat="43.2572270000" lon="-1.0701170000"><ele>148</ele><time>2026-04-07T07:21:28Z</time></trkpt>
<trkpt lat="43.2572620000" lon="-1.0701120000"><ele>148</ele><time>2026-04-07T07:21:30Z</time></trkpt>
<trkpt lat="43.2572820000" lon="-1.0700970000"><ele>147</ele><time>2026-04-07T07:21:37Z</time></trkpt>
<trkpt lat="43.2573020000" lon="-1.0700970000"><ele>147</ele><time>2026-04-07T07:21:39Z</time></trkpt>
<trkpt lat="43.2573200000" lon="-1.0700970000"><ele>147</ele><time>2026-04-07T07:21:41Z</time></trkpt>
<trkpt lat="43.2573420000" lon="-1.0700970000"><ele>147</ele><time>2026-04-07T07:21:43Z</time></trkpt>
<trkpt lat="43.2573650000" lon="-1.0700950000"><ele>147</ele><time>2026-04-07T07:21:45Z</time></trkpt>
<trkpt lat="43.2573850000" lon="-1.0700920000"><ele>147</ele><time>2026-04-07T07:21:47Z</time></trkpt>
<trkpt lat="43.2574120000" lon="-1.0700970000"><ele>147</ele><time>2026-04-07T07:21:50Z</time></trkpt>
<trkpt lat="43.2574320000" lon="-1.0701000000"><ele>147</ele><time>2026-04-07T07:21:52Z</time></trkpt>
<trkpt lat="43.2574570000" lon="-1.0701050000"><ele>146</ele><time>2026-04-07T07:21:54Z</time></trkpt>
<trkpt lat="43.2574820000" lon="-1.0701070000"><ele>146</ele><time>2026-04-07T07:21:56Z</time></trkpt>
<trkpt lat="43.2575020000" lon="-1.0701120000"><ele>146</ele><time>2026-04-07T07:21:58Z</time></trkpt>
<trkpt lat="43.2575250000" lon="-1.0701170000"><ele>146</ele><time>2026-04-07T07:22:00Z</time></trkpt>
<trkpt lat="43.2575470000" lon="-1.0701220000"><ele>146</ele><time>2026-04-07T07:22:02Z</time></trkpt>
<trkpt lat="43.2575670000" lon="-1.0701250000"><ele>146</ele><time>2026-04-07T07:22:04Z</time></trkpt>
<trkpt lat="43.2575870000" lon="-1.0701300000"><ele>145</ele><time>2026-04-07T07:22:06Z</time></trkpt>
<trkpt lat="43.2576120000" lon="-1.0701270000"><ele>145</ele><time>2026-04-07T07:22:08Z</time></trkpt>
<trkpt lat="43.2576370000" lon="-1.0701300000"><ele>145</ele><time>2026-04-07T07:22:10Z</time></trkpt>
<trkpt lat="43.2576620000" lon="-1.0701320000"><ele>145</ele><time>2026-04-07T07:22:12Z</time></trkpt>
<trkpt lat="43.2576870000" lon="-1.0701320000"><ele>145</ele><time>2026-04-07T07:22:14Z</time></trkpt>
<trkpt lat="43.2577120000" lon="-1.0701300000"><ele>145</ele><time>2026-04-07T07:22:16Z</time></trkpt>
<trkpt lat="43.2577370000" lon="-1.0701300000"><ele>145</ele><time>2026-04-07T07:22:18Z</time></trkpt>
<trkpt lat="43.2577620000" lon="-1.0701270000"><ele>145</ele><time>2026-04-07T07:22:20Z</time></trkpt>
<trkpt lat="43.2577870000" lon="-1.0701270000"><ele>145</ele><time>2026-04-07T07:22:22Z</time></trkpt>
<trkpt lat="43.2578000000" lon="-1.0701450000"><ele>144</ele><time>2026-04-07T07:22:26Z</time></trkpt>
<trkpt lat="43.2578000000" lon="-1.0701700000"><ele>144</ele><time>2026-04-07T07:22:33Z</time></trkpt>
<trkpt lat="43.2578220000" lon="-1.0701570000"><ele>144</ele><time>2026-04-07T07:22:39Z</time></trkpt>
<trkpt lat="43.2578550000" lon="-1.0701470000"><ele>144</ele><time>2026-04-07T07:22:41Z</time></trkpt>
<trkpt lat="43.2578870000" lon="-1.0701420000"><ele>144</ele><time>2026-04-07T07:22:43Z</time></trkpt>
<trkpt lat="43.2579120000" lon="-1.0701370000"><ele>144</ele><time>2026-04-07T07:22:45Z</time></trkpt>
<trkpt lat="43.2579350000" lon="-1.0701300000"><ele>144</ele><time>2026-04-07T07:22:47Z</time></trkpt>
<trkpt lat="43.2579550000" lon="-1.0701220000"><ele>143</ele><time>2026-04-07T07:22:49Z</time></trkpt>
<trkpt lat="43.2579770000" lon="-1.0701130000"><ele>143</ele><time>2026-04-07T07:22:51Z</time></trkpt>
<trkpt lat="43.2580000000" lon="-1.0701050000"><ele>143</ele><time>2026-04-07T07:22:53Z</time></trkpt>
<trkpt lat="43.2580200000" lon="-1.0700950000"><ele>143</ele><time>2026-04-07T07:22:55Z</time></trkpt>
<trkpt lat="43.2580370000" lon="-1.0700820000"><ele>143</ele><time>2026-04-07T07:22:57Z</time></trkpt>
<trkpt lat="43.2580570000" lon="-1.0700720000"><ele>142</ele><time>2026-04-07T07:23:04Z</time></trkpt>
<trkpt lat="43.2580750000" lon="-1.0700620000"><ele>142</ele><time>2026-04-07T07:23:06Z</time></trkpt>
<trkpt lat="43.2581000000" lon="-1.0700600000"><ele>142</ele><time>2026-04-07T07:23:08Z</time></trkpt>
<trkpt lat="43.2581170000" lon="-1.0700520000"><ele>142</ele><time>2026-04-07T07:23:10Z</time></trkpt>
<trkpt lat="43.2581450000" lon="-1.0700400000"><ele>141</ele><time>2026-04-07T07:23:13Z</time></trkpt>
<trkpt lat="43.2581620000" lon="-1.0700370000"><ele>141</ele><time>2026-04-07T07:23:15Z</time></trkpt>
<trkpt lat="43.2581820000" lon="-1.0700270000"><ele>141</ele><time>2026-04-07T07:23:34Z</time></trkpt>
<trkpt lat="43.2582080000" lon="-1.0700120000"><ele>141</ele><time>2026-04-07T07:23:36Z</time></trkpt>
<trkpt lat="43.2582420000" lon="-1.0700070000"><ele>141</ele><time>2026-04-07T07:23:38Z</time></trkpt>
<trkpt lat="43.2582720000" lon="-1.0699970000"><ele>140</ele><time>2026-04-07T07:23:40Z</time></trkpt>
<trkpt lat="43.2582920000" lon="-1.0699870000"><ele>140</ele><time>2026-04-07T07:23:42Z</time></trkpt>
<trkpt lat="43.2583070000" lon="-1.0699770000"><ele>140</ele><time>2026-04-07T07:23:44Z</time></trkpt>
<trkpt lat="43.2583270000" lon="-1.0699700000"><ele>140</ele><time>2026-04-07T07:23:46Z</time></trkpt>
<trkpt lat="43.2583470000" lon="-1.0699650000"><ele>140</ele><time>2026-04-07T07:23:49Z</time></trkpt>
<trkpt lat="43.2583720000" lon="-1.0699570000"><ele>140</ele><time>2026-04-07T07:23:51Z</time></trkpt>
<trkpt lat="43.2583920000" lon="-1.0699520000"><ele>140</ele><time>2026-04-07T07:23:53Z</time></trkpt>
<trkpt lat="43.2584200000" lon="-1.0699420000"><ele>140</ele><time>2026-04-07T07:23:55Z</time></trkpt>
<trkpt lat="43.2584420000" lon="-1.0699320000"><ele>140</ele><time>2026-04-07T07:23:57Z</time></trkpt>
<trkpt lat="43.2584620000" lon="-1.0699170000"><ele>140</ele><time>2026-04-07T07:23:59Z</time></trkpt>
<trkpt lat="43.2584820000" lon="-1.0699070000"><ele>140</ele><time>2026-04-07T07:24:01Z</time></trkpt>
<trkpt lat="43.2585020000" lon="-1.0699000000"><ele>139</ele><time>2026-04-07T07:24:03Z</time></trkpt>
<trkpt lat="43.2585220000" lon="-1.0698880000"><ele>139</ele><time>2026-04-07T07:24:05Z</time></trkpt>
<trkpt lat="43.2585420000" lon="-1.0698770000"><ele>139</ele><time>2026-04-07T07:24:07Z</time></trkpt>
<trkpt lat="43.2585620000" lon="-1.0698670000"><ele>139</ele><time>2026-04-07T07:24:09Z</time></trkpt>
<trkpt lat="43.2585870000" lon="-1.0698520000"><ele>139</ele><time>2026-04-07T07:24:11Z</time></trkpt>
<trkpt lat="43.2586020000" lon="-1.0698370000"><ele>139</ele><time>2026-04-07T07:24:13Z</time></trkpt>
<trkpt lat="43.2586200000" lon="-1.0698220000"><ele>138</ele><time>2026-04-07T07:24:15Z</time></trkpt>
<trkpt lat="43.2586370000" lon="-1.0698070000"><ele>138</ele><time>2026-04-07T07:24:17Z</time></trkpt>
<trkpt lat="43.2586570000" lon="-1.0697870000"><ele>138</ele><time>2026-04-07T07:24:19Z</time></trkpt>
<trkpt lat="43.2586770000" lon="-1.0697670000"><ele>138</ele><time>2026-04-07T07:24:21Z</time></trkpt>
<trkpt lat="43.2587020000" lon="-1.0697500000"><ele>138</ele><time>2026-04-07T07:24:23Z</time></trkpt>
<trkpt lat="43.2587200000" lon="-1.0697320000"><ele>138</ele><time>2026-04-07T07:24:25Z</time></trkpt>
<trkpt lat="43.2587370000" lon="-1.0697130000"><ele>138</ele><time>2026-04-07T07:24:27Z</time></trkpt>
<trkpt lat="43.2587520000" lon="-1.0696920000"><ele>138</ele><time>2026-04-07T07:24:29Z</time></trkpt>
<trkpt lat="43.2587720000" lon="-1.0696720000"><ele>138</ele><time>2026-04-07T07:24:31Z</time></trkpt>
<trkpt lat="43.2587950000" lon="-1.0696450000"><ele>138</ele><time>2026-04-07T07:24:33Z</time></trkpt>
<trkpt lat="43.2588120000" lon="-1.0696180000"><ele>138</ele><time>2026-04-07T07:24:35Z</time></trkpt>
<trkpt lat="43.2588270000" lon="-1.0695920000"><ele>138</ele><time>2026-04-07T07:24:37Z</time></trkpt>
<trkpt lat="43.2588420000" lon="-1.0695670000"><ele>138</ele><time>2026-04-07T07:24:39Z</time></trkpt>
<trkpt lat="43.2588570000" lon="-1.0695380000"><ele>138</ele><time>2026-04-07T07:24:41Z</time></trkpt>
<trkpt lat="43.2588720000" lon="-1.0695120000"><ele>138</ele><time>2026-04-07T07:24:43Z</time></trkpt>
<trkpt lat="43.2588900000" lon="-1.0694830000"><ele>138</ele><time>2026-04-07T07:24:45Z</time></trkpt>
<trkpt lat="43.2589020000" lon="-1.0694570000"><ele>138</ele><time>2026-04-07T07:24:47Z</time></trkpt>
<trkpt lat="43.2589150000" lon="-1.0694270000"><ele>138</ele><time>2026-04-07T07:24:49Z</time></trkpt>
<trkpt lat="43.2589220000" lon="-1.0693980000"><ele>138</ele><time>2026-04-07T07:24:51Z</time></trkpt>
<trkpt lat="43.2589270000" lon="-1.0693720000"><ele>138</ele><time>2026-04-07T07:24:53Z</time></trkpt>
<trkpt lat="43.2589300000" lon="-1.0693420000"><ele>138</ele><time>2026-04-07T07:24:55Z</time></trkpt>
<trkpt lat="43.2589370000" lon="-1.0693170000"><ele>138</ele><time>2026-04-07T07:24:57Z</time></trkpt>
<trkpt lat="43.2589470000" lon="-1.0692900000"><ele>138</ele><time>2026-04-07T07:24:59Z</time></trkpt>
<trkpt lat="43.2589570000" lon="-1.0692670000"><ele>139</ele><time>2026-04-07T07:25:01Z</time></trkpt>
<trkpt lat="43.2589820000" lon="-1.0692420000"><ele>139</ele><time>2026-04-07T07:25:03Z</time></trkpt>
<trkpt lat="43.2590020000" lon="-1.0692320000"><ele>139</ele><time>2026-04-07T07:25:05Z</time></trkpt>
<trkpt lat="43.2590020000" lon="-1.0691870000"><ele>139</ele><time>2026-04-07T07:26:02Z</time></trkpt>
<trkpt lat="43.2590070000" lon="-1.0691620000"><ele>139</ele><time>2026-04-07T07:26:03Z</time></trkpt>
<trkpt lat="43.2590170000" lon="-1.0691200000"><ele>139</ele><time>2026-04-07T07:26:05Z</time></trkpt>
<trkpt lat="43.2590270000" lon="-1.0690920000"><ele>139</ele><time>2026-04-07T07:26:07Z</time></trkpt>
<trkpt lat="43.2590350000" lon="-1.0690570000"><ele>139</ele><time>2026-04-07T07:26:09Z</time></trkpt>
<trkpt lat="43.2590400000" lon="-1.0690170000"><ele>139</ele><time>2026-04-07T07:26:11Z</time></trkpt>
<trkpt lat="43.2590520000" lon="-1.0689820000"><ele>139</ele><time>2026-04-07T07:26:13Z</time></trkpt>
<trkpt lat="43.2590670000" lon="-1.0689500000"><ele>139</ele><time>2026-04-07T07:26:15Z</time></trkpt>
<trkpt lat="43.2590770000" lon="-1.0689170000"><ele>140</ele><time>2026-04-07T07:26:17Z</time></trkpt>
<trkpt lat="43.2590920000" lon="-1.0688870000"><ele>140</ele><time>2026-04-07T07:26:19Z</time></trkpt>
<trkpt lat="43.2591050000" lon="-1.0688550000"><ele>140</ele><time>2026-04-07T07:26:21Z</time></trkpt>
<trkpt lat="43.2591120000" lon="-1.0688230000"><ele>140</ele><time>2026-04-07T07:26:23Z</time></trkpt>
<trkpt lat="43.2591270000" lon="-1.0687920000"><ele>140</ele><time>2026-04-07T07:26:25Z</time></trkpt>
<trkpt lat="43.2591470000" lon="-1.0687570000"><ele>140</ele><time>2026-04-07T07:26:27Z</time></trkpt>
<trkpt lat="43.2591670000" lon="-1.0687370000"><ele>140</ele><time>2026-04-07T07:26:29Z</time></trkpt>
<trkpt lat="43.2591820000" lon="-1.0687180000"><ele>140</ele><time>2026-04-07T07:26:33Z</time></trkpt>
<trkpt lat="43.2591930000" lon="-1.0686920000"><ele>141</ele><time>2026-04-07T07:26:35Z</time></trkpt>
<trkpt lat="43.2592070000" lon="-1.0686600000"><ele>141</ele><time>2026-04-07T07:26:37Z</time></trkpt>
<trkpt lat="43.2592070000" lon="-1.0686220000"><ele>141</ele><time>2026-04-07T07:26:39Z</time></trkpt>
<trkpt lat="43.2592150000" lon="-1.0685880000"><ele>141</ele><time>2026-04-07T07:26:41Z</time></trkpt>
<trkpt lat="43.2592170000" lon="-1.0685570000"><ele>141</ele><time>2026-04-07T07:26:43Z</time></trkpt>
<trkpt lat="43.2592270000" lon="-1.0685270000"><ele>141</ele><time>2026-04-07T07:26:45Z</time></trkpt>
<trkpt lat="43.2592350000" lon="-1.0685020000"><ele>141</ele><time>2026-04-07T07:26:47Z</time></trkpt>
<trkpt lat="43.2592420000" lon="-1.0684720000"><ele>141</ele><time>2026-04-07T07:26:49Z</time></trkpt>
<trkpt lat="43.2592500000" lon="-1.0684420000"><ele>141</ele><time>2026-04-07T07:26:51Z</time></trkpt>
<trkpt lat="43.2592600000" lon="-1.0684120000"><ele>142</ele><time>2026-04-07T07:26:53Z</time></trkpt>
<trkpt lat="43.2592670000" lon="-1.0683800000"><ele>142</ele><time>2026-04-07T07:26:55Z</time></trkpt>
<trkpt lat="43.2592720000" lon="-1.0683470000"><ele>142</ele><time>2026-04-07T07:26:57Z</time></trkpt>
<trkpt lat="43.2592780000" lon="-1.0683170000"><ele>142</ele><time>2026-04-07T07:26:59Z</time></trkpt>
<trkpt lat="43.2592870000" lon="-1.0682900000"><ele>142</ele><time>2026-04-07T07:27:01Z</time></trkpt>
<trkpt lat="43.2592970000" lon="-1.0682650000"><ele>142</ele><time>2026-04-07T07:27:03Z</time></trkpt>
<trkpt lat="43.2593020000" lon="-1.0682400000"><ele>143</ele><time>2026-04-07T07:27:05Z</time></trkpt>
<trkpt lat="43.2593120000" lon="-1.0682170000"><ele>143</ele><time>2026-04-07T07:27:07Z</time></trkpt>
<trkpt lat="43.2593200000" lon="-1.0681830000"><ele>143</ele><time>2026-04-07T07:27:09Z</time></trkpt>
<trkpt lat="43.2593270000" lon="-1.0681520000"><ele>143</ele><time>2026-04-07T07:27:11Z</time></trkpt>
<trkpt lat="43.2593320000" lon="-1.0681220000"><ele>143</ele><time>2026-04-07T07:27:13Z</time></trkpt>
<trkpt lat="43.2593420000" lon="-1.0680870000"><ele>143</ele><time>2026-04-07T07:27:15Z</time></trkpt>
<trkpt lat="43.2593520000" lon="-1.0680570000"><ele>144</ele><time>2026-04-07T07:27:17Z</time></trkpt>
<trkpt lat="43.2593600000" lon="-1.0680320000"><ele>144</ele><time>2026-04-07T07:27:19Z</time></trkpt>
<trkpt lat="43.2593670000" lon="-1.0680020000"><ele>144</ele><time>2026-04-07T07:27:21Z</time></trkpt>
<trkpt lat="43.2593720000" lon="-1.0679700000"><ele>144</ele><time>2026-04-07T07:27:23Z</time></trkpt>
<trkpt lat="43.2593770000" lon="-1.0679420000"><ele>144</ele><time>2026-04-07T07:27:25Z</time></trkpt>
<trkpt lat="43.2593820000" lon="-1.0679070000"><ele>144</ele><time>2026-04-07T07:27:28Z</time></trkpt>
<trkpt lat="43.2593850000" lon="-1.0678770000"><ele>145</ele><time>2026-04-07T07:27:30Z</time></trkpt>
<trkpt lat="43.2593900000" lon="-1.0678470000"><ele>145</ele><time>2026-04-07T07:27:32Z</time></trkpt>
<trkpt lat="43.2593920000" lon="-1.0678220000"><ele>145</ele><time>2026-04-07T07:27:34Z</time></trkpt>
<trkpt lat="43.2594050000" lon="-1.0677920000"><ele>145</ele><time>2026-04-07T07:27:36Z</time></trkpt>
<trkpt lat="43.2594220000" lon="-1.0677600000"><ele>145</ele><time>2026-04-07T07:27:38Z</time></trkpt>
<trkpt lat="43.2594370000" lon="-1.0677320000"><ele>146</ele><time>2026-04-07T07:27:40Z</time></trkpt>
<trkpt lat="43.2594520000" lon="-1.0677030000"><ele>146</ele><time>2026-04-07T07:27:42Z</time></trkpt>
<trkpt lat="43.2594650000" lon="-1.0676770000"><ele>146</ele><time>2026-04-07T07:27:44Z</time></trkpt>
<trkpt lat="43.2594720000" lon="-1.0676520000"><ele>146</ele><time>2026-04-07T07:27:46Z</time></trkpt>
<trkpt lat="43.2594820000" lon="-1.0676270000"><ele>147</ele><time>2026-04-07T07:27:48Z</time></trkpt>
<trkpt lat="43.2594900000" lon="-1.0676020000"><ele>147</ele><time>2026-04-07T07:27:50Z</time></trkpt>
<trkpt lat="43.2594970000" lon="-1.0675770000"><ele>147</ele><time>2026-04-07T07:27:52Z</time></trkpt>
<trkpt lat="43.2595020000" lon="-1.0675470000"><ele>147</ele><time>2026-04-07T07:27:55Z</time></trkpt>
<trkpt lat="43.2595070000" lon="-1.0675220000"><ele>148</ele><time>2026-04-07T07:27:57Z</time></trkpt>
<trkpt lat="43.2595170000" lon="-1.0674900000"><ele>148</ele><time>2026-04-07T07:28:00Z</time></trkpt>
<trkpt lat="43.2595300000" lon="-1.0674620000"><ele>148</ele><time>2026-04-07T07:28:02Z</time></trkpt>
<trkpt lat="43.2595350000" lon="-1.0674320000"><ele>149</ele><time>2026-04-07T07:28:04Z</time></trkpt>
<trkpt lat="43.2595420000" lon="-1.0674050000"><ele>149</ele><time>2026-04-07T07:28:06Z</time></trkpt>
<trkpt lat="43.2595550000" lon="-1.0673770000"><ele>149</ele><time>2026-04-07T07:28:08Z</time></trkpt>
<trkpt lat="43.2595620000" lon="-1.0673500000"><ele>149</ele><time>2026-04-07T07:28:10Z</time></trkpt>
<trkpt lat="43.2595720000" lon="-1.0673220000"><ele>150</ele><time>2026-04-07T07:28:12Z</time></trkpt>
<trkpt lat="43.2595730000" lon="-1.0672920000"><ele>150</ele><time>2026-04-07T07:28:14Z</time></trkpt>
<trkpt lat="43.2595800000" lon="-1.0672670000"><ele>150</ele><time>2026-04-07T07:28:16Z</time></trkpt>
<trkpt lat="43.2595870000" lon="-1.0672380000"><ele>151</ele><time>2026-04-07T07:28:18Z</time></trkpt>
<trkpt lat="43.2595920000" lon="-1.0672150000"><ele>151</ele><time>2026-04-07T07:28:20Z</time></trkpt>
<trkpt lat="43.2595920000" lon="-1.0671850000"><ele>151</ele><time>2026-04-07T07:28:22Z</time></trkpt>
<trkpt lat="43.2595970000" lon="-1.0671600000"><ele>151</ele><time>2026-04-07T07:28:24Z</time></trkpt>
<trkpt lat="43.2596000000" lon="-1.0671350000"><ele>151</ele><time>2026-04-07T07:28:26Z</time></trkpt>
<trkpt lat="43.2596000000" lon="-1.0671070000"><ele>151</ele><time>2026-04-07T07:28:28Z</time></trkpt>
<trkpt lat="43.2596000000" lon="-1.0670820000"><ele>152</ele><time>2026-04-07T07:28:30Z</time></trkpt>
<trkpt lat="43.2596000000" lon="-1.0670550000"><ele>152</ele><time>2026-04-07T07:28:32Z</time></trkpt>
<trkpt lat="43.2595920000" lon="-1.0670280000"><ele>152</ele><time>2026-04-07T07:28:34Z</time></trkpt>
<trkpt lat="43.2595950000" lon="-1.0669920000"><ele>153</ele><time>2026-04-07T07:28:37Z</time></trkpt>
<trkpt lat="43.2596000000" lon="-1.0669600000"><ele>153</ele><time>2026-04-07T07:28:40Z</time></trkpt>
<trkpt lat="43.2596020000" lon="-1.0669320000"><ele>153</ele><time>2026-04-07T07:28:43Z</time></trkpt>
<trkpt lat="43.2596100000" lon="-1.0669050000"><ele>154</ele><time>2026-04-07T07:28:47Z</time></trkpt>
<trkpt lat="43.2596120000" lon="-1.0668700000"><ele>154</ele><time>2026-04-07T07:28:49Z</time></trkpt>
<trkpt lat="43.2596170000" lon="-1.0668300000"><ele>154</ele><time>2026-04-07T07:28:51Z</time></trkpt>
<trkpt lat="43.2596270000" lon="-1.0667920000"><ele>155</ele><time>2026-04-07T07:28:53Z</time></trkpt>
<trkpt lat="43.2596270000" lon="-1.0667650000"><ele>155</ele><time>2026-04-07T07:28:55Z</time></trkpt>
<trkpt lat="43.2596270000" lon="-1.0667350000"><ele>155</ele><time>2026-04-07T07:28:57Z</time></trkpt>
<trkpt lat="43.2596220000" lon="-1.0667070000"><ele>156</ele><time>2026-04-07T07:29:04Z</time></trkpt>
<trkpt lat="43.2596070000" lon="-1.0666820000"><ele>156</ele><time>2026-04-07T07:29:08Z</time></trkpt>
<trkpt lat="43.2595900000" lon="-1.0666630000"><ele>156</ele><time>2026-04-07T07:29:13Z</time></trkpt>
<trkpt lat="43.2595720000" lon="-1.0666470000"><ele>157</ele><time>2026-04-07T07:29:16Z</time></trkpt>
<trkpt lat="43.2595620000" lon="-1.0666170000"><ele>157</ele><time>2026-04-07T07:29:18Z</time></trkpt>
<trkpt lat="43.2595420000" lon="-1.0666050000"><ele>157</ele><time>2026-04-07T07:30:00Z</time></trkpt>
<trkpt lat="43.2595420000" lon="-1.0666300000"><ele>157</ele><time>2026-04-07T07:30:10Z</time></trkpt>
<trkpt lat="43.2595220000" lon="-1.0666170000"><ele>157</ele><time>2026-04-07T07:30:24Z</time></trkpt>
<trkpt lat="43.2595020000" lon="-1.0665900000"><ele>157</ele><time>2026-04-07T07:30:26Z</time></trkpt>
<trkpt lat="43.2594870000" lon="-1.0665670000"><ele>157</ele><time>2026-04-07T07:30:28Z</time></trkpt>
<trkpt lat="43.2595030000" lon="-1.0665650000"><ele>157</ele><time>2026-04-07T07:31:02Z</time></trkpt>
<trkpt lat="43.2595250000" lon="-1.0665570000"><ele>157</ele><time>2026-04-07T07:31:03Z</time></trkpt>
<trkpt lat="43.2595500000" lon="-1.0665470000"><ele>157</ele><time>2026-04-07T07:31:04Z</time></trkpt>
<trkpt lat="43.2595700000" lon="-1.0665370000"><ele>157</ele><time>2026-04-07T07:31:05Z</time></trkpt>
<trkpt lat="43.2595920000" lon="-1.0665320000"><ele>157</ele><time>2026-04-07T07:31:07Z</time></trkpt>
<trkpt lat="43.2596120000" lon="-1.0665500000"><ele>157</ele><time>2026-04-07T07:31:09Z</time></trkpt>
<trkpt lat="43.2595950000" lon="-1.0665680000"><ele>156</ele><time>2026-04-07T07:32:14Z</time></trkpt>
<trkpt lat="43.2595820000" lon="-1.0666020000"><ele>156</ele><time>2026-04-07T07:32:16Z</time></trkpt>
<trkpt lat="43.2595800000" lon="-1.0666270000"><ele>156</ele><time>2026-04-07T07:32:20Z</time></trkpt>
<trkpt lat="43.2595820000" lon="-1.0666020000"><ele>156</ele><time>2026-04-07T07:33:30Z</time></trkpt>
<trkpt lat="43.2595700000" lon="-1.0665670000"><ele>156</ele><time>2026-04-07T07:33:32Z</time></trkpt>
<trkpt lat="43.2595620000" lon="-1.0665400000"><ele>156</ele><time>2026-04-07T07:33:34Z</time></trkpt>
<trkpt lat="43.2595520000" lon="-1.0665100000"><ele>157</ele><time>2026-04-07T07:33:37Z</time></trkpt>
<trkpt lat="43.2595720000" lon="-1.0665120000"><ele>157</ele><time>2026-04-07T07:33:39Z</time></trkpt>
<trkpt lat="43.2595870000" lon="-1.0665270000"><ele>157</ele><time>2026-04-07T07:33:44Z</time></trkpt>
<trkpt lat="43.2595720000" lon="-1.0665100000"><ele>157</ele><time>2026-04-07T07:33:52Z</time></trkpt>
<trkpt lat="43.2595620000" lon="-1.0664820000"><ele>158</ele><time>2026-04-07T07:34:01Z</time></trkpt>
<trkpt lat="43.2595500000" lon="-1.0664470000"><ele>158</ele><time>2026-04-07T07:34:03Z</time></trkpt>
<trkpt lat="43.2595400000" lon="-1.0664220000"><ele>158</ele><time>2026-04-07T07:34:04Z</time></trkpt>
<trkpt lat="43.2595270000" lon="-1.0664000000"><ele>158</ele><time>2026-04-07T07:34:05Z</time></trkpt>
<trkpt lat="43.2595170000" lon="-1.0663770000"><ele>158</ele><time>2026-04-07T07:34:06Z</time></trkpt>
<trkpt lat="43.2594970000" lon="-1.0663420000"><ele>159</ele><time>2026-04-07T07:34:08Z</time></trkpt>
<trkpt lat="43.2594800000" lon="-1.0663170000"><ele>159</ele><time>2026-04-07T07:34:10Z</time></trkpt>
<trkpt lat="43.2594700000" lon="-1.0662900000"><ele>159</ele><time>2026-04-07T07:34:13Z</time></trkpt>
<trkpt lat="43.2594670000" lon="-1.0662620000"><ele>159</ele><time>2026-04-07T07:34:16Z</time></trkpt>
<trkpt lat="43.2594570000" lon="-1.0662320000"><ele>159</ele><time>2026-04-07T07:34:19Z</time></trkpt>
<trkpt lat="43.2594450000" lon="-1.0662050000"><ele>160</ele><time>2026-04-07T07:34:21Z</time></trkpt>
<trkpt lat="43.2594320000" lon="-1.0661850000"><ele>160</ele><time>2026-04-07T07:34:23Z</time></trkpt>
<trkpt lat="43.2594220000" lon="-1.0661550000"><ele>160</ele><time>2026-04-07T07:34:25Z</time></trkpt>
<trkpt lat="43.2594170000" lon="-1.0661230000"><ele>160</ele><time>2026-04-07T07:34:27Z</time></trkpt>
<trkpt lat="43.2593970000" lon="-1.0661120000"><ele>160</ele><time>2026-04-07T07:34:30Z</time></trkpt>
<trkpt lat="43.2593770000" lon="-1.0661350000"><ele>160</ele><time>2026-04-07T07:34:32Z</time></trkpt>
<trkpt lat="43.2593570000" lon="-1.0661520000"><ele>161</ele><time>2026-04-07T07:34:34Z</time></trkpt>
<trkpt lat="43.2593350000" lon="-1.0661570000"><ele>161</ele><time>2026-04-07T07:34:38Z</time></trkpt>
<trkpt lat="43.2593370000" lon="-1.0661270000"><ele>159</ele><time>2026-04-07T07:35:57Z</time></trkpt>
<trkpt lat="43.2593450000" lon="-1.0661050000"><ele>159</ele><time>2026-04-07T07:36:49Z</time></trkpt>
<trkpt lat="43.2593420000" lon="-1.0660720000"><ele>159</ele><time>2026-04-07T07:36:51Z</time></trkpt>
<trkpt lat="43.2593370000" lon="-1.0660350000"><ele>159</ele><time>2026-04-07T07:36:53Z</time></trkpt>
<trkpt lat="43.2593370000" lon="-1.0660000000"><ele>160</ele><time>2026-04-07T07:36:55Z</time></trkpt>
<trkpt lat="43.2593450000" lon="-1.0659670000"><ele>160</ele><time>2026-04-07T07:36:57Z</time></trkpt>
<trkpt lat="43.2593520000" lon="-1.0659370000"><ele>160</ele><time>2026-04-07T07:36:59Z</time></trkpt>
<trkpt lat="43.2593520000" lon="-1.0659070000"><ele>160</ele><time>2026-04-07T07:37:01Z</time></trkpt>
<trkpt lat="43.2593570000" lon="-1.0658770000"><ele>161</ele><time>2026-04-07T07:37:03Z</time></trkpt>
<trkpt lat="43.2593620000" lon="-1.0658420000"><ele>161</ele><time>2026-04-07T07:37:05Z</time></trkpt>
<trkpt lat="43.2593550000" lon="-1.0658130000"><ele>161</ele><time>2026-04-07T07:37:07Z</time></trkpt>
<trkpt lat="43.2593350000" lon="-1.0658200000"><ele>162</ele><time>2026-04-07T07:37:15Z</time></trkpt>
<trkpt lat="43.2593270000" lon="-1.0657920000"><ele>162</ele><time>2026-04-07T07:37:27Z</time></trkpt>
<trkpt lat="43.2593270000" lon="-1.0657550000"><ele>162</ele><time>2026-04-07T07:37:29Z</time></trkpt>
<trkpt lat="43.2593350000" lon="-1.0657120000"><ele>162</ele><time>2026-04-07T07:37:31Z</time></trkpt>
<trkpt lat="43.2593420000" lon="-1.0656670000"><ele>162</ele><time>2026-04-07T07:37:33Z</time></trkpt>
<trkpt lat="43.2593470000" lon="-1.0656300000"><ele>162</ele><time>2026-04-07T07:37:35Z</time></trkpt>
<trkpt lat="43.2593520000" lon="-1.0656000000"><ele>162</ele><time>2026-04-07T07:37:37Z</time></trkpt>
<trkpt lat="43.2593550000" lon="-1.0655650000"><ele>162</ele><time>2026-04-07T07:37:39Z</time></trkpt>
<trkpt lat="43.2593570000" lon="-1.0655300000"><ele>163</ele><time>2026-04-07T07:37:41Z</time></trkpt>
<trkpt lat="43.2593600000" lon="-1.0654870000"><ele>163</ele><time>2026-04-07T07:37:43Z</time></trkpt>
<trkpt lat="43.2593670000" lon="-1.0654620000"><ele>163</ele><time>2026-04-07T07:37:44Z</time></trkpt>
<trkpt lat="43.2593800000" lon="-1.0654250000"><ele>163</ele><time>2026-04-07T07:37:46Z</time></trkpt>
<trkpt lat="43.2593820000" lon="-1.0653870000"><ele>164</ele><time>2026-04-07T07:37:48Z</time></trkpt>
<trkpt lat="43.2593800000" lon="-1.0653520000"><ele>164</ele><time>2026-04-07T07:37:50Z</time></trkpt>
<trkpt lat="43.2593800000" lon="-1.0653220000"><ele>164</ele><time>2026-04-07T07:37:52Z</time></trkpt>
<trkpt lat="43.2593770000" lon="-1.0652900000"><ele>164</ele><time>2026-04-07T07:37:54Z</time></trkpt>
<trkpt lat="43.2593750000" lon="-1.0652600000"><ele>165</ele><time>2026-04-07T07:37:56Z</time></trkpt>
<trkpt lat="43.2593750000" lon="-1.0652270000"><ele>165</ele><time>2026-04-07T07:37:58Z</time></trkpt>
<trkpt lat="43.2593720000" lon="-1.0651970000"><ele>165</ele><time>2026-04-07T07:38:00Z</time></trkpt>
<trkpt lat="43.2593720000" lon="-1.0651620000"><ele>165</ele><time>2026-04-07T07:38:02Z</time></trkpt>
<trkpt lat="43.2593720000" lon="-1.0651270000"><ele>165</ele><time>2026-04-07T07:38:04Z</time></trkpt>
<trkpt lat="43.2593700000" lon="-1.0650930000"><ele>165</ele><time>2026-04-07T07:38:06Z</time></trkpt>
<trkpt lat="43.2593670000" lon="-1.0650620000"><ele>165</ele><time>2026-04-07T07:38:08Z</time></trkpt>
<trkpt lat="43.2593650000" lon="-1.0650300000"><ele>165</ele><time>2026-04-07T07:38:10Z</time></trkpt>
<trkpt lat="43.2593620000" lon="-1.0649950000"><ele>166</ele><time>2026-04-07T07:38:12Z</time></trkpt>
<trkpt lat="43.2593670000" lon="-1.0649620000"><ele>166</ele><time>2026-04-07T07:38:14Z</time></trkpt>
<trkpt lat="43.2593620000" lon="-1.0649270000"><ele>166</ele><time>2026-04-07T07:38:16Z</time></trkpt>
<trkpt lat="43.2593570000" lon="-1.0648970000"><ele>166</ele><time>2026-04-07T07:38:18Z</time></trkpt>
<trkpt lat="43.2593550000" lon="-1.0648630000"><ele>167</ele><time>2026-04-07T07:38:20Z</time></trkpt>
<trkpt lat="43.2593520000" lon="-1.0648320000"><ele>167</ele><time>2026-04-07T07:38:22Z</time></trkpt>
<trkpt lat="43.2593520000" lon="-1.0648020000"><ele>167</ele><time>2026-04-07T07:38:24Z</time></trkpt>
<trkpt lat="43.2593520000" lon="-1.0647650000"><ele>167</ele><time>2026-04-07T07:38:26Z</time></trkpt>
<trkpt lat="43.2593600000" lon="-1.0647250000"><ele>167</ele><time>2026-04-07T07:38:28Z</time></trkpt>
<trkpt lat="43.2593720000" lon="-1.0646920000"><ele>167</ele><time>2026-04-07T07:38:30Z</time></trkpt>
<trkpt lat="43.2593800000" lon="-1.0646600000"><ele>167</ele><time>2026-04-07T07:38:32Z</time></trkpt>
<trkpt lat="43.2593820000" lon="-1.0646250000"><ele>168</ele><time>2026-04-07T07:38:34Z</time></trkpt>
<trkpt lat="43.2593870000" lon="-1.0645920000"><ele>168</ele><time>2026-04-07T07:38:36Z</time></trkpt>
<trkpt lat="43.2593920000" lon="-1.0645620000"><ele>168</ele><time>2026-04-07T07:38:38Z</time></trkpt>
<trkpt lat="43.2593950000" lon="-1.0645320000"><ele>168</ele><time>2026-04-07T07:38:40Z</time></trkpt>
<trkpt lat="43.2593870000" lon="-1.0645070000"><ele>168</ele><time>2026-04-07T07:38:42Z</time></trkpt>
<trkpt lat="43.2593770000" lon="-1.0644770000"><ele>168</ele><time>2026-04-07T07:38:44Z</time></trkpt>
<trkpt lat="43.2593770000" lon="-1.0644470000"><ele>168</ele><time>2026-04-07T07:38:46Z</time></trkpt>
<trkpt lat="43.2593800000" lon="-1.0644130000"><ele>169</ele><time>2026-04-07T07:38:48Z</time></trkpt>
<trkpt lat="43.2593820000" lon="-1.0643830000"><ele>169</ele><time>2026-04-07T07:38:50Z</time></trkpt>
<trkpt lat="43.2593820000" lon="-1.0643550000"><ele>169</ele><time>2026-04-07T07:38:52Z</time></trkpt>
<trkpt lat="43.2593850000" lon="-1.0643220000"><ele>169</ele><time>2026-04-07T07:38:54Z</time></trkpt>
<trkpt lat="43.2593850000" lon="-1.0642870000"><ele>169</ele><time>2026-04-07T07:38:56Z</time></trkpt>
<trkpt lat="43.2593870000" lon="-1.0642570000"><ele>169</ele><time>2026-04-07T07:38:58Z</time></trkpt>
<trkpt lat="43.2593770000" lon="-1.0642330000"><ele>170</ele><time>2026-04-07T07:39:08Z</time></trkpt>
<trkpt lat="43.2593770000" lon="-1.0642050000"><ele>170</ele><time>2026-04-07T07:39:24Z</time></trkpt>
<trkpt lat="43.2593820000" lon="-1.0641620000"><ele>170</ele><time>2026-04-07T07:39:26Z</time></trkpt>
<trkpt lat="43.2593870000" lon="-1.0641220000"><ele>170</ele><time>2026-04-07T07:39:28Z</time></trkpt>
<trkpt lat="43.2593870000" lon="-1.0640870000"><ele>170</ele><time>2026-04-07T07:39:30Z</time></trkpt>
<trkpt lat="43.2593850000" lon="-1.0640570000"><ele>170</ele><time>2026-04-07T07:39:32Z</time></trkpt>
<trkpt lat="43.2593870000" lon="-1.0640250000"><ele>171</ele><time>2026-04-07T07:39:34Z</time></trkpt>
<trkpt lat="43.2593820000" lon="-1.0639920000"><ele>171</ele><time>2026-04-07T07:39:36Z</time></trkpt>
<trkpt lat="43.2593820000" lon="-1.0639570000"><ele>171</ele><time>2026-04-07T07:39:38Z</time></trkpt>
<trkpt lat="43.2593920000" lon="-1.0639170000"><ele>171</ele><time>2026-04-07T07:39:40Z</time></trkpt>
<trkpt lat="43.2593950000" lon="-1.0638780000"><ele>171</ele><time>2026-04-07T07:39:42Z</time></trkpt>
<trkpt lat="43.2593950000" lon="-1.0638470000"><ele>171</ele><time>2026-04-07T07:39:44Z</time></trkpt>
<trkpt lat="43.2593950000" lon="-1.0638220000"><ele>171</ele><time>2026-04-07T07:39:46Z</time></trkpt>
<trkpt lat="43.2593870000" lon="-1.0637920000"><ele>171</ele><time>2026-04-07T07:39:52Z</time></trkpt>
<trkpt lat="43.2593700000" lon="-1.0637870000"><ele>171</ele><time>2026-04-07T07:39:54Z</time></trkpt>
<trkpt lat="43.2593470000" lon="-1.0638000000"><ele>171</ele><time>2026-04-07T07:39:57Z</time></trkpt>
<trkpt lat="43.2593650000" lon="-1.0637750000"><ele>172</ele><time>2026-04-07T07:40:06Z</time></trkpt>
<trkpt lat="43.2593800000" lon="-1.0637350000"><ele>171</ele><time>2026-04-07T07:40:08Z</time></trkpt>
<trkpt lat="43.2593920000" lon="-1.0636950000"><ele>171</ele><time>2026-04-07T07:40:10Z</time></trkpt>
<trkpt lat="43.2594070000" lon="-1.0636600000"><ele>171</ele><time>2026-04-07T07:40:12Z</time></trkpt>
<trkpt lat="43.2594200000" lon="-1.0636320000"><ele>171</ele><time>2026-04-07T07:40:14Z</time></trkpt>
<trkpt lat="43.2594320000" lon="-1.0636080000"><ele>172</ele><time>2026-04-07T07:40:28Z</time></trkpt>
<trkpt lat="43.2594420000" lon="-1.0635820000"><ele>172</ele><time>2026-04-07T07:40:30Z</time></trkpt>
<trkpt lat="43.2594550000" lon="-1.0635420000"><ele>172</ele><time>2026-04-07T07:40:32Z</time></trkpt>
<trkpt lat="43.2594620000" lon="-1.0635020000"><ele>172</ele><time>2026-04-07T07:40:34Z</time></trkpt>
<trkpt lat="43.2594720000" lon="-1.0634700000"><ele>172</ele><time>2026-04-07T07:40:36Z</time></trkpt>
<trkpt lat="43.2594770000" lon="-1.0634370000"><ele>172</ele><time>2026-04-07T07:40:38Z</time></trkpt>
<trkpt lat="43.2594850000" lon="-1.0634020000"><ele>172</ele><time>2026-04-07T07:40:40Z</time></trkpt>
<trkpt lat="43.2594970000" lon="-1.0633700000"><ele>172</ele><time>2026-04-07T07:40:42Z</time></trkpt>
<trkpt lat="43.2595020000" lon="-1.0633380000"><ele>172</ele><time>2026-04-07T07:40:44Z</time></trkpt>
<trkpt lat="43.2595120000" lon="-1.0633120000"><ele>172</ele><time>2026-04-07T07:40:46Z</time></trkpt>
<trkpt lat="43.2595170000" lon="-1.0632850000"><ele>172</ele><time>2026-04-07T07:40:48Z</time></trkpt>
<trkpt lat="43.2595270000" lon="-1.0632570000"><ele>172</ele><time>2026-04-07T07:40:50Z</time></trkpt>
<trkpt lat="43.2595300000" lon="-1.0632300000"><ele>172</ele><time>2026-04-07T07:40:52Z</time></trkpt>
<trkpt lat="43.2595270000" lon="-1.0632020000"><ele>171</ele><time>2026-04-07T07:40:58Z</time></trkpt>
<trkpt lat="43.2595320000" lon="-1.0631770000"><ele>171</ele><time>2026-04-07T07:41:00Z</time></trkpt>
<trkpt lat="43.2595400000" lon="-1.0631500000"><ele>171</ele><time>2026-04-07T07:41:02Z</time></trkpt>
<trkpt lat="43.2595570000" lon="-1.0631170000"><ele>171</ele><time>2026-04-07T07:41:04Z</time></trkpt>
<trkpt lat="43.2595700000" lon="-1.0630900000"><ele>171</ele><time>2026-04-07T07:41:06Z</time></trkpt>
<trkpt lat="43.2595820000" lon="-1.0630620000"><ele>171</ele><time>2026-04-07T07:41:08Z</time></trkpt>
<trkpt lat="43.2595900000" lon="-1.0630370000"><ele>171</ele><time>2026-04-07T07:41:10Z</time></trkpt>
<trkpt lat="43.2595970000" lon="-1.0630120000"><ele>171</ele><time>2026-04-07T07:41:12Z</time></trkpt>
<trkpt lat="43.2596000000" lon="-1.0629820000"><ele>171</ele><time>2026-04-07T07:41:14Z</time></trkpt>
<trkpt lat="43.2596070000" lon="-1.0629470000"><ele>171</ele><time>2026-04-07T07:41:16Z</time></trkpt>
<trkpt lat="43.2596220000" lon="-1.0629250000"><ele>171</ele><time>2026-04-07T07:41:18Z</time></trkpt>
<trkpt lat="43.2596300000" lon="-1.0629020000"><ele>171</ele><time>2026-04-07T07:41:21Z</time></trkpt>
<trkpt lat="43.2596350000" lon="-1.0628650000"><ele>171</ele><time>2026-04-07T07:41:30Z</time></trkpt>
<trkpt lat="43.2596400000" lon="-1.0628400000"><ele>170</ele><time>2026-04-07T07:41:34Z</time></trkpt>
<trkpt lat="43.2596500000" lon="-1.0627980000"><ele>170</ele><time>2026-04-07T07:41:36Z</time></trkpt>
<trkpt lat="43.2596620000" lon="-1.0627570000"><ele>170</ele><time>2026-04-07T07:41:38Z</time></trkpt>
<trkpt lat="43.2596720000" lon="-1.0627200000"><ele>170</ele><time>2026-04-07T07:41:40Z</time></trkpt>
<trkpt lat="43.2596820000" lon="-1.0626870000"><ele>170</ele><time>2026-04-07T07:41:42Z</time></trkpt>
<trkpt lat="43.2596870000" lon="-1.0626600000"><ele>170</ele><time>2026-04-07T07:41:44Z</time></trkpt>
<trkpt lat="43.2596970000" lon="-1.0626280000"><ele>170</ele><time>2026-04-07T07:41:46Z</time></trkpt>
<trkpt lat="43.2597050000" lon="-1.0626020000"><ele>170</ele><time>2026-04-07T07:41:48Z</time></trkpt>
<trkpt lat="43.2597100000" lon="-1.0625720000"><ele>170</ele><time>2026-04-07T07:41:50Z</time></trkpt>
<trkpt lat="43.2597170000" lon="-1.0625450000"><ele>170</ele><time>2026-04-07T07:41:52Z</time></trkpt>
<trkpt lat="43.2597220000" lon="-1.0625170000"><ele>170</ele><time>2026-04-07T07:41:54Z</time></trkpt>
<trkpt lat="43.2597280000" lon="-1.0624870000"><ele>169</ele><time>2026-04-07T07:41:56Z</time></trkpt>
<trkpt lat="43.2597370000" lon="-1.0624570000"><ele>169</ele><time>2026-04-07T07:41:58Z</time></trkpt>
<trkpt lat="43.2597470000" lon="-1.0624270000"><ele>169</ele><time>2026-04-07T07:42:00Z</time></trkpt>
<trkpt lat="43.2597550000" lon="-1.0623970000"><ele>169</ele><time>2026-04-07T07:42:02Z</time></trkpt>
<trkpt lat="43.2597620000" lon="-1.0623670000"><ele>169</ele><time>2026-04-07T07:42:04Z</time></trkpt>
<trkpt lat="43.2597670000" lon="-1.0623400000"><ele>169</ele><time>2026-04-07T07:42:06Z</time></trkpt>
<trkpt lat="43.2597720000" lon="-1.0623120000"><ele>169</ele><time>2026-04-07T07:42:08Z</time></trkpt>
<trkpt lat="43.2597770000" lon="-1.0622850000"><ele>169</ele><time>2026-04-07T07:42:10Z</time></trkpt>
<trkpt lat="43.2597820000" lon="-1.0622570000"><ele>168</ele><time>2026-04-07T07:42:12Z</time></trkpt>
<trkpt lat="43.2597850000" lon="-1.0622300000"><ele>168</ele><time>2026-04-07T07:42:14Z</time></trkpt>
<trkpt lat="43.2597970000" lon="-1.0621970000"><ele>168</ele><time>2026-04-07T07:42:16Z</time></trkpt>
<trkpt lat="43.2598170000" lon="-1.0621620000"><ele>168</ele><time>2026-04-07T07:42:18Z</time></trkpt>
<trkpt lat="43.2598320000" lon="-1.0621280000"><ele>168</ele><time>2026-04-07T07:42:20Z</time></trkpt>
<trkpt lat="43.2598450000" lon="-1.0620970000"><ele>168</ele><time>2026-04-07T07:42:22Z</time></trkpt>
<trkpt lat="43.2598520000" lon="-1.0620650000"><ele>168</ele><time>2026-04-07T07:42:24Z</time></trkpt>
<trkpt lat="43.2598570000" lon="-1.0620320000"><ele>168</ele><time>2026-04-07T07:42:26Z</time></trkpt>
<trkpt lat="43.2598700000" lon="-1.0620000000"><ele>168</ele><time>2026-04-07T07:42:28Z</time></trkpt>
<trkpt lat="43.2598770000" lon="-1.0619670000"><ele>167</ele><time>2026-04-07T07:42:30Z</time></trkpt>
<trkpt lat="43.2598820000" lon="-1.0619350000"><ele>167</ele><time>2026-04-07T07:42:32Z</time></trkpt>
<trkpt lat="43.2598900000" lon="-1.0619050000"><ele>168</ele><time>2026-04-07T07:42:34Z</time></trkpt>
<trkpt lat="43.2599000000" lon="-1.0618720000"><ele>168</ele><time>2026-04-07T07:42:36Z</time></trkpt>
<trkpt lat="43.2599120000" lon="-1.0618400000"><ele>167</ele><time>2026-04-07T07:42:38Z</time></trkpt>
<trkpt lat="43.2599200000" lon="-1.0618070000"><ele>167</ele><time>2026-04-07T07:42:40Z</time></trkpt>
<trkpt lat="43.2599270000" lon="-1.0617720000"><ele>167</ele><time>2026-04-07T07:42:42Z</time></trkpt>
<trkpt lat="43.2599320000" lon="-1.0617370000"><ele>167</ele><time>2026-04-07T07:42:44Z</time></trkpt>
<trkpt lat="43.2599320000" lon="-1.0617070000"><ele>167</ele><time>2026-04-07T07:42:46Z</time></trkpt>
<trkpt lat="43.2599400000" lon="-1.0616720000"><ele>167</ele><time>2026-04-07T07:42:48Z</time></trkpt>
<trkpt lat="43.2599450000" lon="-1.0616370000"><ele>167</ele><time>2026-04-07T07:42:50Z</time></trkpt>
<trkpt lat="43.2599520000" lon="-1.0616070000"><ele>167</ele><time>2026-04-07T07:42:52Z</time></trkpt>
<trkpt lat="43.2599570000" lon="-1.0615750000"><ele>167</ele><time>2026-04-07T07:42:54Z</time></trkpt>
<trkpt lat="43.2599670000" lon="-1.0615420000"><ele>167</ele><time>2026-04-07T07:42:56Z</time></trkpt>
<trkpt lat="43.2599770000" lon="-1.0615120000"><ele>167</ele><time>2026-04-07T07:42:58Z</time></trkpt>
<trkpt lat="43.2599820000" lon="-1.0614820000"><ele>167</ele><time>2026-04-07T07:43:00Z</time></trkpt>
<trkpt lat="43.2599920000" lon="-1.0614520000"><ele>167</ele><time>2026-04-07T07:43:02Z</time></trkpt>
<trkpt lat="43.2599970000" lon="-1.0614220000"><ele>167</ele><time>2026-04-07T07:43:04Z</time></trkpt>
<trkpt lat="43.2600070000" lon="-1.0613920000"><ele>167</ele><time>2026-04-07T07:43:06Z</time></trkpt>
<trkpt lat="43.2600120000" lon="-1.0613630000"><ele>166</ele><time>2026-04-07T07:43:08Z</time></trkpt>
<trkpt lat="43.2600220000" lon="-1.0613330000"><ele>166</ele><time>2026-04-07T07:43:10Z</time></trkpt>
<trkpt lat="43.2600300000" lon="-1.0613050000"><ele>166</ele><time>2026-04-07T07:43:12Z</time></trkpt>
<trkpt lat="43.2600380000" lon="-1.0612770000"><ele>166</ele><time>2026-04-07T07:43:14Z</time></trkpt>
<trkpt lat="43.2600500000" lon="-1.0612470000"><ele>166</ele><time>2026-04-07T07:43:16Z</time></trkpt>
<trkpt lat="43.2600570000" lon="-1.0612220000"><ele>167</ele><time>2026-04-07T07:43:18Z</time></trkpt>
<trkpt lat="43.2600620000" lon="-1.0611950000"><ele>167</ele><time>2026-04-07T07:43:20Z</time></trkpt>
<trkpt lat="43.2600670000" lon="-1.0611670000"><ele>166</ele><time>2026-04-07T07:43:22Z</time></trkpt>
<trkpt lat="43.2600770000" lon="-1.0611370000"><ele>166</ele><time>2026-04-07T07:43:24Z</time></trkpt>
<trkpt lat="43.2600920000" lon="-1.0611070000"><ele>166</ele><time>2026-04-07T07:43:26Z</time></trkpt>
<trkpt lat="43.2601120000" lon="-1.0610700000"><ele>166</ele><time>2026-04-07T07:43:28Z</time></trkpt>
<trkpt lat="43.2601270000" lon="-1.0610480000"><ele>166</ele><time>2026-04-07T07:43:29Z</time></trkpt>
<trkpt lat="43.2601470000" lon="-1.0610170000"><ele>166</ele><time>2026-04-07T07:43:31Z</time></trkpt>
<trkpt lat="43.2601620000" lon="-1.0609920000"><ele>166</ele><time>2026-04-07T07:43:33Z</time></trkpt>
<trkpt lat="43.2601750000" lon="-1.0609620000"><ele>166</ele><time>2026-04-07T07:43:35Z</time></trkpt>
<trkpt lat="43.2601850000" lon="-1.0609320000"><ele>166</ele><time>2026-04-07T07:43:37Z</time></trkpt>
<trkpt lat="43.2601970000" lon="-1.0609020000"><ele>166</ele><time>2026-04-07T07:43:39Z</time></trkpt>
<trkpt lat="43.2602100000" lon="-1.0608770000"><ele>165</ele><time>2026-04-07T07:43:41Z</time></trkpt>
<trkpt lat="43.2602220000" lon="-1.0608470000"><ele>165</ele><time>2026-04-07T07:43:43Z</time></trkpt>
<trkpt lat="43.2602250000" lon="-1.0608170000"><ele>165</ele><time>2026-04-07T07:43:45Z</time></trkpt>
<trkpt lat="43.2602250000" lon="-1.0607870000"><ele>165</ele><time>2026-04-07T07:43:47Z</time></trkpt>
<trkpt lat="43.2602370000" lon="-1.0607570000"><ele>164</ele><time>2026-04-07T07:43:49Z</time></trkpt>
<trkpt lat="43.2602470000" lon="-1.0607270000"><ele>164</ele><time>2026-04-07T07:43:51Z</time></trkpt>
<trkpt lat="43.2602600000" lon="-1.0606980000"><ele>164</ele><time>2026-04-07T07:43:53Z</time></trkpt>
<trkpt lat="43.2602520000" lon="-1.0607220000"><ele>163</ele><time>2026-04-07T07:44:55Z</time></trkpt>
<trkpt lat="43.2602670000" lon="-1.0607120000"><ele>163</ele><time>2026-04-07T07:45:10Z</time></trkpt>
<trkpt lat="43.2602720000" lon="-1.0606800000"><ele>163</ele><time>2026-04-07T07:45:12Z</time></trkpt>
<trkpt lat="43.2602720000" lon="-1.0606450000"><ele>163</ele><time>2026-04-07T07:45:14Z</time></trkpt>
<trkpt lat="43.2602850000" lon="-1.0606120000"><ele>163</ele><time>2026-04-07T07:45:17Z</time></trkpt>
<trkpt lat="43.2603000000" lon="-1.0605970000"><ele>163</ele><time>2026-04-07T07:45:27Z</time></trkpt>
<trkpt lat="43.2603120000" lon="-1.0605630000"><ele>162</ele><time>2026-04-07T07:45:30Z</time></trkpt>
<trkpt lat="43.2603270000" lon="-1.0605320000"><ele>162</ele><time>2026-04-07T07:45:32Z</time></trkpt>
<trkpt lat="43.2603370000" lon="-1.0605050000"><ele>162</ele><time>2026-04-07T07:45:34Z</time></trkpt>
<trkpt lat="43.2603470000" lon="-1.0604770000"><ele>162</ele><time>2026-04-07T07:45:37Z</time></trkpt>
<trkpt lat="43.2603520000" lon="-1.0604520000"><ele>162</ele><time>2026-04-07T07:45:39Z</time></trkpt>
<trkpt lat="43.2603620000" lon="-1.0604170000"><ele>162</ele><time>2026-04-07T07:45:42Z</time></trkpt>
<trkpt lat="43.2603720000" lon="-1.0603970000"><ele>162</ele><time>2026-04-07T07:45:44Z</time></trkpt>
<trkpt lat="43.2603820000" lon="-1.0603670000"><ele>162</ele><time>2026-04-07T07:45:46Z</time></trkpt>
<trkpt lat="43.2604000000" lon="-1.0603400000"><ele>162</ele><time>2026-04-07T07:45:48Z</time></trkpt>
<trkpt lat="43.2604170000" lon="-1.0603150000"><ele>162</ele><time>2026-04-07T07:45:50Z</time></trkpt>
<trkpt lat="43.2604320000" lon="-1.0602870000"><ele>162</ele><time>2026-04-07T07:45:52Z</time></trkpt>
<trkpt lat="43.2604500000" lon="-1.0602600000"><ele>161</ele><time>2026-04-07T07:45:54Z</time></trkpt>
<trkpt lat="43.2604620000" lon="-1.0602320000"><ele>162</ele><time>2026-04-07T07:45:56Z</time></trkpt>
<trkpt lat="43.2604720000" lon="-1.0602020000"><ele>161</ele><time>2026-04-07T07:45:58Z</time></trkpt>
<trkpt lat="43.2604800000" lon="-1.0601750000"><ele>161</ele><time>2026-04-07T07:46:00Z</time></trkpt>
<trkpt lat="43.2604970000" lon="-1.0601530000"><ele>161</ele><time>2026-04-07T07:46:02Z</time></trkpt>
<trkpt lat="43.2605220000" lon="-1.0601250000"><ele>161</ele><time>2026-04-07T07:46:04Z</time></trkpt>
<trkpt lat="43.2605370000" lon="-1.0601070000"><ele>161</ele><time>2026-04-07T07:46:05Z</time></trkpt>
<trkpt lat="43.2605520000" lon="-1.0600920000"><ele>161</ele><time>2026-04-07T07:46:06Z</time></trkpt>
<trkpt lat="43.2605670000" lon="-1.0600720000"><ele>161</ele><time>2026-04-07T07:46:07Z</time></trkpt>
<trkpt lat="43.2605800000" lon="-1.0600520000"><ele>161</ele><time>2026-04-07T07:46:08Z</time></trkpt>
<trkpt lat="43.2606020000" lon="-1.0600220000"><ele>161</ele><time>2026-04-07T07:46:10Z</time></trkpt>
<trkpt lat="43.2606170000" lon="-1.0600000000"><ele>161</ele><time>2026-04-07T07:46:12Z</time></trkpt>
<trkpt lat="43.2606350000" lon="-1.0599820000"><ele>161</ele><time>2026-04-07T07:46:14Z</time></trkpt>
<trkpt lat="43.2606470000" lon="-1.0599620000"><ele>160</ele><time>2026-04-07T07:46:16Z</time></trkpt>
<trkpt lat="43.2606670000" lon="-1.0599370000"><ele>160</ele><time>2026-04-07T07:46:19Z</time></trkpt>
<trkpt lat="43.2606820000" lon="-1.0599150000"><ele>160</ele><time>2026-04-07T07:46:21Z</time></trkpt>
<trkpt lat="43.2607020000" lon="-1.0598970000"><ele>160</ele><time>2026-04-07T07:46:23Z</time></trkpt>
<trkpt lat="43.2607200000" lon="-1.0598770000"><ele>160</ele><time>2026-04-07T07:46:25Z</time></trkpt>
<trkpt lat="43.2607350000" lon="-1.0598570000"><ele>160</ele><time>2026-04-07T07:46:27Z</time></trkpt>
<trkpt lat="43.2607500000" lon="-1.0598320000"><ele>160</ele><time>2026-04-07T07:46:30Z</time></trkpt>
<trkpt lat="43.2607650000" lon="-1.0598080000"><ele>160</ele><time>2026-04-07T07:46:32Z</time></trkpt>
<trkpt lat="43.2607770000" lon="-1.0597820000"><ele>160</ele><time>2026-04-07T07:46:34Z</time></trkpt>
<trkpt lat="43.2607830000" lon="-1.0597570000"><ele>160</ele><time>2026-04-07T07:46:36Z</time></trkpt>
<trkpt lat="43.2607970000" lon="-1.0597370000"><ele>160</ele><time>2026-04-07T07:46:38Z</time></trkpt>
<trkpt lat="43.2608150000" lon="-1.0597130000"><ele>160</ele><time>2026-04-07T07:46:40Z</time></trkpt>
<trkpt lat="43.2608270000" lon="-1.0596920000"><ele>160</ele><time>2026-04-07T07:46:42Z</time></trkpt>
<trkpt lat="43.2608450000" lon="-1.0596670000"><ele>159</ele><time>2026-04-07T07:46:45Z</time></trkpt>
<trkpt lat="43.2608320000" lon="-1.0596520000"><ele>159</ele><time>2026-04-07T07:47:07Z</time></trkpt>
<trkpt lat="43.2608120000" lon="-1.0596320000"><ele>159</ele><time>2026-04-07T07:47:09Z</time></trkpt>
<trkpt lat="43.2608000000" lon="-1.0596000000"><ele>159</ele><time>2026-04-07T07:47:11Z</time></trkpt>
<trkpt lat="43.2607970000" lon="-1.0595720000"><ele>159</ele><time>2026-04-07T07:47:13Z</time></trkpt>
<trkpt lat="43.2607970000" lon="-1.0595420000"><ele>159</ele><time>2026-04-07T07:47:15Z</time></trkpt>
<trkpt lat="43.2608120000" lon="-1.0595070000"><ele>159</ele><time>2026-04-07T07:47:17Z</time></trkpt>
<trkpt lat="43.2608320000" lon="-1.0594720000"><ele>159</ele><time>2026-04-07T07:47:19Z</time></trkpt>
<trkpt lat="43.2608470000" lon="-1.0594370000"><ele>159</ele><time>2026-04-07T07:47:21Z</time></trkpt>
<trkpt lat="43.2608670000" lon="-1.0594030000"><ele>159</ele><time>2026-04-07T07:47:23Z</time></trkpt>
<trkpt lat="43.2608820000" lon="-1.0593720000"><ele>159</ele><time>2026-04-07T07:47:25Z</time></trkpt>
<trkpt lat="43.2608920000" lon="-1.0593420000"><ele>159</ele><time>2026-04-07T07:47:27Z</time></trkpt>
<trkpt lat="43.2609020000" lon="-1.0593120000"><ele>159</ele><time>2026-04-07T07:47:29Z</time></trkpt>
<trkpt lat="43.2609050000" lon="-1.0592820000"><ele>159</ele><time>2026-04-07T07:47:31Z</time></trkpt>
<trkpt lat="43.2609150000" lon="-1.0592520000"><ele>159</ele><time>2026-04-07T07:47:33Z</time></trkpt>
<trkpt lat="43.2609250000" lon="-1.0592250000"><ele>159</ele><time>2026-04-07T07:47:35Z</time></trkpt>
<trkpt lat="43.2609420000" lon="-1.0591900000"><ele>159</ele><time>2026-04-07T07:47:37Z</time></trkpt>
<trkpt lat="43.2609650000" lon="-1.0591570000"><ele>159</ele><time>2026-04-07T07:47:39Z</time></trkpt>
<trkpt lat="43.2609800000" lon="-1.0591250000"><ele>158</ele><time>2026-04-07T07:47:41Z</time></trkpt>
<trkpt lat="43.2609950000" lon="-1.0590970000"><ele>159</ele><time>2026-04-07T07:47:43Z</time></trkpt>
<trkpt lat="43.2610070000" lon="-1.0590700000"><ele>159</ele><time>2026-04-07T07:47:45Z</time></trkpt>
<trkpt lat="43.2610220000" lon="-1.0590450000"><ele>159</ele><time>2026-04-07T07:47:47Z</time></trkpt>
<trkpt lat="43.2610320000" lon="-1.0590170000"><ele>159</ele><time>2026-04-07T07:47:49Z</time></trkpt>
<trkpt lat="43.2610470000" lon="-1.0589920000"><ele>159</ele><time>2026-04-07T07:47:51Z</time></trkpt>
<trkpt lat="43.2610600000" lon="-1.0589650000"><ele>158</ele><time>2026-04-07T07:47:53Z</time></trkpt>
<trkpt lat="43.2610750000" lon="-1.0589370000"><ele>158</ele><time>2026-04-07T07:47:55Z</time></trkpt>
<trkpt lat="43.2610870000" lon="-1.0589100000"><ele>158</ele><time>2026-04-07T07:47:57Z</time></trkpt>
<trkpt lat="43.2611020000" lon="-1.0588820000"><ele>158</ele><time>2026-04-07T07:47:59Z</time></trkpt>
<trkpt lat="43.2611150000" lon="-1.0588550000"><ele>158</ele><time>2026-04-07T07:48:01Z</time></trkpt>
<trkpt lat="43.2611270000" lon="-1.0588270000"><ele>158</ele><time>2026-04-07T07:48:03Z</time></trkpt>
<trkpt lat="43.2611420000" lon="-1.0588020000"><ele>158</ele><time>2026-04-07T07:48:05Z</time></trkpt>
<trkpt lat="43.2611520000" lon="-1.0587720000"><ele>158</ele><time>2026-04-07T07:48:07Z</time></trkpt>
<trkpt lat="43.2611670000" lon="-1.0587450000"><ele>158</ele><time>2026-04-07T07:48:09Z</time></trkpt>
<trkpt lat="43.2611850000" lon="-1.0587200000"><ele>158</ele><time>2026-04-07T07:48:11Z</time></trkpt>
<trkpt lat="43.2612020000" lon="-1.0587000000"><ele>157</ele><time>2026-04-07T07:48:13Z</time></trkpt>
<trkpt lat="43.2612170000" lon="-1.0586770000"><ele>157</ele><time>2026-04-07T07:48:15Z</time></trkpt>
<trkpt lat="43.2612320000" lon="-1.0586550000"><ele>157</ele><time>2026-04-07T07:48:17Z</time></trkpt>
<trkpt lat="43.2612470000" lon="-1.0586320000"><ele>157</ele><time>2026-04-07T07:48:19Z</time></trkpt>
<trkpt lat="43.2612570000" lon="-1.0586120000"><ele>157</ele><time>2026-04-07T07:48:21Z</time></trkpt>
<trkpt lat="43.2612750000" lon="-1.0585870000"><ele>157</ele><time>2026-04-07T07:48:24Z</time></trkpt>
<trkpt lat="43.2612900000" lon="-1.0585650000"><ele>157</ele><time>2026-04-07T07:48:26Z</time></trkpt>
<trkpt lat="43.2613020000" lon="-1.0585380000"><ele>156</ele><time>2026-04-07T07:48:28Z</time></trkpt>
<trkpt lat="43.2613250000" lon="-1.0585070000"><ele>156</ele><time>2026-04-07T07:48:30Z</time></trkpt>
<trkpt lat="43.2613500000" lon="-1.0584800000"><ele>156</ele><time>2026-04-07T07:48:32Z</time></trkpt>
<trkpt lat="43.2613720000" lon="-1.0584520000"><ele>156</ele><time>2026-04-07T07:48:34Z</time></trkpt>
<trkpt lat="43.2613870000" lon="-1.0584270000"><ele>155</ele><time>2026-04-07T07:48:36Z</time></trkpt>
<trkpt lat="43.2614000000" lon="-1.0583970000"><ele>155</ele><time>2026-04-07T07:48:38Z</time></trkpt>
<trkpt lat="43.2614020000" lon="-1.0583670000"><ele>155</ele><time>2026-04-07T07:48:40Z</time></trkpt>
<trkpt lat="43.2614050000" lon="-1.0583370000"><ele>155</ele><time>2026-04-07T07:48:42Z</time></trkpt>
<trkpt lat="43.2614120000" lon="-1.0583100000"><ele>155</ele><time>2026-04-07T07:48:44Z</time></trkpt>
<trkpt lat="43.2614150000" lon="-1.0582770000"><ele>154</ele><time>2026-04-07T07:48:46Z</time></trkpt>
<trkpt lat="43.2614100000" lon="-1.0582520000"><ele>154</ele><time>2026-04-07T07:48:48Z</time></trkpt>
<trkpt lat="43.2614020000" lon="-1.0582270000"><ele>154</ele><time>2026-04-07T07:48:50Z</time></trkpt>
<trkpt lat="43.2614020000" lon="-1.0582000000"><ele>153</ele><time>2026-04-07T07:48:52Z</time></trkpt>
<trkpt lat="43.2614020000" lon="-1.0581720000"><ele>153</ele><time>2026-04-07T07:48:54Z</time></trkpt>
<trkpt lat="43.2614020000" lon="-1.0581370000"><ele>153</ele><time>2026-04-07T07:48:56Z</time></trkpt>
<trkpt lat="43.2614070000" lon="-1.0581020000"><ele>153</ele><time>2026-04-07T07:48:58Z</time></trkpt>
<trkpt lat="43.2613970000" lon="-1.0580700000"><ele>152</ele><time>2026-04-07T07:49:00Z</time></trkpt>
<trkpt lat="43.2613900000" lon="-1.0580420000"><ele>152</ele><time>2026-04-07T07:49:02Z</time></trkpt>
<trkpt lat="43.2613870000" lon="-1.0580130000"><ele>152</ele><time>2026-04-07T07:49:04Z</time></trkpt>
<trkpt lat="43.2613820000" lon="-1.0579870000"><ele>152</ele><time>2026-04-07T07:49:06Z</time></trkpt>
<trkpt lat="43.2613850000" lon="-1.0579520000"><ele>152</ele><time>2026-04-07T07:49:08Z</time></trkpt>
<trkpt lat="43.2613800000" lon="-1.0579220000"><ele>152</ele><time>2026-04-07T07:49:10Z</time></trkpt>
<trkpt lat="43.2613720000" lon="-1.0578870000"><ele>151</ele><time>2026-04-07T07:49:12Z</time></trkpt>
<trkpt lat="43.2613770000" lon="-1.0578500000"><ele>151</ele><time>2026-04-07T07:49:14Z</time></trkpt>
<trkpt lat="43.2613770000" lon="-1.0578120000"><ele>151</ele><time>2026-04-07T07:49:16Z</time></trkpt>
<trkpt lat="43.2613770000" lon="-1.0577770000"><ele>151</ele><time>2026-04-07T07:49:18Z</time></trkpt>
<trkpt lat="43.2613720000" lon="-1.0577520000"><ele>151</ele><time>2026-04-07T07:49:20Z</time></trkpt>
<trkpt lat="43.2613720000" lon="-1.0577170000"><ele>150</ele><time>2026-04-07T07:49:22Z</time></trkpt>
<trkpt lat="43.2613670000" lon="-1.0576850000"><ele>150</ele><time>2026-04-07T07:49:24Z</time></trkpt>
<trkpt lat="43.2613670000" lon="-1.0576480000"><ele>150</ele><time>2026-04-07T07:49:26Z</time></trkpt>
<trkpt lat="43.2613670000" lon="-1.0576170000"><ele>149</ele><time>2026-04-07T07:49:28Z</time></trkpt>
<trkpt lat="43.2613750000" lon="-1.0575870000"><ele>149</ele><time>2026-04-07T07:49:30Z</time></trkpt>
<trkpt lat="43.2613820000" lon="-1.0575530000"><ele>149</ele><time>2026-04-07T07:49:32Z</time></trkpt>
<trkpt lat="43.2613870000" lon="-1.0575270000"><ele>149</ele><time>2026-04-07T07:49:34Z</time></trkpt>
<trkpt lat="43.2613820000" lon="-1.0574970000"><ele>149</ele><time>2026-04-07T07:49:37Z</time></trkpt>
<trkpt lat="43.2613800000" lon="-1.0574570000"><ele>148</ele><time>2026-04-07T07:49:39Z</time></trkpt>
<trkpt lat="43.2613770000" lon="-1.0574250000"><ele>148</ele><time>2026-04-07T07:49:41Z</time></trkpt>
<trkpt lat="43.2613870000" lon="-1.0573920000"><ele>148</ele><time>2026-04-07T07:49:43Z</time></trkpt>
<trkpt lat="43.2613900000" lon="-1.0573600000"><ele>148</ele><time>2026-04-07T07:49:45Z</time></trkpt>
<trkpt lat="43.2613900000" lon="-1.0573220000"><ele>147</ele><time>2026-04-07T07:49:47Z</time></trkpt>
<trkpt lat="43.2614020000" lon="-1.0572830000"><ele>147</ele><time>2026-04-07T07:49:49Z</time></trkpt>
<trkpt lat="43.2614050000" lon="-1.0572550000"><ele>147</ele><time>2026-04-07T07:49:51Z</time></trkpt>
<trkpt lat="43.2614070000" lon="-1.0572200000"><ele>147</ele><time>2026-04-07T07:49:53Z</time></trkpt>
<trkpt lat="43.2614120000" lon="-1.0571820000"><ele>147</ele><time>2026-04-07T07:49:55Z</time></trkpt>
<trkpt lat="43.2614150000" lon="-1.0571350000"><ele>146</ele><time>2026-04-07T07:49:57Z</time></trkpt>
<trkpt lat="43.2614170000" lon="-1.0571070000"><ele>146</ele><time>2026-04-07T07:49:58Z</time></trkpt>
<trkpt lat="43.2614300000" lon="-1.0570820000"><ele>146</ele><time>2026-04-07T07:49:59Z</time></trkpt>
<trkpt lat="43.2614370000" lon="-1.0570550000"><ele>146</ele><time>2026-04-07T07:50:00Z</time></trkpt>
<trkpt lat="43.2614370000" lon="-1.0570280000"><ele>146</ele><time>2026-04-07T07:50:01Z</time></trkpt>
<trkpt lat="43.2614350000" lon="-1.0569870000"><ele>146</ele><time>2026-04-07T07:50:03Z</time></trkpt>
<trkpt lat="43.2614450000" lon="-1.0569570000"><ele>145</ele><time>2026-04-07T07:50:05Z</time></trkpt>
<trkpt lat="43.2614500000" lon="-1.0569280000"><ele>145</ele><time>2026-04-07T07:50:07Z</time></trkpt>
<trkpt lat="43.2614520000" lon="-1.0569020000"><ele>145</ele><time>2026-04-07T07:50:09Z</time></trkpt>
<trkpt lat="43.2614500000" lon="-1.0568750000"><ele>145</ele><time>2026-04-07T07:50:12Z</time></trkpt>
<trkpt lat="43.2614620000" lon="-1.0568470000"><ele>144</ele><time>2026-04-07T07:50:15Z</time></trkpt>
<trkpt lat="43.2614620000" lon="-1.0568170000"><ele>144</ele><time>2026-04-07T07:50:17Z</time></trkpt>
<trkpt lat="43.2614570000" lon="-1.0567800000"><ele>144</ele><time>2026-04-07T07:50:19Z</time></trkpt>
<trkpt lat="43.2614520000" lon="-1.0567470000"><ele>143</ele><time>2026-04-07T07:50:21Z</time></trkpt>
<trkpt lat="43.2614470000" lon="-1.0567120000"><ele>143</ele><time>2026-04-07T07:50:23Z</time></trkpt>
<trkpt lat="43.2614420000" lon="-1.0566770000"><ele>143</ele><time>2026-04-07T07:50:25Z</time></trkpt>
<trkpt lat="43.2614350000" lon="-1.0566470000"><ele>143</ele><time>2026-04-07T07:50:27Z</time></trkpt>
<trkpt lat="43.2614300000" lon="-1.0566180000"><ele>143</ele><time>2026-04-07T07:50:30Z</time></trkpt>
<trkpt lat="43.2614270000" lon="-1.0565870000"><ele>142</ele><time>2026-04-07T07:50:33Z</time></trkpt>
<trkpt lat="43.2614220000" lon="-1.0565620000"><ele>142</ele><time>2026-04-07T07:50:35Z</time></trkpt>
<trkpt lat="43.2614220000" lon="-1.0565320000"><ele>142</ele><time>2026-04-07T07:50:37Z</time></trkpt>
<trkpt lat="43.2614200000" lon="-1.0564970000"><ele>141</ele><time>2026-04-07T07:50:39Z</time></trkpt>
<trkpt lat="43.2614220000" lon="-1.0564620000"><ele>141</ele><time>2026-04-07T07:50:41Z</time></trkpt>
<trkpt lat="43.2614220000" lon="-1.0564320000"><ele>141</ele><time>2026-04-07T07:50:43Z</time></trkpt>
<trkpt lat="43.2614250000" lon="-1.0564020000"><ele>141</ele><time>2026-04-07T07:50:45Z</time></trkpt>
<trkpt lat="43.2614320000" lon="-1.0563800000"><ele>140</ele><time>2026-04-07T07:50:47Z</time></trkpt>
<trkpt lat="43.2614470000" lon="-1.0563570000"><ele>140</ele><time>2026-04-07T07:50:49Z</time></trkpt>
<trkpt lat="43.2614600000" lon="-1.0563370000"><ele>140</ele><time>2026-04-07T07:50:51Z</time></trkpt>
<trkpt lat="43.2614820000" lon="-1.0563270000"><ele>139</ele><time>2026-04-07T07:50:54Z</time></trkpt>
<trkpt lat="43.2615070000" lon="-1.0563220000"><ele>139</ele><time>2026-04-07T07:50:57Z</time></trkpt>
<trkpt lat="43.2615270000" lon="-1.0563220000"><ele>138</ele><time>2026-04-07T07:50:59Z</time></trkpt>
<trkpt lat="43.2615470000" lon="-1.0563130000"><ele>138</ele><time>2026-04-07T07:51:01Z</time></trkpt>
<trkpt lat="43.2615720000" lon="-1.0563070000"><ele>138</ele><time>2026-04-07T07:51:03Z</time></trkpt>
<trkpt lat="43.2615920000" lon="-1.0563020000"><ele>138</ele><time>2026-04-07T07:51:05Z</time></trkpt>
<trkpt lat="43.2616220000" lon="-1.0563130000"><ele>137</ele><time>2026-04-07T07:51:07Z</time></trkpt>
<trkpt lat="43.2616450000" lon="-1.0563420000"><ele>137</ele><time>2026-04-07T07:51:09Z</time></trkpt>
<trkpt lat="43.2616600000" lon="-1.0563670000"><ele>137</ele><time>2026-04-07T07:51:11Z</time></trkpt>
<trkpt lat="43.2616820000" lon="-1.0563770000"><ele>137</ele><time>2026-04-07T07:51:13Z</time></trkpt>
<trkpt lat="43.2616980000" lon="-1.0563970000"><ele>136</ele><time>2026-04-07T07:51:15Z</time></trkpt>
<trkpt lat="43.2617300000" lon="-1.0563930000"><ele>136</ele><time>2026-04-07T07:51:17Z</time></trkpt>
<trkpt lat="43.2617570000" lon="-1.0563930000"><ele>136</ele><time>2026-04-07T07:51:19Z</time></trkpt>
<trkpt lat="43.2617820000" lon="-1.0564020000"><ele>136</ele><time>2026-04-07T07:51:21Z</time></trkpt>
<trkpt lat="43.2618000000" lon="-1.0564100000"><ele>135</ele><time>2026-04-07T07:51:23Z</time></trkpt>
<trkpt lat="43.2618170000" lon="-1.0564220000"><ele>135</ele><time>2026-04-07T07:51:25Z</time></trkpt>
<trkpt lat="43.2618370000" lon="-1.0564270000"><ele>135</ele><time>2026-04-07T07:51:27Z</time></trkpt>
<trkpt lat="43.2618570000" lon="-1.0564400000"><ele>135</ele><time>2026-04-07T07:51:29Z</time></trkpt>
<trkpt lat="43.2618800000" lon="-1.0564550000"><ele>134</ele><time>2026-04-07T07:51:31Z</time></trkpt>
<trkpt lat="43.2619000000" lon="-1.0564570000"><ele>134</ele><time>2026-04-07T07:51:33Z</time></trkpt>
<trkpt lat="43.2619220000" lon="-1.0564670000"><ele>134</ele><time>2026-04-07T07:51:35Z</time></trkpt>
<trkpt lat="43.2619420000" lon="-1.0564800000"><ele>133</ele><time>2026-04-07T07:51:37Z</time></trkpt>
<trkpt lat="43.2619720000" lon="-1.0564830000"><ele>133</ele><time>2026-04-07T07:51:39Z</time></trkpt>
<trkpt lat="43.2619970000" lon="-1.0564870000"><ele>133</ele><time>2026-04-07T07:51:41Z</time></trkpt>
<trkpt lat="43.2620270000" lon="-1.0564970000"><ele>133</ele><time>2026-04-07T07:51:43Z</time></trkpt>
<trkpt lat="43.2620470000" lon="-1.0565170000"><ele>133</ele><time>2026-04-07T07:51:45Z</time></trkpt>
<trkpt lat="43.2620650000" lon="-1.0565270000"><ele>132</ele><time>2026-04-07T07:51:47Z</time></trkpt>
<trkpt lat="43.2620850000" lon="-1.0565370000"><ele>132</ele><time>2026-04-07T07:51:49Z</time></trkpt>
<trkpt lat="43.2621050000" lon="-1.0565500000"><ele>132</ele><time>2026-04-07T07:51:51Z</time></trkpt>
<trkpt lat="43.2621250000" lon="-1.0565670000"><ele>132</ele><time>2026-04-07T07:51:53Z</time></trkpt>
<trkpt lat="43.2621420000" lon="-1.0565920000"><ele>132</ele><time>2026-04-07T07:51:55Z</time></trkpt>
<trkpt lat="43.2621550000" lon="-1.0566120000"><ele>131</ele><time>2026-04-07T07:51:57Z</time></trkpt>
<trkpt lat="43.2621670000" lon="-1.0566320000"><ele>131</ele><time>2026-04-07T07:51:59Z</time></trkpt>
<trkpt lat="43.2621620000" lon="-1.0566580000"><ele>131</ele><time>2026-04-07T07:52:02Z</time></trkpt>
<trkpt lat="43.2621620000" lon="-1.0566850000"><ele>130</ele><time>2026-04-07T07:52:13Z</time></trkpt>
<trkpt lat="43.2621820000" lon="-1.0567120000"><ele>130</ele><time>2026-04-07T07:52:15Z</time></trkpt>
<trkpt lat="43.2621970000" lon="-1.0567350000"><ele>130</ele><time>2026-04-07T07:52:17Z</time></trkpt>
<trkpt lat="43.2622120000" lon="-1.0567570000"><ele>129</ele><time>2026-04-07T07:52:19Z</time></trkpt>
<trkpt lat="43.2622300000" lon="-1.0567850000"><ele>129</ele><time>2026-04-07T07:52:21Z</time></trkpt>
<trkpt lat="43.2622500000" lon="-1.0568070000"><ele>129</ele><time>2026-04-07T07:52:23Z</time></trkpt>
<trkpt lat="43.2622700000" lon="-1.0568300000"><ele>129</ele><time>2026-04-07T07:52:25Z</time></trkpt>
<trkpt lat="43.2622920000" lon="-1.0568500000"><ele>128</ele><time>2026-04-07T07:52:27Z</time></trkpt>
<trkpt lat="43.2623120000" lon="-1.0568720000"><ele>128</ele><time>2026-04-07T07:52:29Z</time></trkpt>
<trkpt lat="43.2623320000" lon="-1.0568850000"><ele>128</ele><time>2026-04-07T07:52:31Z</time></trkpt>
<trkpt lat="43.2623520000" lon="-1.0568970000"><ele>128</ele><time>2026-04-07T07:52:33Z</time></trkpt>
<trkpt lat="43.2623750000" lon="-1.0569170000"><ele>127</ele><time>2026-04-07T07:52:36Z</time></trkpt>
<trkpt lat="43.2624050000" lon="-1.0569320000"><ele>127</ele><time>2026-04-07T07:52:39Z</time></trkpt>
<trkpt lat="43.2624320000" lon="-1.0569470000"><ele>127</ele><time>2026-04-07T07:52:41Z</time></trkpt>
<trkpt lat="43.2624570000" lon="-1.0569550000"><ele>127</ele><time>2026-04-07T07:52:43Z</time></trkpt>
<trkpt lat="43.2624870000" lon="-1.0569670000"><ele>127</ele><time>2026-04-07T07:52:45Z</time></trkpt>
<trkpt lat="43.2625070000" lon="-1.0569720000"><ele>126</ele><time>2026-04-07T07:52:47Z</time></trkpt>
<trkpt lat="43.2625270000" lon="-1.0569770000"><ele>126</ele><time>2026-04-07T07:52:49Z</time></trkpt>
<trkpt lat="43.2625470000" lon="-1.0569820000"><ele>126</ele><time>2026-04-07T07:52:51Z</time></trkpt>
<trkpt lat="43.2625720000" lon="-1.0569850000"><ele>126</ele><time>2026-04-07T07:52:53Z</time></trkpt>
<trkpt lat="43.2625920000" lon="-1.0569870000"><ele>126</ele><time>2026-04-07T07:52:55Z</time></trkpt>
<trkpt lat="43.2626130000" lon="-1.0570020000"><ele>126</ele><time>2026-04-07T07:52:57Z</time></trkpt>
<trkpt lat="43.2626450000" lon="-1.0570020000"><ele>126</ele><time>2026-04-07T07:52:59Z</time></trkpt>
<trkpt lat="43.2626670000" lon="-1.0570020000"><ele>126</ele><time>2026-04-07T07:53:01Z</time></trkpt>
<trkpt lat="43.2626870000" lon="-1.0570070000"><ele>127</ele><time>2026-04-07T07:53:03Z</time></trkpt>
<trkpt lat="43.2627150000" lon="-1.0569900000"><ele>126</ele><time>2026-04-07T07:53:08Z</time></trkpt>
<trkpt lat="43.2627420000" lon="-1.0569770000"><ele>127</ele><time>2026-04-07T07:53:10Z</time></trkpt>
<trkpt lat="43.2627700000" lon="-1.0569670000"><ele>127</ele><time>2026-04-07T07:53:12Z</time></trkpt>
<trkpt lat="43.2627900000" lon="-1.0569500000"><ele>127</ele><time>2026-04-07T07:53:14Z</time></trkpt>
<trkpt lat="43.2628070000" lon="-1.0569420000"><ele>127</ele><time>2026-04-07T07:53:16Z</time></trkpt>
<trkpt lat="43.2628170000" lon="-1.0569200000"><ele>127</ele><time>2026-04-07T07:53:18Z</time></trkpt>
<trkpt lat="43.2628420000" lon="-1.0569070000"><ele>126</ele><time>2026-04-07T07:53:25Z</time></trkpt>
<trkpt lat="43.2628750000" lon="-1.0569070000"><ele>126</ele><time>2026-04-07T07:53:27Z</time></trkpt>
<trkpt lat="43.2628970000" lon="-1.0569150000"><ele>126</ele><time>2026-04-07T07:53:29Z</time></trkpt>
<trkpt lat="43.2629170000" lon="-1.0569120000"><ele>126</ele><time>2026-04-07T07:53:31Z</time></trkpt>
<trkpt lat="43.2629370000" lon="-1.0569120000"><ele>127</ele><time>2026-04-07T07:53:33Z</time></trkpt>
<trkpt lat="43.2629620000" lon="-1.0569120000"><ele>127</ele><time>2026-04-07T07:53:36Z</time></trkpt>
<trkpt lat="43.2629850000" lon="-1.0569170000"><ele>127</ele><time>2026-04-07T07:53:38Z</time></trkpt>
<trkpt lat="43.2630020000" lon="-1.0569220000"><ele>127</ele><time>2026-04-07T07:53:39Z</time></trkpt>
<trkpt lat="43.2630270000" lon="-1.0569330000"><ele>127</ele><time>2026-04-07T07:53:41Z</time></trkpt>
<trkpt lat="43.2630470000" lon="-1.0569450000"><ele>127</ele><time>2026-04-07T07:53:42Z</time></trkpt>
<trkpt lat="43.2630620000" lon="-1.0569570000"><ele>127</ele><time>2026-04-07T07:53:43Z</time></trkpt>
<trkpt lat="43.2630920000" lon="-1.0569670000"><ele>127</ele><time>2026-04-07T07:53:45Z</time></trkpt>
<trkpt lat="43.2631200000" lon="-1.0569680000"><ele>127</ele><time>2026-04-07T07:53:47Z</time></trkpt>
<trkpt lat="43.2631420000" lon="-1.0569800000"><ele>127</ele><time>2026-04-07T07:53:49Z</time></trkpt>
<trkpt lat="43.2631670000" lon="-1.0569900000"><ele>127</ele><time>2026-04-07T07:53:51Z</time></trkpt>
<trkpt lat="43.2631870000" lon="-1.0570000000"><ele>127</ele><time>2026-04-07T07:53:53Z</time></trkpt>
<trkpt lat="43.2632100000" lon="-1.0570070000"><ele>127</ele><time>2026-04-07T07:53:55Z</time></trkpt>
<trkpt lat="43.2632300000" lon="-1.0570100000"><ele>127</ele><time>2026-04-07T07:53:57Z</time></trkpt>
<trkpt lat="43.2632520000" lon="-1.0570120000"><ele>127</ele><time>2026-04-07T07:53:59Z</time></trkpt>
<trkpt lat="43.2632720000" lon="-1.0570170000"><ele>128</ele><time>2026-04-07T07:54:01Z</time></trkpt>
<trkpt lat="43.2632970000" lon="-1.0570270000"><ele>128</ele><time>2026-04-07T07:54:04Z</time></trkpt>
<trkpt lat="43.2633070000" lon="-1.0570500000"><ele>128</ele><time>2026-04-07T07:54:08Z</time></trkpt>
<trkpt lat="43.2633320000" lon="-1.0570470000"><ele>128</ele><time>2026-04-07T07:54:11Z</time></trkpt>
<trkpt lat="43.2633570000" lon="-1.0570450000"><ele>129</ele><time>2026-04-07T07:54:13Z</time></trkpt>
<trkpt lat="43.2633770000" lon="-1.0570550000"><ele>129</ele><time>2026-04-07T07:54:15Z</time></trkpt>
<trkpt lat="43.2634020000" lon="-1.0570600000"><ele>129</ele><time>2026-04-07T07:54:18Z</time></trkpt>
<trkpt lat="43.2633900000" lon="-1.0570800000"><ele>129</ele><time>2026-04-07T07:54:38Z</time></trkpt>
<trkpt lat="43.2633770000" lon="-1.0570970000"><ele>129</ele><time>2026-04-07T07:54:40Z</time></trkpt>
<trkpt lat="43.2633670000" lon="-1.0571170000"><ele>129</ele><time>2026-04-07T07:54:44Z</time></trkpt>
<trkpt lat="43.2633870000" lon="-1.0571350000"><ele>129</ele><time>2026-04-07T07:54:55Z</time></trkpt>
<trkpt lat="43.2634150000" lon="-1.0571620000"><ele>129</ele><time>2026-04-07T07:54:57Z</time></trkpt>
<trkpt lat="43.2634420000" lon="-1.0571900000"><ele>129</ele><time>2026-04-07T07:54:59Z</time></trkpt>
<trkpt lat="43.2634620000" lon="-1.0572020000"><ele>129</ele><time>2026-04-07T07:55:01Z</time></trkpt>
<trkpt lat="43.2634770000" lon="-1.0572150000"><ele>129</ele><time>2026-04-07T07:55:03Z</time></trkpt>
<trkpt lat="43.2634920000" lon="-1.0572370000"><ele>129</ele><time>2026-04-07T07:55:06Z</time></trkpt>
<trkpt lat="43.2635120000" lon="-1.0572380000"><ele>129</ele><time>2026-04-07T07:55:08Z</time></trkpt>
<trkpt lat="43.2635270000" lon="-1.0572600000"><ele>129</ele><time>2026-04-07T07:55:11Z</time></trkpt>
<trkpt lat="43.2635470000" lon="-1.0572670000"><ele>129</ele><time>2026-04-07T07:55:14Z</time></trkpt>
<trkpt lat="43.2635670000" lon="-1.0572800000"><ele>129</ele><time>2026-04-07T07:55:16Z</time></trkpt>
<trkpt lat="43.2635870000" lon="-1.0573100000"><ele>129</ele><time>2026-04-07T07:55:18Z</time></trkpt>
<trkpt lat="43.2636050000" lon="-1.0573220000"><ele>129</ele><time>2026-04-07T07:55:19Z</time></trkpt>
<trkpt lat="43.2636220000" lon="-1.0573420000"><ele>129</ele><time>2026-04-07T07:55:21Z</time></trkpt>
<trkpt lat="43.2636420000" lon="-1.0573670000"><ele>129</ele><time>2026-04-07T07:55:24Z</time></trkpt>
<trkpt lat="43.2636220000" lon="-1.0573570000"><ele>129</ele><time>2026-04-07T07:55:35Z</time></trkpt>
<trkpt lat="43.2636320000" lon="-1.0573300000"><ele>128</ele><time>2026-04-07T07:56:04Z</time></trkpt>
<trkpt lat="43.2636150000" lon="-1.0572820000"><ele>128</ele><time>2026-04-07T07:56:27Z</time></trkpt>
<trkpt lat="43.2635950000" lon="-1.0572500000"><ele>128</ele><time>2026-04-07T07:56:28Z</time></trkpt>
<trkpt lat="43.2635770000" lon="-1.0572220000"><ele>128</ele><time>2026-04-07T07:56:29Z</time></trkpt>
<trkpt lat="43.2635670000" lon="-1.0572020000"><ele>128</ele><time>2026-04-07T07:56:30Z</time></trkpt>
<trkpt lat="43.2635870000" lon="-1.0572250000"><ele>128</ele><time>2026-04-07T07:57:28Z</time></trkpt>
<trkpt lat="43.2635970000" lon="-1.0572520000"><ele>128</ele><time>2026-04-07T07:57:30Z</time></trkpt>
<trkpt lat="43.2636270000" lon="-1.0572470000"><ele>128</ele><time>2026-04-07T07:57:49Z</time></trkpt>
<trkpt lat="43.2636520000" lon="-1.0572550000"><ele>128</ele><time>2026-04-07T07:57:51Z</time></trkpt>
<trkpt lat="43.2636720000" lon="-1.0572650000"><ele>127</ele><time>2026-04-07T07:57:53Z</time></trkpt>
<trkpt lat="43.2636570000" lon="-1.0572870000"><ele>127</ele><time>2026-04-07T07:58:33Z</time></trkpt>
<trkpt lat="43.2636400000" lon="-1.0572970000"><ele>127</ele><time>2026-04-07T07:58:36Z</time></trkpt>
<trkpt lat="43.2636350000" lon="-1.0573220000"><ele>127</ele><time>2026-04-07T07:58:40Z</time></trkpt>
<trkpt lat="43.2636500000" lon="-1.0573520000"><ele>126</ele><time>2026-04-07T08:01:58Z</time></trkpt>
<trkpt lat="43.2636620000" lon="-1.0573770000"><ele>126</ele><time>2026-04-07T08:01:59Z</time></trkpt>
<trkpt lat="43.2636800000" lon="-1.0573970000"><ele>126</ele><time>2026-04-07T08:02:00Z</time></trkpt>
<trkpt lat="43.2636970000" lon="-1.0574120000"><ele>126</ele><time>2026-04-07T08:02:01Z</time></trkpt>
<trkpt lat="43.2637120000" lon="-1.0574250000"><ele>126</ele><time>2026-04-07T08:02:02Z</time></trkpt>
<trkpt lat="43.2637320000" lon="-1.0574320000"><ele>126</ele><time>2026-04-07T08:02:04Z</time></trkpt>
<trkpt lat="43.2637220000" lon="-1.0574020000"><ele>126</ele><time>2026-04-07T08:02:09Z</time></trkpt>
<trkpt lat="43.2637070000" lon="-1.0573780000"><ele>126</ele><time>2026-04-07T08:03:18Z</time></trkpt>
<trkpt lat="43.2636920000" lon="-1.0573620000"><ele>126</ele><time>2026-04-07T08:03:19Z</time></trkpt>
<trkpt lat="43.2636720000" lon="-1.0573420000"><ele>126</ele><time>2026-04-07T08:03:20Z</time></trkpt>
<trkpt lat="43.2636520000" lon="-1.0573200000"><ele>126</ele><time>2026-04-07T08:03:21Z</time></trkpt>
<trkpt lat="43.2636320000" lon="-1.0573020000"><ele>126</ele><time>2026-04-07T08:03:22Z</time></trkpt>
<trkpt lat="43.2636120000" lon="-1.0572820000"><ele>126</ele><time>2026-04-07T08:03:24Z</time></trkpt>
<trkpt lat="43.2635920000" lon="-1.0572670000"><ele>125</ele><time>2026-04-07T08:04:43Z</time></trkpt>
<trkpt lat="43.2635750000" lon="-1.0572520000"><ele>125</ele><time>2026-04-07T08:04:44Z</time></trkpt>
<trkpt lat="43.2635550000" lon="-1.0572370000"><ele>125</ele><time>2026-04-07T08:04:45Z</time></trkpt>
<trkpt lat="43.2635350000" lon="-1.0572220000"><ele>125</ele><time>2026-04-07T08:04:46Z</time></trkpt>
<trkpt lat="43.2635170000" lon="-1.0572070000"><ele>125</ele><time>2026-04-07T08:04:47Z</time></trkpt>
<trkpt lat="43.2634950000" lon="-1.0571920000"><ele>125</ele><time>2026-04-07T08:04:49Z</time></trkpt>
<trkpt lat="43.2635270000" lon="-1.0572120000"><ele>126</ele><time>2026-04-07T08:05:53Z</time></trkpt>
<trkpt lat="43.2635600000" lon="-1.0572300000"><ele>126</ele><time>2026-04-07T08:05:54Z</time></trkpt>
<trkpt lat="43.2635900000" lon="-1.0572470000"><ele>126</ele><time>2026-04-07T08:05:55Z</time></trkpt>
<trkpt lat="43.2636100000" lon="-1.0572620000"><ele>126</ele><time>2026-04-07T08:05:56Z</time></trkpt>
<trkpt lat="43.2635920000" lon="-1.0572750000"><ele>126</ele><time>2026-04-07T08:06:00Z</time></trkpt>
<trkpt lat="43.2635820000" lon="-1.0572380000"><ele>126</ele><time>2026-04-07T08:06:14Z</time></trkpt>
<trkpt lat="43.2635820000" lon="-1.0572120000"><ele>126</ele><time>2026-04-07T08:06:16Z</time></trkpt>
<trkpt lat="43.2636070000" lon="-1.0572220000"><ele>126</ele><time>2026-04-07T08:06:19Z</time></trkpt>
<trkpt lat="43.2635970000" lon="-1.0571970000"><ele>127</ele><time>2026-04-07T08:06:25Z</time></trkpt>
<trkpt lat="43.2635900000" lon="-1.0571750000"><ele>127</ele><time>2026-04-07T08:06:27Z</time></trkpt>
<trkpt lat="43.2635820000" lon="-1.0571370000"><ele>127</ele><time>2026-04-07T08:06:30Z</time></trkpt>
<trkpt lat="43.2635800000" lon="-1.0571070000"><ele>126</ele><time>2026-04-07T08:06:33Z</time></trkpt>
<trkpt lat="43.2635770000" lon="-1.0570770000"><ele>126</ele><time>2026-04-07T08:06:36Z</time></trkpt>
<trkpt lat="43.2635770000" lon="-1.0570420000"><ele>127</ele><time>2026-04-07T08:06:38Z</time></trkpt>
<trkpt lat="43.2635770000" lon="-1.0570050000"><ele>127</ele><time>2026-04-07T08:06:40Z</time></trkpt>
<trkpt lat="43.2635820000" lon="-1.0569670000"><ele>127</ele><time>2026-04-07T08:06:42Z</time></trkpt>
<trkpt lat="43.2635920000" lon="-1.0569320000"><ele>127</ele><time>2026-04-07T08:06:44Z</time></trkpt>
<trkpt lat="43.2635970000" lon="-1.0569050000"><ele>127</ele><time>2026-04-07T08:06:46Z</time></trkpt>
<trkpt lat="43.2636100000" lon="-1.0568770000"><ele>128</ele><time>2026-04-07T08:06:48Z</time></trkpt>
<trkpt lat="43.2636250000" lon="-1.0568520000"><ele>128</ele><time>2026-04-07T08:06:50Z</time></trkpt>
<trkpt lat="43.2636400000" lon="-1.0568270000"><ele>128</ele><time>2026-04-07T08:06:52Z</time></trkpt>
<trkpt lat="43.2636470000" lon="-1.0568050000"><ele>128</ele><time>2026-04-07T08:06:54Z</time></trkpt>
<trkpt lat="43.2636520000" lon="-1.0567770000"><ele>128</ele><time>2026-04-07T08:06:56Z</time></trkpt>
<trkpt lat="43.2636600000" lon="-1.0567420000"><ele>129</ele><time>2026-04-07T08:06:59Z</time></trkpt>
<trkpt lat="43.2636750000" lon="-1.0567220000"><ele>129</ele><time>2026-04-07T08:07:01Z</time></trkpt>
<trkpt lat="43.2636850000" lon="-1.0566980000"><ele>129</ele><time>2026-04-07T08:07:03Z</time></trkpt>
<trkpt lat="43.2636950000" lon="-1.0566770000"><ele>129</ele><time>2026-04-07T08:07:05Z</time></trkpt>
<trkpt lat="43.2637050000" lon="-1.0566500000"><ele>129</ele><time>2026-04-07T08:07:07Z</time></trkpt>
<trkpt lat="43.2637200000" lon="-1.0566220000"><ele>129</ele><time>2026-04-07T08:07:09Z</time></trkpt>
<trkpt lat="43.2637350000" lon="-1.0565970000"><ele>130</ele><time>2026-04-07T08:07:11Z</time></trkpt>
<trkpt lat="43.2637550000" lon="-1.0565770000"><ele>130</ele><time>2026-04-07T08:07:13Z</time></trkpt>
<trkpt lat="43.2637700000" lon="-1.0565600000"><ele>130</ele><time>2026-04-07T08:07:15Z</time></trkpt>
<trkpt lat="43.2637820000" lon="-1.0565400000"><ele>130</ele><time>2026-04-07T08:07:17Z</time></trkpt>
<trkpt lat="43.2638000000" lon="-1.0565120000"><ele>131</ele><time>2026-04-07T08:07:20Z</time></trkpt>
<trkpt lat="43.2638120000" lon="-1.0564830000"><ele>131</ele><time>2026-04-07T08:07:23Z</time></trkpt>
<trkpt lat="43.2638220000" lon="-1.0564620000"><ele>131</ele><time>2026-04-07T08:07:25Z</time></trkpt>
<trkpt lat="43.2638370000" lon="-1.0564420000"><ele>131</ele><time>2026-04-07T08:07:27Z</time></trkpt>
<trkpt lat="43.2638500000" lon="-1.0564220000"><ele>132</ele><time>2026-04-07T08:07:29Z</time></trkpt>
<trkpt lat="43.2638670000" lon="-1.0563970000"><ele>132</ele><time>2026-04-07T08:07:31Z</time></trkpt>
<trkpt lat="43.2638800000" lon="-1.0563770000"><ele>132</ele><time>2026-04-07T08:07:33Z</time></trkpt>
<trkpt lat="43.2638930000" lon="-1.0563570000"><ele>132</ele><time>2026-04-07T08:07:35Z</time></trkpt>
<trkpt lat="43.2639050000" lon="-1.0563300000"><ele>132</ele><time>2026-04-07T08:07:37Z</time></trkpt>
<trkpt lat="43.2639170000" lon="-1.0563100000"><ele>132</ele><time>2026-04-07T08:07:39Z</time></trkpt>
<trkpt lat="43.2639320000" lon="-1.0562920000"><ele>133</ele><time>2026-04-07T08:07:41Z</time></trkpt>
<trkpt lat="43.2639470000" lon="-1.0562670000"><ele>133</ele><time>2026-04-07T08:07:43Z</time></trkpt>
<trkpt lat="43.2639620000" lon="-1.0562470000"><ele>133</ele><time>2026-04-07T08:07:45Z</time></trkpt>
<trkpt lat="43.2639570000" lon="-1.0562130000"><ele>134</ele><time>2026-04-07T08:08:01Z</time></trkpt>
<trkpt lat="43.2639700000" lon="-1.0561850000"><ele>134</ele><time>2026-04-07T08:08:03Z</time></trkpt>
<trkpt lat="43.2639850000" lon="-1.0561550000"><ele>134</ele><time>2026-04-07T08:08:05Z</time></trkpt>
<trkpt lat="43.2640000000" lon="-1.0561300000"><ele>134</ele><time>2026-04-07T08:08:07Z</time></trkpt>
<trkpt lat="43.2640120000" lon="-1.0561070000"><ele>134</ele><time>2026-04-07T08:08:09Z</time></trkpt>
<trkpt lat="43.2640220000" lon="-1.0560870000"><ele>134</ele><time>2026-04-07T08:08:11Z</time></trkpt>
<trkpt lat="43.2640370000" lon="-1.0560620000"><ele>135</ele><time>2026-04-07T08:08:14Z</time></trkpt>
<trkpt lat="43.2640370000" lon="-1.0560370000"><ele>135</ele><time>2026-04-07T08:08:17Z</time></trkpt>
<trkpt lat="43.2640570000" lon="-1.0560070000"><ele>135</ele><time>2026-04-07T08:08:20Z</time></trkpt>
<trkpt lat="43.2640920000" lon="-1.0559870000"><ele>135</ele><time>2026-04-07T08:08:22Z</time></trkpt>
<trkpt lat="43.2641150000" lon="-1.0559750000"><ele>135</ele><time>2026-04-07T08:08:23Z</time></trkpt>
<trkpt lat="43.2641320000" lon="-1.0559600000"><ele>135</ele><time>2026-04-07T08:08:24Z</time></trkpt>
<trkpt lat="43.2641500000" lon="-1.0559430000"><ele>136</ele><time>2026-04-07T08:08:25Z</time></trkpt>
<trkpt lat="43.2641620000" lon="-1.0559270000"><ele>136</ele><time>2026-04-07T08:08:26Z</time></trkpt>
<trkpt lat="43.2641900000" lon="-1.0558970000"><ele>136</ele><time>2026-04-07T08:08:28Z</time></trkpt>
<trkpt lat="43.2642150000" lon="-1.0558820000"><ele>136</ele><time>2026-04-07T08:08:30Z</time></trkpt>
<trkpt lat="43.2642320000" lon="-1.0558670000"><ele>136</ele><time>2026-04-07T08:08:32Z</time></trkpt>
<trkpt lat="43.2642470000" lon="-1.0558520000"><ele>136</ele><time>2026-04-07T08:08:34Z</time></trkpt>
<trkpt lat="43.2642650000" lon="-1.0558270000"><ele>137</ele><time>2026-04-07T08:08:37Z</time></trkpt>
<trkpt lat="43.2642820000" lon="-1.0558070000"><ele>137</ele><time>2026-04-07T08:08:39Z</time></trkpt>
<trkpt lat="43.2642950000" lon="-1.0557850000"><ele>137</ele><time>2026-04-07T08:08:41Z</time></trkpt>
<trkpt lat="43.2643070000" lon="-1.0557620000"><ele>137</ele><time>2026-04-07T08:08:43Z</time></trkpt>
<trkpt lat="43.2643220000" lon="-1.0557450000"><ele>137</ele><time>2026-04-07T08:08:45Z</time></trkpt>
<trkpt lat="43.2643370000" lon="-1.0557270000"><ele>137</ele><time>2026-04-07T08:08:47Z</time></trkpt>
<trkpt lat="43.2643500000" lon="-1.0557120000"><ele>138</ele><time>2026-04-07T08:08:49Z</time></trkpt>
<trkpt lat="43.2643670000" lon="-1.0556850000"><ele>138</ele><time>2026-04-07T08:08:52Z</time></trkpt>
<trkpt lat="43.2643850000" lon="-1.0556600000"><ele>138</ele><time>2026-04-07T08:08:55Z</time></trkpt>
<trkpt lat="43.2644050000" lon="-1.0556350000"><ele>138</ele><time>2026-04-07T08:08:58Z</time></trkpt>
<trkpt lat="43.2644200000" lon="-1.0556170000"><ele>138</ele><time>2026-04-07T08:09:00Z</time></trkpt>
<trkpt lat="43.2644350000" lon="-1.0555970000"><ele>138</ele><time>2026-04-07T08:09:02Z</time></trkpt>
<trkpt lat="43.2644520000" lon="-1.0555770000"><ele>139</ele><time>2026-04-07T08:09:05Z</time></trkpt>
<trkpt lat="43.2644720000" lon="-1.0555570000"><ele>139</ele><time>2026-04-07T08:09:09Z</time></trkpt>
<trkpt lat="43.2644950000" lon="-1.0555430000"><ele>140</ele><time>2026-04-07T08:09:12Z</time></trkpt>
<trkpt lat="43.2645150000" lon="-1.0555320000"><ele>140</ele><time>2026-04-07T08:09:14Z</time></trkpt>
<trkpt lat="43.2645370000" lon="-1.0555170000"><ele>140</ele><time>2026-04-07T08:09:17Z</time></trkpt>
<trkpt lat="43.2645570000" lon="-1.0555030000"><ele>140</ele><time>2026-04-07T08:09:20Z</time></trkpt>
<trkpt lat="43.2645770000" lon="-1.0555000000"><ele>141</ele><time>2026-04-07T08:09:23Z</time></trkpt>
<trkpt lat="43.2645970000" lon="-1.0554950000"><ele>141</ele><time>2026-04-07T08:09:25Z</time></trkpt>
<trkpt lat="43.2646250000" lon="-1.0554820000"><ele>141</ele><time>2026-04-07T08:09:27Z</time></trkpt>
<trkpt lat="43.2646470000" lon="-1.0554800000"><ele>141</ele><time>2026-04-07T08:09:30Z</time></trkpt>
<trkpt lat="43.2646620000" lon="-1.0554620000"><ele>141</ele><time>2026-04-07T08:09:32Z</time></trkpt>
<trkpt lat="43.2646820000" lon="-1.0554620000"><ele>141</ele><time>2026-04-07T08:09:34Z</time></trkpt>
<trkpt lat="43.2647020000" lon="-1.0554720000"><ele>142</ele><time>2026-04-07T08:09:36Z</time></trkpt>
<trkpt lat="43.2647050000" lon="-1.0554970000"><ele>142</ele><time>2026-04-07T08:09:39Z</time></trkpt>
<trkpt lat="43.2646970000" lon="-1.0555200000"><ele>142</ele><time>2026-04-07T08:09:42Z</time></trkpt>
<trkpt lat="43.2646870000" lon="-1.0554920000"><ele>142</ele><time>2026-04-07T08:09:47Z</time></trkpt>
<trkpt lat="43.2647100000" lon="-1.0554800000"><ele>142</ele><time>2026-04-07T08:10:01Z</time></trkpt>
<trkpt lat="43.2647420000" lon="-1.0554800000"><ele>142</ele><time>2026-04-07T08:10:03Z</time></trkpt>
<trkpt lat="43.2647720000" lon="-1.0554880000"><ele>142</ele><time>2026-04-07T08:10:05Z</time></trkpt>
<trkpt lat="43.2647970000" lon="-1.0554970000"><ele>143</ele><time>2026-04-07T08:10:07Z</time></trkpt>
<trkpt lat="43.2648170000" lon="-1.0554950000"><ele>143</ele><time>2026-04-07T08:10:09Z</time></trkpt>
<trkpt lat="43.2648420000" lon="-1.0554950000"><ele>143</ele><time>2026-04-07T08:10:12Z</time></trkpt>
<trkpt lat="43.2648600000" lon="-1.0554920000"><ele>143</ele><time>2026-04-07T08:10:14Z</time></trkpt>
<trkpt lat="43.2648850000" lon="-1.0554870000"><ele>143</ele><time>2026-04-07T08:10:16Z</time></trkpt>
<trkpt lat="43.2649050000" lon="-1.0554870000"><ele>144</ele><time>2026-04-07T08:10:19Z</time></trkpt>
<trkpt lat="43.2649270000" lon="-1.0554880000"><ele>144</ele><time>2026-04-07T08:10:23Z</time></trkpt>
<trkpt lat="43.2649450000" lon="-1.0554770000"><ele>144</ele><time>2026-04-07T08:10:25Z</time></trkpt>
<trkpt lat="43.2649670000" lon="-1.0554700000"><ele>145</ele><time>2026-04-07T08:10:27Z</time></trkpt>
<trkpt lat="43.2649870000" lon="-1.0554670000"><ele>145</ele><time>2026-04-07T08:10:29Z</time></trkpt>
<trkpt lat="43.2650050000" lon="-1.0554620000"><ele>145</ele><time>2026-04-07T08:10:31Z</time></trkpt>
<trkpt lat="43.2650270000" lon="-1.0554470000"><ele>145</ele><time>2026-04-07T08:10:33Z</time></trkpt>
<trkpt lat="43.2650470000" lon="-1.0554320000"><ele>145</ele><time>2026-04-07T08:10:35Z</time></trkpt>
<trkpt lat="43.2650620000" lon="-1.0554200000"><ele>145</ele><time>2026-04-07T08:10:37Z</time></trkpt>
<trkpt lat="43.2650820000" lon="-1.0554020000"><ele>146</ele><time>2026-04-07T08:10:39Z</time></trkpt>
<trkpt lat="43.2651020000" lon="-1.0553900000"><ele>146</ele><time>2026-04-07T08:10:41Z</time></trkpt>
<trkpt lat="43.2651250000" lon="-1.0553680000"><ele>146</ele><time>2026-04-07T08:10:44Z</time></trkpt>
<trkpt lat="43.2651370000" lon="-1.0553420000"><ele>146</ele><time>2026-04-07T08:10:47Z</time></trkpt>
<trkpt lat="43.2651450000" lon="-1.0553120000"><ele>147</ele><time>2026-04-07T08:10:50Z</time></trkpt>
<trkpt lat="43.2651520000" lon="-1.0552770000"><ele>147</ele><time>2026-04-07T08:10:53Z</time></trkpt>
<trkpt lat="43.2651520000" lon="-1.0552520000"><ele>148</ele><time>2026-04-07T08:10:55Z</time></trkpt>
<trkpt lat="43.2651570000" lon="-1.0552170000"><ele>148</ele><time>2026-04-07T08:10:57Z</time></trkpt>
<trkpt lat="43.2651600000" lon="-1.0551820000"><ele>148</ele><time>2026-04-07T08:10:59Z</time></trkpt>
<trkpt lat="43.2651620000" lon="-1.0551550000"><ele>148</ele><time>2026-04-07T08:11:01Z</time></trkpt>
<trkpt lat="43.2651620000" lon="-1.0551250000"><ele>148</ele><time>2026-04-07T08:11:03Z</time></trkpt>
<trkpt lat="43.2651620000" lon="-1.0550970000"><ele>149</ele><time>2026-04-07T08:11:05Z</time></trkpt>
<trkpt lat="43.2651570000" lon="-1.0550670000"><ele>149</ele><time>2026-04-07T08:11:07Z</time></trkpt>
<trkpt lat="43.2651550000" lon="-1.0550420000"><ele>149</ele><time>2026-04-07T08:11:09Z</time></trkpt>
<trkpt lat="43.2651520000" lon="-1.0550150000"><ele>149</ele><time>2026-04-07T08:11:11Z</time></trkpt>
<trkpt lat="43.2651520000" lon="-1.0549870000"><ele>149</ele><time>2026-04-07T08:11:13Z</time></trkpt>
<trkpt lat="43.2651500000" lon="-1.0549580000"><ele>149</ele><time>2026-04-07T08:11:15Z</time></trkpt>
<trkpt lat="43.2651450000" lon="-1.0549320000"><ele>150</ele><time>2026-04-07T08:11:17Z</time></trkpt>
<trkpt lat="43.2651470000" lon="-1.0549070000"><ele>150</ele><time>2026-04-07T08:11:19Z</time></trkpt>
<trkpt lat="43.2651420000" lon="-1.0548820000"><ele>150</ele><time>2026-04-07T08:11:21Z</time></trkpt>
<trkpt lat="43.2651370000" lon="-1.0548570000"><ele>150</ele><time>2026-04-07T08:11:23Z</time></trkpt>
<trkpt lat="43.2651320000" lon="-1.0548320000"><ele>150</ele><time>2026-04-07T08:11:25Z</time></trkpt>
<trkpt lat="43.2651320000" lon="-1.0548070000"><ele>150</ele><time>2026-04-07T08:11:27Z</time></trkpt>
<trkpt lat="43.2651370000" lon="-1.0547700000"><ele>151</ele><time>2026-04-07T08:11:30Z</time></trkpt>
<trkpt lat="43.2651470000" lon="-1.0547420000"><ele>151</ele><time>2026-04-07T08:11:32Z</time></trkpt>
<trkpt lat="43.2651600000" lon="-1.0547120000"><ele>151</ele><time>2026-04-07T08:11:34Z</time></trkpt>
<trkpt lat="43.2651720000" lon="-1.0546870000"><ele>151</ele><time>2026-04-07T08:11:36Z</time></trkpt>
<trkpt lat="43.2651820000" lon="-1.0546650000"><ele>151</ele><time>2026-04-07T08:11:38Z</time></trkpt>
<trkpt lat="43.2651970000" lon="-1.0546420000"><ele>151</ele><time>2026-04-07T08:11:40Z</time></trkpt>
<trkpt lat="43.2652070000" lon="-1.0546170000"><ele>151</ele><time>2026-04-07T08:11:42Z</time></trkpt>
<trkpt lat="43.2652220000" lon="-1.0545970000"><ele>152</ele><time>2026-04-07T08:11:44Z</time></trkpt>
<trkpt lat="43.2652420000" lon="-1.0545770000"><ele>152</ele><time>2026-04-07T08:11:46Z</time></trkpt>
<trkpt lat="43.2652570000" lon="-1.0545570000"><ele>152</ele><time>2026-04-07T08:11:48Z</time></trkpt>
<trkpt lat="43.2652720000" lon="-1.0545370000"><ele>152</ele><time>2026-04-07T08:11:50Z</time></trkpt>
<trkpt lat="43.2652920000" lon="-1.0545150000"><ele>152</ele><time>2026-04-07T08:11:52Z</time></trkpt>
<trkpt lat="43.2653070000" lon="-1.0544970000"><ele>153</ele><time>2026-04-07T08:11:54Z</time></trkpt>
<trkpt lat="43.2653250000" lon="-1.0544770000"><ele>153</ele><time>2026-04-07T08:11:56Z</time></trkpt>
<trkpt lat="43.2653370000" lon="-1.0544570000"><ele>153</ele><time>2026-04-07T08:11:58Z</time></trkpt>
<trkpt lat="43.2653520000" lon="-1.0544300000"><ele>153</ele><time>2026-04-07T08:12:01Z</time></trkpt>
<trkpt lat="43.2653650000" lon="-1.0544100000"><ele>153</ele><time>2026-04-07T08:12:03Z</time></trkpt>
<trkpt lat="43.2653770000" lon="-1.0543900000"><ele>153</ele><time>2026-04-07T08:12:05Z</time></trkpt>
<trkpt lat="43.2653950000" lon="-1.0543570000"><ele>154</ele><time>2026-04-07T08:12:10Z</time></trkpt>
<trkpt lat="43.2653970000" lon="-1.0543320000"><ele>154</ele><time>2026-04-07T08:12:12Z</time></trkpt>
<trkpt lat="43.2654120000" lon="-1.0543070000"><ele>154</ele><time>2026-04-07T08:12:16Z</time></trkpt>
<trkpt lat="43.2654320000" lon="-1.0542880000"><ele>154</ele><time>2026-04-07T08:12:18Z</time></trkpt>
<trkpt lat="43.2654450000" lon="-1.0542620000"><ele>154</ele><time>2026-04-07T08:12:26Z</time></trkpt>
<trkpt lat="43.2654600000" lon="-1.0542450000"><ele>155</ele><time>2026-04-07T08:12:28Z</time></trkpt>
<trkpt lat="43.2654770000" lon="-1.0542270000"><ele>155</ele><time>2026-04-07T08:12:30Z</time></trkpt>
<trkpt lat="43.2654950000" lon="-1.0542120000"><ele>155</ele><time>2026-04-07T08:12:32Z</time></trkpt>
<trkpt lat="43.2655120000" lon="-1.0541930000"><ele>155</ele><time>2026-04-07T08:12:34Z</time></trkpt>
<trkpt lat="43.2655270000" lon="-1.0541770000"><ele>155</ele><time>2026-04-07T08:12:36Z</time></trkpt>
<trkpt lat="43.2655450000" lon="-1.0541570000"><ele>155</ele><time>2026-04-07T08:12:38Z</time></trkpt>
<trkpt lat="43.2655600000" lon="-1.0541370000"><ele>155</ele><time>2026-04-07T08:12:40Z</time></trkpt>
<trkpt lat="43.2655720000" lon="-1.0541170000"><ele>156</ele><time>2026-04-07T08:12:42Z</time></trkpt>
<trkpt lat="43.2655870000" lon="-1.0540970000"><ele>156</ele><time>2026-04-07T08:12:44Z</time></trkpt>
<trkpt lat="43.2656020000" lon="-1.0540770000"><ele>156</ele><time>2026-04-07T08:12:46Z</time></trkpt>
<trkpt lat="43.2656200000" lon="-1.0540670000"><ele>156</ele><time>2026-04-07T08:12:48Z</time></trkpt>
<trkpt lat="43.2656370000" lon="-1.0540470000"><ele>157</ele><time>2026-04-07T08:12:50Z</time></trkpt>
<trkpt lat="43.2656520000" lon="-1.0540270000"><ele>157</ele><time>2026-04-07T08:12:52Z</time></trkpt>
<trkpt lat="43.2656670000" lon="-1.0540120000"><ele>157</ele><time>2026-04-07T08:12:54Z</time></trkpt>
<trkpt lat="43.2656800000" lon="-1.0539920000"><ele>157</ele><time>2026-04-07T08:12:56Z</time></trkpt>
<trkpt lat="43.2656920000" lon="-1.0539720000"><ele>157</ele><time>2026-04-07T08:12:58Z</time></trkpt>
<trkpt lat="43.2657070000" lon="-1.0539470000"><ele>158</ele><time>2026-04-07T08:13:00Z</time></trkpt>
<trkpt lat="43.2657220000" lon="-1.0539270000"><ele>158</ele><time>2026-04-07T08:13:02Z</time></trkpt>
<trkpt lat="43.2657400000" lon="-1.0539070000"><ele>158</ele><time>2026-04-07T08:13:04Z</time></trkpt>
<trkpt lat="43.2657570000" lon="-1.0538870000"><ele>158</ele><time>2026-04-07T08:13:06Z</time></trkpt>
<trkpt lat="43.2657720000" lon="-1.0538670000"><ele>158</ele><time>2026-04-07T08:13:08Z</time></trkpt>
<trkpt lat="43.2657870000" lon="-1.0538470000"><ele>159</ele><time>2026-04-07T08:13:10Z</time></trkpt>
<trkpt lat="43.2658020000" lon="-1.0538170000"><ele>159</ele><time>2026-04-07T08:13:13Z</time></trkpt>
<trkpt lat="43.2658170000" lon="-1.0537870000"><ele>159</ele><time>2026-04-07T08:13:16Z</time></trkpt>
<trkpt lat="43.2658270000" lon="-1.0537670000"><ele>159</ele><time>2026-04-07T08:13:18Z</time></trkpt>
<trkpt lat="43.2658400000" lon="-1.0537430000"><ele>160</ele><time>2026-04-07T08:13:20Z</time></trkpt>
<trkpt lat="43.2658570000" lon="-1.0537220000"><ele>160</ele><time>2026-04-07T08:13:22Z</time></trkpt>
<trkpt lat="43.2658820000" lon="-1.0536970000"><ele>160</ele><time>2026-04-07T08:13:24Z</time></trkpt>
<trkpt lat="43.2659120000" lon="-1.0536770000"><ele>160</ele><time>2026-04-07T08:13:26Z</time></trkpt>
<trkpt lat="43.2659270000" lon="-1.0536650000"><ele>160</ele><time>2026-04-07T08:13:28Z</time></trkpt>
<trkpt lat="43.2659420000" lon="-1.0536450000"><ele>161</ele><time>2026-04-07T08:13:30Z</time></trkpt>
<trkpt lat="43.2659520000" lon="-1.0536170000"><ele>162</ele><time>2026-04-07T08:14:12Z</time></trkpt>
<trkpt lat="43.2659700000" lon="-1.0535920000"><ele>162</ele><time>2026-04-07T08:14:14Z</time></trkpt>
<trkpt lat="43.2659870000" lon="-1.0535650000"><ele>162</ele><time>2026-04-07T08:14:16Z</time></trkpt>
<trkpt lat="43.2660050000" lon="-1.0535400000"><ele>162</ele><time>2026-04-07T08:14:18Z</time></trkpt>
<trkpt lat="43.2660220000" lon="-1.0535170000"><ele>162</ele><time>2026-04-07T08:14:20Z</time></trkpt>
<trkpt lat="43.2660320000" lon="-1.0534970000"><ele>162</ele><time>2026-04-07T08:14:22Z</time></trkpt>
<trkpt lat="43.2660470000" lon="-1.0534730000"><ele>163</ele><time>2026-04-07T08:14:24Z</time></trkpt>
<trkpt lat="43.2660600000" lon="-1.0534520000"><ele>163</ele><time>2026-04-07T08:14:26Z</time></trkpt>
<trkpt lat="43.2660720000" lon="-1.0534320000"><ele>163</ele><time>2026-04-07T08:14:28Z</time></trkpt>
<trkpt lat="43.2660870000" lon="-1.0534070000"><ele>163</ele><time>2026-04-07T08:14:30Z</time></trkpt>
<trkpt lat="43.2661000000" lon="-1.0533870000"><ele>163</ele><time>2026-04-07T08:14:32Z</time></trkpt>
<trkpt lat="43.2661150000" lon="-1.0533670000"><ele>163</ele><time>2026-04-07T08:14:34Z</time></trkpt>
<trkpt lat="43.2661320000" lon="-1.0533420000"><ele>164</ele><time>2026-04-07T08:14:36Z</time></trkpt>
<trkpt lat="43.2661270000" lon="-1.0533170000"><ele>164</ele><time>2026-04-07T08:14:39Z</time></trkpt>
<trkpt lat="43.2661320000" lon="-1.0533420000"><ele>164</ele><time>2026-04-07T08:15:00Z</time></trkpt>
<trkpt lat="43.2661500000" lon="-1.0533570000"><ele>164</ele><time>2026-04-07T08:15:03Z</time></trkpt>
<trkpt lat="43.2661670000" lon="-1.0533670000"><ele>164</ele><time>2026-04-07T08:17:31Z</time></trkpt>
<trkpt lat="43.2661950000" lon="-1.0533720000"><ele>164</ele><time>2026-04-07T08:17:33Z</time></trkpt>
<trkpt lat="43.2662120000" lon="-1.0533620000"><ele>163</ele><time>2026-04-07T08:17:38Z</time></trkpt>
<trkpt lat="43.2661920000" lon="-1.0533600000"><ele>164</ele><time>2026-04-07T08:17:56Z</time></trkpt>
<trkpt lat="43.2661900000" lon="-1.0533270000"><ele>164</ele><time>2026-04-07T08:17:59Z</time></trkpt>
<trkpt lat="43.2662020000" lon="-1.0533020000"><ele>164</ele><time>2026-04-07T08:18:01Z</time></trkpt>
<trkpt lat="43.2662220000" lon="-1.0532870000"><ele>164</ele><time>2026-04-07T08:18:04Z</time></trkpt>
<trkpt lat="43.2662250000" lon="-1.0532600000"><ele>164</ele><time>2026-04-07T08:19:20Z</time></trkpt>
<trkpt lat="43.2662430000" lon="-1.0532420000"><ele>164</ele><time>2026-04-07T08:19:22Z</time></trkpt>
<trkpt lat="43.2662670000" lon="-1.0532270000"><ele>164</ele><time>2026-04-07T08:19:24Z</time></trkpt>
<trkpt lat="43.2662900000" lon="-1.0532200000"><ele>165</ele><time>2026-04-07T08:19:26Z</time></trkpt>
<trkpt lat="43.2663120000" lon="-1.0532200000"><ele>165</ele><time>2026-04-07T08:19:28Z</time></trkpt>
<trkpt lat="43.2663370000" lon="-1.0532220000"><ele>165</ele><time>2026-04-07T08:19:30Z</time></trkpt>
<trkpt lat="43.2663620000" lon="-1.0532220000"><ele>165</ele><time>2026-04-07T08:19:32Z</time></trkpt>
<trkpt lat="43.2663820000" lon="-1.0532220000"><ele>165</ele><time>2026-04-07T08:19:34Z</time></trkpt>
<trkpt lat="43.2664050000" lon="-1.0532170000"><ele>165</ele><time>2026-04-07T08:19:36Z</time></trkpt>
<trkpt lat="43.2664350000" lon="-1.0532200000"><ele>166</ele><time>2026-04-07T08:19:38Z</time></trkpt>
<trkpt lat="43.2664600000" lon="-1.0532270000"><ele>166</ele><time>2026-04-07T08:19:41Z</time></trkpt>
<trkpt lat="43.2664770000" lon="-1.0532420000"><ele>166</ele><time>2026-04-07T08:19:43Z</time></trkpt>
<trkpt lat="43.2664970000" lon="-1.0532630000"><ele>166</ele><time>2026-04-07T08:19:45Z</time></trkpt>
<trkpt lat="43.2665120000" lon="-1.0532850000"><ele>167</ele><time>2026-04-07T08:19:47Z</time></trkpt>
<trkpt lat="43.2665270000" lon="-1.0533070000"><ele>167</ele><time>2026-04-07T08:19:49Z</time></trkpt>
<trkpt lat="43.2665420000" lon="-1.0533380000"><ele>167</ele><time>2026-04-07T08:19:51Z</time></trkpt>
<trkpt lat="43.2665570000" lon="-1.0533700000"><ele>167</ele><time>2026-04-07T08:19:53Z</time></trkpt>
<trkpt lat="43.2665770000" lon="-1.0534020000"><ele>167</ele><time>2026-04-07T08:19:55Z</time></trkpt>
<trkpt lat="43.2665950000" lon="-1.0534330000"><ele>167</ele><time>2026-04-07T08:19:57Z</time></trkpt>
<trkpt lat="43.2666100000" lon="-1.0534650000"><ele>167</ele><time>2026-04-07T08:19:59Z</time></trkpt>
<trkpt lat="43.2666270000" lon="-1.0534870000"><ele>168</ele><time>2026-04-07T08:20:01Z</time></trkpt>
<trkpt lat="43.2666450000" lon="-1.0535070000"><ele>168</ele><time>2026-04-07T08:20:04Z</time></trkpt>
<trkpt lat="43.2666620000" lon="-1.0535270000"><ele>168</ele><time>2026-04-07T08:20:08Z</time></trkpt>
<trkpt lat="43.2666870000" lon="-1.0535350000"><ele>169</ele><time>2026-04-07T08:20:11Z</time></trkpt>
<trkpt lat="43.2667070000" lon="-1.0535370000"><ele>169</ele><time>2026-04-07T08:20:13Z</time></trkpt>
<trkpt lat="43.2667320000" lon="-1.0535470000"><ele>169</ele><time>2026-04-07T08:20:16Z</time></trkpt>
<trkpt lat="43.2667570000" lon="-1.0535520000"><ele>169</ele><time>2026-04-07T08:20:28Z</time></trkpt>
<trkpt lat="43.2667920000" lon="-1.0535620000"><ele>169</ele><time>2026-04-07T08:20:30Z</time></trkpt>
<trkpt lat="43.2668100000" lon="-1.0535670000"><ele>169</ele><time>2026-04-07T08:20:31Z</time></trkpt>
<trkpt lat="43.2668270000" lon="-1.0535720000"><ele>169</ele><time>2026-04-07T08:20:32Z</time></trkpt>
<trkpt lat="43.2668570000" lon="-1.0535870000"><ele>169</ele><time>2026-04-07T08:20:34Z</time></trkpt>
<trkpt lat="43.2668770000" lon="-1.0535920000"><ele>170</ele><time>2026-04-07T08:20:38Z</time></trkpt>
<trkpt lat="43.2669020000" lon="-1.0535950000"><ele>170</ele><time>2026-04-07T08:20:40Z</time></trkpt>
<trkpt lat="43.2669300000" lon="-1.0536020000"><ele>170</ele><time>2026-04-07T08:20:42Z</time></trkpt>
<trkpt lat="43.2669550000" lon="-1.0536170000"><ele>170</ele><time>2026-04-07T08:20:44Z</time></trkpt>
<trkpt lat="43.2669750000" lon="-1.0536250000"><ele>170</ele><time>2026-04-07T08:20:46Z</time></trkpt>
<trkpt lat="43.2669920000" lon="-1.0536250000"><ele>170</ele><time>2026-04-07T08:20:48Z</time></trkpt>
<trkpt lat="43.2670120000" lon="-1.0536320000"><ele>171</ele><time>2026-04-07T08:20:50Z</time></trkpt>
<trkpt lat="43.2670320000" lon="-1.0536470000"><ele>171</ele><time>2026-04-07T08:20:52Z</time></trkpt>
<trkpt lat="43.2670550000" lon="-1.0536600000"><ele>171</ele><time>2026-04-07T08:20:54Z</time></trkpt>
<trkpt lat="43.2670730000" lon="-1.0536620000"><ele>171</ele><time>2026-04-07T08:20:55Z</time></trkpt>
<trkpt lat="43.2671020000" lon="-1.0536670000"><ele>171</ele><time>2026-04-07T08:20:57Z</time></trkpt>
<trkpt lat="43.2671220000" lon="-1.0536850000"><ele>172</ele><time>2026-04-07T08:21:00Z</time></trkpt>
<trkpt lat="43.2671350000" lon="-1.0537150000"><ele>172</ele><time>2026-04-07T08:21:02Z</time></trkpt>
<trkpt lat="43.2671520000" lon="-1.0537620000"><ele>172</ele><time>2026-04-07T08:21:04Z</time></trkpt>
<trkpt lat="43.2671620000" lon="-1.0537920000"><ele>172</ele><time>2026-04-07T08:21:05Z</time></trkpt>
<trkpt lat="43.2671920000" lon="-1.0538120000"><ele>172</ele><time>2026-04-07T08:21:07Z</time></trkpt>
<trkpt lat="43.2672120000" lon="-1.0538280000"><ele>172</ele><time>2026-04-07T08:21:09Z</time></trkpt>
<trkpt lat="43.2672320000" lon="-1.0538400000"><ele>172</ele><time>2026-04-07T08:21:11Z</time></trkpt>
<trkpt lat="43.2672520000" lon="-1.0538400000"><ele>172</ele><time>2026-04-07T08:21:14Z</time></trkpt>
<trkpt lat="43.2672800000" lon="-1.0538370000"><ele>172</ele><time>2026-04-07T08:21:17Z</time></trkpt>
<trkpt lat="43.2673020000" lon="-1.0538430000"><ele>172</ele><time>2026-04-07T08:21:19Z</time></trkpt>
<trkpt lat="43.2673300000" lon="-1.0538520000"><ele>172</ele><time>2026-04-07T08:21:21Z</time></trkpt>
<trkpt lat="43.2673600000" lon="-1.0538570000"><ele>172</ele><time>2026-04-07T08:21:23Z</time></trkpt>
<trkpt lat="43.2673770000" lon="-1.0538720000"><ele>172</ele><time>2026-04-07T08:21:24Z</time></trkpt>
<trkpt lat="43.2674020000" lon="-1.0538950000"><ele>172</ele><time>2026-04-07T08:21:26Z</time></trkpt>
<trkpt lat="43.2674220000" lon="-1.0539100000"><ele>172</ele><time>2026-04-07T08:21:28Z</time></trkpt>
<trkpt lat="43.2674450000" lon="-1.0539220000"><ele>172</ele><time>2026-04-07T08:21:30Z</time></trkpt>
<trkpt lat="43.2674650000" lon="-1.0539630000"><ele>172</ele><time>2026-04-07T08:21:32Z</time></trkpt>
<trkpt lat="43.2674700000" lon="-1.0539900000"><ele>172</ele><time>2026-04-07T08:21:33Z</time></trkpt>
<trkpt lat="43.2674820000" lon="-1.0540120000"><ele>173</ele><time>2026-04-07T08:21:35Z</time></trkpt>
<trkpt lat="43.2675050000" lon="-1.0540020000"><ele>173</ele><time>2026-04-07T08:21:39Z</time></trkpt>
<trkpt lat="43.2675220000" lon="-1.0540020000"><ele>173</ele><time>2026-04-07T08:21:41Z</time></trkpt>
<trkpt lat="43.2675470000" lon="-1.0540020000"><ele>173</ele><time>2026-04-07T08:21:43Z</time></trkpt>
<trkpt lat="43.2675770000" lon="-1.0540120000"><ele>173</ele><time>2026-04-07T08:21:45Z</time></trkpt>
<trkpt lat="43.2675920000" lon="-1.0540320000"><ele>173</ele><time>2026-04-07T08:21:46Z</time></trkpt>
<trkpt lat="43.2676170000" lon="-1.0540520000"><ele>173</ele><time>2026-04-07T08:21:48Z</time></trkpt>
<trkpt lat="43.2676320000" lon="-1.0540720000"><ele>173</ele><time>2026-04-07T08:21:49Z</time></trkpt>
<trkpt lat="43.2676520000" lon="-1.0541070000"><ele>173</ele><time>2026-04-07T08:21:51Z</time></trkpt>
<trkpt lat="43.2676770000" lon="-1.0541220000"><ele>173</ele><time>2026-04-07T08:21:53Z</time></trkpt>
<trkpt lat="43.2677050000" lon="-1.0541350000"><ele>173</ele><time>2026-04-07T08:21:55Z</time></trkpt>
<trkpt lat="43.2677370000" lon="-1.0541270000"><ele>173</ele><time>2026-04-07T08:21:57Z</time></trkpt>
<trkpt lat="43.2677600000" lon="-1.0541270000"><ele>173</ele><time>2026-04-07T08:21:59Z</time></trkpt>
<trkpt lat="43.2677870000" lon="-1.0541130000"><ele>173</ele><time>2026-04-07T08:22:02Z</time></trkpt>
<trkpt lat="43.2678120000" lon="-1.0541170000"><ele>173</ele><time>2026-04-07T08:22:04Z</time></trkpt>
<trkpt lat="43.2678400000" lon="-1.0541100000"><ele>173</ele><time>2026-04-07T08:22:06Z</time></trkpt>
<trkpt lat="43.2678620000" lon="-1.0540970000"><ele>173</ele><time>2026-04-07T08:22:08Z</time></trkpt>
<trkpt lat="43.2678820000" lon="-1.0540720000"><ele>173</ele><time>2026-04-07T08:22:10Z</time></trkpt>
<trkpt lat="43.2679000000" lon="-1.0540620000"><ele>173</ele><time>2026-04-07T08:22:11Z</time></trkpt>
<trkpt lat="43.2679220000" lon="-1.0540520000"><ele>173</ele><time>2026-04-07T08:22:13Z</time></trkpt>
<trkpt lat="43.2679520000" lon="-1.0540530000"><ele>173</ele><time>2026-04-07T08:22:15Z</time></trkpt>
<trkpt lat="43.2679800000" lon="-1.0540570000"><ele>173</ele><time>2026-04-07T08:22:17Z</time></trkpt>
<trkpt lat="43.2680050000" lon="-1.0540520000"><ele>173</ele><time>2026-04-07T08:22:19Z</time></trkpt>
<trkpt lat="43.2680300000" lon="-1.0540450000"><ele>173</ele><time>2026-04-07T08:22:21Z</time></trkpt>
<trkpt lat="43.2680520000" lon="-1.0540450000"><ele>173</ele><time>2026-04-07T08:22:23Z</time></trkpt>
<trkpt lat="43.2680770000" lon="-1.0540370000"><ele>173</ele><time>2026-04-07T08:22:25Z</time></trkpt>
<trkpt lat="43.2681000000" lon="-1.0540320000"><ele>173</ele><time>2026-04-07T08:22:27Z</time></trkpt>
<trkpt lat="43.2681200000" lon="-1.0540370000"><ele>173</ele><time>2026-04-07T08:22:30Z</time></trkpt>
<trkpt lat="43.2681470000" lon="-1.0540250000"><ele>173</ele><time>2026-04-07T08:22:33Z</time></trkpt>
<trkpt lat="43.2681750000" lon="-1.0540220000"><ele>173</ele><time>2026-04-07T08:22:35Z</time></trkpt>
<trkpt lat="43.2682020000" lon="-1.0540170000"><ele>173</ele><time>2026-04-07T08:22:37Z</time></trkpt>
<trkpt lat="43.2682370000" lon="-1.0540080000"><ele>173</ele><time>2026-04-07T08:22:39Z</time></trkpt>
<trkpt lat="43.2682620000" lon="-1.0540020000"><ele>173</ele><time>2026-04-07T08:22:41Z</time></trkpt>
<trkpt lat="43.2682820000" lon="-1.0539970000"><ele>173</ele><time>2026-04-07T08:22:43Z</time></trkpt>
<trkpt lat="43.2683020000" lon="-1.0539900000"><ele>173</ele><time>2026-04-07T08:22:45Z</time></trkpt>
<trkpt lat="43.2683170000" lon="-1.0539750000"><ele>173</ele><time>2026-04-07T08:22:47Z</time></trkpt>
<trkpt lat="43.2683300000" lon="-1.0539570000"><ele>173</ele><time>2026-04-07T08:22:49Z</time></trkpt>
<trkpt lat="43.2683520000" lon="-1.0539370000"><ele>172</ele><time>2026-04-07T08:22:51Z</time></trkpt>
<trkpt lat="43.2683750000" lon="-1.0539180000"><ele>172</ele><time>2026-04-07T08:22:53Z</time></trkpt>
<trkpt lat="43.2684000000" lon="-1.0538950000"><ele>172</ele><time>2026-04-07T08:22:55Z</time></trkpt>
<trkpt lat="43.2684220000" lon="-1.0538720000"><ele>172</ele><time>2026-04-07T08:22:57Z</time></trkpt>
<trkpt lat="43.2684370000" lon="-1.0538570000"><ele>172</ele><time>2026-04-07T08:22:59Z</time></trkpt>
<trkpt lat="43.2684570000" lon="-1.0538400000"><ele>172</ele><time>2026-04-07T08:23:01Z</time></trkpt>
<trkpt lat="43.2684800000" lon="-1.0538270000"><ele>172</ele><time>2026-04-07T08:23:03Z</time></trkpt>
<trkpt lat="43.2685000000" lon="-1.0538220000"><ele>172</ele><time>2026-04-07T08:23:05Z</time></trkpt>
<trkpt lat="43.2685270000" lon="-1.0538250000"><ele>172</ele><time>2026-04-07T08:23:07Z</time></trkpt>
<trkpt lat="43.2685450000" lon="-1.0538220000"><ele>171</ele><time>2026-04-07T08:23:09Z</time></trkpt>
<trkpt lat="43.2685620000" lon="-1.0538020000"><ele>171</ele><time>2026-04-07T08:23:12Z</time></trkpt>
<trkpt lat="43.2685820000" lon="-1.0537970000"><ele>171</ele><time>2026-04-07T08:23:15Z</time></trkpt>
<trkpt lat="43.2686020000" lon="-1.0538100000"><ele>170</ele><time>2026-04-07T08:23:19Z</time></trkpt>
<trkpt lat="43.2686250000" lon="-1.0538120000"><ele>170</ele><time>2026-04-07T08:23:22Z</time></trkpt>
<trkpt lat="43.2686450000" lon="-1.0538200000"><ele>170</ele><time>2026-04-07T08:23:24Z</time></trkpt>
<trkpt lat="43.2686670000" lon="-1.0538100000"><ele>170</ele><time>2026-04-07T08:23:27Z</time></trkpt>
<trkpt lat="43.2686870000" lon="-1.0538120000"><ele>170</ele><time>2026-04-07T08:23:29Z</time></trkpt>
<trkpt lat="43.2687200000" lon="-1.0538220000"><ele>170</ele><time>2026-04-07T08:23:31Z</time></trkpt>
<trkpt lat="43.2687520000" lon="-1.0538370000"><ele>170</ele><time>2026-04-07T08:23:33Z</time></trkpt>
<trkpt lat="43.2687850000" lon="-1.0538420000"><ele>170</ele><time>2026-04-07T08:23:35Z</time></trkpt>
<trkpt lat="43.2688120000" lon="-1.0538500000"><ele>169</ele><time>2026-04-07T08:23:37Z</time></trkpt>
<trkpt lat="43.2688320000" lon="-1.0538470000"><ele>169</ele><time>2026-04-07T08:23:39Z</time></trkpt>
<trkpt lat="43.2688570000" lon="-1.0538430000"><ele>169</ele><time>2026-04-07T08:23:41Z</time></trkpt>
<trkpt lat="43.2688850000" lon="-1.0538430000"><ele>169</ele><time>2026-04-07T08:23:43Z</time></trkpt>
<trkpt lat="43.2689070000" lon="-1.0538400000"><ele>169</ele><time>2026-04-07T08:23:45Z</time></trkpt>
<trkpt lat="43.2689320000" lon="-1.0538320000"><ele>169</ele><time>2026-04-07T08:23:47Z</time></trkpt>
<trkpt lat="43.2689520000" lon="-1.0538220000"><ele>169</ele><time>2026-04-07T08:23:49Z</time></trkpt>
<trkpt lat="43.2689720000" lon="-1.0538170000"><ele>169</ele><time>2026-04-07T08:23:51Z</time></trkpt>
<trkpt lat="43.2689970000" lon="-1.0537970000"><ele>168</ele><time>2026-04-07T08:23:53Z</time></trkpt>
<trkpt lat="43.2690170000" lon="-1.0537770000"><ele>168</ele><time>2026-04-07T08:23:55Z</time></trkpt>
<trkpt lat="43.2690400000" lon="-1.0537620000"><ele>168</ele><time>2026-04-07T08:23:57Z</time></trkpt>
<trkpt lat="43.2690600000" lon="-1.0537370000"><ele>168</ele><time>2026-04-07T08:23:59Z</time></trkpt>
<trkpt lat="43.2690570000" lon="-1.0537120000"><ele>168</ele><time>2026-04-07T08:24:09Z</time></trkpt>
<trkpt lat="43.2690800000" lon="-1.0537030000"><ele>168</ele><time>2026-04-07T08:24:33Z</time></trkpt>
<trkpt lat="43.2691000000" lon="-1.0537070000"><ele>168</ele><time>2026-04-07T08:24:38Z</time></trkpt>
<trkpt lat="43.2690820000" lon="-1.0537070000"><ele>168</ele><time>2026-04-07T08:26:58Z</time></trkpt>
<trkpt lat="43.2690720000" lon="-1.0537420000"><ele>168</ele><time>2026-04-07T08:27:02Z</time></trkpt>
<trkpt lat="43.2690620000" lon="-1.0537670000"><ele>168</ele><time>2026-04-07T08:27:04Z</time></trkpt>
<trkpt lat="43.2690550000" lon="-1.0537350000"><ele>169</ele><time>2026-04-07T08:27:23Z</time></trkpt>
<trkpt lat="43.2690370000" lon="-1.0537170000"><ele>169</ele><time>2026-04-07T08:27:25Z</time></trkpt>
<trkpt lat="43.2690050000" lon="-1.0537220000"><ele>169</ele><time>2026-04-07T08:27:27Z</time></trkpt>
<trkpt lat="43.2689870000" lon="-1.0537300000"><ele>169</ele><time>2026-04-07T08:27:28Z</time></trkpt>
<trkpt lat="43.2689570000" lon="-1.0537480000"><ele>169</ele><time>2026-04-07T08:27:30Z</time></trkpt>
<trkpt lat="43.2689450000" lon="-1.0537670000"><ele>169</ele><time>2026-04-07T08:27:31Z</time></trkpt>
<trkpt lat="43.2689270000" lon="-1.0537820000"><ele>169</ele><time>2026-04-07T08:27:32Z</time></trkpt>
<trkpt lat="43.2689070000" lon="-1.0537770000"><ele>169</ele><time>2026-04-07T08:27:34Z</time></trkpt>
<trkpt lat="43.2688850000" lon="-1.0537720000"><ele>169</ele><time>2026-04-07T08:27:38Z</time></trkpt>
<trkpt lat="43.2688650000" lon="-1.0537770000"><ele>169</ele><time>2026-04-07T08:27:40Z</time></trkpt>
<trkpt lat="43.2688470000" lon="-1.0537820000"><ele>169</ele><time>2026-04-07T08:27:41Z</time></trkpt>
<trkpt lat="43.2688220000" lon="-1.0537770000"><ele>170</ele><time>2026-04-07T08:27:43Z</time></trkpt>
<trkpt lat="43.2688020000" lon="-1.0537720000"><ele>170</ele><time>2026-04-07T08:27:45Z</time></trkpt>
<trkpt lat="43.2687750000" lon="-1.0537820000"><ele>170</ele><time>2026-04-07T08:27:50Z</time></trkpt>
<trkpt lat="43.2687470000" lon="-1.0537970000"><ele>170</ele><time>2026-04-07T08:27:51Z</time></trkpt>
<trkpt lat="43.2687620000" lon="-1.0538280000"><ele>169</ele><time>2026-04-07T08:28:12Z</time></trkpt>
<trkpt lat="43.2687870000" lon="-1.0538320000"><ele>169</ele><time>2026-04-07T08:28:14Z</time></trkpt>
<trkpt lat="43.2688070000" lon="-1.0538370000"><ele>169</ele><time>2026-04-07T08:28:16Z</time></trkpt>
<trkpt lat="43.2688170000" lon="-1.0538700000"><ele>169</ele><time>2026-04-07T08:29:00Z</time></trkpt>
<trkpt lat="43.2688420000" lon="-1.0538770000"><ele>169</ele><time>2026-04-07T08:29:03Z</time></trkpt>
<trkpt lat="43.2688600000" lon="-1.0538730000"><ele>170</ele><time>2026-04-07T08:29:04Z</time></trkpt>
<trkpt lat="43.2688800000" lon="-1.0538670000"><ele>170</ele><time>2026-04-07T08:29:05Z</time></trkpt>
<trkpt lat="43.2688970000" lon="-1.0538650000"><ele>170</ele><time>2026-04-07T08:29:06Z</time></trkpt>
<trkpt lat="43.2689200000" lon="-1.0538600000"><ele>170</ele><time>2026-04-07T08:29:07Z</time></trkpt>
<trkpt lat="43.2689420000" lon="-1.0538520000"><ele>170</ele><time>2026-04-07T08:29:09Z</time></trkpt>
<trkpt lat="43.2689670000" lon="-1.0538420000"><ele>169</ele><time>2026-04-07T08:29:18Z</time></trkpt>
<trkpt lat="43.2689800000" lon="-1.0538070000"><ele>169</ele><time>2026-04-07T08:29:20Z</time></trkpt>
<trkpt lat="43.2690070000" lon="-1.0537820000"><ele>170</ele><time>2026-04-07T08:29:22Z</time></trkpt>
<trkpt lat="43.2690250000" lon="-1.0537700000"><ele>169</ele><time>2026-04-07T08:29:23Z</time></trkpt>
<trkpt lat="43.2690470000" lon="-1.0537370000"><ele>169</ele><time>2026-04-07T08:29:25Z</time></trkpt>
<trkpt lat="43.2690670000" lon="-1.0537120000"><ele>169</ele><time>2026-04-07T08:29:27Z</time></trkpt>
<trkpt lat="43.2690820000" lon="-1.0536920000"><ele>169</ele><time>2026-04-07T08:29:29Z</time></trkpt>
<trkpt lat="43.2691000000" lon="-1.0536770000"><ele>169</ele><time>2026-04-07T08:29:31Z</time></trkpt>
<trkpt lat="43.2691170000" lon="-1.0536620000"><ele>169</ele><time>2026-04-07T08:29:33Z</time></trkpt>
<trkpt lat="43.2691320000" lon="-1.0536470000"><ele>169</ele><time>2026-04-07T08:29:35Z</time></trkpt>
<trkpt lat="43.2691470000" lon="-1.0536300000"><ele>169</ele><time>2026-04-07T08:29:37Z</time></trkpt>
<trkpt lat="43.2691670000" lon="-1.0536200000"><ele>169</ele><time>2026-04-07T08:29:39Z</time></trkpt>
<trkpt lat="43.2691870000" lon="-1.0536080000"><ele>169</ele><time>2026-04-07T08:29:42Z</time></trkpt>
<trkpt lat="43.2692120000" lon="-1.0536080000"><ele>168</ele><time>2026-04-07T08:29:46Z</time></trkpt>
<trkpt lat="43.2692320000" lon="-1.0536000000"><ele>168</ele><time>2026-04-07T08:29:48Z</time></trkpt>
<trkpt lat="43.2692570000" lon="-1.0535770000"><ele>168</ele><time>2026-04-07T08:29:50Z</time></trkpt>
<trkpt lat="43.2692720000" lon="-1.0535670000"><ele>169</ele><time>2026-04-07T08:29:52Z</time></trkpt>
<trkpt lat="43.2692920000" lon="-1.0535370000"><ele>168</ele><time>2026-04-07T08:29:55Z</time></trkpt>
<trkpt lat="43.2693120000" lon="-1.0535170000"><ele>168</ele><time>2026-04-07T08:29:57Z</time></trkpt>
<trkpt lat="43.2693320000" lon="-1.0535050000"><ele>168</ele><time>2026-04-07T08:29:59Z</time></trkpt>
<trkpt lat="43.2693530000" lon="-1.0534720000"><ele>168</ele><time>2026-04-07T08:30:01Z</time></trkpt>
<trkpt lat="43.2693670000" lon="-1.0534520000"><ele>168</ele><time>2026-04-07T08:30:02Z</time></trkpt>
<trkpt lat="43.2693900000" lon="-1.0534170000"><ele>168</ele><time>2026-04-07T08:30:04Z</time></trkpt>
<trkpt lat="43.2694100000" lon="-1.0533870000"><ele>168</ele><time>2026-04-07T08:30:06Z</time></trkpt>
<trkpt lat="43.2694270000" lon="-1.0533600000"><ele>168</ele><time>2026-04-07T08:30:08Z</time></trkpt>
<trkpt lat="43.2694520000" lon="-1.0533320000"><ele>168</ele><time>2026-04-07T08:30:10Z</time></trkpt>
<trkpt lat="43.2694720000" lon="-1.0533020000"><ele>168</ele><time>2026-04-07T08:30:12Z</time></trkpt>
<trkpt lat="43.2694820000" lon="-1.0532670000"><ele>168</ele><time>2026-04-07T08:30:14Z</time></trkpt>
<trkpt lat="43.2694970000" lon="-1.0532300000"><ele>168</ele><time>2026-04-07T08:30:16Z</time></trkpt>
<trkpt lat="43.2695120000" lon="-1.0532080000"><ele>168</ele><time>2026-04-07T08:30:18Z</time></trkpt>
<trkpt lat="43.2695270000" lon="-1.0531870000"><ele>168</ele><time>2026-04-07T08:30:20Z</time></trkpt>
<trkpt lat="43.2695200000" lon="-1.0532150000"><ele>168</ele><time>2026-04-07T08:30:25Z</time></trkpt>
<trkpt lat="43.2695250000" lon="-1.0531820000"><ele>168</ele><time>2026-04-07T08:30:31Z</time></trkpt>
<trkpt lat="43.2695320000" lon="-1.0531420000"><ele>168</ele><time>2026-04-07T08:30:33Z</time></trkpt>
<trkpt lat="43.2695450000" lon="-1.0531070000"><ele>168</ele><time>2026-04-07T08:30:35Z</time></trkpt>
<trkpt lat="43.2695570000" lon="-1.0530850000"><ele>168</ele><time>2026-04-07T08:30:37Z</time></trkpt>
<trkpt lat="43.2695700000" lon="-1.0530570000"><ele>168</ele><time>2026-04-07T08:30:39Z</time></trkpt>
<trkpt lat="43.2695770000" lon="-1.0530270000"><ele>168</ele><time>2026-04-07T08:30:41Z</time></trkpt>
<trkpt lat="43.2695820000" lon="-1.0530020000"><ele>168</ele><time>2026-04-07T08:30:43Z</time></trkpt>
<trkpt lat="43.2695900000" lon="-1.0529770000"><ele>168</ele><time>2026-04-07T08:30:45Z</time></trkpt>
<trkpt lat="43.2696020000" lon="-1.0529520000"><ele>167</ele><time>2026-04-07T08:30:48Z</time></trkpt>
<trkpt lat="43.2696170000" lon="-1.0529370000"><ele>167</ele><time>2026-04-07T08:30:50Z</time></trkpt>
<trkpt lat="43.2696270000" lon="-1.0528980000"><ele>167</ele><time>2026-04-07T08:30:52Z</time></trkpt>
<trkpt lat="43.2696370000" lon="-1.0528650000"><ele>167</ele><time>2026-04-07T08:30:54Z</time></trkpt>
<trkpt lat="43.2696470000" lon="-1.0528370000"><ele>167</ele><time>2026-04-07T08:30:56Z</time></trkpt>
<trkpt lat="43.2696570000" lon="-1.0528020000"><ele>167</ele><time>2026-04-07T08:30:58Z</time></trkpt>
<trkpt lat="43.2696670000" lon="-1.0527670000"><ele>167</ele><time>2026-04-07T08:31:00Z</time></trkpt>
<trkpt lat="43.2696720000" lon="-1.0527300000"><ele>167</ele><time>2026-04-07T08:31:02Z</time></trkpt>
<trkpt lat="43.2696770000" lon="-1.0527020000"><ele>167</ele><time>2026-04-07T08:31:04Z</time></trkpt>
<trkpt lat="43.2696820000" lon="-1.0526720000"><ele>167</ele><time>2026-04-07T08:31:06Z</time></trkpt>
<trkpt lat="43.2696920000" lon="-1.0526420000"><ele>167</ele><time>2026-04-07T08:31:08Z</time></trkpt>
<trkpt lat="43.2696950000" lon="-1.0526050000"><ele>167</ele><time>2026-04-07T08:31:10Z</time></trkpt>
<trkpt lat="43.2696970000" lon="-1.0525620000"><ele>167</ele><time>2026-04-07T08:31:12Z</time></trkpt>
<trkpt lat="43.2696970000" lon="-1.0525320000"><ele>167</ele><time>2026-04-07T08:31:14Z</time></trkpt>
<trkpt lat="43.2697000000" lon="-1.0525000000"><ele>167</ele><time>2026-04-07T08:31:16Z</time></trkpt>
<trkpt lat="43.2697100000" lon="-1.0524720000"><ele>167</ele><time>2026-04-07T08:31:18Z</time></trkpt>
<trkpt lat="43.2697120000" lon="-1.0524450000"><ele>167</ele><time>2026-04-07T08:31:20Z</time></trkpt>
<trkpt lat="43.2697150000" lon="-1.0524120000"><ele>167</ele><time>2026-04-07T08:31:22Z</time></trkpt>
<trkpt lat="43.2697120000" lon="-1.0523820000"><ele>167</ele><time>2026-04-07T08:31:24Z</time></trkpt>
<trkpt lat="43.2696870000" lon="-1.0523620000"><ele>167</ele><time>2026-04-07T08:31:44Z</time></trkpt>
<trkpt lat="43.2696800000" lon="-1.0523170000"><ele>167</ele><time>2026-04-07T08:31:46Z</time></trkpt>
<trkpt lat="43.2696870000" lon="-1.0522920000"><ele>167</ele><time>2026-04-07T08:31:47Z</time></trkpt>
<trkpt lat="43.2696950000" lon="-1.0522670000"><ele>167</ele><time>2026-04-07T08:31:48Z</time></trkpt>
<trkpt lat="43.2697070000" lon="-1.0522350000"><ele>167</ele><time>2026-04-07T08:31:50Z</time></trkpt>
<trkpt lat="43.2697220000" lon="-1.0521970000"><ele>167</ele><time>2026-04-07T08:31:52Z</time></trkpt>
<trkpt lat="43.2697300000" lon="-1.0521650000"><ele>167</ele><time>2026-04-07T08:31:55Z</time></trkpt>
<trkpt lat="43.2697320000" lon="-1.0521320000"><ele>167</ele><time>2026-04-07T08:31:57Z</time></trkpt>
<trkpt lat="43.2697370000" lon="-1.0520920000"><ele>166</ele><time>2026-04-07T08:32:00Z</time></trkpt>
<trkpt lat="43.2697400000" lon="-1.0520550000"><ele>166</ele><time>2026-04-07T08:32:02Z</time></trkpt>
<trkpt lat="43.2697420000" lon="-1.0520220000"><ele>166</ele><time>2026-04-07T08:32:04Z</time></trkpt>
<trkpt lat="43.2697520000" lon="-1.0519920000"><ele>166</ele><time>2026-04-07T08:32:06Z</time></trkpt>
<trkpt lat="43.2697570000" lon="-1.0519620000"><ele>166</ele><time>2026-04-07T08:32:08Z</time></trkpt>
<trkpt lat="43.2697570000" lon="-1.0519300000"><ele>165</ele><time>2026-04-07T08:32:10Z</time></trkpt>
<trkpt lat="43.2697520000" lon="-1.0519050000"><ele>165</ele><time>2026-04-07T08:32:14Z</time></trkpt>
<trkpt lat="43.2697520000" lon="-1.0518770000"><ele>165</ele><time>2026-04-07T08:32:16Z</time></trkpt>
<trkpt lat="43.2697500000" lon="-1.0518470000"><ele>165</ele><time>2026-04-07T08:32:18Z</time></trkpt>
<trkpt lat="43.2697520000" lon="-1.0518220000"><ele>164</ele><time>2026-04-07T08:32:20Z</time></trkpt>
<trkpt lat="43.2697520000" lon="-1.0517970000"><ele>164</ele><time>2026-04-07T08:32:22Z</time></trkpt>
<trkpt lat="43.2697620000" lon="-1.0517650000"><ele>164</ele><time>2026-04-07T08:32:25Z</time></trkpt>
<trkpt lat="43.2697700000" lon="-1.0517320000"><ele>163</ele><time>2026-04-07T08:32:27Z</time></trkpt>
<trkpt lat="43.2697720000" lon="-1.0517020000"><ele>163</ele><time>2026-04-07T08:32:29Z</time></trkpt>
<trkpt lat="43.2697820000" lon="-1.0516670000"><ele>163</ele><time>2026-04-07T08:32:31Z</time></trkpt>
<trkpt lat="43.2697970000" lon="-1.0516380000"><ele>163</ele><time>2026-04-07T08:32:33Z</time></trkpt>
<trkpt lat="43.2698070000" lon="-1.0516070000"><ele>162</ele><time>2026-04-07T08:32:35Z</time></trkpt>
<trkpt lat="43.2698070000" lon="-1.0515720000"><ele>162</ele><time>2026-04-07T08:32:37Z</time></trkpt>
<trkpt lat="43.2698120000" lon="-1.0515370000"><ele>161</ele><time>2026-04-07T08:32:39Z</time></trkpt>
<trkpt lat="43.2698120000" lon="-1.0515020000"><ele>161</ele><time>2026-04-07T08:32:41Z</time></trkpt>
<trkpt lat="43.2698150000" lon="-1.0514670000"><ele>161</ele><time>2026-04-07T08:32:43Z</time></trkpt>
<trkpt lat="43.2698120000" lon="-1.0514420000"><ele>161</ele><time>2026-04-07T08:32:45Z</time></trkpt>
<trkpt lat="43.2698120000" lon="-1.0514170000"><ele>160</ele><time>2026-04-07T08:32:47Z</time></trkpt>
<trkpt lat="43.2698170000" lon="-1.0513870000"><ele>160</ele><time>2026-04-07T08:32:49Z</time></trkpt>
<trkpt lat="43.2698220000" lon="-1.0513600000"><ele>159</ele><time>2026-04-07T08:32:51Z</time></trkpt>
<trkpt lat="43.2698220000" lon="-1.0513300000"><ele>159</ele><time>2026-04-07T08:32:53Z</time></trkpt>
<trkpt lat="43.2698170000" lon="-1.0513020000"><ele>159</ele><time>2026-04-07T08:32:55Z</time></trkpt>
<trkpt lat="43.2698070000" lon="-1.0512720000"><ele>158</ele><time>2026-04-07T08:32:57Z</time></trkpt>
<trkpt lat="43.2697950000" lon="-1.0512420000"><ele>158</ele><time>2026-04-07T08:32:59Z</time></trkpt>
<trkpt lat="43.2697870000" lon="-1.0512120000"><ele>158</ele><time>2026-04-07T08:33:01Z</time></trkpt>
<trkpt lat="43.2697870000" lon="-1.0511870000"><ele>157</ele><time>2026-04-07T08:33:03Z</time></trkpt>
<trkpt lat="43.2697900000" lon="-1.0511600000"><ele>157</ele><time>2026-04-07T08:33:05Z</time></trkpt>
<trkpt lat="43.2697900000" lon="-1.0511270000"><ele>157</ele><time>2026-04-07T08:33:07Z</time></trkpt>
<trkpt lat="43.2698020000" lon="-1.0510980000"><ele>157</ele><time>2026-04-07T08:33:09Z</time></trkpt>
<trkpt lat="43.2698020000" lon="-1.0510720000"><ele>156</ele><time>2026-04-07T08:33:11Z</time></trkpt>
<trkpt lat="43.2698150000" lon="-1.0510370000"><ele>156</ele><time>2026-04-07T08:33:13Z</time></trkpt>
<trkpt lat="43.2698350000" lon="-1.0510080000"><ele>156</ele><time>2026-04-07T08:33:15Z</time></trkpt>
<trkpt lat="43.2698570000" lon="-1.0509820000"><ele>156</ele><time>2026-04-07T08:33:17Z</time></trkpt>
<trkpt lat="43.2698670000" lon="-1.0509500000"><ele>155</ele><time>2026-04-07T08:33:19Z</time></trkpt>
<trkpt lat="43.2698670000" lon="-1.0509200000"><ele>155</ele><time>2026-04-07T08:33:21Z</time></trkpt>
<trkpt lat="43.2698750000" lon="-1.0508920000"><ele>155</ele><time>2026-04-07T08:33:23Z</time></trkpt>
<trkpt lat="43.2698720000" lon="-1.0508520000"><ele>155</ele><time>2026-04-07T08:33:25Z</time></trkpt>
<trkpt lat="43.2698700000" lon="-1.0508100000"><ele>155</ele><time>2026-04-07T08:33:27Z</time></trkpt>
<trkpt lat="43.2698570000" lon="-1.0507770000"><ele>154</ele><time>2026-04-07T08:33:29Z</time></trkpt>
<trkpt lat="43.2698620000" lon="-1.0507470000"><ele>154</ele><time>2026-04-07T08:33:31Z</time></trkpt>
<trkpt lat="43.2698620000" lon="-1.0507100000"><ele>154</ele><time>2026-04-07T08:33:33Z</time></trkpt>
<trkpt lat="43.2698650000" lon="-1.0506800000"><ele>154</ele><time>2026-04-07T08:33:36Z</time></trkpt>
<trkpt lat="43.2698720000" lon="-1.0506520000"><ele>153</ele><time>2026-04-07T08:33:39Z</time></trkpt>
<trkpt lat="43.2698800000" lon="-1.0506270000"><ele>153</ele><time>2026-04-07T08:33:41Z</time></trkpt>
<trkpt lat="43.2698770000" lon="-1.0506000000"><ele>152</ele><time>2026-04-07T08:33:43Z</time></trkpt>
<trkpt lat="43.2698820000" lon="-1.0505670000"><ele>152</ele><time>2026-04-07T08:33:45Z</time></trkpt>
<trkpt lat="43.2698870000" lon="-1.0505400000"><ele>152</ele><time>2026-04-07T08:33:47Z</time></trkpt>
<trkpt lat="43.2698970000" lon="-1.0505100000"><ele>152</ele><time>2026-04-07T08:33:49Z</time></trkpt>
<trkpt lat="43.2699070000" lon="-1.0504800000"><ele>151</ele><time>2026-04-07T08:33:51Z</time></trkpt>
<trkpt lat="43.2699200000" lon="-1.0504400000"><ele>151</ele><time>2026-04-07T08:33:53Z</time></trkpt>
<trkpt lat="43.2699370000" lon="-1.0504170000"><ele>151</ele><time>2026-04-07T08:33:55Z</time></trkpt>
<trkpt lat="43.2699580000" lon="-1.0503920000"><ele>150</ele><time>2026-04-07T08:33:57Z</time></trkpt>
<trkpt lat="43.2699720000" lon="-1.0503650000"><ele>150</ele><time>2026-04-07T08:33:59Z</time></trkpt>
<trkpt lat="43.2699870000" lon="-1.0503400000"><ele>150</ele><time>2026-04-07T08:34:01Z</time></trkpt>
<trkpt lat="43.2699970000" lon="-1.0503120000"><ele>150</ele><time>2026-04-07T08:34:03Z</time></trkpt>
<trkpt lat="43.2700020000" lon="-1.0502850000"><ele>150</ele><time>2026-04-07T08:34:05Z</time></trkpt>
<trkpt lat="43.2700120000" lon="-1.0502600000"><ele>150</ele><time>2026-04-07T08:34:07Z</time></trkpt>
<trkpt lat="43.2700220000" lon="-1.0502370000"><ele>149</ele><time>2026-04-07T08:34:09Z</time></trkpt>
<trkpt lat="43.2700350000" lon="-1.0502120000"><ele>149</ele><time>2026-04-07T08:34:11Z</time></trkpt>
<trkpt lat="43.2700470000" lon="-1.0501870000"><ele>149</ele><time>2026-04-07T08:34:13Z</time></trkpt>
<trkpt lat="43.2700570000" lon="-1.0501520000"><ele>148</ele><time>2026-04-07T08:34:16Z</time></trkpt>
<trkpt lat="43.2700670000" lon="-1.0501270000"><ele>148</ele><time>2026-04-07T08:34:18Z</time></trkpt>
<trkpt lat="43.2700820000" lon="-1.0501100000"><ele>148</ele><time>2026-04-07T08:34:20Z</time></trkpt>
<trkpt lat="43.2700970000" lon="-1.0500920000"><ele>147</ele><time>2026-04-07T08:34:22Z</time></trkpt>
<trkpt lat="43.2701170000" lon="-1.0500770000"><ele>147</ele><time>2026-04-07T08:34:24Z</time></trkpt>
<trkpt lat="43.2701470000" lon="-1.0500500000"><ele>147</ele><time>2026-04-07T08:34:26Z</time></trkpt>
<trkpt lat="43.2701570000" lon="-1.0500220000"><ele>146</ele><time>2026-04-07T08:34:28Z</time></trkpt>
<trkpt lat="43.2701720000" lon="-1.0499920000"><ele>146</ele><time>2026-04-07T08:34:30Z</time></trkpt>
<trkpt lat="43.2701920000" lon="-1.0499720000"><ele>145</ele><time>2026-04-07T08:34:33Z</time></trkpt>
<trkpt lat="43.2702100000" lon="-1.0499430000"><ele>145</ele><time>2026-04-07T08:34:35Z</time></trkpt>
<trkpt lat="43.2702200000" lon="-1.0499100000"><ele>144</ele><time>2026-04-07T08:34:37Z</time></trkpt>
<trkpt lat="43.2702320000" lon="-1.0498770000"><ele>144</ele><time>2026-04-07T08:34:39Z</time></trkpt>
<trkpt lat="43.2702370000" lon="-1.0498470000"><ele>144</ele><time>2026-04-07T08:34:41Z</time></trkpt>
<trkpt lat="43.2702450000" lon="-1.0498170000"><ele>143</ele><time>2026-04-07T08:34:44Z</time></trkpt>
<trkpt lat="43.2702500000" lon="-1.0497920000"><ele>143</ele><time>2026-04-07T08:34:46Z</time></trkpt>
<trkpt lat="43.2702450000" lon="-1.0497570000"><ele>142</ele><time>2026-04-07T08:34:48Z</time></trkpt>
<trkpt lat="43.2702500000" lon="-1.0497300000"><ele>142</ele><time>2026-04-07T08:34:50Z</time></trkpt>
<trkpt lat="43.2702600000" lon="-1.0497050000"><ele>142</ele><time>2026-04-07T08:34:52Z</time></trkpt>
<trkpt lat="43.2702750000" lon="-1.0496820000"><ele>141</ele><time>2026-04-07T08:34:54Z</time></trkpt>
<trkpt lat="43.2702870000" lon="-1.0496550000"><ele>141</ele><time>2026-04-07T08:34:56Z</time></trkpt>
<trkpt lat="43.2703020000" lon="-1.0496320000"><ele>141</ele><time>2026-04-07T08:34:58Z</time></trkpt>
<trkpt lat="43.2703120000" lon="-1.0496070000"><ele>140</ele><time>2026-04-07T08:35:00Z</time></trkpt>
<trkpt lat="43.2703170000" lon="-1.0495820000"><ele>140</ele><time>2026-04-07T08:35:02Z</time></trkpt>
<trkpt lat="43.2703220000" lon="-1.0495570000"><ele>140</ele><time>2026-04-07T08:35:04Z</time></trkpt>
<trkpt lat="43.2703370000" lon="-1.0495420000"><ele>140</ele><time>2026-04-07T08:35:06Z</time></trkpt>
<trkpt lat="43.2703550000" lon="-1.0495170000"><ele>139</ele><time>2026-04-07T08:35:08Z</time></trkpt>
<trkpt lat="43.2703720000" lon="-1.0494920000"><ele>139</ele><time>2026-04-07T08:35:10Z</time></trkpt>
<trkpt lat="43.2703870000" lon="-1.0494570000"><ele>139</ele><time>2026-04-07T08:35:12Z</time></trkpt>
<trkpt lat="43.2703970000" lon="-1.0494220000"><ele>139</ele><time>2026-04-07T08:35:14Z</time></trkpt>
<trkpt lat="43.2704020000" lon="-1.0493970000"><ele>138</ele><time>2026-04-07T08:35:16Z</time></trkpt>
<trkpt lat="43.2704070000" lon="-1.0493720000"><ele>138</ele><time>2026-04-07T08:35:18Z</time></trkpt>
<trkpt lat="43.2704200000" lon="-1.0493470000"><ele>138</ele><time>2026-04-07T08:35:20Z</time></trkpt>
<trkpt lat="43.2704300000" lon="-1.0493170000"><ele>137</ele><time>2026-04-07T08:35:22Z</time></trkpt>
<trkpt lat="43.2704420000" lon="-1.0492920000"><ele>137</ele><time>2026-04-07T08:35:24Z</time></trkpt>
<trkpt lat="43.2704520000" lon="-1.0492720000"><ele>137</ele><time>2026-04-07T08:35:26Z</time></trkpt>
<trkpt lat="43.2704650000" lon="-1.0492500000"><ele>136</ele><time>2026-04-07T08:35:29Z</time></trkpt>
<trkpt lat="43.2704870000" lon="-1.0492450000"><ele>135</ele><time>2026-04-07T08:35:32Z</time></trkpt>
<trkpt lat="43.2705120000" lon="-1.0492470000"><ele>135</ele><time>2026-04-07T08:35:36Z</time></trkpt>
<trkpt lat="43.2705320000" lon="-1.0492570000"><ele>134</ele><time>2026-04-07T08:35:39Z</time></trkpt>
<trkpt lat="43.2705470000" lon="-1.0492770000"><ele>133</ele><time>2026-04-07T08:35:42Z</time></trkpt>
<trkpt lat="43.2705670000" lon="-1.0492900000"><ele>133</ele><time>2026-04-07T08:35:44Z</time></trkpt>
<trkpt lat="43.2705770000" lon="-1.0493220000"><ele>132</ele><time>2026-04-07T08:35:47Z</time></trkpt>
<trkpt lat="43.2705900000" lon="-1.0493420000"><ele>132</ele><time>2026-04-07T08:35:49Z</time></trkpt>
<trkpt lat="43.2706020000" lon="-1.0493650000"><ele>131</ele><time>2026-04-07T08:35:51Z</time></trkpt>
<trkpt lat="43.2706170000" lon="-1.0493870000"><ele>131</ele><time>2026-04-07T08:35:53Z</time></trkpt>
<trkpt lat="43.2706270000" lon="-1.0494220000"><ele>130</ele><time>2026-04-07T08:35:55Z</time></trkpt>
<trkpt lat="43.2706350000" lon="-1.0494520000"><ele>130</ele><time>2026-04-07T08:35:57Z</time></trkpt>
<trkpt lat="43.2706420000" lon="-1.0494870000"><ele>129</ele><time>2026-04-07T08:35:59Z</time></trkpt>
<trkpt lat="43.2706500000" lon="-1.0495200000"><ele>129</ele><time>2026-04-07T08:36:01Z</time></trkpt>
<trkpt lat="43.2706620000" lon="-1.0495520000"><ele>129</ele><time>2026-04-07T08:36:03Z</time></trkpt>
<trkpt lat="43.2706700000" lon="-1.0495850000"><ele>129</ele><time>2026-04-07T08:36:05Z</time></trkpt>
<trkpt lat="43.2706850000" lon="-1.0496170000"><ele>128</ele><time>2026-04-07T08:36:08Z</time></trkpt>
<trkpt lat="43.2706900000" lon="-1.0496450000"><ele>128</ele><time>2026-04-07T08:36:10Z</time></trkpt>
<trkpt lat="43.2706970000" lon="-1.0496720000"><ele>127</ele><time>2026-04-07T08:36:12Z</time></trkpt>
<trkpt lat="43.2706970000" lon="-1.0497000000"><ele>127</ele><time>2026-04-07T08:36:14Z</time></trkpt>
<trkpt lat="43.2706970000" lon="-1.0497250000"><ele>127</ele><time>2026-04-07T08:36:16Z</time></trkpt>
<trkpt lat="43.2707170000" lon="-1.0497470000"><ele>127</ele><time>2026-04-07T08:36:18Z</time></trkpt>
<trkpt lat="43.2707180000" lon="-1.0497750000"><ele>127</ele><time>2026-04-07T08:36:20Z</time></trkpt>
<trkpt lat="43.2707170000" lon="-1.0498070000"><ele>126</ele><time>2026-04-07T08:36:23Z</time></trkpt>
<trkpt lat="43.2707220000" lon="-1.0498430000"><ele>126</ele><time>2026-04-07T08:36:26Z</time></trkpt>
<trkpt lat="43.2707320000" lon="-1.0498720000"><ele>126</ele><time>2026-04-07T08:36:28Z</time></trkpt>
<trkpt lat="43.2707400000" lon="-1.0499020000"><ele>125</ele><time>2026-04-07T08:36:30Z</time></trkpt>
<trkpt lat="43.2707620000" lon="-1.0499220000"><ele>125</ele><time>2026-04-07T08:36:32Z</time></trkpt>
<trkpt lat="43.2707720000" lon="-1.0499620000"><ele>125</ele><time>2026-04-07T08:36:35Z</time></trkpt>
<trkpt lat="43.2707800000" lon="-1.0499900000"><ele>124</ele><time>2026-04-07T08:36:37Z</time></trkpt>
<trkpt lat="43.2707950000" lon="-1.0500120000"><ele>124</ele><time>2026-04-07T08:36:39Z</time></trkpt>
<trkpt lat="43.2708070000" lon="-1.0500320000"><ele>123</ele><time>2026-04-07T08:36:41Z</time></trkpt>
<trkpt lat="43.2708120000" lon="-1.0500700000"><ele>123</ele><time>2026-04-07T08:36:43Z</time></trkpt>
<trkpt lat="43.2708350000" lon="-1.0501120000"><ele>122</ele><time>2026-04-07T08:36:46Z</time></trkpt>
<trkpt lat="43.2708500000" lon="-1.0501270000"><ele>122</ele><time>2026-04-07T08:36:48Z</time></trkpt>
<trkpt lat="43.2708520000" lon="-1.0501670000"><ele>122</ele><time>2026-04-07T08:36:49Z</time></trkpt>
<trkpt lat="43.2708650000" lon="-1.0501970000"><ele>122</ele><time>2026-04-07T08:36:50Z</time></trkpt>
<trkpt lat="43.2708870000" lon="-1.0502320000"><ele>121</ele><time>2026-04-07T08:36:52Z</time></trkpt>
<trkpt lat="43.2709070000" lon="-1.0502470000"><ele>121</ele><time>2026-04-07T08:36:53Z</time></trkpt>
<trkpt lat="43.2709250000" lon="-1.0502570000"><ele>121</ele><time>2026-04-07T08:36:54Z</time></trkpt>
<trkpt lat="43.2709470000" lon="-1.0502620000"><ele>121</ele><time>2026-04-07T08:36:56Z</time></trkpt>
<trkpt lat="43.2709720000" lon="-1.0502720000"><ele>121</ele><time>2026-04-07T08:36:58Z</time></trkpt>
<trkpt lat="43.2709970000" lon="-1.0502650000"><ele>120</ele><time>2026-04-07T08:37:02Z</time></trkpt>
<trkpt lat="43.2710220000" lon="-1.0502400000"><ele>120</ele><time>2026-04-07T08:37:04Z</time></trkpt>
<trkpt lat="43.2710450000" lon="-1.0502070000"><ele>120</ele><time>2026-04-07T08:37:06Z</time></trkpt>
<trkpt lat="43.2710650000" lon="-1.0501720000"><ele>119</ele><time>2026-04-07T08:37:09Z</time></trkpt>
<trkpt lat="43.2710800000" lon="-1.0501300000"><ele>119</ele><time>2026-04-07T08:37:11Z</time></trkpt>
<trkpt lat="43.2710920000" lon="-1.0501120000"><ele>120</ele><time>2026-04-07T08:37:25Z</time></trkpt>
<trkpt lat="43.2711150000" lon="-1.0501120000"><ele>119</ele><time>2026-04-07T08:37:33Z</time></trkpt>
<trkpt lat="43.2711470000" lon="-1.0501000000"><ele>119</ele><time>2026-04-07T08:37:35Z</time></trkpt>
<trkpt lat="43.2711720000" lon="-1.0500850000"><ele>119</ele><time>2026-04-07T08:37:37Z</time></trkpt>
<trkpt lat="43.2711950000" lon="-1.0500720000"><ele>119</ele><time>2026-04-07T08:37:39Z</time></trkpt>
<trkpt lat="43.2712200000" lon="-1.0500670000"><ele>119</ele><time>2026-04-07T08:37:41Z</time></trkpt>
<trkpt lat="43.2712450000" lon="-1.0500670000"><ele>120</ele><time>2026-04-07T08:37:43Z</time></trkpt>
<trkpt lat="43.2712720000" lon="-1.0500630000"><ele>120</ele><time>2026-04-07T08:37:45Z</time></trkpt>
<trkpt lat="43.2712950000" lon="-1.0500670000"><ele>120</ele><time>2026-04-07T08:37:47Z</time></trkpt>
<trkpt lat="43.2713170000" lon="-1.0500670000"><ele>120</ele><time>2026-04-07T08:37:49Z</time></trkpt>
<trkpt lat="43.2713450000" lon="-1.0500600000"><ele>120</ele><time>2026-04-07T08:37:52Z</time></trkpt>
<trkpt lat="43.2713620000" lon="-1.0500420000"><ele>120</ele><time>2026-04-07T08:37:54Z</time></trkpt>
<trkpt lat="43.2713820000" lon="-1.0500180000"><ele>120</ele><time>2026-04-07T08:37:56Z</time></trkpt>
<trkpt lat="43.2714020000" lon="-1.0500050000"><ele>121</ele><time>2026-04-07T08:37:58Z</time></trkpt>
<trkpt lat="43.2714220000" lon="-1.0500000000"><ele>121</ele><time>2026-04-07T08:38:00Z</time></trkpt>
<trkpt lat="43.2714450000" lon="-1.0499950000"><ele>121</ele><time>2026-04-07T08:38:03Z</time></trkpt>
<trkpt lat="43.2714720000" lon="-1.0499970000"><ele>122</ele><time>2026-04-07T08:38:06Z</time></trkpt>
<trkpt lat="43.2714920000" lon="-1.0499900000"><ele>122</ele><time>2026-04-07T08:38:08Z</time></trkpt>
<trkpt lat="43.2715100000" lon="-1.0499750000"><ele>122</ele><time>2026-04-07T08:38:10Z</time></trkpt>
<trkpt lat="43.2715300000" lon="-1.0499950000"><ele>123</ele><time>2026-04-07T08:38:17Z</time></trkpt>
<trkpt lat="43.2715520000" lon="-1.0500120000"><ele>123</ele><time>2026-04-07T08:38:19Z</time></trkpt>
<trkpt lat="43.2715720000" lon="-1.0500220000"><ele>123</ele><time>2026-04-07T08:38:21Z</time></trkpt>
<trkpt lat="43.2716020000" lon="-1.0500180000"><ele>123</ele><time>2026-04-07T08:38:24Z</time></trkpt>
<trkpt lat="43.2716150000" lon="-1.0500020000"><ele>124</ele><time>2026-04-07T08:38:26Z</time></trkpt>
<trkpt lat="43.2716350000" lon="-1.0499920000"><ele>124</ele><time>2026-04-07T08:38:28Z</time></trkpt>
<trkpt lat="43.2716550000" lon="-1.0499830000"><ele>124</ele><time>2026-04-07T08:38:30Z</time></trkpt>
<trkpt lat="43.2716720000" lon="-1.0499720000"><ele>125</ele><time>2026-04-07T08:38:32Z</time></trkpt>
<trkpt lat="43.2716920000" lon="-1.0499570000"><ele>125</ele><time>2026-04-07T08:38:35Z</time></trkpt>
<trkpt lat="43.2717100000" lon="-1.0499320000"><ele>125</ele><time>2026-04-07T08:38:37Z</time></trkpt>
<trkpt lat="43.2717220000" lon="-1.0499150000"><ele>126</ele><time>2026-04-07T08:38:39Z</time></trkpt>
<trkpt lat="43.2717370000" lon="-1.0498830000"><ele>126</ele><time>2026-04-07T08:38:42Z</time></trkpt>
<trkpt lat="43.2717570000" lon="-1.0498650000"><ele>126</ele><time>2026-04-07T08:38:45Z</time></trkpt>
<trkpt lat="43.2717720000" lon="-1.0498520000"><ele>127</ele><time>2026-04-07T08:38:47Z</time></trkpt>
<trkpt lat="43.2717920000" lon="-1.0498400000"><ele>127</ele><time>2026-04-07T08:38:49Z</time></trkpt>
<trkpt lat="43.2718100000" lon="-1.0498250000"><ele>127</ele><time>2026-04-07T08:38:51Z</time></trkpt>
<trkpt lat="43.2718250000" lon="-1.0498070000"><ele>127</ele><time>2026-04-07T08:38:53Z</time></trkpt>
<trkpt lat="43.2718470000" lon="-1.0497870000"><ele>128</ele><time>2026-04-07T08:38:56Z</time></trkpt>
<trkpt lat="43.2718620000" lon="-1.0497720000"><ele>128</ele><time>2026-04-07T08:38:58Z</time></trkpt>
<trkpt lat="43.2718770000" lon="-1.0497480000"><ele>128</ele><time>2026-04-07T08:39:01Z</time></trkpt>
<trkpt lat="43.2718870000" lon="-1.0497170000"><ele>129</ele><time>2026-04-07T08:39:04Z</time></trkpt>
<trkpt lat="43.2719000000" lon="-1.0496870000"><ele>129</ele><time>2026-04-07T08:39:07Z</time></trkpt>
<trkpt lat="43.2719000000" lon="-1.0496550000"><ele>130</ele><time>2026-04-07T08:39:10Z</time></trkpt>
<trkpt lat="43.2718950000" lon="-1.0496220000"><ele>130</ele><time>2026-04-07T08:39:13Z</time></trkpt>
<trkpt lat="43.2718870000" lon="-1.0495920000"><ele>131</ele><time>2026-04-07T08:39:16Z</time></trkpt>
<trkpt lat="43.2718770000" lon="-1.0495620000"><ele>131</ele><time>2026-04-07T08:39:19Z</time></trkpt>
<trkpt lat="43.2718620000" lon="-1.0495320000"><ele>131</ele><time>2026-04-07T08:39:22Z</time></trkpt>
<trkpt lat="43.2718580000" lon="-1.0495070000"><ele>132</ele><time>2026-04-07T08:39:26Z</time></trkpt>
<trkpt lat="43.2718500000" lon="-1.0494670000"><ele>132</ele><time>2026-04-07T08:39:29Z</time></trkpt>
<trkpt lat="43.2718470000" lon="-1.0494370000"><ele>132</ele><time>2026-04-07T08:39:31Z</time></trkpt>
<trkpt lat="43.2718500000" lon="-1.0494100000"><ele>132</ele><time>2026-04-07T08:39:34Z</time></trkpt>
<trkpt lat="43.2718570000" lon="-1.0493820000"><ele>133</ele><time>2026-04-07T08:39:38Z</time></trkpt>
<trkpt lat="43.2718650000" lon="-1.0493570000"><ele>134</ele><time>2026-04-07T08:39:42Z</time></trkpt>
<trkpt lat="43.2718500000" lon="-1.0493420000"><ele>134</ele><time>2026-04-07T08:39:45Z</time></trkpt>
<trkpt lat="43.2718300000" lon="-1.0493300000"><ele>134</ele><time>2026-04-07T08:39:49Z</time></trkpt>
<trkpt lat="43.2718120000" lon="-1.0493420000"><ele>133</ele><time>2026-04-07T08:40:34Z</time></trkpt>
<trkpt lat="43.2717920000" lon="-1.0493370000"><ele>133</ele><time>2026-04-07T08:40:36Z</time></trkpt>
<trkpt lat="43.2718200000" lon="-1.0493370000"><ele>133</ele><time>2026-04-07T08:40:41Z</time></trkpt>
<trkpt lat="43.2718350000" lon="-1.0493550000"><ele>134</ele><time>2026-04-07T08:40:43Z</time></trkpt>
<trkpt lat="43.2718470000" lon="-1.0493720000"><ele>134</ele><time>2026-04-07T08:40:45Z</time></trkpt>
<trkpt lat="43.2718580000" lon="-1.0493520000"><ele>133</ele><time>2026-04-07T08:42:24Z</time></trkpt>
<trkpt lat="43.2718720000" lon="-1.0493120000"><ele>133</ele><time>2026-04-07T08:42:57Z</time></trkpt>
<trkpt lat="43.2718920000" lon="-1.0492750000"><ele>133</ele><time>2026-04-07T08:42:59Z</time></trkpt>
<trkpt lat="43.2719020000" lon="-1.0492420000"><ele>132</ele><time>2026-04-07T08:43:01Z</time></trkpt>
<trkpt lat="43.2719070000" lon="-1.0492120000"><ele>133</ele><time>2026-04-07T08:43:04Z</time></trkpt>
<trkpt lat="43.2719050000" lon="-1.0491820000"><ele>134</ele><time>2026-04-07T08:43:13Z</time></trkpt>
<trkpt lat="43.2719100000" lon="-1.0491520000"><ele>134</ele><time>2026-04-07T08:43:15Z</time></trkpt>
<trkpt lat="43.2719320000" lon="-1.0491370000"><ele>134</ele><time>2026-04-07T08:43:17Z</time></trkpt>
<trkpt lat="43.2719370000" lon="-1.0491070000"><ele>135</ele><time>2026-04-07T08:43:24Z</time></trkpt>
<trkpt lat="43.2719470000" lon="-1.0490720000"><ele>135</ele><time>2026-04-07T08:43:26Z</time></trkpt>
<trkpt lat="43.2719570000" lon="-1.0490380000"><ele>135</ele><time>2026-04-07T08:43:28Z</time></trkpt>
<trkpt lat="43.2719570000" lon="-1.0490100000"><ele>135</ele><time>2026-04-07T08:43:30Z</time></trkpt>
<trkpt lat="43.2719550000" lon="-1.0489820000"><ele>136</ele><time>2026-04-07T08:43:32Z</time></trkpt>
<trkpt lat="43.2719520000" lon="-1.0489550000"><ele>136</ele><time>2026-04-07T08:43:34Z</time></trkpt>
<trkpt lat="43.2719550000" lon="-1.0489270000"><ele>136</ele><time>2026-04-07T08:43:36Z</time></trkpt>
<trkpt lat="43.2719620000" lon="-1.0489020000"><ele>137</ele><time>2026-04-07T08:43:38Z</time></trkpt>
<trkpt lat="43.2719670000" lon="-1.0488630000"><ele>137</ele><time>2026-04-07T08:43:41Z</time></trkpt>
<trkpt lat="43.2719670000" lon="-1.0488370000"><ele>137</ele><time>2026-04-07T08:43:43Z</time></trkpt>
<trkpt lat="43.2719870000" lon="-1.0488230000"><ele>138</ele><time>2026-04-07T08:43:48Z</time></trkpt>
<trkpt lat="43.2719900000" lon="-1.0487900000"><ele>138</ele><time>2026-04-07T08:43:53Z</time></trkpt>
<trkpt lat="43.2719820000" lon="-1.0487620000"><ele>138</ele><time>2026-04-07T08:43:55Z</time></trkpt>
<trkpt lat="43.2719820000" lon="-1.0487370000"><ele>138</ele><time>2026-04-07T08:43:57Z</time></trkpt>
<trkpt lat="43.2719770000" lon="-1.0487120000"><ele>138</ele><time>2026-04-07T08:43:59Z</time></trkpt>
<trkpt lat="43.2719700000" lon="-1.0486770000"><ele>138</ele><time>2026-04-07T08:44:02Z</time></trkpt>
<trkpt lat="43.2719550000" lon="-1.0486550000"><ele>139</ele><time>2026-04-07T08:44:05Z</time></trkpt>
<trkpt lat="43.2719370000" lon="-1.0486370000"><ele>139</ele><time>2026-04-07T08:44:08Z</time></trkpt>
<trkpt lat="43.2719370000" lon="-1.0486070000"><ele>139</ele><time>2026-04-07T08:44:31Z</time></trkpt>
<trkpt lat="43.2719570000" lon="-1.0485720000"><ele>139</ele><time>2026-04-07T08:44:33Z</time></trkpt>
<trkpt lat="43.2719800000" lon="-1.0485420000"><ele>140</ele><time>2026-04-07T08:44:35Z</time></trkpt>
<trkpt lat="43.2719970000" lon="-1.0485220000"><ele>140</ele><time>2026-04-07T08:44:37Z</time></trkpt>
<trkpt lat="43.2720150000" lon="-1.0484970000"><ele>140</ele><time>2026-04-07T08:44:40Z</time></trkpt>
<trkpt lat="43.2720270000" lon="-1.0484750000"><ele>140</ele><time>2026-04-07T08:44:43Z</time></trkpt>
<trkpt lat="43.2720400000" lon="-1.0484530000"><ele>142</ele><time>2026-04-07T08:44:55Z</time></trkpt>
<trkpt lat="43.2720570000" lon="-1.0484270000"><ele>141</ele><time>2026-04-07T08:44:57Z</time></trkpt>
<trkpt lat="43.2720770000" lon="-1.0484020000"><ele>142</ele><time>2026-04-07T08:44:59Z</time></trkpt>
<trkpt lat="43.2720970000" lon="-1.0483820000"><ele>142</ele><time>2026-04-07T08:45:01Z</time></trkpt>
<trkpt lat="43.2721150000" lon="-1.0483630000"><ele>142</ele><time>2026-04-07T08:45:03Z</time></trkpt>
<trkpt lat="43.2721270000" lon="-1.0483450000"><ele>142</ele><time>2026-04-07T08:45:05Z</time></trkpt>
<trkpt lat="43.2721450000" lon="-1.0483220000"><ele>143</ele><time>2026-04-07T08:45:07Z</time></trkpt>
<trkpt lat="43.2721620000" lon="-1.0483020000"><ele>143</ele><time>2026-04-07T08:45:09Z</time></trkpt>
<trkpt lat="43.2721750000" lon="-1.0482820000"><ele>143</ele><time>2026-04-07T08:45:11Z</time></trkpt>
<trkpt lat="43.2721920000" lon="-1.0482620000"><ele>143</ele><time>2026-04-07T08:45:13Z</time></trkpt>
<trkpt lat="43.2722070000" lon="-1.0482450000"><ele>144</ele><time>2026-04-07T08:45:15Z</time></trkpt>
<trkpt lat="43.2722270000" lon="-1.0482170000"><ele>144</ele><time>2026-04-07T08:45:18Z</time></trkpt>
<trkpt lat="43.2722350000" lon="-1.0481950000"><ele>144</ele><time>2026-04-07T08:45:20Z</time></trkpt>
<trkpt lat="43.2722520000" lon="-1.0481770000"><ele>144</ele><time>2026-04-07T08:45:22Z</time></trkpt>
<trkpt lat="43.2722620000" lon="-1.0481520000"><ele>145</ele><time>2026-04-07T08:45:25Z</time></trkpt>
<trkpt lat="43.2722800000" lon="-1.0481250000"><ele>145</ele><time>2026-04-07T08:45:33Z</time></trkpt>
<trkpt lat="43.2722920000" lon="-1.0481070000"><ele>145</ele><time>2026-04-07T08:45:35Z</time></trkpt>
<trkpt lat="43.2723120000" lon="-1.0480920000"><ele>145</ele><time>2026-04-07T08:45:37Z</time></trkpt>
<trkpt lat="43.2723350000" lon="-1.0480770000"><ele>145</ele><time>2026-04-07T08:45:39Z</time></trkpt>
<trkpt lat="43.2723550000" lon="-1.0480770000"><ele>146</ele><time>2026-04-07T08:45:41Z</time></trkpt>
<trkpt lat="43.2723780000" lon="-1.0480880000"><ele>146</ele><time>2026-04-07T08:45:44Z</time></trkpt>
<trkpt lat="43.2724000000" lon="-1.0480930000"><ele>146</ele><time>2026-04-07T08:45:47Z</time></trkpt>
<trkpt lat="43.2724120000" lon="-1.0480750000"><ele>146</ele><time>2026-04-07T08:45:49Z</time></trkpt>
<trkpt lat="43.2724270000" lon="-1.0480470000"><ele>146</ele><time>2026-04-07T08:45:51Z</time></trkpt>
<trkpt lat="43.2724420000" lon="-1.0480120000"><ele>146</ele><time>2026-04-07T08:45:53Z</time></trkpt>
<trkpt lat="43.2724500000" lon="-1.0479770000"><ele>146</ele><time>2026-04-07T08:45:55Z</time></trkpt>
<trkpt lat="43.2724520000" lon="-1.0479470000"><ele>147</ele><time>2026-04-07T08:45:57Z</time></trkpt>
<trkpt lat="43.2724570000" lon="-1.0479180000"><ele>147</ele><time>2026-04-07T08:45:59Z</time></trkpt>
<trkpt lat="43.2724670000" lon="-1.0478950000"><ele>147</ele><time>2026-04-07T08:46:01Z</time></trkpt>
<trkpt lat="43.2724770000" lon="-1.0478670000"><ele>147</ele><time>2026-04-07T08:46:03Z</time></trkpt>
<trkpt lat="43.2724900000" lon="-1.0478420000"><ele>147</ele><time>2026-04-07T08:46:05Z</time></trkpt>
<trkpt lat="43.2725020000" lon="-1.0478170000"><ele>147</ele><time>2026-04-07T08:46:07Z</time></trkpt>
<trkpt lat="43.2725100000" lon="-1.0477920000"><ele>147</ele><time>2026-04-07T08:46:09Z</time></trkpt>
<trkpt lat="43.2725170000" lon="-1.0477670000"><ele>147</ele><time>2026-04-07T08:46:11Z</time></trkpt>
<trkpt lat="43.2725320000" lon="-1.0477430000"><ele>147</ele><time>2026-04-07T08:46:13Z</time></trkpt>
<trkpt lat="43.2725470000" lon="-1.0477200000"><ele>147</ele><time>2026-04-07T08:46:15Z</time></trkpt>
<trkpt lat="43.2725550000" lon="-1.0476950000"><ele>148</ele><time>2026-04-07T08:46:17Z</time></trkpt>
<trkpt lat="43.2725600000" lon="-1.0476670000"><ele>148</ele><time>2026-04-07T08:46:19Z</time></trkpt>
<trkpt lat="43.2725720000" lon="-1.0476370000"><ele>148</ele><time>2026-04-07T08:46:21Z</time></trkpt>
<trkpt lat="43.2725770000" lon="-1.0476070000"><ele>148</ele><time>2026-04-07T08:46:23Z</time></trkpt>
<trkpt lat="43.2725900000" lon="-1.0475820000"><ele>148</ele><time>2026-04-07T08:46:25Z</time></trkpt>
<trkpt lat="43.2726020000" lon="-1.0475520000"><ele>148</ele><time>2026-04-07T08:46:27Z</time></trkpt>
<trkpt lat="43.2726120000" lon="-1.0475220000"><ele>149</ele><time>2026-04-07T08:46:29Z</time></trkpt>
<trkpt lat="43.2726220000" lon="-1.0474920000"><ele>149</ele><time>2026-04-07T08:46:31Z</time></trkpt>
<trkpt lat="43.2726370000" lon="-1.0474600000"><ele>149</ele><time>2026-04-07T08:46:33Z</time></trkpt>
<trkpt lat="43.2726450000" lon="-1.0474300000"><ele>149</ele><time>2026-04-07T08:46:35Z</time></trkpt>
<trkpt lat="43.2726520000" lon="-1.0474020000"><ele>149</ele><time>2026-04-07T08:46:37Z</time></trkpt>
<trkpt lat="43.2726570000" lon="-1.0473720000"><ele>149</ele><time>2026-04-07T08:46:39Z</time></trkpt>
<trkpt lat="43.2726620000" lon="-1.0473470000"><ele>149</ele><time>2026-04-07T08:46:41Z</time></trkpt>
<trkpt lat="43.2726770000" lon="-1.0473220000"><ele>149</ele><time>2026-04-07T08:46:43Z</time></trkpt>
<trkpt lat="43.2726870000" lon="-1.0472950000"><ele>150</ele><time>2026-04-07T08:46:45Z</time></trkpt>
<trkpt lat="43.2726920000" lon="-1.0472700000"><ele>150</ele><time>2026-04-07T08:46:47Z</time></trkpt>
<trkpt lat="43.2726880000" lon="-1.0472430000"><ele>150</ele><time>2026-04-07T08:46:49Z</time></trkpt>
<trkpt lat="43.2726820000" lon="-1.0472170000"><ele>150</ele><time>2026-04-07T08:46:51Z</time></trkpt>
<trkpt lat="43.2726850000" lon="-1.0471870000"><ele>150</ele><time>2026-04-07T08:46:53Z</time></trkpt>
<trkpt lat="43.2726850000" lon="-1.0471570000"><ele>150</ele><time>2026-04-07T08:46:55Z</time></trkpt>
<trkpt lat="43.2726770000" lon="-1.0471270000"><ele>150</ele><time>2026-04-07T08:46:58Z</time></trkpt>
<trkpt lat="43.2726870000" lon="-1.0470870000"><ele>150</ele><time>2026-04-07T08:47:00Z</time></trkpt>
<trkpt lat="43.2726920000" lon="-1.0470420000"><ele>150</ele><time>2026-04-07T08:47:02Z</time></trkpt>
<trkpt lat="43.2727050000" lon="-1.0470020000"><ele>150</ele><time>2026-04-07T08:47:04Z</time></trkpt>
<trkpt lat="43.2727120000" lon="-1.0469770000"><ele>150</ele><time>2026-04-07T08:47:06Z</time></trkpt>
<trkpt lat="43.2727120000" lon="-1.0469470000"><ele>151</ele><time>2026-04-07T08:47:09Z</time></trkpt>
<trkpt lat="43.2727150000" lon="-1.0469120000"><ele>151</ele><time>2026-04-07T08:47:12Z</time></trkpt>
<trkpt lat="43.2727170000" lon="-1.0468870000"><ele>151</ele><time>2026-04-07T08:47:14Z</time></trkpt>
<trkpt lat="43.2727170000" lon="-1.0468570000"><ele>151</ele><time>2026-04-07T08:47:16Z</time></trkpt>
<trkpt lat="43.2727050000" lon="-1.0468370000"><ele>151</ele><time>2026-04-07T08:47:18Z</time></trkpt>
<trkpt lat="43.2727100000" lon="-1.0467970000"><ele>151</ele><time>2026-04-07T08:47:30Z</time></trkpt>
<trkpt lat="43.2727250000" lon="-1.0467570000"><ele>151</ele><time>2026-04-07T08:47:32Z</time></trkpt>
<trkpt lat="43.2727320000" lon="-1.0467220000"><ele>151</ele><time>2026-04-07T08:47:34Z</time></trkpt>
<trkpt lat="43.2727420000" lon="-1.0466900000"><ele>151</ele><time>2026-04-07T08:47:36Z</time></trkpt>
<trkpt lat="43.2727570000" lon="-1.0466630000"><ele>151</ele><time>2026-04-07T08:47:38Z</time></trkpt>
<trkpt lat="43.2727700000" lon="-1.0466420000"><ele>151</ele><time>2026-04-07T08:47:40Z</time></trkpt>
<trkpt lat="43.2727850000" lon="-1.0466220000"><ele>151</ele><time>2026-04-07T08:47:42Z</time></trkpt>
<trkpt lat="43.2727920000" lon="-1.0465950000"><ele>151</ele><time>2026-04-07T08:47:50Z</time></trkpt>
<trkpt lat="43.2728150000" lon="-1.0465770000"><ele>151</ele><time>2026-04-07T08:47:53Z</time></trkpt>
<trkpt lat="43.2728320000" lon="-1.0465630000"><ele>151</ele><time>2026-04-07T08:47:55Z</time></trkpt>
<trkpt lat="43.2728420000" lon="-1.0465450000"><ele>151</ele><time>2026-04-07T08:48:04Z</time></trkpt>
<trkpt lat="43.2728570000" lon="-1.0465230000"><ele>151</ele><time>2026-04-07T08:48:07Z</time></trkpt>
<trkpt lat="43.2728720000" lon="-1.0465020000"><ele>151</ele><time>2026-04-07T08:48:10Z</time></trkpt>
<trkpt lat="43.2728920000" lon="-1.0465020000"><ele>151</ele><time>2026-04-07T08:48:13Z</time></trkpt>
<trkpt lat="43.2729100000" lon="-1.0464880000"><ele>151</ele><time>2026-04-07T08:48:15Z</time></trkpt>
<trkpt lat="43.2729320000" lon="-1.0464770000"><ele>151</ele><time>2026-04-07T08:48:17Z</time></trkpt>
<trkpt lat="43.2729570000" lon="-1.0464650000"><ele>151</ele><time>2026-04-07T08:48:19Z</time></trkpt>
<trkpt lat="43.2729820000" lon="-1.0464520000"><ele>151</ele><time>2026-04-07T08:48:21Z</time></trkpt>
<trkpt lat="43.2730050000" lon="-1.0464520000"><ele>151</ele><time>2026-04-07T08:48:23Z</time></trkpt>
<trkpt lat="43.2730300000" lon="-1.0464570000"><ele>151</ele><time>2026-04-07T08:48:25Z</time></trkpt>
<trkpt lat="43.2730520000" lon="-1.0464670000"><ele>151</ele><time>2026-04-07T08:48:27Z</time></trkpt>
<trkpt lat="43.2730750000" lon="-1.0464600000"><ele>151</ele><time>2026-04-07T08:48:29Z</time></trkpt>
<trkpt lat="43.2730970000" lon="-1.0464470000"><ele>151</ele><time>2026-04-07T08:48:31Z</time></trkpt>
<trkpt lat="43.2731200000" lon="-1.0464400000"><ele>151</ele><time>2026-04-07T08:48:33Z</time></trkpt>
<trkpt lat="43.2731420000" lon="-1.0464330000"><ele>151</ele><time>2026-04-07T08:48:35Z</time></trkpt>
<trkpt lat="43.2731670000" lon="-1.0464170000"><ele>151</ele><time>2026-04-07T08:48:37Z</time></trkpt>
<trkpt lat="43.2731900000" lon="-1.0464020000"><ele>151</ele><time>2026-04-07T08:48:39Z</time></trkpt>
<trkpt lat="43.2732120000" lon="-1.0463920000"><ele>151</ele><time>2026-04-07T08:48:41Z</time></trkpt>
<trkpt lat="43.2732350000" lon="-1.0463870000"><ele>151</ele><time>2026-04-07T08:48:43Z</time></trkpt>
<trkpt lat="43.2732570000" lon="-1.0463820000"><ele>151</ele><time>2026-04-07T08:48:45Z</time></trkpt>
<trkpt lat="43.2732770000" lon="-1.0463720000"><ele>151</ele><time>2026-04-07T08:48:47Z</time></trkpt>
<trkpt lat="43.2733000000" lon="-1.0463600000"><ele>151</ele><time>2026-04-07T08:48:49Z</time></trkpt>
<trkpt lat="43.2733270000" lon="-1.0463520000"><ele>151</ele><time>2026-04-07T08:48:51Z</time></trkpt>
<trkpt lat="43.2733500000" lon="-1.0463470000"><ele>151</ele><time>2026-04-07T08:48:53Z</time></trkpt>
<trkpt lat="43.2733720000" lon="-1.0463450000"><ele>151</ele><time>2026-04-07T08:48:55Z</time></trkpt>
<trkpt lat="43.2733970000" lon="-1.0463370000"><ele>151</ele><time>2026-04-07T08:48:57Z</time></trkpt>
<trkpt lat="43.2734170000" lon="-1.0463320000"><ele>151</ele><time>2026-04-07T08:48:59Z</time></trkpt>
<trkpt lat="43.2734420000" lon="-1.0463250000"><ele>151</ele><time>2026-04-07T08:49:01Z</time></trkpt>
<trkpt lat="43.2734670000" lon="-1.0463200000"><ele>151</ele><time>2026-04-07T08:49:03Z</time></trkpt>
<trkpt lat="43.2734920000" lon="-1.0463100000"><ele>151</ele><time>2026-04-07T08:49:05Z</time></trkpt>
<trkpt lat="43.2735170000" lon="-1.0462970000"><ele>152</ele><time>2026-04-07T08:49:07Z</time></trkpt>
<trkpt lat="43.2735400000" lon="-1.0462870000"><ele>152</ele><time>2026-04-07T08:49:09Z</time></trkpt>
<trkpt lat="43.2735650000" lon="-1.0462820000"><ele>152</ele><time>2026-04-07T08:49:11Z</time></trkpt>
<trkpt lat="43.2735870000" lon="-1.0462750000"><ele>152</ele><time>2026-04-07T08:49:13Z</time></trkpt>
<trkpt lat="43.2736100000" lon="-1.0462670000"><ele>152</ele><time>2026-04-07T08:49:15Z</time></trkpt>
<trkpt lat="43.2736320000" lon="-1.0462620000"><ele>152</ele><time>2026-04-07T08:49:17Z</time></trkpt>
<trkpt lat="43.2736570000" lon="-1.0462570000"><ele>152</ele><time>2026-04-07T08:49:19Z</time></trkpt>
<trkpt lat="43.2736820000" lon="-1.0462480000"><ele>152</ele><time>2026-04-07T08:49:21Z</time></trkpt>
<trkpt lat="43.2737070000" lon="-1.0462420000"><ele>152</ele><time>2026-04-07T08:49:23Z</time></trkpt>
<trkpt lat="43.2737320000" lon="-1.0462350000"><ele>152</ele><time>2026-04-07T08:49:25Z</time></trkpt>
<trkpt lat="43.2737520000" lon="-1.0462270000"><ele>152</ele><time>2026-04-07T08:49:27Z</time></trkpt>
<trkpt lat="43.2737700000" lon="-1.0462170000"><ele>152</ele><time>2026-04-07T08:49:29Z</time></trkpt>
<trkpt lat="43.2737950000" lon="-1.0462020000"><ele>152</ele><time>2026-04-07T08:49:31Z</time></trkpt>
<trkpt lat="43.2738220000" lon="-1.0461850000"><ele>152</ele><time>2026-04-07T08:49:33Z</time></trkpt>
<trkpt lat="43.2738450000" lon="-1.0461770000"><ele>152</ele><time>2026-04-07T08:49:35Z</time></trkpt>
<trkpt lat="43.2738670000" lon="-1.0461720000"><ele>152</ele><time>2026-04-07T08:49:37Z</time></trkpt>
<trkpt lat="43.2738920000" lon="-1.0461720000"><ele>153</ele><time>2026-04-07T08:49:39Z</time></trkpt>
<trkpt lat="43.2739200000" lon="-1.0461670000"><ele>153</ele><time>2026-04-07T08:49:41Z</time></trkpt>
<trkpt lat="43.2739450000" lon="-1.0461570000"><ele>153</ele><time>2026-04-07T08:49:43Z</time></trkpt>
<trkpt lat="43.2739680000" lon="-1.0461550000"><ele>153</ele><time>2026-04-07T08:49:45Z</time></trkpt>
<trkpt lat="43.2739920000" lon="-1.0461500000"><ele>153</ele><time>2026-04-07T08:49:47Z</time></trkpt>
<trkpt lat="43.2740170000" lon="-1.0461420000"><ele>153</ele><time>2026-04-07T08:49:49Z</time></trkpt>
<trkpt lat="43.2740400000" lon="-1.0461370000"><ele>153</ele><time>2026-04-07T08:49:51Z</time></trkpt>
<trkpt lat="43.2740620000" lon="-1.0461270000"><ele>153</ele><time>2026-04-07T08:49:53Z</time></trkpt>
<trkpt lat="43.2740850000" lon="-1.0461220000"><ele>153</ele><time>2026-04-07T08:49:55Z</time></trkpt>
<trkpt lat="43.2741070000" lon="-1.0461120000"><ele>153</ele><time>2026-04-07T08:49:57Z</time></trkpt>
<trkpt lat="43.2741300000" lon="-1.0461020000"><ele>153</ele><time>2026-04-07T08:49:59Z</time></trkpt>
<trkpt lat="43.2741520000" lon="-1.0460920000"><ele>153</ele><time>2026-04-07T08:50:01Z</time></trkpt>
<trkpt lat="43.2741720000" lon="-1.0460770000"><ele>154</ele><time>2026-04-07T08:50:03Z</time></trkpt>
<trkpt lat="43.2741950000" lon="-1.0460620000"><ele>154</ele><time>2026-04-07T08:50:05Z</time></trkpt>
<trkpt lat="43.2742150000" lon="-1.0460470000"><ele>154</ele><time>2026-04-07T08:50:07Z</time></trkpt>
<trkpt lat="43.2742320000" lon="-1.0460320000"><ele>154</ele><time>2026-04-07T08:50:09Z</time></trkpt>
<trkpt lat="43.2742520000" lon="-1.0460170000"><ele>154</ele><time>2026-04-07T08:50:11Z</time></trkpt>
<trkpt lat="43.2742700000" lon="-1.0460020000"><ele>154</ele><time>2026-04-07T08:50:13Z</time></trkpt>
<trkpt lat="43.2742920000" lon="-1.0459870000"><ele>154</ele><time>2026-04-07T08:50:15Z</time></trkpt>
<trkpt lat="43.2743100000" lon="-1.0459770000"><ele>154</ele><time>2026-04-07T08:50:17Z</time></trkpt>
<trkpt lat="43.2743270000" lon="-1.0459600000"><ele>155</ele><time>2026-04-07T08:50:20Z</time></trkpt>
<trkpt lat="43.2743450000" lon="-1.0459620000"><ele>155</ele><time>2026-04-07T08:50:29Z</time></trkpt>
<trkpt lat="43.2743620000" lon="-1.0459520000"><ele>155</ele><time>2026-04-07T08:51:46Z</time></trkpt>
<trkpt lat="43.2743900000" lon="-1.0459420000"><ele>155</ele><time>2026-04-07T08:51:48Z</time></trkpt>
<trkpt lat="43.2744150000" lon="-1.0459320000"><ele>155</ele><time>2026-04-07T08:51:50Z</time></trkpt>
<trkpt lat="43.2744370000" lon="-1.0459170000"><ele>155</ele><time>2026-04-07T08:51:59Z</time></trkpt>
<trkpt lat="43.2744570000" lon="-1.0459250000"><ele>155</ele><time>2026-04-07T08:52:01Z</time></trkpt>
<trkpt lat="43.2744770000" lon="-1.0459200000"><ele>155</ele><time>2026-04-07T08:52:03Z</time></trkpt>
<trkpt lat="43.2745030000" lon="-1.0459070000"><ele>155</ele><time>2026-04-07T08:52:05Z</time></trkpt>
<trkpt lat="43.2745220000" lon="-1.0458920000"><ele>156</ele><time>2026-04-07T08:52:07Z</time></trkpt>
<trkpt lat="43.2745370000" lon="-1.0458720000"><ele>156</ele><time>2026-04-07T08:52:09Z</time></trkpt>
<trkpt lat="43.2745470000" lon="-1.0458470000"><ele>156</ele><time>2026-04-07T08:52:12Z</time></trkpt>
<trkpt lat="43.2745720000" lon="-1.0458530000"><ele>156</ele><time>2026-04-07T08:52:16Z</time></trkpt>
<trkpt lat="43.2745900000" lon="-1.0458370000"><ele>157</ele><time>2026-04-07T08:52:19Z</time></trkpt>
<trkpt lat="43.2746100000" lon="-1.0458370000"><ele>157</ele><time>2026-04-07T08:52:21Z</time></trkpt>
<trkpt lat="43.2746320000" lon="-1.0458470000"><ele>157</ele><time>2026-04-07T08:52:23Z</time></trkpt>
<trkpt lat="43.2746550000" lon="-1.0458320000"><ele>157</ele><time>2026-04-07T08:52:25Z</time></trkpt>
<trkpt lat="43.2746750000" lon="-1.0458220000"><ele>157</ele><time>2026-04-07T08:52:27Z</time></trkpt>
<trkpt lat="43.2746970000" lon="-1.0458220000"><ele>158</ele><time>2026-04-07T08:52:29Z</time></trkpt>
<trkpt lat="43.2747220000" lon="-1.0458120000"><ele>158</ele><time>2026-04-07T08:52:31Z</time></trkpt>
<trkpt lat="43.2747420000" lon="-1.0458020000"><ele>158</ele><time>2026-04-07T08:52:34Z</time></trkpt>
<trkpt lat="43.2747670000" lon="-1.0457970000"><ele>159</ele><time>2026-04-07T08:52:37Z</time></trkpt>
<trkpt lat="43.2747870000" lon="-1.0457850000"><ele>159</ele><time>2026-04-07T08:52:39Z</time></trkpt>
<trkpt lat="43.2748050000" lon="-1.0457820000"><ele>159</ele><time>2026-04-07T08:52:41Z</time></trkpt>
<trkpt lat="43.2748300000" lon="-1.0457770000"><ele>159</ele><time>2026-04-07T08:52:43Z</time></trkpt>
<trkpt lat="43.2748500000" lon="-1.0457670000"><ele>159</ele><time>2026-04-07T08:52:45Z</time></trkpt>
<trkpt lat="43.2748720000" lon="-1.0457670000"><ele>160</ele><time>2026-04-07T08:52:47Z</time></trkpt>
<trkpt lat="43.2748920000" lon="-1.0457700000"><ele>160</ele><time>2026-04-07T08:52:49Z</time></trkpt>
<trkpt lat="43.2749150000" lon="-1.0457650000"><ele>160</ele><time>2026-04-07T08:52:52Z</time></trkpt>
<trkpt lat="43.2749400000" lon="-1.0457700000"><ele>161</ele><time>2026-04-07T08:52:57Z</time></trkpt>
<trkpt lat="43.2749650000" lon="-1.0457820000"><ele>161</ele><time>2026-04-07T08:53:29Z</time></trkpt>
<trkpt lat="43.2749850000" lon="-1.0457770000"><ele>161</ele><time>2026-04-07T08:53:30Z</time></trkpt>
<trkpt lat="43.2750050000" lon="-1.0457770000"><ele>162</ele><time>2026-04-07T08:53:31Z</time></trkpt>
<trkpt lat="43.2750270000" lon="-1.0457800000"><ele>162</ele><time>2026-04-07T08:53:32Z</time></trkpt>
<trkpt lat="43.2750450000" lon="-1.0457850000"><ele>162</ele><time>2026-04-07T08:53:33Z</time></trkpt>
<trkpt lat="43.2750670000" lon="-1.0457850000"><ele>162</ele><time>2026-04-07T08:53:35Z</time></trkpt>
<trkpt lat="43.2750920000" lon="-1.0457820000"><ele>163</ele><time>2026-04-07T08:53:38Z</time></trkpt>
<trkpt lat="43.2751080000" lon="-1.0457850000"><ele>163</ele><time>2026-04-07T08:53:40Z</time></trkpt>
<trkpt lat="43.2751270000" lon="-1.0457820000"><ele>164</ele><time>2026-04-07T08:53:42Z</time></trkpt>
<trkpt lat="43.2751470000" lon="-1.0457720000"><ele>164</ele><time>2026-04-07T08:53:44Z</time></trkpt>
<trkpt lat="43.2751670000" lon="-1.0457650000"><ele>164</ele><time>2026-04-07T08:53:46Z</time></trkpt>
<trkpt lat="43.2751870000" lon="-1.0457620000"><ele>164</ele><time>2026-04-07T08:53:49Z</time></trkpt>
<trkpt lat="43.2752070000" lon="-1.0457520000"><ele>165</ele><time>2026-04-07T08:53:51Z</time></trkpt>
<trkpt lat="43.2752170000" lon="-1.0457270000"><ele>165</ele><time>2026-04-07T08:54:06Z</time></trkpt>
<trkpt lat="43.2752150000" lon="-1.0456970000"><ele>165</ele><time>2026-04-07T08:54:09Z</time></trkpt>
<trkpt lat="43.2752200000" lon="-1.0457370000"><ele>165</ele><time>2026-04-07T08:54:50Z</time></trkpt>
<trkpt lat="43.2752270000" lon="-1.0457670000"><ele>165</ele><time>2026-04-07T08:54:52Z</time></trkpt>
<trkpt lat="43.2752100000" lon="-1.0457720000"><ele>165</ele><time>2026-04-07T08:55:02Z</time></trkpt>
<trkpt lat="43.2751920000" lon="-1.0457370000"><ele>165</ele><time>2026-04-07T08:55:04Z</time></trkpt>
<trkpt lat="43.2751800000" lon="-1.0457130000"><ele>165</ele><time>2026-04-07T08:55:05Z</time></trkpt>
<trkpt lat="43.2751670000" lon="-1.0456920000"><ele>165</ele><time>2026-04-07T08:55:06Z</time></trkpt>
<trkpt lat="43.2751550000" lon="-1.0456570000"><ele>165</ele><time>2026-04-07T08:55:08Z</time></trkpt>
<trkpt lat="43.2751500000" lon="-1.0456270000"><ele>165</ele><time>2026-04-07T08:55:10Z</time></trkpt>
<trkpt lat="43.2751400000" lon="-1.0456000000"><ele>165</ele><time>2026-04-07T08:55:13Z</time></trkpt>
<trkpt lat="43.2751370000" lon="-1.0455750000"><ele>166</ele><time>2026-04-07T08:55:15Z</time></trkpt>
<trkpt lat="43.2751320000" lon="-1.0455470000"><ele>166</ele><time>2026-04-07T08:55:17Z</time></trkpt>
<trkpt lat="43.2751400000" lon="-1.0455170000"><ele>166</ele><time>2026-04-07T08:55:20Z</time></trkpt>
<trkpt lat="43.2751350000" lon="-1.0454850000"><ele>166</ele><time>2026-04-07T08:55:23Z</time></trkpt>
<trkpt lat="43.2751400000" lon="-1.0454520000"><ele>167</ele><time>2026-04-07T08:55:26Z</time></trkpt>
<trkpt lat="43.2751350000" lon="-1.0454250000"><ele>167</ele><time>2026-04-07T08:55:28Z</time></trkpt>
<trkpt lat="43.2751320000" lon="-1.0453870000"><ele>167</ele><time>2026-04-07T08:55:30Z</time></trkpt>
<trkpt lat="43.2751220000" lon="-1.0453530000"><ele>168</ele><time>2026-04-07T08:55:32Z</time></trkpt>
<trkpt lat="43.2751200000" lon="-1.0453130000"><ele>168</ele><time>2026-04-07T08:55:34Z</time></trkpt>
<trkpt lat="43.2751270000" lon="-1.0452820000"><ele>168</ele><time>2026-04-07T08:55:36Z</time></trkpt>
<trkpt lat="43.2751370000" lon="-1.0452570000"><ele>168</ele><time>2026-04-07T08:55:38Z</time></trkpt>
<trkpt lat="43.2751420000" lon="-1.0452300000"><ele>169</ele><time>2026-04-07T08:55:40Z</time></trkpt>
<trkpt lat="43.2751420000" lon="-1.0452020000"><ele>169</ele><time>2026-04-07T08:55:42Z</time></trkpt>
<trkpt lat="43.2751370000" lon="-1.0451730000"><ele>169</ele><time>2026-04-07T08:55:44Z</time></trkpt>
<trkpt lat="43.2751350000" lon="-1.0451500000"><ele>170</ele><time>2026-04-07T08:55:46Z</time></trkpt>
<trkpt lat="43.2751370000" lon="-1.0451220000"><ele>170</ele><time>2026-04-07T08:55:48Z</time></trkpt>
<trkpt lat="43.2751370000" lon="-1.0450920000"><ele>171</ele><time>2026-04-07T08:56:02Z</time></trkpt>
<trkpt lat="43.2751450000" lon="-1.0450570000"><ele>171</ele><time>2026-04-07T08:56:04Z</time></trkpt>
<trkpt lat="43.2751620000" lon="-1.0450270000"><ele>172</ele><time>2026-04-07T08:56:17Z</time></trkpt>
<trkpt lat="43.2751770000" lon="-1.0449920000"><ele>172</ele><time>2026-04-07T08:56:19Z</time></trkpt>
<trkpt lat="43.2751920000" lon="-1.0449620000"><ele>172</ele><time>2026-04-07T08:56:21Z</time></trkpt>
<trkpt lat="43.2752020000" lon="-1.0449350000"><ele>172</ele><time>2026-04-07T08:56:23Z</time></trkpt>
<trkpt lat="43.2752170000" lon="-1.0449070000"><ele>173</ele><time>2026-04-07T08:56:26Z</time></trkpt>
<trkpt lat="43.2752270000" lon="-1.0448800000"><ele>173</ele><time>2026-04-07T08:56:29Z</time></trkpt>
<trkpt lat="43.2752270000" lon="-1.0448550000"><ele>174</ele><time>2026-04-07T08:56:33Z</time></trkpt>
<trkpt lat="43.2752400000" lon="-1.0448320000"><ele>174</ele><time>2026-04-07T08:56:36Z</time></trkpt>
<trkpt lat="43.2752500000" lon="-1.0448100000"><ele>175</ele><time>2026-04-07T08:56:38Z</time></trkpt>
<trkpt lat="43.2752630000" lon="-1.0447820000"><ele>175</ele><time>2026-04-07T08:56:41Z</time></trkpt>
<trkpt lat="43.2752800000" lon="-1.0447670000"><ele>176</ele><time>2026-04-07T08:56:45Z</time></trkpt>
<trkpt lat="43.2752970000" lon="-1.0447470000"><ele>176</ele><time>2026-04-07T08:56:48Z</time></trkpt>
<trkpt lat="43.2753100000" lon="-1.0447270000"><ele>176</ele><time>2026-04-07T08:56:51Z</time></trkpt>
<trkpt lat="43.2753220000" lon="-1.0447070000"><ele>177</ele><time>2026-04-07T08:56:54Z</time></trkpt>
<trkpt lat="43.2753370000" lon="-1.0446870000"><ele>177</ele><time>2026-04-07T08:56:57Z</time></trkpt>
<trkpt lat="43.2753520000" lon="-1.0446670000"><ele>178</ele><time>2026-04-07T08:57:00Z</time></trkpt>
<trkpt lat="43.2753720000" lon="-1.0446470000"><ele>178</ele><time>2026-04-07T08:57:03Z</time></trkpt>
<trkpt lat="43.2753870000" lon="-1.0446320000"><ele>178</ele><time>2026-04-07T08:57:05Z</time></trkpt>
<trkpt lat="43.2754020000" lon="-1.0446150000"><ele>179</ele><time>2026-04-07T08:57:07Z</time></trkpt>
<trkpt lat="43.2754220000" lon="-1.0445930000"><ele>179</ele><time>2026-04-07T08:57:10Z</time></trkpt>
<trkpt lat="43.2754450000" lon="-1.0445820000"><ele>180</ele><time>2026-04-07T08:57:13Z</time></trkpt>
<trkpt lat="43.2754670000" lon="-1.0445700000"><ele>180</ele><time>2026-04-07T08:57:16Z</time></trkpt>
<trkpt lat="43.2754880000" lon="-1.0445570000"><ele>181</ele><time>2026-04-07T08:57:19Z</time></trkpt>
<trkpt lat="43.2755120000" lon="-1.0445470000"><ele>181</ele><time>2026-04-07T08:57:23Z</time></trkpt>
<trkpt lat="43.2755320000" lon="-1.0445420000"><ele>182</ele><time>2026-04-07T08:57:25Z</time></trkpt>
<trkpt lat="43.2755520000" lon="-1.0445320000"><ele>182</ele><time>2026-04-07T08:57:28Z</time></trkpt>
<trkpt lat="43.2755720000" lon="-1.0445120000"><ele>182</ele><time>2026-04-07T08:57:31Z</time></trkpt>
<trkpt lat="43.2755950000" lon="-1.0445020000"><ele>183</ele><time>2026-04-07T08:57:34Z</time></trkpt>
<trkpt lat="43.2756170000" lon="-1.0444900000"><ele>183</ele><time>2026-04-07T08:57:37Z</time></trkpt>
<trkpt lat="43.2756400000" lon="-1.0444820000"><ele>184</ele><time>2026-04-07T08:57:40Z</time></trkpt>
<trkpt lat="43.2756700000" lon="-1.0444770000"><ele>184</ele><time>2026-04-07T08:57:43Z</time></trkpt>
<trkpt lat="43.2756920000" lon="-1.0444820000"><ele>184</ele><time>2026-04-07T08:57:46Z</time></trkpt>
<trkpt lat="43.2757220000" lon="-1.0444620000"><ele>185</ele><time>2026-04-07T08:57:49Z</time></trkpt>
<trkpt lat="43.2757470000" lon="-1.0444570000"><ele>185</ele><time>2026-04-07T08:57:52Z</time></trkpt>
<trkpt lat="43.2757650000" lon="-1.0444580000"><ele>186</ele><time>2026-04-07T08:57:54Z</time></trkpt>
<trkpt lat="43.2757850000" lon="-1.0444470000"><ele>186</ele><time>2026-04-07T08:57:57Z</time></trkpt>
<trkpt lat="43.2758120000" lon="-1.0444520000"><ele>186</ele><time>2026-04-07T08:57:59Z</time></trkpt>
<trkpt lat="43.2758320000" lon="-1.0444620000"><ele>187</ele><time>2026-04-07T08:58:01Z</time></trkpt>
<trkpt lat="43.2758500000" lon="-1.0444750000"><ele>187</ele><time>2026-04-07T08:58:04Z</time></trkpt>
<trkpt lat="43.2758670000" lon="-1.0444670000"><ele>187</ele><time>2026-04-07T08:58:07Z</time></trkpt>
<trkpt lat="43.2758820000" lon="-1.0444470000"><ele>187</ele><time>2026-04-07T08:58:10Z</time></trkpt>
<trkpt lat="43.2759020000" lon="-1.0444470000"><ele>188</ele><time>2026-04-07T08:58:15Z</time></trkpt>
<trkpt lat="43.2759170000" lon="-1.0444270000"><ele>188</ele><time>2026-04-07T08:58:19Z</time></trkpt>
<trkpt lat="43.2759370000" lon="-1.0444150000"><ele>189</ele><time>2026-04-07T08:58:22Z</time></trkpt>
<trkpt lat="43.2759600000" lon="-1.0444070000"><ele>189</ele><time>2026-04-07T08:58:24Z</time></trkpt>
<trkpt lat="43.2759800000" lon="-1.0444000000"><ele>190</ele><time>2026-04-07T08:58:26Z</time></trkpt>
<trkpt lat="43.2760070000" lon="-1.0443870000"><ele>190</ele><time>2026-04-07T08:58:28Z</time></trkpt>
<trkpt lat="43.2760300000" lon="-1.0443770000"><ele>190</ele><time>2026-04-07T08:58:30Z</time></trkpt>
<trkpt lat="43.2760520000" lon="-1.0443570000"><ele>190</ele><time>2026-04-07T08:58:32Z</time></trkpt>
<trkpt lat="43.2760570000" lon="-1.0443320000"><ele>190</ele><time>2026-04-07T08:58:34Z</time></trkpt>
<trkpt lat="43.2760820000" lon="-1.0443120000"><ele>191</ele><time>2026-04-07T08:58:36Z</time></trkpt>
<trkpt lat="43.2761020000" lon="-1.0443070000"><ele>191</ele><time>2026-04-07T08:58:38Z</time></trkpt>
<trkpt lat="43.2761170000" lon="-1.0442870000"><ele>191</ele><time>2026-04-07T08:58:40Z</time></trkpt>
<trkpt lat="43.2761320000" lon="-1.0442720000"><ele>192</ele><time>2026-04-07T08:58:44Z</time></trkpt>
<trkpt lat="43.2761520000" lon="-1.0442480000"><ele>192</ele><time>2026-04-07T08:58:46Z</time></trkpt>
<trkpt lat="43.2761770000" lon="-1.0442370000"><ele>192</ele><time>2026-04-07T08:58:49Z</time></trkpt>
<trkpt lat="43.2762050000" lon="-1.0442270000"><ele>193</ele><time>2026-04-07T08:58:52Z</time></trkpt>
<trkpt lat="43.2762200000" lon="-1.0442100000"><ele>193</ele><time>2026-04-07T08:58:54Z</time></trkpt>
<trkpt lat="43.2762300000" lon="-1.0441770000"><ele>194</ele><time>2026-04-07T08:58:57Z</time></trkpt>
<trkpt lat="43.2762480000" lon="-1.0441470000"><ele>194</ele><time>2026-04-07T08:58:59Z</time></trkpt>
<trkpt lat="43.2762720000" lon="-1.0441250000"><ele>194</ele><time>2026-04-07T08:59:02Z</time></trkpt>
<trkpt lat="43.2762820000" lon="-1.0441050000"><ele>195</ele><time>2026-04-07T08:59:04Z</time></trkpt>
<trkpt lat="43.2763020000" lon="-1.0440870000"><ele>195</ele><time>2026-04-07T08:59:06Z</time></trkpt>
<trkpt lat="43.2763270000" lon="-1.0440650000"><ele>195</ele><time>2026-04-07T08:59:08Z</time></trkpt>
<trkpt lat="43.2763450000" lon="-1.0440520000"><ele>195</ele><time>2026-04-07T08:59:10Z</time></trkpt>
<trkpt lat="43.2763620000" lon="-1.0440300000"><ele>195</ele><time>2026-04-07T08:59:12Z</time></trkpt>
<trkpt lat="43.2763720000" lon="-1.0440050000"><ele>196</ele><time>2026-04-07T08:59:15Z</time></trkpt>
<trkpt lat="43.2763920000" lon="-1.0439900000"><ele>196</ele><time>2026-04-07T08:59:17Z</time></trkpt>
<trkpt lat="43.2764170000" lon="-1.0439700000"><ele>196</ele><time>2026-04-07T08:59:19Z</time></trkpt>
<trkpt lat="43.2764420000" lon="-1.0439620000"><ele>197</ele><time>2026-04-07T08:59:25Z</time></trkpt>
<trkpt lat="43.2764620000" lon="-1.0439750000"><ele>197</ele><time>2026-04-07T08:59:29Z</time></trkpt>
<trkpt lat="43.2764520000" lon="-1.0439520000"><ele>197</ele><time>2026-04-07T08:59:51Z</time></trkpt>
<trkpt lat="43.2764770000" lon="-1.0439600000"><ele>197</ele><time>2026-04-07T09:00:05Z</time></trkpt>
<trkpt lat="43.2765000000" lon="-1.0439570000"><ele>198</ele><time>2026-04-07T09:00:08Z</time></trkpt>
<trkpt lat="43.2765220000" lon="-1.0439600000"><ele>198</ele><time>2026-04-07T09:00:10Z</time></trkpt>
<trkpt lat="43.2765450000" lon="-1.0439630000"><ele>198</ele><time>2026-04-07T09:00:12Z</time></trkpt>
<trkpt lat="43.2765670000" lon="-1.0439450000"><ele>199</ele><time>2026-04-07T09:00:15Z</time></trkpt>
<trkpt lat="43.2765820000" lon="-1.0439300000"><ele>199</ele><time>2026-04-07T09:00:17Z</time></trkpt>
<trkpt lat="43.2766050000" lon="-1.0439180000"><ele>199</ele><time>2026-04-07T09:00:20Z</time></trkpt>
<trkpt lat="43.2766220000" lon="-1.0439100000"><ele>200</ele><time>2026-04-07T09:00:23Z</time></trkpt>
<trkpt lat="43.2766400000" lon="-1.0438870000"><ele>200</ele><time>2026-04-07T09:00:26Z</time></trkpt>
<trkpt lat="43.2766570000" lon="-1.0438820000"><ele>201</ele><time>2026-04-07T09:00:29Z</time></trkpt>
<trkpt lat="43.2766750000" lon="-1.0438600000"><ele>202</ele><time>2026-04-07T09:00:34Z</time></trkpt>
<trkpt lat="43.2766970000" lon="-1.0438400000"><ele>202</ele><time>2026-04-07T09:00:37Z</time></trkpt>
<trkpt lat="43.2767100000" lon="-1.0438200000"><ele>202</ele><time>2026-04-07T09:00:39Z</time></trkpt>
<trkpt lat="43.2767320000" lon="-1.0438020000"><ele>203</ele><time>2026-04-07T09:00:42Z</time></trkpt>
<trkpt lat="43.2767520000" lon="-1.0437820000"><ele>203</ele><time>2026-04-07T09:00:45Z</time></trkpt>
<trkpt lat="43.2767770000" lon="-1.0437620000"><ele>204</ele><time>2026-04-07T09:00:48Z</time></trkpt>
<trkpt lat="43.2768020000" lon="-1.0437570000"><ele>204</ele><time>2026-04-07T09:00:51Z</time></trkpt>
<trkpt lat="43.2768270000" lon="-1.0437470000"><ele>204</ele><time>2026-04-07T09:00:54Z</time></trkpt>
<trkpt lat="43.2768520000" lon="-1.0437430000"><ele>205</ele><time>2026-04-07T09:00:57Z</time></trkpt>
<trkpt lat="43.2768770000" lon="-1.0437320000"><ele>205</ele><time>2026-04-07T09:01:00Z</time></trkpt>
<trkpt lat="43.2769000000" lon="-1.0437220000"><ele>206</ele><time>2026-04-07T09:01:03Z</time></trkpt>
<trkpt lat="43.2769200000" lon="-1.0437080000"><ele>206</ele><time>2026-04-07T09:01:06Z</time></trkpt>
<trkpt lat="43.2769370000" lon="-1.0436970000"><ele>207</ele><time>2026-04-07T09:01:09Z</time></trkpt>
<trkpt lat="43.2769570000" lon="-1.0436820000"><ele>208</ele><time>2026-04-07T09:01:13Z</time></trkpt>
<trkpt lat="43.2769770000" lon="-1.0436750000"><ele>208</ele><time>2026-04-07T09:01:16Z</time></trkpt>
<trkpt lat="43.2770020000" lon="-1.0436700000"><ele>209</ele><time>2026-04-07T09:01:19Z</time></trkpt>
<trkpt lat="43.2770220000" lon="-1.0436720000"><ele>209</ele><time>2026-04-07T09:01:22Z</time></trkpt>
<trkpt lat="43.2770400000" lon="-1.0436600000"><ele>210</ele><time>2026-04-07T09:01:25Z</time></trkpt>
<trkpt lat="43.2770600000" lon="-1.0436450000"><ele>210</ele><time>2026-04-07T09:01:28Z</time></trkpt>
<trkpt lat="43.2770770000" lon="-1.0436320000"><ele>210</ele><time>2026-04-07T09:01:31Z</time></trkpt>
<trkpt lat="43.2770970000" lon="-1.0436220000"><ele>211</ele><time>2026-04-07T09:01:34Z</time></trkpt>
<trkpt lat="43.2771120000" lon="-1.0436070000"><ele>211</ele><time>2026-04-07T09:01:37Z</time></trkpt>
<trkpt lat="43.2771400000" lon="-1.0435950000"><ele>212</ele><time>2026-04-07T09:01:40Z</time></trkpt>
<trkpt lat="43.2771620000" lon="-1.0435970000"><ele>212</ele><time>2026-04-07T09:01:43Z</time></trkpt>
<trkpt lat="43.2771820000" lon="-1.0436130000"><ele>212</ele><time>2026-04-07T09:01:45Z</time></trkpt>
<trkpt lat="43.2772020000" lon="-1.0436300000"><ele>213</ele><time>2026-04-07T09:01:48Z</time></trkpt>
<trkpt lat="43.2772250000" lon="-1.0436370000"><ele>213</ele><time>2026-04-07T09:01:52Z</time></trkpt>
<trkpt lat="43.2772420000" lon="-1.0436400000"><ele>214</ele><time>2026-04-07T09:01:55Z</time></trkpt>
<trkpt lat="43.2772620000" lon="-1.0436220000"><ele>214</ele><time>2026-04-07T09:01:58Z</time></trkpt>
<trkpt lat="43.2772820000" lon="-1.0436000000"><ele>215</ele><time>2026-04-07T09:02:01Z</time></trkpt>
<trkpt lat="43.2772970000" lon="-1.0435850000"><ele>215</ele><time>2026-04-07T09:02:03Z</time></trkpt>
<trkpt lat="43.2773170000" lon="-1.0435580000"><ele>216</ele><time>2026-04-07T09:02:06Z</time></trkpt>
<trkpt lat="43.2773320000" lon="-1.0435420000"><ele>216</ele><time>2026-04-07T09:02:08Z</time></trkpt>
<trkpt lat="43.2773550000" lon="-1.0435270000"><ele>216</ele><time>2026-04-07T09:02:11Z</time></trkpt>
<trkpt lat="43.2773770000" lon="-1.0435070000"><ele>217</ele><time>2026-04-07T09:02:14Z</time></trkpt>
<trkpt lat="43.2773950000" lon="-1.0434900000"><ele>217</ele><time>2026-04-07T09:02:17Z</time></trkpt>
<trkpt lat="43.2774170000" lon="-1.0434720000"><ele>217</ele><time>2026-04-07T09:02:20Z</time></trkpt>
<trkpt lat="43.2774370000" lon="-1.0434620000"><ele>218</ele><time>2026-04-07T09:02:23Z</time></trkpt>
<trkpt lat="43.2774580000" lon="-1.0434520000"><ele>218</ele><time>2026-04-07T09:02:26Z</time></trkpt>
<trkpt lat="43.2774820000" lon="-1.0434420000"><ele>218</ele><time>2026-04-07T09:02:29Z</time></trkpt>
<trkpt lat="43.2774970000" lon="-1.0434320000"><ele>219</ele><time>2026-04-07T09:02:32Z</time></trkpt>
<trkpt lat="43.2775220000" lon="-1.0434220000"><ele>219</ele><time>2026-04-07T09:02:35Z</time></trkpt>
<trkpt lat="43.2775420000" lon="-1.0434120000"><ele>220</ele><time>2026-04-07T09:02:38Z</time></trkpt>
<trkpt lat="43.2775670000" lon="-1.0433970000"><ele>220</ele><time>2026-04-07T09:02:41Z</time></trkpt>
<trkpt lat="43.2775820000" lon="-1.0433870000"><ele>221</ele><time>2026-04-07T09:02:43Z</time></trkpt>
<trkpt lat="43.2775970000" lon="-1.0433720000"><ele>221</ele><time>2026-04-07T09:02:45Z</time></trkpt>
<trkpt lat="43.2776170000" lon="-1.0433570000"><ele>221</ele><time>2026-04-07T09:02:48Z</time></trkpt>
<trkpt lat="43.2776320000" lon="-1.0433420000"><ele>222</ele><time>2026-04-07T09:02:51Z</time></trkpt>
<trkpt lat="43.2776470000" lon="-1.0433170000"><ele>223</ele><time>2026-04-07T09:03:37Z</time></trkpt>
<trkpt lat="43.2776700000" lon="-1.0432980000"><ele>223</ele><time>2026-04-07T09:03:39Z</time></trkpt>
<trkpt lat="43.2776970000" lon="-1.0432880000"><ele>223</ele><time>2026-04-07T09:03:41Z</time></trkpt>
<trkpt lat="43.2777270000" lon="-1.0432970000"><ele>223</ele><time>2026-04-07T09:03:43Z</time></trkpt>
<trkpt lat="43.2777520000" lon="-1.0433030000"><ele>223</ele><time>2026-04-07T09:03:45Z</time></trkpt>
<trkpt lat="43.2777750000" lon="-1.0433120000"><ele>224</ele><time>2026-04-07T09:03:48Z</time></trkpt>
<trkpt lat="43.2778000000" lon="-1.0433070000"><ele>224</ele><time>2026-04-07T09:03:50Z</time></trkpt>
<trkpt lat="43.2778220000" lon="-1.0433170000"><ele>224</ele><time>2026-04-07T09:03:52Z</time></trkpt>
<trkpt lat="43.2778450000" lon="-1.0433270000"><ele>225</ele><time>2026-04-07T09:03:55Z</time></trkpt>
<trkpt lat="43.2778650000" lon="-1.0433300000"><ele>225</ele><time>2026-04-07T09:03:57Z</time></trkpt>
<trkpt lat="43.2778870000" lon="-1.0433170000"><ele>225</ele><time>2026-04-07T09:04:00Z</time></trkpt>
<trkpt lat="43.2779120000" lon="-1.0433030000"><ele>226</ele><time>2026-04-07T09:04:03Z</time></trkpt>
<trkpt lat="43.2779270000" lon="-1.0432950000"><ele>226</ele><time>2026-04-07T09:04:05Z</time></trkpt>
<trkpt lat="43.2779420000" lon="-1.0432770000"><ele>226</ele><time>2026-04-07T09:04:07Z</time></trkpt>
<trkpt lat="43.2779520000" lon="-1.0432520000"><ele>227</ele><time>2026-04-07T09:04:11Z</time></trkpt>
<trkpt lat="43.2779320000" lon="-1.0432420000"><ele>227</ele><time>2026-04-07T09:04:48Z</time></trkpt>
<trkpt lat="43.2779250000" lon="-1.0432120000"><ele>226</ele><time>2026-04-07T09:05:06Z</time></trkpt>
<trkpt lat="43.2779400000" lon="-1.0432320000"><ele>226</ele><time>2026-04-07T09:05:11Z</time></trkpt>
<trkpt lat="43.2779270000" lon="-1.0432620000"><ele>226</ele><time>2026-04-07T09:06:29Z</time></trkpt>
<trkpt lat="43.2779200000" lon="-1.0432950000"><ele>226</ele><time>2026-04-07T09:06:31Z</time></trkpt>
<trkpt lat="43.2779020000" lon="-1.0433100000"><ele>226</ele><time>2026-04-07T09:06:33Z</time></trkpt>
<trkpt lat="43.2778850000" lon="-1.0432880000"><ele>226</ele><time>2026-04-07T09:09:15Z</time></trkpt>
<trkpt lat="43.2778750000" lon="-1.0432670000"><ele>226</ele><time>2026-04-07T09:10:28Z</time></trkpt>
<trkpt lat="43.2778950000" lon="-1.0432570000"><ele>226</ele><time>2026-04-07T09:10:50Z</time></trkpt>
<trkpt lat="43.2778770000" lon="-1.0432770000"><ele>227</ele><time>2026-04-07T09:11:39Z</time></trkpt>
<trkpt lat="43.2778570000" lon="-1.0432870000"><ele>227</ele><time>2026-04-07T09:11:42Z</time></trkpt>
<trkpt lat="43.2778850000" lon="-1.0432700000"><ele>227</ele><time>2026-04-07T09:13:00Z</time></trkpt>
<trkpt lat="43.2779050000" lon="-1.0432620000"><ele>228</ele><time>2026-04-07T09:13:01Z</time></trkpt>
<trkpt lat="43.2779270000" lon="-1.0432520000"><ele>228</ele><time>2026-04-07T09:13:02Z</time></trkpt>
<trkpt lat="43.2779450000" lon="-1.0432420000"><ele>228</ele><time>2026-04-07T09:13:03Z</time></trkpt>
<trkpt lat="43.2779650000" lon="-1.0432320000"><ele>228</ele><time>2026-04-07T09:13:05Z</time></trkpt>
<trkpt lat="43.2779800000" lon="-1.0432570000"><ele>228</ele><time>2026-04-07T09:13:19Z</time></trkpt>
<trkpt lat="43.2780070000" lon="-1.0432700000"><ele>228</ele><time>2026-04-07T09:13:21Z</time></trkpt>
<trkpt lat="43.2780320000" lon="-1.0432920000"><ele>228</ele><time>2026-04-07T09:13:23Z</time></trkpt>
<trkpt lat="43.2780470000" lon="-1.0433070000"><ele>228</ele><time>2026-04-07T09:13:25Z</time></trkpt>
<trkpt lat="43.2780670000" lon="-1.0433220000"><ele>229</ele><time>2026-04-07T09:13:28Z</time></trkpt>
<trkpt lat="43.2780750000" lon="-1.0433520000"><ele>229</ele><time>2026-04-07T09:13:31Z</time></trkpt>
<trkpt lat="43.2780750000" lon="-1.0433820000"><ele>229</ele><time>2026-04-07T09:13:34Z</time></trkpt>
<trkpt lat="43.2780850000" lon="-1.0434100000"><ele>230</ele><time>2026-04-07T09:13:37Z</time></trkpt>
<trkpt lat="43.2781000000" lon="-1.0434320000"><ele>230</ele><time>2026-04-07T09:13:39Z</time></trkpt>
<trkpt lat="43.2781200000" lon="-1.0434600000"><ele>230</ele><time>2026-04-07T09:13:41Z</time></trkpt>
<trkpt lat="43.2781420000" lon="-1.0434870000"><ele>231</ele><time>2026-04-07T09:13:43Z</time></trkpt>
<trkpt lat="43.2781600000" lon="-1.0435070000"><ele>231</ele><time>2026-04-07T09:13:45Z</time></trkpt>
<trkpt lat="43.2781770000" lon="-1.0435320000"><ele>231</ele><time>2026-04-07T09:13:47Z</time></trkpt>
<trkpt lat="43.2782000000" lon="-1.0435470000"><ele>231</ele><time>2026-04-07T09:13:49Z</time></trkpt>
<trkpt lat="43.2782180000" lon="-1.0435720000"><ele>231</ele><time>2026-04-07T09:13:51Z</time></trkpt>
<trkpt lat="43.2782420000" lon="-1.0435850000"><ele>232</ele><time>2026-04-07T09:13:55Z</time></trkpt>
<trkpt lat="43.2782670000" lon="-1.0436070000"><ele>233</ele><time>2026-04-07T09:13:59Z</time></trkpt>
<trkpt lat="43.2782870000" lon="-1.0436220000"><ele>233</ele><time>2026-04-07T09:14:01Z</time></trkpt>
<trkpt lat="43.2783020000" lon="-1.0436370000"><ele>233</ele><time>2026-04-07T09:14:03Z</time></trkpt>
<trkpt lat="43.2783320000" lon="-1.0436420000"><ele>233</ele><time>2026-04-07T09:14:06Z</time></trkpt>
<trkpt lat="43.2783520000" lon="-1.0436450000"><ele>234</ele><time>2026-04-07T09:14:09Z</time></trkpt>
<trkpt lat="43.2783720000" lon="-1.0436520000"><ele>234</ele><time>2026-04-07T09:14:11Z</time></trkpt>
<trkpt lat="43.2783870000" lon="-1.0436900000"><ele>234</ele><time>2026-04-07T09:14:13Z</time></trkpt>
<trkpt lat="43.2784020000" lon="-1.0437170000"><ele>235</ele><time>2026-04-07T09:14:16Z</time></trkpt>
<trkpt lat="43.2784120000" lon="-1.0437470000"><ele>235</ele><time>2026-04-07T09:14:19Z</time></trkpt>
<trkpt lat="43.2784300000" lon="-1.0437620000"><ele>235</ele><time>2026-04-07T09:14:22Z</time></trkpt>
<trkpt lat="43.2784420000" lon="-1.0437870000"><ele>236</ele><time>2026-04-07T09:14:24Z</time></trkpt>
<trkpt lat="43.2784550000" lon="-1.0438120000"><ele>236</ele><time>2026-04-07T09:14:26Z</time></trkpt>
<trkpt lat="43.2784750000" lon="-1.0438280000"><ele>236</ele><time>2026-04-07T09:14:29Z</time></trkpt>
<trkpt lat="43.2784920000" lon="-1.0438470000"><ele>237</ele><time>2026-04-07T09:14:32Z</time></trkpt>
<trkpt lat="43.2785120000" lon="-1.0438500000"><ele>237</ele><time>2026-04-07T09:14:35Z</time></trkpt>
<trkpt lat="43.2785320000" lon="-1.0438550000"><ele>238</ele><time>2026-04-07T09:14:39Z</time></trkpt>
<trkpt lat="43.2785520000" lon="-1.0438720000"><ele>238</ele><time>2026-04-07T09:14:43Z</time></trkpt>
<trkpt lat="43.2785800000" lon="-1.0438820000"><ele>239</ele><time>2026-04-07T09:14:46Z</time></trkpt>
<trkpt lat="43.2785970000" lon="-1.0438970000"><ele>239</ele><time>2026-04-07T09:14:48Z</time></trkpt>
<trkpt lat="43.2786120000" lon="-1.0439070000"><ele>240</ele><time>2026-04-07T09:14:50Z</time></trkpt>
<trkpt lat="43.2786320000" lon="-1.0439180000"><ele>240</ele><time>2026-04-07T09:14:53Z</time></trkpt>
<trkpt lat="43.2786550000" lon="-1.0439320000"><ele>240</ele><time>2026-04-07T09:14:55Z</time></trkpt>
<trkpt lat="43.2786720000" lon="-1.0439470000"><ele>241</ele><time>2026-04-07T09:14:57Z</time></trkpt>
<trkpt lat="43.2786870000" lon="-1.0439620000"><ele>241</ele><time>2026-04-07T09:14:59Z</time></trkpt>
<trkpt lat="43.2787070000" lon="-1.0439820000"><ele>241</ele><time>2026-04-07T09:15:02Z</time></trkpt>
<trkpt lat="43.2787300000" lon="-1.0440020000"><ele>242</ele><time>2026-04-07T09:15:05Z</time></trkpt>
<trkpt lat="43.2787470000" lon="-1.0440180000"><ele>242</ele><time>2026-04-07T09:15:08Z</time></trkpt>
<trkpt lat="43.2787670000" lon="-1.0440320000"><ele>243</ele><time>2026-04-07T09:15:11Z</time></trkpt>
<trkpt lat="43.2787870000" lon="-1.0440470000"><ele>243</ele><time>2026-04-07T09:15:14Z</time></trkpt>
<trkpt lat="43.2788070000" lon="-1.0440500000"><ele>244</ele><time>2026-04-07T09:15:17Z</time></trkpt>
<trkpt lat="43.2788370000" lon="-1.0440570000"><ele>244</ele><time>2026-04-07T09:15:20Z</time></trkpt>
<trkpt lat="43.2788550000" lon="-1.0440620000"><ele>244</ele><time>2026-04-07T09:15:22Z</time></trkpt>
<trkpt lat="43.2788820000" lon="-1.0440670000"><ele>245</ele><time>2026-04-07T09:15:24Z</time></trkpt>
<trkpt lat="43.2788970000" lon="-1.0440870000"><ele>245</ele><time>2026-04-07T09:15:27Z</time></trkpt>
<trkpt lat="43.2789100000" lon="-1.0441170000"><ele>246</ele><time>2026-04-07T09:15:30Z</time></trkpt>
<trkpt lat="43.2789320000" lon="-1.0441250000"><ele>246</ele><time>2026-04-07T09:15:32Z</time></trkpt>
<trkpt lat="43.2789400000" lon="-1.0441480000"><ele>246</ele><time>2026-04-07T09:15:35Z</time></trkpt>
<trkpt lat="43.2789470000" lon="-1.0441720000"><ele>246</ele><time>2026-04-07T09:15:37Z</time></trkpt>
<trkpt lat="43.2789750000" lon="-1.0441920000"><ele>247</ele><time>2026-04-07T09:15:40Z</time></trkpt>
<trkpt lat="43.2789900000" lon="-1.0442100000"><ele>247</ele><time>2026-04-07T09:15:43Z</time></trkpt>
<trkpt lat="43.2790120000" lon="-1.0442250000"><ele>247</ele><time>2026-04-07T09:15:47Z</time></trkpt>
<trkpt lat="43.2790350000" lon="-1.0442320000"><ele>248</ele><time>2026-04-07T09:15:50Z</time></trkpt>
<trkpt lat="43.2790520000" lon="-1.0442480000"><ele>248</ele><time>2026-04-07T09:15:52Z</time></trkpt>
<trkpt lat="43.2790750000" lon="-1.0442670000"><ele>248</ele><time>2026-04-07T09:15:54Z</time></trkpt>
<trkpt lat="43.2791000000" lon="-1.0442800000"><ele>248</ele><time>2026-04-07T09:15:56Z</time></trkpt>
<trkpt lat="43.2791170000" lon="-1.0442970000"><ele>248</ele><time>2026-04-07T09:15:58Z</time></trkpt>
<trkpt lat="43.2791370000" lon="-1.0443000000"><ele>249</ele><time>2026-04-07T09:16:00Z</time></trkpt>
<trkpt lat="43.2791570000" lon="-1.0443020000"><ele>249</ele><time>2026-04-07T09:16:02Z</time></trkpt>
<trkpt lat="43.2791770000" lon="-1.0443170000"><ele>249</ele><time>2026-04-07T09:16:04Z</time></trkpt>
<trkpt lat="43.2791950000" lon="-1.0443370000"><ele>249</ele><time>2026-04-07T09:16:06Z</time></trkpt>
<trkpt lat="43.2792170000" lon="-1.0443620000"><ele>249</ele><time>2026-04-07T09:16:08Z</time></trkpt>
<trkpt lat="43.2792300000" lon="-1.0443800000"><ele>249</ele><time>2026-04-07T09:16:10Z</time></trkpt>
<trkpt lat="43.2792500000" lon="-1.0443970000"><ele>249</ele><time>2026-04-07T09:16:12Z</time></trkpt>
<trkpt lat="43.2792720000" lon="-1.0444150000"><ele>249</ele><time>2026-04-07T09:16:15Z</time></trkpt>
<trkpt lat="43.2792950000" lon="-1.0444320000"><ele>249</ele><time>2026-04-07T09:16:18Z</time></trkpt>
<trkpt lat="43.2793120000" lon="-1.0444450000"><ele>249</ele><time>2026-04-07T09:16:20Z</time></trkpt>
<trkpt lat="43.2793320000" lon="-1.0444580000"><ele>249</ele><time>2026-04-07T09:16:22Z</time></trkpt>
<trkpt lat="43.2793520000" lon="-1.0444770000"><ele>249</ele><time>2026-04-07T09:16:25Z</time></trkpt>
<trkpt lat="43.2793720000" lon="-1.0444970000"><ele>249</ele><time>2026-04-07T09:16:28Z</time></trkpt>
<trkpt lat="43.2793950000" lon="-1.0445000000"><ele>249</ele><time>2026-04-07T09:16:32Z</time></trkpt>
<trkpt lat="43.2794120000" lon="-1.0445170000"><ele>249</ele><time>2026-04-07T09:16:34Z</time></trkpt>
<trkpt lat="43.2794400000" lon="-1.0445320000"><ele>249</ele><time>2026-04-07T09:16:36Z</time></trkpt>
<trkpt lat="43.2794570000" lon="-1.0445520000"><ele>249</ele><time>2026-04-07T09:16:38Z</time></trkpt>
<trkpt lat="43.2794800000" lon="-1.0445720000"><ele>249</ele><time>2026-04-07T09:16:40Z</time></trkpt>
<trkpt lat="43.2795050000" lon="-1.0445920000"><ele>249</ele><time>2026-04-07T09:16:42Z</time></trkpt>
<trkpt lat="43.2795220000" lon="-1.0446170000"><ele>248</ele><time>2026-04-07T09:16:44Z</time></trkpt>
<trkpt lat="43.2795450000" lon="-1.0446250000"><ele>248</ele><time>2026-04-07T09:16:46Z</time></trkpt>
<trkpt lat="43.2795620000" lon="-1.0446350000"><ele>248</ele><time>2026-04-07T09:16:48Z</time></trkpt>
<trkpt lat="43.2795820000" lon="-1.0446420000"><ele>248</ele><time>2026-04-07T09:16:50Z</time></trkpt>
<trkpt lat="43.2796070000" lon="-1.0446520000"><ele>248</ele><time>2026-04-07T09:16:52Z</time></trkpt>
<trkpt lat="43.2796250000" lon="-1.0446670000"><ele>248</ele><time>2026-04-07T09:16:54Z</time></trkpt>
<trkpt lat="43.2796420000" lon="-1.0446820000"><ele>248</ele><time>2026-04-07T09:16:56Z</time></trkpt>
<trkpt lat="43.2796650000" lon="-1.0447050000"><ele>248</ele><time>2026-04-07T09:16:59Z</time></trkpt>
<trkpt lat="43.2796870000" lon="-1.0447220000"><ele>248</ele><time>2026-04-07T09:17:01Z</time></trkpt>
<trkpt lat="43.2797020000" lon="-1.0447370000"><ele>248</ele><time>2026-04-07T09:17:03Z</time></trkpt>
<trkpt lat="43.2797320000" lon="-1.0447550000"><ele>248</ele><time>2026-04-07T09:17:06Z</time></trkpt>
<trkpt lat="43.2797620000" lon="-1.0447770000"><ele>247</ele><time>2026-04-07T09:17:08Z</time></trkpt>
<trkpt lat="43.2797800000" lon="-1.0447870000"><ele>247</ele><time>2026-04-07T09:17:10Z</time></trkpt>
<trkpt lat="43.2797970000" lon="-1.0448020000"><ele>247</ele><time>2026-04-07T09:17:12Z</time></trkpt>
<trkpt lat="43.2798120000" lon="-1.0448220000"><ele>247</ele><time>2026-04-07T09:17:14Z</time></trkpt>
<trkpt lat="43.2798370000" lon="-1.0448500000"><ele>247</ele><time>2026-04-07T09:17:16Z</time></trkpt>
<trkpt lat="43.2798520000" lon="-1.0448680000"><ele>247</ele><time>2026-04-07T09:17:18Z</time></trkpt>
<trkpt lat="43.2798670000" lon="-1.0448850000"><ele>247</ele><time>2026-04-07T09:17:20Z</time></trkpt>
<trkpt lat="43.2798870000" lon="-1.0449070000"><ele>247</ele><time>2026-04-07T09:17:23Z</time></trkpt>
<trkpt lat="43.2799120000" lon="-1.0449270000"><ele>247</ele><time>2026-04-07T09:17:25Z</time></trkpt>
<trkpt lat="43.2799370000" lon="-1.0449370000"><ele>247</ele><time>2026-04-07T09:17:26Z</time></trkpt>
<trkpt lat="43.2799570000" lon="-1.0449520000"><ele>247</ele><time>2026-04-07T09:17:28Z</time></trkpt>
<trkpt lat="43.2799750000" lon="-1.0449700000"><ele>247</ele><time>2026-04-07T09:17:30Z</time></trkpt>
<trkpt lat="43.2799970000" lon="-1.0449870000"><ele>247</ele><time>2026-04-07T09:17:33Z</time></trkpt>
<trkpt lat="43.2800300000" lon="-1.0449930000"><ele>247</ele><time>2026-04-07T09:17:35Z</time></trkpt>
<trkpt lat="43.2800520000" lon="-1.0450020000"><ele>247</ele><time>2026-04-07T09:17:37Z</time></trkpt>
<trkpt lat="43.2800750000" lon="-1.0450100000"><ele>247</ele><time>2026-04-07T09:17:39Z</time></trkpt>
<trkpt lat="43.2800970000" lon="-1.0450220000"><ele>247</ele><time>2026-04-07T09:17:41Z</time></trkpt>
<trkpt lat="43.2801220000" lon="-1.0450270000"><ele>247</ele><time>2026-04-07T09:17:43Z</time></trkpt>
<trkpt lat="43.2801420000" lon="-1.0450220000"><ele>247</ele><time>2026-04-07T09:17:45Z</time></trkpt>
<trkpt lat="43.2801670000" lon="-1.0450270000"><ele>247</ele><time>2026-04-07T09:17:47Z</time></trkpt>
<trkpt lat="43.2801870000" lon="-1.0450430000"><ele>247</ele><time>2026-04-07T09:17:49Z</time></trkpt>
<trkpt lat="43.2801870000" lon="-1.0450720000"><ele>247</ele><time>2026-04-07T09:17:51Z</time></trkpt>
<trkpt lat="43.2801670000" lon="-1.0450820000"><ele>247</ele><time>2026-04-07T09:17:54Z</time></trkpt>
<trkpt lat="43.2801820000" lon="-1.0450600000"><ele>248</ele><time>2026-04-07T09:18:01Z</time></trkpt>
<trkpt lat="43.2802170000" lon="-1.0450430000"><ele>247</ele><time>2026-04-07T09:18:05Z</time></trkpt>
<trkpt lat="43.2802420000" lon="-1.0450270000"><ele>247</ele><time>2026-04-07T09:18:06Z</time></trkpt>
<trkpt lat="43.2802650000" lon="-1.0450120000"><ele>248</ele><time>2026-04-07T09:18:07Z</time></trkpt>
<trkpt lat="43.2802870000" lon="-1.0449980000"><ele>248</ele><time>2026-04-07T09:18:08Z</time></trkpt>
<trkpt lat="43.2803050000" lon="-1.0449930000"><ele>248</ele><time>2026-04-07T09:18:09Z</time></trkpt>
<trkpt lat="43.2803220000" lon="-1.0449970000"><ele>248</ele><time>2026-04-07T09:18:10Z</time></trkpt>
<trkpt lat="43.2803470000" lon="-1.0449980000"><ele>248</ele><time>2026-04-07T09:18:12Z</time></trkpt>
<trkpt lat="43.2803670000" lon="-1.0449980000"><ele>248</ele><time>2026-04-07T09:18:14Z</time></trkpt>
<trkpt lat="43.2803970000" lon="-1.0449920000"><ele>248</ele><time>2026-04-07T09:18:16Z</time></trkpt>
<trkpt lat="43.2804200000" lon="-1.0449820000"><ele>248</ele><time>2026-04-07T09:18:18Z</time></trkpt>
<trkpt lat="43.2804470000" lon="-1.0449720000"><ele>248</ele><time>2026-04-07T09:18:20Z</time></trkpt>
<trkpt lat="43.2804670000" lon="-1.0449920000"><ele>248</ele><time>2026-04-07T09:18:22Z</time></trkpt>
<trkpt lat="43.2804720000" lon="-1.0449630000"><ele>249</ele><time>2026-04-07T09:18:49Z</time></trkpt>
<trkpt lat="43.2804950000" lon="-1.0449570000"><ele>249</ele><time>2026-04-07T09:18:53Z</time></trkpt>
<trkpt lat="43.2804850000" lon="-1.0449770000"><ele>249</ele><time>2026-04-07T09:19:11Z</time></trkpt>
<trkpt lat="43.2805020000" lon="-1.0449820000"><ele>249</ele><time>2026-04-07T09:19:13Z</time></trkpt>
<trkpt lat="43.2805270000" lon="-1.0449820000"><ele>249</ele><time>2026-04-07T09:19:15Z</time></trkpt>
<trkpt lat="43.2805520000" lon="-1.0449870000"><ele>249</ele><time>2026-04-07T09:19:17Z</time></trkpt>
<trkpt lat="43.2805680000" lon="-1.0449930000"><ele>249</ele><time>2026-04-07T09:19:18Z</time></trkpt>
<trkpt lat="43.2805970000" lon="-1.0450020000"><ele>249</ele><time>2026-04-07T09:19:20Z</time></trkpt>
<trkpt lat="43.2806270000" lon="-1.0450170000"><ele>249</ele><time>2026-04-07T09:19:22Z</time></trkpt>
<trkpt lat="43.2806520000" lon="-1.0450320000"><ele>250</ele><time>2026-04-07T09:19:24Z</time></trkpt>
<trkpt lat="43.2806720000" lon="-1.0450420000"><ele>250</ele><time>2026-04-07T09:19:26Z</time></trkpt>
<trkpt lat="43.2806920000" lon="-1.0450570000"><ele>250</ele><time>2026-04-07T09:19:28Z</time></trkpt>
<trkpt lat="43.2807200000" lon="-1.0450520000"><ele>250</ele><time>2026-04-07T09:19:31Z</time></trkpt>
<trkpt lat="43.2807500000" lon="-1.0450420000"><ele>250</ele><time>2026-04-07T09:19:34Z</time></trkpt>
<trkpt lat="43.2807750000" lon="-1.0450350000"><ele>251</ele><time>2026-04-07T09:19:37Z</time></trkpt>
<trkpt lat="43.2808000000" lon="-1.0450270000"><ele>251</ele><time>2026-04-07T09:19:40Z</time></trkpt>
<trkpt lat="43.2808200000" lon="-1.0450320000"><ele>252</ele><time>2026-04-07T09:19:44Z</time></trkpt>
<trkpt lat="43.2808370000" lon="-1.0450270000"><ele>252</ele><time>2026-04-07T09:19:47Z</time></trkpt>
<trkpt lat="43.2808600000" lon="-1.0450200000"><ele>253</ele><time>2026-04-07T09:19:50Z</time></trkpt>
<trkpt lat="43.2808800000" lon="-1.0450220000"><ele>253</ele><time>2026-04-07T09:19:52Z</time></trkpt>
<trkpt lat="43.2809020000" lon="-1.0450200000"><ele>253</ele><time>2026-04-07T09:19:55Z</time></trkpt>
<trkpt lat="43.2809250000" lon="-1.0450250000"><ele>253</ele><time>2026-04-07T09:19:58Z</time></trkpt>
<trkpt lat="43.2809450000" lon="-1.0450200000"><ele>254</ele><time>2026-04-07T09:20:01Z</time></trkpt>
<trkpt lat="43.2809670000" lon="-1.0450120000"><ele>254</ele><time>2026-04-07T09:20:04Z</time></trkpt>
<trkpt lat="43.2809920000" lon="-1.0450070000"><ele>254</ele><time>2026-04-07T09:20:07Z</time></trkpt>
<trkpt lat="43.2810120000" lon="-1.0450150000"><ele>255</ele><time>2026-04-07T09:20:10Z</time></trkpt>
<trkpt lat="43.2810350000" lon="-1.0450170000"><ele>255</ele><time>2026-04-07T09:20:13Z</time></trkpt>
<trkpt lat="43.2810520000" lon="-1.0449870000"><ele>255</ele><time>2026-04-07T09:20:16Z</time></trkpt>
<trkpt lat="43.2810670000" lon="-1.0449670000"><ele>256</ele><time>2026-04-07T09:20:20Z</time></trkpt>
<trkpt lat="43.2810850000" lon="-1.0449550000"><ele>257</ele><time>2026-04-07T09:20:23Z</time></trkpt>
<trkpt lat="43.2811020000" lon="-1.0449370000"><ele>257</ele><time>2026-04-07T09:20:26Z</time></trkpt>
<trkpt lat="43.2811170000" lon="-1.0449200000"><ele>257</ele><time>2026-04-07T09:20:28Z</time></trkpt>
<trkpt lat="43.2811370000" lon="-1.0449020000"><ele>257</ele><time>2026-04-07T09:20:30Z</time></trkpt>
<trkpt lat="43.2811570000" lon="-1.0448920000"><ele>258</ele><time>2026-04-07T09:20:32Z</time></trkpt>
<trkpt lat="43.2811770000" lon="-1.0448720000"><ele>258</ele><time>2026-04-07T09:20:34Z</time></trkpt>
<trkpt lat="43.2811970000" lon="-1.0448450000"><ele>258</ele><time>2026-04-07T09:20:37Z</time></trkpt>
<trkpt lat="43.2812150000" lon="-1.0448200000"><ele>259</ele><time>2026-04-07T09:20:40Z</time></trkpt>
<trkpt lat="43.2812320000" lon="-1.0447950000"><ele>259</ele><time>2026-04-07T09:20:43Z</time></trkpt>
<trkpt lat="43.2812470000" lon="-1.0447800000"><ele>259</ele><time>2026-04-07T09:20:47Z</time></trkpt>
<trkpt lat="43.2812600000" lon="-1.0447600000"><ele>260</ele><time>2026-04-07T09:20:50Z</time></trkpt>
<trkpt lat="43.2812770000" lon="-1.0447420000"><ele>260</ele><time>2026-04-07T09:20:53Z</time></trkpt>
<trkpt lat="43.2812920000" lon="-1.0447200000"><ele>260</ele><time>2026-04-07T09:20:56Z</time></trkpt>
<trkpt lat="43.2813150000" lon="-1.0447100000"><ele>261</ele><time>2026-04-07T09:21:01Z</time></trkpt>
<trkpt lat="43.2813370000" lon="-1.0446870000"><ele>261</ele><time>2026-04-07T09:21:24Z</time></trkpt>
<trkpt lat="43.2813600000" lon="-1.0446670000"><ele>262</ele><time>2026-04-07T09:21:26Z</time></trkpt>
<trkpt lat="43.2813800000" lon="-1.0446470000"><ele>262</ele><time>2026-04-07T09:21:28Z</time></trkpt>
<trkpt lat="43.2813970000" lon="-1.0446270000"><ele>262</ele><time>2026-04-07T09:21:31Z</time></trkpt>
<trkpt lat="43.2814070000" lon="-1.0446070000"><ele>262</ele><time>2026-04-07T09:21:34Z</time></trkpt>
<trkpt lat="43.2814200000" lon="-1.0445820000"><ele>263</ele><time>2026-04-07T09:21:38Z</time></trkpt>
<trkpt lat="43.2814370000" lon="-1.0445620000"><ele>263</ele><time>2026-04-07T09:21:41Z</time></trkpt>
<trkpt lat="43.2814550000" lon="-1.0445500000"><ele>263</ele><time>2026-04-07T09:21:43Z</time></trkpt>
<trkpt lat="43.2814750000" lon="-1.0445350000"><ele>263</ele><time>2026-04-07T09:21:45Z</time></trkpt>
<trkpt lat="43.2814920000" lon="-1.0445220000"><ele>263</ele><time>2026-04-07T09:21:47Z</time></trkpt>
<trkpt lat="43.2815100000" lon="-1.0445020000"><ele>263</ele><time>2026-04-07T09:21:49Z</time></trkpt>
<trkpt lat="43.2815270000" lon="-1.0444800000"><ele>263</ele><time>2026-04-07T09:21:52Z</time></trkpt>
<trkpt lat="43.2815420000" lon="-1.0444470000"><ele>264</ele><time>2026-04-07T09:21:55Z</time></trkpt>
<trkpt lat="43.2815520000" lon="-1.0444270000"><ele>264</ele><time>2026-04-07T09:21:57Z</time></trkpt>
<trkpt lat="43.2815670000" lon="-1.0444000000"><ele>264</ele><time>2026-04-07T09:22:00Z</time></trkpt>
<trkpt lat="43.2815800000" lon="-1.0443750000"><ele>264</ele><time>2026-04-07T09:22:03Z</time></trkpt>
<trkpt lat="43.2815950000" lon="-1.0443550000"><ele>264</ele><time>2026-04-07T09:22:06Z</time></trkpt>
<trkpt lat="43.2816070000" lon="-1.0443320000"><ele>264</ele><time>2026-04-07T09:22:08Z</time></trkpt>
<trkpt lat="43.2816230000" lon="-1.0443050000"><ele>265</ele><time>2026-04-07T09:22:11Z</time></trkpt>
<trkpt lat="43.2816400000" lon="-1.0442880000"><ele>265</ele><time>2026-04-07T09:22:13Z</time></trkpt>
<trkpt lat="43.2816570000" lon="-1.0442750000"><ele>265</ele><time>2026-04-07T09:22:15Z</time></trkpt>
<trkpt lat="43.2816750000" lon="-1.0442520000"><ele>265</ele><time>2026-04-07T09:22:17Z</time></trkpt>
<trkpt lat="43.2816850000" lon="-1.0442300000"><ele>265</ele><time>2026-04-07T09:22:19Z</time></trkpt>
<trkpt lat="43.2816950000" lon="-1.0442020000"><ele>265</ele><time>2026-04-07T09:22:22Z</time></trkpt>
<trkpt lat="43.2817120000" lon="-1.0441820000"><ele>266</ele><time>2026-04-07T09:22:25Z</time></trkpt>
<trkpt lat="43.2817320000" lon="-1.0441620000"><ele>266</ele><time>2026-04-07T09:22:28Z</time></trkpt>
<trkpt lat="43.2817500000" lon="-1.0441570000"><ele>266</ele><time>2026-04-07T09:22:30Z</time></trkpt>
<trkpt lat="43.2817670000" lon="-1.0441600000"><ele>266</ele><time>2026-04-07T09:22:34Z</time></trkpt>
<trkpt lat="43.2817820000" lon="-1.0441420000"><ele>267</ele><time>2026-04-07T09:23:05Z</time></trkpt>
<trkpt lat="43.2818050000" lon="-1.0441250000"><ele>267</ele><time>2026-04-07T09:23:07Z</time></trkpt>
<trkpt lat="43.2818320000" lon="-1.0441170000"><ele>267</ele><time>2026-04-07T09:23:09Z</time></trkpt>
<trkpt lat="43.2818550000" lon="-1.0440970000"><ele>267</ele><time>2026-04-07T09:23:11Z</time></trkpt>
<trkpt lat="43.2818720000" lon="-1.0440770000"><ele>268</ele><time>2026-04-07T09:23:13Z</time></trkpt>
<trkpt lat="43.2818920000" lon="-1.0440580000"><ele>268</ele><time>2026-04-07T09:23:15Z</time></trkpt>
<trkpt lat="43.2819100000" lon="-1.0440470000"><ele>268</ele><time>2026-04-07T09:23:17Z</time></trkpt>
<trkpt lat="43.2819270000" lon="-1.0440300000"><ele>269</ele><time>2026-04-07T09:23:20Z</time></trkpt>
<trkpt lat="43.2819420000" lon="-1.0440070000"><ele>269</ele><time>2026-04-07T09:23:51Z</time></trkpt>
<trkpt lat="43.2819670000" lon="-1.0439970000"><ele>269</ele><time>2026-04-07T09:23:54Z</time></trkpt>
<trkpt lat="43.2819900000" lon="-1.0439900000"><ele>270</ele><time>2026-04-07T09:23:56Z</time></trkpt>
<trkpt lat="43.2820020000" lon="-1.0439720000"><ele>270</ele><time>2026-04-07T09:23:58Z</time></trkpt>
<trkpt lat="43.2820170000" lon="-1.0439570000"><ele>270</ele><time>2026-04-07T09:24:00Z</time></trkpt>
<trkpt lat="43.2820300000" lon="-1.0439400000"><ele>270</ele><time>2026-04-07T09:24:02Z</time></trkpt>
<trkpt lat="43.2820520000" lon="-1.0439270000"><ele>271</ele><time>2026-04-07T09:24:05Z</time></trkpt>
<trkpt lat="43.2820720000" lon="-1.0439100000"><ele>271</ele><time>2026-04-07T09:24:08Z</time></trkpt>
<trkpt lat="43.2820920000" lon="-1.0438950000"><ele>271</ele><time>2026-04-07T09:24:10Z</time></trkpt>
<trkpt lat="43.2821120000" lon="-1.0438720000"><ele>271</ele><time>2026-04-07T09:24:13Z</time></trkpt>
<trkpt lat="43.2821300000" lon="-1.0438500000"><ele>272</ele><time>2026-04-07T09:24:16Z</time></trkpt>
<trkpt lat="43.2821450000" lon="-1.0438350000"><ele>272</ele><time>2026-04-07T09:24:18Z</time></trkpt>
<trkpt lat="43.2821670000" lon="-1.0438150000"><ele>272</ele><time>2026-04-07T09:24:21Z</time></trkpt>
<trkpt lat="43.2821770000" lon="-1.0437950000"><ele>273</ele><time>2026-04-07T09:24:32Z</time></trkpt>
<trkpt lat="43.2822050000" lon="-1.0437770000"><ele>273</ele><time>2026-04-07T09:24:35Z</time></trkpt>
<trkpt lat="43.2822270000" lon="-1.0437620000"><ele>273</ele><time>2026-04-07T09:24:37Z</time></trkpt>
<trkpt lat="43.2822420000" lon="-1.0437470000"><ele>273</ele><time>2026-04-07T09:24:39Z</time></trkpt>
<trkpt lat="43.2822600000" lon="-1.0437370000"><ele>273</ele><time>2026-04-07T09:24:41Z</time></trkpt>
<trkpt lat="43.2822850000" lon="-1.0437200000"><ele>273</ele><time>2026-04-07T09:24:44Z</time></trkpt>
<trkpt lat="43.2823020000" lon="-1.0437080000"><ele>274</ele><time>2026-04-07T09:24:46Z</time></trkpt>
<trkpt lat="43.2823220000" lon="-1.0437070000"><ele>274</ele><time>2026-04-07T09:24:48Z</time></trkpt>
<trkpt lat="43.2823400000" lon="-1.0436970000"><ele>274</ele><time>2026-04-07T09:24:50Z</time></trkpt>
<trkpt lat="43.2823550000" lon="-1.0436800000"><ele>274</ele><time>2026-04-07T09:24:52Z</time></trkpt>
<trkpt lat="43.2823720000" lon="-1.0436570000"><ele>274</ele><time>2026-04-07T09:24:55Z</time></trkpt>
<trkpt lat="43.2823820000" lon="-1.0436220000"><ele>275</ele><time>2026-04-07T09:24:58Z</time></trkpt>
<trkpt lat="43.2823970000" lon="-1.0436030000"><ele>275</ele><time>2026-04-07T09:25:00Z</time></trkpt>
<trkpt lat="43.2824150000" lon="-1.0435900000"><ele>275</ele><time>2026-04-07T09:25:02Z</time></trkpt>
<trkpt lat="43.2824420000" lon="-1.0435720000"><ele>275</ele><time>2026-04-07T09:25:05Z</time></trkpt>
<trkpt lat="43.2824650000" lon="-1.0435720000"><ele>275</ele><time>2026-04-07T09:25:07Z</time></trkpt>
<trkpt lat="43.2824870000" lon="-1.0435580000"><ele>276</ele><time>2026-04-07T09:25:10Z</time></trkpt>
<trkpt lat="43.2825070000" lon="-1.0435470000"><ele>276</ele><time>2026-04-07T09:25:12Z</time></trkpt>
<trkpt lat="43.2825270000" lon="-1.0435370000"><ele>276</ele><time>2026-04-07T09:25:14Z</time></trkpt>
<trkpt lat="43.2825450000" lon="-1.0435320000"><ele>276</ele><time>2026-04-07T09:25:16Z</time></trkpt>
<trkpt lat="43.2825670000" lon="-1.0435180000"><ele>276</ele><time>2026-04-07T09:25:19Z</time></trkpt>
<trkpt lat="43.2825850000" lon="-1.0435100000"><ele>277</ele><time>2026-04-07T09:25:21Z</time></trkpt>
<trkpt lat="43.2826070000" lon="-1.0435000000"><ele>277</ele><time>2026-04-07T09:25:24Z</time></trkpt>
<trkpt lat="43.2826270000" lon="-1.0434950000"><ele>277</ele><time>2026-04-07T09:25:26Z</time></trkpt>
<trkpt lat="43.2826500000" lon="-1.0434780000"><ele>277</ele><time>2026-04-07T09:25:29Z</time></trkpt>
<trkpt lat="43.2826670000" lon="-1.0434670000"><ele>278</ele><time>2026-04-07T09:25:31Z</time></trkpt>
<trkpt lat="43.2826920000" lon="-1.0434570000"><ele>278</ele><time>2026-04-07T09:25:34Z</time></trkpt>
<trkpt lat="43.2827200000" lon="-1.0434420000"><ele>278</ele><time>2026-04-07T09:25:37Z</time></trkpt>
<trkpt lat="43.2827420000" lon="-1.0434370000"><ele>278</ele><time>2026-04-07T09:25:39Z</time></trkpt>
<trkpt lat="43.2827620000" lon="-1.0434230000"><ele>279</ele><time>2026-04-07T09:25:41Z</time></trkpt>
<trkpt lat="43.2827800000" lon="-1.0434150000"><ele>279</ele><time>2026-04-07T09:25:43Z</time></trkpt>
<trkpt lat="43.2827970000" lon="-1.0434020000"><ele>279</ele><time>2026-04-07T09:25:45Z</time></trkpt>
<trkpt lat="43.2828100000" lon="-1.0433830000"><ele>279</ele><time>2026-04-07T09:25:47Z</time></trkpt>
<trkpt lat="43.2828300000" lon="-1.0433650000"><ele>279</ele><time>2026-04-07T09:25:50Z</time></trkpt>
<trkpt lat="43.2828520000" lon="-1.0433470000"><ele>279</ele><time>2026-04-07T09:25:53Z</time></trkpt>
<trkpt lat="43.2828700000" lon="-1.0433300000"><ele>280</ele><time>2026-04-07T09:25:56Z</time></trkpt>
<trkpt lat="43.2828920000" lon="-1.0433270000"><ele>280</ele><time>2026-04-07T09:25:59Z</time></trkpt>
<trkpt lat="43.2829100000" lon="-1.0433200000"><ele>280</ele><time>2026-04-07T09:26:02Z</time></trkpt>
<trkpt lat="43.2829270000" lon="-1.0433150000"><ele>281</ele><time>2026-04-07T09:26:05Z</time></trkpt>
<trkpt lat="43.2829470000" lon="-1.0432970000"><ele>281</ele><time>2026-04-07T09:26:08Z</time></trkpt>
<trkpt lat="43.2829650000" lon="-1.0432880000"><ele>281</ele><time>2026-04-07T09:26:10Z</time></trkpt>
<trkpt lat="43.2829880000" lon="-1.0432850000"><ele>282</ele><time>2026-04-07T09:26:13Z</time></trkpt>
<trkpt lat="43.2830120000" lon="-1.0432770000"><ele>282</ele><time>2026-04-07T09:26:16Z</time></trkpt>
<trkpt lat="43.2830320000" lon="-1.0432670000"><ele>282</ele><time>2026-04-07T09:26:19Z</time></trkpt>
<trkpt lat="43.2830570000" lon="-1.0432570000"><ele>282</ele><time>2026-04-07T09:26:22Z</time></trkpt>
<trkpt lat="43.2830820000" lon="-1.0432550000"><ele>283</ele><time>2026-04-07T09:26:25Z</time></trkpt>
<trkpt lat="43.2831070000" lon="-1.0432470000"><ele>283</ele><time>2026-04-07T09:26:28Z</time></trkpt>
<trkpt lat="43.2831270000" lon="-1.0432370000"><ele>283</ele><time>2026-04-07T09:26:30Z</time></trkpt>
<trkpt lat="43.2831520000" lon="-1.0432270000"><ele>283</ele><time>2026-04-07T09:26:33Z</time></trkpt>
<trkpt lat="43.2831720000" lon="-1.0432220000"><ele>284</ele><time>2026-04-07T09:26:35Z</time></trkpt>
<trkpt lat="43.2831970000" lon="-1.0432170000"><ele>284</ele><time>2026-04-07T09:26:38Z</time></trkpt>
<trkpt lat="43.2832170000" lon="-1.0432020000"><ele>284</ele><time>2026-04-07T09:26:41Z</time></trkpt>
<trkpt lat="43.2832350000" lon="-1.0431870000"><ele>285</ele><time>2026-04-07T09:26:43Z</time></trkpt>
<trkpt lat="43.2832550000" lon="-1.0431670000"><ele>285</ele><time>2026-04-07T09:26:46Z</time></trkpt>
<trkpt lat="43.2832750000" lon="-1.0431620000"><ele>285</ele><time>2026-04-07T09:26:48Z</time></trkpt>
<trkpt lat="43.2833050000" lon="-1.0431570000"><ele>285</ele><time>2026-04-07T09:26:50Z</time></trkpt>
<trkpt lat="43.2833320000" lon="-1.0431520000"><ele>285</ele><time>2026-04-07T09:26:52Z</time></trkpt>
<trkpt lat="43.2833500000" lon="-1.0431470000"><ele>285</ele><time>2026-04-07T09:26:54Z</time></trkpt>
<trkpt lat="43.2833720000" lon="-1.0431320000"><ele>285</ele><time>2026-04-07T09:26:57Z</time></trkpt>
<trkpt lat="43.2833970000" lon="-1.0431270000"><ele>285</ele><time>2026-04-07T09:27:00Z</time></trkpt>
<trkpt lat="43.2834150000" lon="-1.0431170000"><ele>285</ele><time>2026-04-07T09:27:02Z</time></trkpt>
<trkpt lat="43.2834320000" lon="-1.0431120000"><ele>285</ele><time>2026-04-07T09:27:04Z</time></trkpt>
<trkpt lat="43.2834520000" lon="-1.0431050000"><ele>285</ele><time>2026-04-07T09:27:06Z</time></trkpt>
<trkpt lat="43.2834720000" lon="-1.0430970000"><ele>286</ele><time>2026-04-07T09:27:08Z</time></trkpt>
<trkpt lat="43.2834950000" lon="-1.0430870000"><ele>285</ele><time>2026-04-07T09:27:10Z</time></trkpt>
<trkpt lat="43.2835200000" lon="-1.0430920000"><ele>286</ele><time>2026-04-07T09:27:13Z</time></trkpt>
<trkpt lat="43.2835420000" lon="-1.0430920000"><ele>286</ele><time>2026-04-07T09:27:15Z</time></trkpt>
<trkpt lat="43.2835670000" lon="-1.0430870000"><ele>286</ele><time>2026-04-07T09:27:18Z</time></trkpt>
<trkpt lat="43.2835870000" lon="-1.0430770000"><ele>286</ele><time>2026-04-07T09:27:20Z</time></trkpt>
<trkpt lat="43.2836100000" lon="-1.0430670000"><ele>286</ele><time>2026-04-07T09:27:22Z</time></trkpt>
<trkpt lat="43.2836320000" lon="-1.0430620000"><ele>286</ele><time>2026-04-07T09:27:24Z</time></trkpt>
<trkpt lat="43.2836520000" lon="-1.0430600000"><ele>286</ele><time>2026-04-07T09:27:26Z</time></trkpt>
<trkpt lat="43.2836750000" lon="-1.0430550000"><ele>286</ele><time>2026-04-07T09:27:28Z</time></trkpt>
<trkpt lat="43.2836920000" lon="-1.0430470000"><ele>286</ele><time>2026-04-07T09:27:30Z</time></trkpt>
<trkpt lat="43.2837150000" lon="-1.0430450000"><ele>286</ele><time>2026-04-07T09:27:32Z</time></trkpt>
<trkpt lat="43.2837320000" lon="-1.0430420000"><ele>286</ele><time>2026-04-07T09:27:34Z</time></trkpt>
<trkpt lat="43.2837520000" lon="-1.0430420000"><ele>286</ele><time>2026-04-07T09:27:36Z</time></trkpt>
<trkpt lat="43.2837720000" lon="-1.0430400000"><ele>286</ele><time>2026-04-07T09:27:38Z</time></trkpt>
<trkpt lat="43.2837900000" lon="-1.0430330000"><ele>287</ele><time>2026-04-07T09:27:40Z</time></trkpt>
<trkpt lat="43.2838070000" lon="-1.0430320000"><ele>287</ele><time>2026-04-07T09:27:42Z</time></trkpt>
<trkpt lat="43.2838320000" lon="-1.0430330000"><ele>287</ele><time>2026-04-07T09:27:44Z</time></trkpt>
<trkpt lat="43.2838520000" lon="-1.0430400000"><ele>287</ele><time>2026-04-07T09:27:46Z</time></trkpt>
<trkpt lat="43.2838700000" lon="-1.0430450000"><ele>287</ele><time>2026-04-07T09:27:48Z</time></trkpt>
<trkpt lat="43.2838800000" lon="-1.0430220000"><ele>287</ele><time>2026-04-07T09:27:52Z</time></trkpt>
<trkpt lat="43.2839030000" lon="-1.0430420000"><ele>287</ele><time>2026-04-07T09:29:09Z</time></trkpt>
<trkpt lat="43.2839270000" lon="-1.0430620000"><ele>287</ele><time>2026-04-07T09:29:11Z</time></trkpt>
<trkpt lat="43.2839520000" lon="-1.0430680000"><ele>287</ele><time>2026-04-07T09:29:13Z</time></trkpt>
<trkpt lat="43.2839770000" lon="-1.0430770000"><ele>287</ele><time>2026-04-07T09:29:16Z</time></trkpt>
<trkpt lat="43.2840000000" lon="-1.0430820000"><ele>288</ele><time>2026-04-07T09:29:19Z</time></trkpt>
<trkpt lat="43.2840220000" lon="-1.0430870000"><ele>288</ele><time>2026-04-07T09:29:22Z</time></trkpt>
<trkpt lat="43.2840500000" lon="-1.0430970000"><ele>288</ele><time>2026-04-07T09:29:25Z</time></trkpt>
<trkpt lat="43.2840670000" lon="-1.0430900000"><ele>289</ele><time>2026-04-07T09:38:47Z</time></trkpt>
<trkpt lat="43.2840870000" lon="-1.0430770000"><ele>289</ele><time>2026-04-07T09:38:50Z</time></trkpt>
<trkpt lat="43.2840700000" lon="-1.0431120000"><ele>289</ele><time>2026-04-07T09:39:39Z</time></trkpt>
<trkpt lat="43.2840500000" lon="-1.0431370000"><ele>289</ele><time>2026-04-07T09:39:41Z</time></trkpt>
<trkpt lat="43.2840320000" lon="-1.0431550000"><ele>289</ele><time>2026-04-07T09:39:43Z</time></trkpt>
<trkpt lat="43.2840170000" lon="-1.0431720000"><ele>289</ele><time>2026-04-07T09:39:46Z</time></trkpt>
<trkpt lat="43.2840320000" lon="-1.0431570000"><ele>290</ele><time>2026-04-07T09:40:52Z</time></trkpt>
<trkpt lat="43.2840500000" lon="-1.0431470000"><ele>291</ele><time>2026-04-07T09:41:57Z</time></trkpt>
<trkpt lat="43.2840520000" lon="-1.0431220000"><ele>291</ele><time>2026-04-07T09:41:59Z</time></trkpt>
<trkpt lat="43.2840670000" lon="-1.0431000000"><ele>292</ele><time>2026-04-07T09:43:15Z</time></trkpt>
<trkpt lat="43.2840470000" lon="-1.0430950000"><ele>292</ele><time>2026-04-07T09:43:30Z</time></trkpt>
<trkpt lat="43.2840470000" lon="-1.0431270000"><ele>292</ele><time>2026-04-07T09:46:00Z</time></trkpt>
<trkpt lat="43.2840470000" lon="-1.0430900000"><ele>291</ele><time>2026-04-07T09:47:04Z</time></trkpt>
<trkpt lat="43.2840520000" lon="-1.0430600000"><ele>291</ele><time>2026-04-07T09:47:07Z</time></trkpt>
<trkpt lat="43.2840520000" lon="-1.0430870000"><ele>291</ele><time>2026-04-07T09:47:13Z</time></trkpt>
<trkpt lat="43.2840320000" lon="-1.0431020000"><ele>291</ele><time>2026-04-07T09:48:39Z</time></trkpt>
<trkpt lat="43.2840550000" lon="-1.0430900000"><ele>291</ele><time>2026-04-07T09:49:41Z</time></trkpt>
<trkpt lat="43.2840670000" lon="-1.0430620000"><ele>291</ele><time>2026-04-07T09:49:44Z</time></trkpt>
<trkpt lat="43.2840520000" lon="-1.0430820000"><ele>291</ele><time>2026-04-07T09:49:51Z</time></trkpt>
<trkpt lat="43.2840500000" lon="-1.0430570000"><ele>291</ele><time>2026-04-07T09:50:57Z</time></trkpt>
<trkpt lat="43.2840470000" lon="-1.0430870000"><ele>291</ele><time>2026-04-07T09:51:06Z</time></trkpt>
<trkpt lat="43.2840420000" lon="-1.0431120000"><ele>289</ele><time>2026-04-07T09:54:55Z</time></trkpt>
<trkpt lat="43.2840620000" lon="-1.0431020000"><ele>290</ele><time>2026-04-07T09:55:57Z</time></trkpt>
<trkpt lat="43.2840550000" lon="-1.0430770000"><ele>290</ele><time>2026-04-07T09:58:22Z</time></trkpt>
<trkpt lat="43.2840450000" lon="-1.0431020000"><ele>290</ele><time>2026-04-07T09:58:44Z</time></trkpt>
<trkpt lat="43.2840580000" lon="-1.0430720000"><ele>290</ele><time>2026-04-07T09:59:43Z</time></trkpt>
<trkpt lat="43.2840670000" lon="-1.0430500000"><ele>290</ele><time>2026-04-07T09:59:45Z</time></trkpt>
<trkpt lat="43.2840820000" lon="-1.0430330000"><ele>290</ele><time>2026-04-07T10:00:58Z</time></trkpt>
<trkpt lat="43.2840970000" lon="-1.0430520000"><ele>288</ele><time>2026-04-07T10:02:08Z</time></trkpt>
<trkpt lat="43.2841170000" lon="-1.0430500000"><ele>289</ele><time>2026-04-07T10:02:14Z</time></trkpt>
<trkpt lat="43.2840950000" lon="-1.0430720000"><ele>288</ele><time>2026-04-07T10:02:22Z</time></trkpt>
<trkpt lat="43.2841170000" lon="-1.0430620000"><ele>288</ele><time>2026-04-07T10:02:47Z</time></trkpt>
<trkpt lat="43.2841320000" lon="-1.0430470000"><ele>288</ele><time>2026-04-07T10:02:51Z</time></trkpt>
<trkpt lat="43.2841170000" lon="-1.0430270000"><ele>288</ele><time>2026-04-07T10:02:58Z</time></trkpt>
<trkpt lat="43.2840920000" lon="-1.0430550000"><ele>287</ele><time>2026-04-07T10:03:46Z</time></trkpt>
<trkpt lat="43.2840720000" lon="-1.0430850000"><ele>287</ele><time>2026-04-07T10:03:48Z</time></trkpt>
<trkpt lat="43.2840570000" lon="-1.0431070000"><ele>287</ele><time>2026-04-07T10:04:57Z</time></trkpt>
<trkpt lat="43.2840420000" lon="-1.0431220000"><ele>287</ele><time>2026-04-07T10:04:59Z</time></trkpt>
<trkpt lat="43.2840470000" lon="-1.0430920000"><ele>287</ele><time>2026-04-07T10:06:03Z</time></trkpt>
<trkpt lat="43.2840420000" lon="-1.0430670000"><ele>287</ele><time>2026-04-07T10:06:09Z</time></trkpt>
<trkpt lat="43.2840370000" lon="-1.0430920000"><ele>287</ele><time>2026-04-07T10:07:11Z</time></trkpt>
<trkpt lat="43.2840520000" lon="-1.0430730000"><ele>287</ele><time>2026-04-07T10:07:15Z</time></trkpt>
<trkpt lat="43.2840470000" lon="-1.0431000000"><ele>286</ele><time>2026-04-07T10:09:37Z</time></trkpt>
<trkpt lat="43.2840220000" lon="-1.0431100000"><ele>286</ele><time>2026-04-07T10:10:35Z</time></trkpt>
<trkpt lat="43.2839970000" lon="-1.0431200000"><ele>286</ele><time>2026-04-07T10:10:37Z</time></trkpt>
<trkpt lat="43.2839820000" lon="-1.0431370000"><ele>286</ele><time>2026-04-07T10:10:39Z</time></trkpt>
<trkpt lat="43.2839820000" lon="-1.0431630000"><ele>286</ele><time>2026-04-07T10:10:41Z</time></trkpt>
<trkpt lat="43.2839970000" lon="-1.0431820000"><ele>286</ele><time>2026-04-07T10:10:43Z</time></trkpt>
<trkpt lat="43.2840020000" lon="-1.0432120000"><ele>286</ele><time>2026-04-07T10:10:46Z</time></trkpt>
<trkpt lat="43.2840070000" lon="-1.0432350000"><ele>287</ele><time>2026-04-07T10:10:51Z</time></trkpt>
<trkpt lat="43.2840050000" lon="-1.0432620000"><ele>287</ele><time>2026-04-07T10:10:54Z</time></trkpt>
<trkpt lat="43.2839970000" lon="-1.0432880000"><ele>287</ele><time>2026-04-07T10:10:57Z</time></trkpt>
<trkpt lat="43.2839900000" lon="-1.0433150000"><ele>287</ele><time>2026-04-07T10:10:59Z</time></trkpt>
<trkpt lat="43.2839920000" lon="-1.0433430000"><ele>287</ele><time>2026-04-07T10:11:02Z</time></trkpt>
<trkpt lat="43.2839920000" lon="-1.0433820000"><ele>288</ele><time>2026-04-07T10:11:06Z</time></trkpt>
<trkpt lat="43.2839920000" lon="-1.0434200000"><ele>288</ele><time>2026-04-07T10:11:08Z</time></trkpt>
<trkpt lat="43.2839900000" lon="-1.0434570000"><ele>288</ele><time>2026-04-07T10:11:10Z</time></trkpt>
<trkpt lat="43.2839820000" lon="-1.0434970000"><ele>288</ele><time>2026-04-07T10:11:12Z</time></trkpt>
<trkpt lat="43.2839820000" lon="-1.0435220000"><ele>288</ele><time>2026-04-07T10:11:14Z</time></trkpt>
<trkpt lat="43.2839900000" lon="-1.0435550000"><ele>288</ele><time>2026-04-07T10:11:17Z</time></trkpt>
<trkpt lat="43.2839920000" lon="-1.0435850000"><ele>288</ele><time>2026-04-07T10:11:20Z</time></trkpt>
<trkpt lat="43.2839970000" lon="-1.0436170000"><ele>288</ele><time>2026-04-07T10:11:23Z</time></trkpt>
<trkpt lat="43.2839970000" lon="-1.0436420000"><ele>289</ele><time>2026-04-07T10:11:35Z</time></trkpt>
<trkpt lat="43.2840120000" lon="-1.0436670000"><ele>289</ele><time>2026-04-07T10:11:38Z</time></trkpt>
<trkpt lat="43.2840270000" lon="-1.0436920000"><ele>289</ele><time>2026-04-07T10:11:40Z</time></trkpt>
<trkpt lat="43.2840470000" lon="-1.0437070000"><ele>289</ele><time>2026-04-07T10:11:43Z</time></trkpt>
<trkpt lat="43.2840320000" lon="-1.0437320000"><ele>289</ele><time>2026-04-07T10:12:16Z</time></trkpt>
<trkpt lat="43.2840150000" lon="-1.0437570000"><ele>289</ele><time>2026-04-07T10:12:18Z</time></trkpt>
<trkpt lat="43.2839970000" lon="-1.0437800000"><ele>289</ele><time>2026-04-07T10:12:20Z</time></trkpt>
<trkpt lat="43.2839770000" lon="-1.0438050000"><ele>289</ele><time>2026-04-07T10:12:22Z</time></trkpt>
<trkpt lat="43.2839570000" lon="-1.0438220000"><ele>290</ele><time>2026-04-07T10:12:24Z</time></trkpt>
<trkpt lat="43.2839450000" lon="-1.0438470000"><ele>290</ele><time>2026-04-07T10:12:26Z</time></trkpt>
<trkpt lat="43.2839320000" lon="-1.0438700000"><ele>290</ele><time>2026-04-07T10:12:28Z</time></trkpt>
<trkpt lat="43.2839200000" lon="-1.0438900000"><ele>290</ele><time>2026-04-07T10:12:30Z</time></trkpt>
<trkpt lat="43.2839070000" lon="-1.0439170000"><ele>290</ele><time>2026-04-07T10:12:47Z</time></trkpt>
<trkpt lat="43.2838900000" lon="-1.0439470000"><ele>290</ele><time>2026-04-07T10:12:49Z</time></trkpt>
<trkpt lat="43.2838720000" lon="-1.0439820000"><ele>291</ele><time>2026-04-07T10:12:51Z</time></trkpt>
<trkpt lat="43.2838600000" lon="-1.0440130000"><ele>290</ele><time>2026-04-07T10:12:53Z</time></trkpt>
<trkpt lat="43.2838470000" lon="-1.0440370000"><ele>290</ele><time>2026-04-07T10:12:55Z</time></trkpt>
<trkpt lat="43.2838350000" lon="-1.0440620000"><ele>291</ele><time>2026-04-07T10:12:57Z</time></trkpt>
<trkpt lat="43.2838220000" lon="-1.0440920000"><ele>291</ele><time>2026-04-07T10:12:59Z</time></trkpt>
<trkpt lat="43.2838100000" lon="-1.0441170000"><ele>291</ele><time>2026-04-07T10:13:01Z</time></trkpt>
<trkpt lat="43.2837970000" lon="-1.0441420000"><ele>291</ele><time>2026-04-07T10:13:03Z</time></trkpt>
<trkpt lat="43.2837870000" lon="-1.0441670000"><ele>291</ele><time>2026-04-07T10:13:05Z</time></trkpt>
<trkpt lat="43.2837770000" lon="-1.0441880000"><ele>291</ele><time>2026-04-07T10:13:07Z</time></trkpt>
<trkpt lat="43.2837650000" lon="-1.0442200000"><ele>291</ele><time>2026-04-07T10:13:09Z</time></trkpt>
<trkpt lat="43.2837520000" lon="-1.0442470000"><ele>291</ele><time>2026-04-07T10:13:11Z</time></trkpt>
<trkpt lat="43.2837420000" lon="-1.0442720000"><ele>291</ele><time>2026-04-07T10:13:13Z</time></trkpt>
<trkpt lat="43.2837320000" lon="-1.0443020000"><ele>291</ele><time>2026-04-07T10:13:15Z</time></trkpt>
<trkpt lat="43.2837220000" lon="-1.0443230000"><ele>291</ele><time>2026-04-07T10:13:17Z</time></trkpt>
<trkpt lat="43.2837120000" lon="-1.0443500000"><ele>292</ele><time>2026-04-07T10:13:19Z</time></trkpt>
<trkpt lat="43.2837000000" lon="-1.0443750000"><ele>292</ele><time>2026-04-07T10:13:21Z</time></trkpt>
<trkpt lat="43.2836870000" lon="-1.0444000000"><ele>292</ele><time>2026-04-07T10:13:23Z</time></trkpt>
<trkpt lat="43.2836720000" lon="-1.0444220000"><ele>292</ele><time>2026-04-07T10:13:25Z</time></trkpt>
<trkpt lat="43.2836600000" lon="-1.0444520000"><ele>292</ele><time>2026-04-07T10:13:28Z</time></trkpt>
<trkpt lat="43.2836470000" lon="-1.0444820000"><ele>292</ele><time>2026-04-07T10:13:31Z</time></trkpt>
<trkpt lat="43.2836370000" lon="-1.0445070000"><ele>293</ele><time>2026-04-07T10:13:33Z</time></trkpt>
<trkpt lat="43.2836270000" lon="-1.0445300000"><ele>293</ele><time>2026-04-07T10:13:35Z</time></trkpt>
<trkpt lat="43.2836120000" lon="-1.0445570000"><ele>293</ele><time>2026-04-07T10:13:37Z</time></trkpt>
<trkpt lat="43.2836020000" lon="-1.0445900000"><ele>293</ele><time>2026-04-07T10:13:45Z</time></trkpt>
<trkpt lat="43.2835970000" lon="-1.0446170000"><ele>293</ele><time>2026-04-07T10:13:47Z</time></trkpt>
<trkpt lat="43.2835870000" lon="-1.0446500000"><ele>294</ele><time>2026-04-07T10:13:49Z</time></trkpt>
<trkpt lat="43.2835820000" lon="-1.0446820000"><ele>294</ele><time>2026-04-07T10:13:51Z</time></trkpt>
<trkpt lat="43.2835770000" lon="-1.0447100000"><ele>294</ele><time>2026-04-07T10:13:53Z</time></trkpt>
<trkpt lat="43.2835670000" lon="-1.0447370000"><ele>294</ele><time>2026-04-07T10:13:55Z</time></trkpt>
<trkpt lat="43.2835600000" lon="-1.0447650000"><ele>294</ele><time>2026-04-07T10:13:57Z</time></trkpt>
<trkpt lat="43.2835470000" lon="-1.0447920000"><ele>295</ele><time>2026-04-07T10:13:59Z</time></trkpt>
<trkpt lat="43.2835370000" lon="-1.0448170000"><ele>295</ele><time>2026-04-07T10:14:01Z</time></trkpt>
<trkpt lat="43.2835270000" lon="-1.0448520000"><ele>295</ele><time>2026-04-07T10:14:04Z</time></trkpt>
<trkpt lat="43.2835200000" lon="-1.0448800000"><ele>295</ele><time>2026-04-07T10:14:06Z</time></trkpt>
<trkpt lat="43.2835120000" lon="-1.0449120000"><ele>295</ele><time>2026-04-07T10:14:09Z</time></trkpt>
<trkpt lat="43.2835020000" lon="-1.0449370000"><ele>296</ele><time>2026-04-07T10:14:11Z</time></trkpt>
<trkpt lat="43.2834970000" lon="-1.0449620000"><ele>296</ele><time>2026-04-07T10:14:13Z</time></trkpt>
<trkpt lat="43.2834900000" lon="-1.0449850000"><ele>296</ele><time>2026-04-07T10:14:15Z</time></trkpt>
<trkpt lat="43.2834820000" lon="-1.0450100000"><ele>296</ele><time>2026-04-07T10:14:17Z</time></trkpt>
<trkpt lat="43.2834770000" lon="-1.0450370000"><ele>296</ele><time>2026-04-07T10:14:19Z</time></trkpt>
<trkpt lat="43.2834650000" lon="-1.0450670000"><ele>296</ele><time>2026-04-07T10:14:22Z</time></trkpt>
<trkpt lat="43.2834570000" lon="-1.0450920000"><ele>297</ele><time>2026-04-07T10:14:24Z</time></trkpt>
<trkpt lat="43.2834520000" lon="-1.0451170000"><ele>297</ele><time>2026-04-07T10:14:26Z</time></trkpt>
<trkpt lat="43.2834450000" lon="-1.0451420000"><ele>297</ele><time>2026-04-07T10:14:28Z</time></trkpt>
<trkpt lat="43.2834400000" lon="-1.0451670000"><ele>297</ele><time>2026-04-07T10:14:30Z</time></trkpt>
<trkpt lat="43.2834400000" lon="-1.0451950000"><ele>297</ele><time>2026-04-07T10:14:32Z</time></trkpt>
<trkpt lat="43.2834420000" lon="-1.0452220000"><ele>298</ele><time>2026-04-07T10:14:34Z</time></trkpt>
<trkpt lat="43.2834420000" lon="-1.0452470000"><ele>298</ele><time>2026-04-07T10:14:36Z</time></trkpt>
<trkpt lat="43.2834400000" lon="-1.0452720000"><ele>298</ele><time>2026-04-07T10:14:38Z</time></trkpt>
<trkpt lat="43.2834320000" lon="-1.0453020000"><ele>298</ele><time>2026-04-07T10:14:40Z</time></trkpt>
<trkpt lat="43.2834270000" lon="-1.0453320000"><ele>298</ele><time>2026-04-07T10:14:42Z</time></trkpt>
<trkpt lat="43.2834250000" lon="-1.0453570000"><ele>298</ele><time>2026-04-07T10:14:44Z</time></trkpt>
<trkpt lat="43.2834170000" lon="-1.0453850000"><ele>298</ele><time>2026-04-07T10:14:46Z</time></trkpt>
<trkpt lat="43.2834150000" lon="-1.0454120000"><ele>299</ele><time>2026-04-07T10:14:48Z</time></trkpt>
<trkpt lat="43.2834120000" lon="-1.0454400000"><ele>299</ele><time>2026-04-07T10:14:50Z</time></trkpt>
<trkpt lat="43.2834200000" lon="-1.0454750000"><ele>299</ele><time>2026-04-07T10:14:53Z</time></trkpt>
<trkpt lat="43.2834170000" lon="-1.0455000000"><ele>299</ele><time>2026-04-07T10:14:55Z</time></trkpt>
<trkpt lat="43.2834150000" lon="-1.0455270000"><ele>299</ele><time>2026-04-07T10:14:57Z</time></trkpt>
<trkpt lat="43.2834000000" lon="-1.0455570000"><ele>299</ele><time>2026-04-07T10:14:59Z</time></trkpt>
<trkpt lat="43.2833820000" lon="-1.0455920000"><ele>299</ele><time>2026-04-07T10:15:01Z</time></trkpt>
<trkpt lat="43.2833670000" lon="-1.0456230000"><ele>299</ele><time>2026-04-07T10:15:03Z</time></trkpt>
<trkpt lat="43.2833550000" lon="-1.0456570000"><ele>299</ele><time>2026-04-07T10:15:05Z</time></trkpt>
<trkpt lat="43.2833420000" lon="-1.0456920000"><ele>300</ele><time>2026-04-07T10:15:55Z</time></trkpt>
<trkpt lat="43.2833320000" lon="-1.0457180000"><ele>300</ele><time>2026-04-07T10:15:56Z</time></trkpt>
<trkpt lat="43.2833220000" lon="-1.0457520000"><ele>300</ele><time>2026-04-07T10:15:57Z</time></trkpt>
<trkpt lat="43.2833120000" lon="-1.0457820000"><ele>300</ele><time>2026-04-07T10:15:58Z</time></trkpt>
<trkpt lat="43.2833050000" lon="-1.0458080000"><ele>300</ele><time>2026-04-07T10:15:59Z</time></trkpt>
<trkpt lat="43.2833020000" lon="-1.0458520000"><ele>300</ele><time>2026-04-07T10:16:01Z</time></trkpt>
<trkpt lat="43.2833070000" lon="-1.0458770000"><ele>300</ele><time>2026-04-07T10:16:03Z</time></trkpt>
<trkpt lat="43.2833170000" lon="-1.0459050000"><ele>300</ele><time>2026-04-07T10:16:06Z</time></trkpt>
<trkpt lat="43.2833270000" lon="-1.0459470000"><ele>300</ele><time>2026-04-07T10:16:32Z</time></trkpt>
<trkpt lat="43.2833270000" lon="-1.0459920000"><ele>300</ele><time>2026-04-07T10:16:34Z</time></trkpt>
<trkpt lat="43.2833320000" lon="-1.0460350000"><ele>300</ele><time>2026-04-07T10:16:36Z</time></trkpt>
<trkpt lat="43.2833300000" lon="-1.0460670000"><ele>300</ele><time>2026-04-07T10:16:38Z</time></trkpt>
<trkpt lat="43.2833300000" lon="-1.0460920000"><ele>300</ele><time>2026-04-07T10:16:40Z</time></trkpt>
<trkpt lat="43.2833270000" lon="-1.0461270000"><ele>300</ele><time>2026-04-07T10:16:42Z</time></trkpt>
<trkpt lat="43.2833220000" lon="-1.0461620000"><ele>300</ele><time>2026-04-07T10:16:44Z</time></trkpt>
<trkpt lat="43.2833220000" lon="-1.0461900000"><ele>300</ele><time>2026-04-07T10:16:46Z</time></trkpt>
<trkpt lat="43.2833200000" lon="-1.0462170000"><ele>300</ele><time>2026-04-07T10:16:48Z</time></trkpt>
<trkpt lat="43.2833170000" lon="-1.0462470000"><ele>300</ele><time>2026-04-07T10:16:50Z</time></trkpt>
<trkpt lat="43.2833170000" lon="-1.0462770000"><ele>300</ele><time>2026-04-07T10:16:52Z</time></trkpt>
<trkpt lat="43.2833150000" lon="-1.0463070000"><ele>300</ele><time>2026-04-07T10:16:54Z</time></trkpt>
<trkpt lat="43.2833150000" lon="-1.0463350000"><ele>300</ele><time>2026-04-07T10:16:56Z</time></trkpt>
<trkpt lat="43.2833170000" lon="-1.0463650000"><ele>300</ele><time>2026-04-07T10:16:58Z</time></trkpt>
<trkpt lat="43.2833120000" lon="-1.0464000000"><ele>300</ele><time>2026-04-07T10:17:00Z</time></trkpt>
<trkpt lat="43.2833100000" lon="-1.0464320000"><ele>300</ele><time>2026-04-07T10:17:02Z</time></trkpt>
<trkpt lat="43.2833070000" lon="-1.0464650000"><ele>300</ele><time>2026-04-07T10:17:04Z</time></trkpt>
<trkpt lat="43.2833070000" lon="-1.0464970000"><ele>300</ele><time>2026-04-07T10:17:06Z</time></trkpt>
<trkpt lat="43.2833020000" lon="-1.0465270000"><ele>300</ele><time>2026-04-07T10:17:08Z</time></trkpt>
<trkpt lat="43.2832980000" lon="-1.0465570000"><ele>300</ele><time>2026-04-07T10:17:10Z</time></trkpt>
<trkpt lat="43.2832970000" lon="-1.0465920000"><ele>300</ele><time>2026-04-07T10:17:12Z</time></trkpt>
<trkpt lat="43.2832950000" lon="-1.0466230000"><ele>300</ele><time>2026-04-07T10:17:14Z</time></trkpt>
<trkpt lat="43.2832970000" lon="-1.0466570000"><ele>300</ele><time>2026-04-07T10:17:16Z</time></trkpt>
<trkpt lat="43.2832970000" lon="-1.0466820000"><ele>300</ele><time>2026-04-07T10:17:18Z</time></trkpt>
<trkpt lat="43.2833020000" lon="-1.0467120000"><ele>300</ele><time>2026-04-07T10:17:20Z</time></trkpt>
<trkpt lat="43.2833070000" lon="-1.0467370000"><ele>300</ele><time>2026-04-07T10:17:22Z</time></trkpt>
<trkpt lat="43.2833070000" lon="-1.0467720000"><ele>300</ele><time>2026-04-07T10:17:24Z</time></trkpt>
<trkpt lat="43.2832980000" lon="-1.0468150000"><ele>300</ele><time>2026-04-07T10:17:26Z</time></trkpt>
<trkpt lat="43.2833020000" lon="-1.0468500000"><ele>300</ele><time>2026-04-07T10:17:28Z</time></trkpt>
<trkpt lat="43.2833120000" lon="-1.0468820000"><ele>300</ele><time>2026-04-07T10:17:30Z</time></trkpt>
<trkpt lat="43.2833220000" lon="-1.0469170000"><ele>300</ele><time>2026-04-07T10:17:32Z</time></trkpt>
<trkpt lat="43.2833270000" lon="-1.0469420000"><ele>300</ele><time>2026-04-07T10:17:34Z</time></trkpt>
<trkpt lat="43.2833370000" lon="-1.0469720000"><ele>300</ele><time>2026-04-07T10:17:36Z</time></trkpt>
<trkpt lat="43.2833470000" lon="-1.0469970000"><ele>300</ele><time>2026-04-07T10:17:38Z</time></trkpt>
<trkpt lat="43.2833550000" lon="-1.0470220000"><ele>300</ele><time>2026-04-07T10:17:40Z</time></trkpt>
<trkpt lat="43.2833620000" lon="-1.0470520000"><ele>300</ele><time>2026-04-07T10:17:42Z</time></trkpt>
<trkpt lat="43.2833670000" lon="-1.0470870000"><ele>300</ele><time>2026-04-07T10:17:44Z</time></trkpt>
<trkpt lat="43.2833770000" lon="-1.0471170000"><ele>300</ele><time>2026-04-07T10:17:46Z</time></trkpt>
<trkpt lat="43.2833820000" lon="-1.0471520000"><ele>300</ele><time>2026-04-07T10:17:48Z</time></trkpt>
<trkpt lat="43.2833900000" lon="-1.0471820000"><ele>300</ele><time>2026-04-07T10:17:50Z</time></trkpt>
<trkpt lat="43.2833970000" lon="-1.0472100000"><ele>300</ele><time>2026-04-07T10:17:52Z</time></trkpt>
<trkpt lat="43.2834070000" lon="-1.0472370000"><ele>300</ele><time>2026-04-07T10:17:54Z</time></trkpt>
<trkpt lat="43.2834170000" lon="-1.0472670000"><ele>300</ele><time>2026-04-07T10:17:56Z</time></trkpt>
<trkpt lat="43.2834300000" lon="-1.0472950000"><ele>300</ele><time>2026-04-07T10:17:58Z</time></trkpt>
<trkpt lat="43.2834420000" lon="-1.0473220000"><ele>301</ele><time>2026-04-07T10:18:00Z</time></trkpt>
<trkpt lat="43.2834530000" lon="-1.0473450000"><ele>301</ele><time>2026-04-07T10:18:02Z</time></trkpt>
<trkpt lat="43.2834670000" lon="-1.0473620000"><ele>301</ele><time>2026-04-07T10:18:04Z</time></trkpt>
<trkpt lat="43.2834770000" lon="-1.0473870000"><ele>301</ele><time>2026-04-07T10:18:06Z</time></trkpt>
<trkpt lat="43.2834870000" lon="-1.0474220000"><ele>301</ele><time>2026-04-07T10:18:08Z</time></trkpt>
<trkpt lat="43.2834970000" lon="-1.0474520000"><ele>301</ele><time>2026-04-07T10:18:10Z</time></trkpt>
<trkpt lat="43.2835100000" lon="-1.0474800000"><ele>301</ele><time>2026-04-07T10:18:12Z</time></trkpt>
<trkpt lat="43.2835200000" lon="-1.0475080000"><ele>301</ele><time>2026-04-07T10:18:14Z</time></trkpt>
<trkpt lat="43.2835270000" lon="-1.0475420000"><ele>301</ele><time>2026-04-07T10:18:16Z</time></trkpt>
<trkpt lat="43.2835350000" lon="-1.0475720000"><ele>301</ele><time>2026-04-07T10:18:18Z</time></trkpt>
<trkpt lat="43.2835420000" lon="-1.0476000000"><ele>301</ele><time>2026-04-07T10:18:20Z</time></trkpt>
<trkpt lat="43.2835470000" lon="-1.0476270000"><ele>300</ele><time>2026-04-07T10:18:22Z</time></trkpt>
<trkpt lat="43.2835520000" lon="-1.0476570000"><ele>300</ele><time>2026-04-07T10:18:24Z</time></trkpt>
<trkpt lat="43.2835520000" lon="-1.0476920000"><ele>301</ele><time>2026-04-07T10:18:26Z</time></trkpt>
<trkpt lat="43.2835550000" lon="-1.0477170000"><ele>301</ele><time>2026-04-07T10:18:28Z</time></trkpt>
<trkpt lat="43.2835620000" lon="-1.0477420000"><ele>301</ele><time>2026-04-07T10:18:31Z</time></trkpt>
<trkpt lat="43.2835550000" lon="-1.0477770000"><ele>301</ele><time>2026-04-07T10:18:44Z</time></trkpt>
<trkpt lat="43.2835470000" lon="-1.0478070000"><ele>301</ele><time>2026-04-07T10:18:46Z</time></trkpt>
<trkpt lat="43.2835300000" lon="-1.0478320000"><ele>301</ele><time>2026-04-07T10:18:48Z</time></trkpt>
<trkpt lat="43.2835150000" lon="-1.0478500000"><ele>301</ele><time>2026-04-07T10:18:50Z</time></trkpt>
<trkpt lat="43.2834950000" lon="-1.0478720000"><ele>301</ele><time>2026-04-07T10:18:52Z</time></trkpt>
<trkpt lat="43.2834800000" lon="-1.0478920000"><ele>302</ele><time>2026-04-07T10:18:54Z</time></trkpt>
<trkpt lat="43.2834650000" lon="-1.0479120000"><ele>302</ele><time>2026-04-07T10:18:56Z</time></trkpt>
<trkpt lat="43.2834520000" lon="-1.0479300000"><ele>302</ele><time>2026-04-07T10:18:58Z</time></trkpt>
<trkpt lat="43.2834400000" lon="-1.0479530000"><ele>302</ele><time>2026-04-07T10:19:00Z</time></trkpt>
<trkpt lat="43.2834270000" lon="-1.0479750000"><ele>302</ele><time>2026-04-07T10:19:04Z</time></trkpt>
<trkpt lat="43.2834270000" lon="-1.0480020000"><ele>302</ele><time>2026-04-07T10:22:19Z</time></trkpt>
<trkpt lat="43.2834120000" lon="-1.0480320000"><ele>303</ele><time>2026-04-07T10:22:22Z</time></trkpt>
<trkpt lat="43.2833970000" lon="-1.0480520000"><ele>302</ele><time>2026-04-07T10:22:24Z</time></trkpt>
<trkpt lat="43.2833850000" lon="-1.0480720000"><ele>302</ele><time>2026-04-07T10:22:26Z</time></trkpt>
<trkpt lat="43.2833650000" lon="-1.0480920000"><ele>303</ele><time>2026-04-07T10:22:28Z</time></trkpt>
<trkpt lat="43.2833470000" lon="-1.0481120000"><ele>303</ele><time>2026-04-07T10:22:30Z</time></trkpt>
<trkpt lat="43.2833320000" lon="-1.0481320000"><ele>303</ele><time>2026-04-07T10:22:32Z</time></trkpt>
<trkpt lat="43.2833150000" lon="-1.0481520000"><ele>303</ele><time>2026-04-07T10:22:34Z</time></trkpt>
<trkpt lat="43.2833020000" lon="-1.0481720000"><ele>303</ele><time>2026-04-07T10:22:36Z</time></trkpt>
<trkpt lat="43.2832850000" lon="-1.0482020000"><ele>303</ele><time>2026-04-07T10:22:39Z</time></trkpt>
<trkpt lat="43.2832700000" lon="-1.0482320000"><ele>302</ele><time>2026-04-07T10:22:43Z</time></trkpt>
<trkpt lat="43.2832600000" lon="-1.0482550000"><ele>302</ele><time>2026-04-07T10:22:45Z</time></trkpt>
<trkpt lat="43.2832450000" lon="-1.0482720000"><ele>302</ele><time>2026-04-07T10:22:47Z</time></trkpt>
<trkpt lat="43.2832300000" lon="-1.0482920000"><ele>302</ele><time>2026-04-07T10:22:49Z</time></trkpt>
<trkpt lat="43.2832120000" lon="-1.0483180000"><ele>302</ele><time>2026-04-07T10:22:52Z</time></trkpt>
<trkpt lat="43.2831970000" lon="-1.0483420000"><ele>302</ele><time>2026-04-07T10:22:54Z</time></trkpt>
<trkpt lat="43.2831870000" lon="-1.0483670000"><ele>302</ele><time>2026-04-07T10:22:56Z</time></trkpt>
<trkpt lat="43.2831670000" lon="-1.0483870000"><ele>301</ele><time>2026-04-07T10:22:59Z</time></trkpt>
<trkpt lat="43.2831500000" lon="-1.0484170000"><ele>301</ele><time>2026-04-07T10:23:02Z</time></trkpt>
<trkpt lat="43.2831370000" lon="-1.0484420000"><ele>301</ele><time>2026-04-07T10:23:04Z</time></trkpt>
<trkpt lat="43.2831270000" lon="-1.0484670000"><ele>300</ele><time>2026-04-07T10:23:06Z</time></trkpt>
<trkpt lat="43.2831170000" lon="-1.0484930000"><ele>300</ele><time>2026-04-07T10:23:08Z</time></trkpt>
<trkpt lat="43.2831050000" lon="-1.0485270000"><ele>300</ele><time>2026-04-07T10:23:11Z</time></trkpt>
<trkpt lat="43.2830920000" lon="-1.0485420000"><ele>300</ele><time>2026-04-07T10:23:13Z</time></trkpt>
<trkpt lat="43.2830800000" lon="-1.0485620000"><ele>300</ele><time>2026-04-07T10:23:15Z</time></trkpt>
<trkpt lat="43.2830670000" lon="-1.0485820000"><ele>299</ele><time>2026-04-07T10:23:17Z</time></trkpt>
<trkpt lat="43.2830570000" lon="-1.0486050000"><ele>299</ele><time>2026-04-07T10:23:19Z</time></trkpt>
<trkpt lat="43.2830450000" lon="-1.0486320000"><ele>299</ele><time>2026-04-07T10:23:21Z</time></trkpt>
<trkpt lat="43.2830370000" lon="-1.0486620000"><ele>299</ele><time>2026-04-07T10:23:23Z</time></trkpt>
<trkpt lat="43.2830370000" lon="-1.0486920000"><ele>298</ele><time>2026-04-07T10:23:25Z</time></trkpt>
<trkpt lat="43.2830370000" lon="-1.0487220000"><ele>298</ele><time>2026-04-07T10:23:27Z</time></trkpt>
<trkpt lat="43.2830320000" lon="-1.0487520000"><ele>298</ele><time>2026-04-07T10:23:29Z</time></trkpt>
<trkpt lat="43.2830270000" lon="-1.0487820000"><ele>298</ele><time>2026-04-07T10:23:31Z</time></trkpt>
<trkpt lat="43.2830250000" lon="-1.0488170000"><ele>298</ele><time>2026-04-07T10:23:34Z</time></trkpt>
<trkpt lat="43.2830270000" lon="-1.0488470000"><ele>298</ele><time>2026-04-07T10:23:36Z</time></trkpt>
<trkpt lat="43.2830250000" lon="-1.0488800000"><ele>298</ele><time>2026-04-07T10:23:38Z</time></trkpt>
<trkpt lat="43.2830120000" lon="-1.0489120000"><ele>298</ele><time>2026-04-07T10:23:40Z</time></trkpt>
<trkpt lat="43.2829970000" lon="-1.0489520000"><ele>298</ele><time>2026-04-07T10:23:42Z</time></trkpt>
<trkpt lat="43.2829920000" lon="-1.0489870000"><ele>298</ele><time>2026-04-07T10:23:44Z</time></trkpt>
<trkpt lat="43.2829820000" lon="-1.0490200000"><ele>298</ele><time>2026-04-07T10:23:46Z</time></trkpt>
<trkpt lat="43.2829750000" lon="-1.0490470000"><ele>299</ele><time>2026-04-07T10:23:48Z</time></trkpt>
<trkpt lat="43.2829620000" lon="-1.0490750000"><ele>299</ele><time>2026-04-07T10:23:50Z</time></trkpt>
<trkpt lat="43.2829650000" lon="-1.0491100000"><ele>298</ele><time>2026-04-07T10:23:52Z</time></trkpt>
<trkpt lat="43.2829620000" lon="-1.0491330000"><ele>298</ele><time>2026-04-07T10:23:54Z</time></trkpt>
<trkpt lat="43.2829570000" lon="-1.0491670000"><ele>299</ele><time>2026-04-07T10:23:56Z</time></trkpt>
<trkpt lat="43.2829520000" lon="-1.0492020000"><ele>298</ele><time>2026-04-07T10:23:58Z</time></trkpt>
<trkpt lat="43.2829420000" lon="-1.0492270000"><ele>298</ele><time>2026-04-07T10:24:00Z</time></trkpt>
<trkpt lat="43.2829470000" lon="-1.0492570000"><ele>298</ele><time>2026-04-07T10:24:03Z</time></trkpt>
<trkpt lat="43.2829400000" lon="-1.0492850000"><ele>299</ele><time>2026-04-07T10:24:05Z</time></trkpt>
<trkpt lat="43.2829370000" lon="-1.0493120000"><ele>299</ele><time>2026-04-07T10:24:07Z</time></trkpt>
<trkpt lat="43.2829300000" lon="-1.0493470000"><ele>299</ele><time>2026-04-07T10:24:09Z</time></trkpt>
<trkpt lat="43.2829320000" lon="-1.0493750000"><ele>299</ele><time>2026-04-07T10:24:11Z</time></trkpt>
<trkpt lat="43.2829320000" lon="-1.0494070000"><ele>298</ele><time>2026-04-07T10:24:13Z</time></trkpt>
<trkpt lat="43.2829320000" lon="-1.0494370000"><ele>298</ele><time>2026-04-07T10:24:15Z</time></trkpt>
<trkpt lat="43.2829250000" lon="-1.0494650000"><ele>298</ele><time>2026-04-07T10:24:17Z</time></trkpt>
<trkpt lat="43.2829180000" lon="-1.0494900000"><ele>298</ele><time>2026-04-07T10:24:19Z</time></trkpt>
<trkpt lat="43.2829120000" lon="-1.0495170000"><ele>298</ele><time>2026-04-07T10:24:21Z</time></trkpt>
<trkpt lat="43.2829070000" lon="-1.0495470000"><ele>298</ele><time>2026-04-07T10:24:23Z</time></trkpt>
<trkpt lat="43.2829020000" lon="-1.0495720000"><ele>298</ele><time>2026-04-07T10:24:25Z</time></trkpt>
<trkpt lat="43.2829000000" lon="-1.0496050000"><ele>298</ele><time>2026-04-07T10:24:27Z</time></trkpt>
<trkpt lat="43.2828950000" lon="-1.0496370000"><ele>298</ele><time>2026-04-07T10:24:29Z</time></trkpt>
<trkpt lat="43.2828970000" lon="-1.0496670000"><ele>298</ele><time>2026-04-07T10:24:31Z</time></trkpt>
<trkpt lat="43.2828870000" lon="-1.0497020000"><ele>298</ele><time>2026-04-07T10:24:33Z</time></trkpt>
<trkpt lat="43.2828850000" lon="-1.0497270000"><ele>298</ele><time>2026-04-07T10:24:35Z</time></trkpt>
<trkpt lat="43.2828820000" lon="-1.0497570000"><ele>297</ele><time>2026-04-07T10:24:37Z</time></trkpt>
<trkpt lat="43.2828800000" lon="-1.0497820000"><ele>297</ele><time>2026-04-07T10:24:39Z</time></trkpt>
<trkpt lat="43.2828800000" lon="-1.0498150000"><ele>297</ele><time>2026-04-07T10:24:42Z</time></trkpt>
<trkpt lat="43.2828800000" lon="-1.0498400000"><ele>297</ele><time>2026-04-07T10:24:44Z</time></trkpt>
<trkpt lat="43.2828750000" lon="-1.0498670000"><ele>297</ele><time>2026-04-07T10:24:46Z</time></trkpt>
<trkpt lat="43.2828670000" lon="-1.0498970000"><ele>297</ele><time>2026-04-07T10:24:48Z</time></trkpt>
<trkpt lat="43.2828670000" lon="-1.0499280000"><ele>297</ele><time>2026-04-07T10:24:50Z</time></trkpt>
<trkpt lat="43.2828650000" lon="-1.0499620000"><ele>297</ele><time>2026-04-07T10:24:52Z</time></trkpt>
<trkpt lat="43.2828650000" lon="-1.0499950000"><ele>297</ele><time>2026-04-07T10:24:54Z</time></trkpt>
<trkpt lat="43.2828670000" lon="-1.0500220000"><ele>296</ele><time>2026-04-07T10:24:56Z</time></trkpt>
<trkpt lat="43.2828770000" lon="-1.0500470000"><ele>296</ele><time>2026-04-07T10:24:58Z</time></trkpt>
<trkpt lat="43.2828720000" lon="-1.0500780000"><ele>296</ele><time>2026-04-07T10:25:00Z</time></trkpt>
<trkpt lat="43.2828650000" lon="-1.0501070000"><ele>296</ele><time>2026-04-07T10:25:02Z</time></trkpt>
<trkpt lat="43.2828570000" lon="-1.0501370000"><ele>296</ele><time>2026-04-07T10:25:04Z</time></trkpt>
<trkpt lat="43.2828470000" lon="-1.0501720000"><ele>296</ele><time>2026-04-07T10:25:06Z</time></trkpt>
<trkpt lat="43.2828400000" lon="-1.0502020000"><ele>296</ele><time>2026-04-07T10:25:08Z</time></trkpt>
<trkpt lat="43.2828300000" lon="-1.0502350000"><ele>296</ele><time>2026-04-07T10:25:10Z</time></trkpt>
<trkpt lat="43.2828250000" lon="-1.0502670000"><ele>296</ele><time>2026-04-07T10:25:12Z</time></trkpt>
<trkpt lat="43.2828250000" lon="-1.0502920000"><ele>295</ele><time>2026-04-07T10:25:14Z</time></trkpt>
<trkpt lat="43.2828200000" lon="-1.0503250000"><ele>295</ele><time>2026-04-07T10:25:16Z</time></trkpt>
<trkpt lat="43.2828150000" lon="-1.0503550000"><ele>295</ele><time>2026-04-07T10:25:18Z</time></trkpt>
<trkpt lat="43.2828170000" lon="-1.0503830000"><ele>295</ele><time>2026-04-07T10:25:20Z</time></trkpt>
<trkpt lat="43.2828170000" lon="-1.0504220000"><ele>294</ele><time>2026-04-07T10:25:23Z</time></trkpt>
<trkpt lat="43.2828100000" lon="-1.0504470000"><ele>294</ele><time>2026-04-07T10:25:25Z</time></trkpt>
<trkpt lat="43.2828070000" lon="-1.0504720000"><ele>294</ele><time>2026-04-07T10:25:27Z</time></trkpt>
<trkpt lat="43.2828050000" lon="-1.0505000000"><ele>294</ele><time>2026-04-07T10:25:29Z</time></trkpt>
<trkpt lat="43.2828020000" lon="-1.0505270000"><ele>294</ele><time>2026-04-07T10:25:31Z</time></trkpt>
<trkpt lat="43.2828000000" lon="-1.0505570000"><ele>293</ele><time>2026-04-07T10:25:33Z</time></trkpt>
<trkpt lat="43.2827970000" lon="-1.0505870000"><ele>293</ele><time>2026-04-07T10:25:35Z</time></trkpt>
<trkpt lat="43.2827870000" lon="-1.0506120000"><ele>292</ele><time>2026-04-07T10:25:44Z</time></trkpt>
<trkpt lat="43.2827870000" lon="-1.0506400000"><ele>292</ele><time>2026-04-07T10:26:05Z</time></trkpt>
<trkpt lat="43.2827900000" lon="-1.0506700000"><ele>292</ele><time>2026-04-07T10:26:07Z</time></trkpt>
<trkpt lat="43.2827900000" lon="-1.0507020000"><ele>292</ele><time>2026-04-07T10:26:09Z</time></trkpt>
<trkpt lat="43.2827870000" lon="-1.0507370000"><ele>292</ele><time>2026-04-07T10:26:11Z</time></trkpt>
<trkpt lat="43.2827770000" lon="-1.0507650000"><ele>292</ele><time>2026-04-07T10:26:13Z</time></trkpt>
<trkpt lat="43.2827670000" lon="-1.0508000000"><ele>291</ele><time>2026-04-07T10:26:15Z</time></trkpt>
<trkpt lat="43.2827570000" lon="-1.0508270000"><ele>291</ele><time>2026-04-07T10:26:17Z</time></trkpt>
<trkpt lat="43.2827550000" lon="-1.0508520000"><ele>291</ele><time>2026-04-07T10:26:19Z</time></trkpt>
<trkpt lat="43.2827470000" lon="-1.0508820000"><ele>291</ele><time>2026-04-07T10:26:22Z</time></trkpt>
<trkpt lat="43.2827370000" lon="-1.0509070000"><ele>290</ele><time>2026-04-07T10:26:24Z</time></trkpt>
<trkpt lat="43.2827470000" lon="-1.0508800000"><ele>290</ele><time>2026-04-07T10:26:33Z</time></trkpt>
<trkpt lat="43.2827570000" lon="-1.0508370000"><ele>290</ele><time>2026-04-07T10:26:35Z</time></trkpt>
<trkpt lat="43.2827620000" lon="-1.0507920000"><ele>290</ele><time>2026-04-07T10:26:37Z</time></trkpt>
<trkpt lat="43.2827670000" lon="-1.0507620000"><ele>290</ele><time>2026-04-07T10:26:39Z</time></trkpt>
<trkpt lat="43.2827770000" lon="-1.0507320000"><ele>291</ele><time>2026-04-07T10:26:41Z</time></trkpt>
<trkpt lat="43.2827850000" lon="-1.0507050000"><ele>291</ele><time>2026-04-07T10:26:43Z</time></trkpt>
<trkpt lat="43.2827870000" lon="-1.0506720000"><ele>291</ele><time>2026-04-07T10:26:45Z</time></trkpt>
<trkpt lat="43.2827850000" lon="-1.0506400000"><ele>291</ele><time>2026-04-07T10:26:47Z</time></trkpt>
<trkpt lat="43.2827750000" lon="-1.0506150000"><ele>292</ele><time>2026-04-07T10:26:49Z</time></trkpt>
<trkpt lat="43.2827550000" lon="-1.0506150000"><ele>292</ele><time>2026-04-07T10:26:51Z</time></trkpt>
<trkpt lat="43.2827320000" lon="-1.0506100000"><ele>292</ele><time>2026-04-07T10:26:55Z</time></trkpt>
<trkpt lat="43.2827220000" lon="-1.0506350000"><ele>292</ele><time>2026-04-07T10:27:05Z</time></trkpt>
<trkpt lat="43.2827120000" lon="-1.0506750000"><ele>292</ele><time>2026-04-07T10:27:07Z</time></trkpt>
<trkpt lat="43.2827020000" lon="-1.0507220000"><ele>292</ele><time>2026-04-07T10:27:09Z</time></trkpt>
<trkpt lat="43.2827050000" lon="-1.0507570000"><ele>291</ele><time>2026-04-07T10:27:11Z</time></trkpt>
<trkpt lat="43.2827020000" lon="-1.0507820000"><ele>291</ele><time>2026-04-07T10:27:13Z</time></trkpt>
<trkpt lat="43.2826930000" lon="-1.0508170000"><ele>291</ele><time>2026-04-07T10:27:15Z</time></trkpt>
<trkpt lat="43.2826900000" lon="-1.0508420000"><ele>291</ele><time>2026-04-07T10:27:17Z</time></trkpt>
<trkpt lat="43.2826820000" lon="-1.0508770000"><ele>291</ele><time>2026-04-07T10:27:19Z</time></trkpt>
<trkpt lat="43.2826800000" lon="-1.0509070000"><ele>291</ele><time>2026-04-07T10:27:21Z</time></trkpt>
<trkpt lat="43.2826820000" lon="-1.0509320000"><ele>290</ele><time>2026-04-07T10:27:23Z</time></trkpt>
<trkpt lat="43.2826870000" lon="-1.0509570000"><ele>290</ele><time>2026-04-07T10:27:25Z</time></trkpt>
<trkpt lat="43.2826820000" lon="-1.0509900000"><ele>290</ele><time>2026-04-07T10:27:27Z</time></trkpt>
<trkpt lat="43.2826770000" lon="-1.0510220000"><ele>289</ele><time>2026-04-07T10:27:29Z</time></trkpt>
<trkpt lat="43.2826720000" lon="-1.0510600000"><ele>289</ele><time>2026-04-07T10:27:31Z</time></trkpt>
<trkpt lat="43.2826620000" lon="-1.0510920000"><ele>289</ele><time>2026-04-07T10:27:33Z</time></trkpt>
<trkpt lat="43.2826520000" lon="-1.0511270000"><ele>289</ele><time>2026-04-07T10:27:35Z</time></trkpt>
<trkpt lat="43.2826420000" lon="-1.0511620000"><ele>288</ele><time>2026-04-07T10:27:37Z</time></trkpt>
<trkpt lat="43.2826370000" lon="-1.0511970000"><ele>288</ele><time>2026-04-07T10:27:39Z</time></trkpt>
<trkpt lat="43.2826350000" lon="-1.0512270000"><ele>288</ele><time>2026-04-07T10:27:41Z</time></trkpt>
<trkpt lat="43.2826320000" lon="-1.0512570000"><ele>288</ele><time>2026-04-07T10:27:43Z</time></trkpt>
<trkpt lat="43.2826270000" lon="-1.0512870000"><ele>287</ele><time>2026-04-07T10:27:45Z</time></trkpt>
<trkpt lat="43.2826300000" lon="-1.0513150000"><ele>287</ele><time>2026-04-07T10:27:47Z</time></trkpt>
<trkpt lat="43.2826320000" lon="-1.0513400000"><ele>287</ele><time>2026-04-07T10:27:49Z</time></trkpt>
<trkpt lat="43.2826350000" lon="-1.0513650000"><ele>286</ele><time>2026-04-07T10:27:51Z</time></trkpt>
<trkpt lat="43.2826300000" lon="-1.0513950000"><ele>286</ele><time>2026-04-07T10:27:53Z</time></trkpt>
<trkpt lat="43.2826220000" lon="-1.0514250000"><ele>286</ele><time>2026-04-07T10:27:55Z</time></trkpt>
<trkpt lat="43.2826270000" lon="-1.0514520000"><ele>285</ele><time>2026-04-07T10:27:57Z</time></trkpt>
<trkpt lat="43.2826220000" lon="-1.0514770000"><ele>285</ele><time>2026-04-07T10:27:59Z</time></trkpt>
<trkpt lat="43.2826120000" lon="-1.0515120000"><ele>285</ele><time>2026-04-07T10:28:02Z</time></trkpt>
<trkpt lat="43.2826080000" lon="-1.0515470000"><ele>284</ele><time>2026-04-07T10:28:04Z</time></trkpt>
<trkpt lat="43.2826020000" lon="-1.0515880000"><ele>284</ele><time>2026-04-07T10:28:07Z</time></trkpt>
<trkpt lat="43.2825970000" lon="-1.0516270000"><ele>284</ele><time>2026-04-07T10:28:09Z</time></trkpt>
<trkpt lat="43.2825900000" lon="-1.0516620000"><ele>283</ele><time>2026-04-07T10:28:11Z</time></trkpt>
<trkpt lat="43.2825870000" lon="-1.0516950000"><ele>283</ele><time>2026-04-07T10:28:14Z</time></trkpt>
<trkpt lat="43.2825820000" lon="-1.0517200000"><ele>283</ele><time>2026-04-07T10:28:16Z</time></trkpt>
<trkpt lat="43.2825800000" lon="-1.0517470000"><ele>282</ele><time>2026-04-07T10:28:18Z</time></trkpt>
<trkpt lat="43.2825720000" lon="-1.0517900000"><ele>282</ele><time>2026-04-07T10:28:21Z</time></trkpt>
<trkpt lat="43.2825720000" lon="-1.0518180000"><ele>281</ele><time>2026-04-07T10:28:24Z</time></trkpt>
<trkpt lat="43.2825720000" lon="-1.0518470000"><ele>281</ele><time>2026-04-07T10:28:26Z</time></trkpt>
<trkpt lat="43.2825670000" lon="-1.0518770000"><ele>280</ele><time>2026-04-07T10:28:28Z</time></trkpt>
<trkpt lat="43.2825670000" lon="-1.0519120000"><ele>280</ele><time>2026-04-07T10:28:30Z</time></trkpt>
<trkpt lat="43.2825700000" lon="-1.0519450000"><ele>280</ele><time>2026-04-07T10:28:32Z</time></trkpt>
<trkpt lat="43.2825670000" lon="-1.0519770000"><ele>279</ele><time>2026-04-07T10:28:34Z</time></trkpt>
<trkpt lat="43.2825750000" lon="-1.0520020000"><ele>279</ele><time>2026-04-07T10:28:36Z</time></trkpt>
<trkpt lat="43.2825820000" lon="-1.0520270000"><ele>278</ele><time>2026-04-07T10:28:39Z</time></trkpt>
<trkpt lat="43.2825720000" lon="-1.0520520000"><ele>278</ele><time>2026-04-07T10:28:41Z</time></trkpt>
<trkpt lat="43.2825700000" lon="-1.0520770000"><ele>277</ele><time>2026-04-07T10:28:43Z</time></trkpt>
<trkpt lat="43.2825650000" lon="-1.0521100000"><ele>277</ele><time>2026-04-07T10:28:46Z</time></trkpt>
<trkpt lat="43.2825570000" lon="-1.0521370000"><ele>277</ele><time>2026-04-07T10:28:48Z</time></trkpt>
<trkpt lat="43.2825570000" lon="-1.0521650000"><ele>276</ele><time>2026-04-07T10:28:50Z</time></trkpt>
<trkpt lat="43.2825570000" lon="-1.0521950000"><ele>276</ele><time>2026-04-07T10:28:52Z</time></trkpt>
<trkpt lat="43.2825470000" lon="-1.0522320000"><ele>276</ele><time>2026-04-07T10:28:54Z</time></trkpt>
<trkpt lat="43.2825350000" lon="-1.0522670000"><ele>275</ele><time>2026-04-07T10:28:56Z</time></trkpt>
<trkpt lat="43.2825300000" lon="-1.0523020000"><ele>275</ele><time>2026-04-07T10:28:58Z</time></trkpt>
<trkpt lat="43.2825250000" lon="-1.0523320000"><ele>275</ele><time>2026-04-07T10:29:00Z</time></trkpt>
<trkpt lat="43.2825200000" lon="-1.0523650000"><ele>274</ele><time>2026-04-07T10:29:02Z</time></trkpt>
<trkpt lat="43.2825150000" lon="-1.0523970000"><ele>274</ele><time>2026-04-07T10:29:04Z</time></trkpt>
<trkpt lat="43.2825120000" lon="-1.0524250000"><ele>273</ele><time>2026-04-07T10:29:06Z</time></trkpt>
<trkpt lat="43.2825120000" lon="-1.0524520000"><ele>273</ele><time>2026-04-07T10:29:08Z</time></trkpt>
<trkpt lat="43.2825050000" lon="-1.0524750000"><ele>273</ele><time>2026-04-07T10:29:10Z</time></trkpt>
<trkpt lat="43.2825070000" lon="-1.0525070000"><ele>272</ele><time>2026-04-07T10:29:13Z</time></trkpt>
<trkpt lat="43.2825070000" lon="-1.0525470000"><ele>272</ele><time>2026-04-07T10:29:16Z</time></trkpt>
<trkpt lat="43.2825020000" lon="-1.0525730000"><ele>271</ele><time>2026-04-07T10:29:18Z</time></trkpt>
<trkpt lat="43.2824950000" lon="-1.0526050000"><ele>270</ele><time>2026-04-07T10:29:21Z</time></trkpt>
<trkpt lat="43.2824870000" lon="-1.0526420000"><ele>270</ele><time>2026-04-07T10:29:24Z</time></trkpt>
<trkpt lat="43.2824800000" lon="-1.0526670000"><ele>269</ele><time>2026-04-07T10:29:26Z</time></trkpt>
<trkpt lat="43.2824750000" lon="-1.0526950000"><ele>269</ele><time>2026-04-07T10:29:28Z</time></trkpt>
<trkpt lat="43.2824800000" lon="-1.0527220000"><ele>268</ele><time>2026-04-07T10:29:31Z</time></trkpt>
<trkpt lat="43.2824770000" lon="-1.0527470000"><ele>268</ele><time>2026-04-07T10:29:33Z</time></trkpt>
<trkpt lat="43.2824770000" lon="-1.0527850000"><ele>267</ele><time>2026-04-07T10:29:35Z</time></trkpt>
<trkpt lat="43.2824750000" lon="-1.0528150000"><ele>267</ele><time>2026-04-07T10:29:37Z</time></trkpt>
<trkpt lat="43.2824750000" lon="-1.0528420000"><ele>267</ele><time>2026-04-07T10:29:39Z</time></trkpt>
<trkpt lat="43.2824670000" lon="-1.0528670000"><ele>266</ele><time>2026-04-07T10:29:42Z</time></trkpt>
<trkpt lat="43.2824500000" lon="-1.0528870000"><ele>265</ele><time>2026-04-07T10:29:47Z</time></trkpt>
<trkpt lat="43.2824500000" lon="-1.0529120000"><ele>265</ele><time>2026-04-07T10:29:58Z</time></trkpt>
<trkpt lat="43.2824570000" lon="-1.0529470000"><ele>265</ele><time>2026-04-07T10:30:00Z</time></trkpt>
<trkpt lat="43.2824620000" lon="-1.0529780000"><ele>265</ele><time>2026-04-07T10:30:02Z</time></trkpt>
<trkpt lat="43.2824620000" lon="-1.0530120000"><ele>264</ele><time>2026-04-07T10:30:04Z</time></trkpt>
<trkpt lat="43.2824650000" lon="-1.0530470000"><ele>264</ele><time>2026-04-07T10:30:06Z</time></trkpt>
<trkpt lat="43.2824520000" lon="-1.0530680000"><ele>264</ele><time>2026-04-07T10:30:08Z</time></trkpt>
<trkpt lat="43.2824450000" lon="-1.0531020000"><ele>264</ele><time>2026-04-07T10:30:10Z</time></trkpt>
<trkpt lat="43.2824370000" lon="-1.0531350000"><ele>264</ele><time>2026-04-07T10:30:12Z</time></trkpt>
<trkpt lat="43.2824270000" lon="-1.0531720000"><ele>263</ele><time>2026-04-07T10:30:15Z</time></trkpt>
<trkpt lat="43.2824170000" lon="-1.0531970000"><ele>263</ele><time>2026-04-07T10:30:17Z</time></trkpt>
<trkpt lat="43.2824120000" lon="-1.0532320000"><ele>263</ele><time>2026-04-07T10:30:19Z</time></trkpt>
<trkpt lat="43.2824100000" lon="-1.0532620000"><ele>262</ele><time>2026-04-07T10:30:21Z</time></trkpt>
<trkpt lat="43.2824050000" lon="-1.0532970000"><ele>262</ele><time>2026-04-07T10:30:23Z</time></trkpt>
<trkpt lat="43.2823920000" lon="-1.0533350000"><ele>262</ele><time>2026-04-07T10:30:25Z</time></trkpt>
<trkpt lat="43.2823820000" lon="-1.0533750000"><ele>262</ele><time>2026-04-07T10:30:27Z</time></trkpt>
<trkpt lat="43.2823800000" lon="-1.0534120000"><ele>262</ele><time>2026-04-07T10:30:29Z</time></trkpt>
<trkpt lat="43.2823770000" lon="-1.0534520000"><ele>262</ele><time>2026-04-07T10:30:31Z</time></trkpt>
<trkpt lat="43.2823720000" lon="-1.0534850000"><ele>262</ele><time>2026-04-07T10:30:33Z</time></trkpt>
<trkpt lat="43.2823670000" lon="-1.0535170000"><ele>262</ele><time>2026-04-07T10:30:35Z</time></trkpt>
<trkpt lat="43.2823670000" lon="-1.0535550000"><ele>262</ele><time>2026-04-07T10:30:37Z</time></trkpt>
<trkpt lat="43.2823670000" lon="-1.0535900000"><ele>262</ele><time>2026-04-07T10:30:39Z</time></trkpt>
<trkpt lat="43.2823620000" lon="-1.0536270000"><ele>262</ele><time>2026-04-07T10:30:41Z</time></trkpt>
<trkpt lat="43.2823570000" lon="-1.0536570000"><ele>262</ele><time>2026-04-07T10:30:43Z</time></trkpt>
<trkpt lat="43.2823500000" lon="-1.0536850000"><ele>262</ele><time>2026-04-07T10:30:45Z</time></trkpt>
<trkpt lat="43.2823370000" lon="-1.0537120000"><ele>262</ele><time>2026-04-07T10:30:47Z</time></trkpt>
<trkpt lat="43.2823350000" lon="-1.0537470000"><ele>262</ele><time>2026-04-07T10:30:49Z</time></trkpt>
<trkpt lat="43.2823200000" lon="-1.0537670000"><ele>263</ele><time>2026-04-07T10:30:51Z</time></trkpt>
<trkpt lat="43.2823120000" lon="-1.0537970000"><ele>263</ele><time>2026-04-07T10:30:53Z</time></trkpt>
<trkpt lat="43.2823000000" lon="-1.0538320000"><ele>263</ele><time>2026-04-07T10:30:55Z</time></trkpt>
<trkpt lat="43.2822900000" lon="-1.0538650000"><ele>263</ele><time>2026-04-07T10:30:57Z</time></trkpt>
<trkpt lat="43.2822770000" lon="-1.0538970000"><ele>263</ele><time>2026-04-07T10:30:59Z</time></trkpt>
<trkpt lat="43.2822670000" lon="-1.0539270000"><ele>263</ele><time>2026-04-07T10:31:01Z</time></trkpt>
<trkpt lat="43.2822620000" lon="-1.0539570000"><ele>263</ele><time>2026-04-07T10:31:03Z</time></trkpt>
<trkpt lat="43.2822520000" lon="-1.0539820000"><ele>263</ele><time>2026-04-07T10:31:05Z</time></trkpt>
<trkpt lat="43.2822420000" lon="-1.0540120000"><ele>263</ele><time>2026-04-07T10:31:07Z</time></trkpt>
<trkpt lat="43.2822370000" lon="-1.0540420000"><ele>264</ele><time>2026-04-07T10:31:09Z</time></trkpt>
<trkpt lat="43.2822270000" lon="-1.0540670000"><ele>264</ele><time>2026-04-07T10:31:11Z</time></trkpt>
<trkpt lat="43.2822250000" lon="-1.0541020000"><ele>264</ele><time>2026-04-07T10:31:13Z</time></trkpt>
<trkpt lat="43.2822170000" lon="-1.0541270000"><ele>264</ele><time>2026-04-07T10:31:15Z</time></trkpt>
<trkpt lat="43.2822100000" lon="-1.0541570000"><ele>264</ele><time>2026-04-07T10:31:17Z</time></trkpt>
<trkpt lat="43.2821970000" lon="-1.0541920000"><ele>264</ele><time>2026-04-07T10:31:19Z</time></trkpt>
<trkpt lat="43.2821820000" lon="-1.0542220000"><ele>264</ele><time>2026-04-07T10:31:21Z</time></trkpt>
<trkpt lat="43.2821720000" lon="-1.0542570000"><ele>264</ele><time>2026-04-07T10:31:23Z</time></trkpt>
<trkpt lat="43.2821570000" lon="-1.0542970000"><ele>264</ele><time>2026-04-07T10:31:25Z</time></trkpt>
<trkpt lat="43.2821400000" lon="-1.0543230000"><ele>264</ele><time>2026-04-07T10:31:27Z</time></trkpt>
<trkpt lat="43.2821300000" lon="-1.0543570000"><ele>265</ele><time>2026-04-07T10:31:29Z</time></trkpt>
<trkpt lat="43.2821250000" lon="-1.0543820000"><ele>265</ele><time>2026-04-07T10:31:31Z</time></trkpt>
<trkpt lat="43.2821200000" lon="-1.0544120000"><ele>265</ele><time>2026-04-07T10:31:33Z</time></trkpt>
<trkpt lat="43.2821120000" lon="-1.0544350000"><ele>265</ele><time>2026-04-07T10:31:35Z</time></trkpt>
<trkpt lat="43.2821000000" lon="-1.0544580000"><ele>265</ele><time>2026-04-07T10:31:37Z</time></trkpt>
<trkpt lat="43.2820970000" lon="-1.0544870000"><ele>265</ele><time>2026-04-07T10:31:39Z</time></trkpt>
<trkpt lat="43.2820880000" lon="-1.0545170000"><ele>265</ele><time>2026-04-07T10:31:41Z</time></trkpt>
<trkpt lat="43.2820850000" lon="-1.0545450000"><ele>265</ele><time>2026-04-07T10:31:42Z</time></trkpt>
<trkpt lat="43.2820800000" lon="-1.0545850000"><ele>265</ele><time>2026-04-07T10:31:44Z</time></trkpt>
<trkpt lat="43.2820570000" lon="-1.0546120000"><ele>265</ele><time>2026-04-07T10:31:46Z</time></trkpt>
<trkpt lat="43.2820450000" lon="-1.0546380000"><ele>265</ele><time>2026-04-07T10:31:48Z</time></trkpt>
<trkpt lat="43.2820370000" lon="-1.0546850000"><ele>265</ele><time>2026-04-07T10:31:50Z</time></trkpt>
<trkpt lat="43.2820350000" lon="-1.0547220000"><ele>265</ele><time>2026-04-07T10:31:52Z</time></trkpt>
<trkpt lat="43.2820250000" lon="-1.0547550000"><ele>265</ele><time>2026-04-07T10:31:54Z</time></trkpt>
<trkpt lat="43.2820170000" lon="-1.0547850000"><ele>264</ele><time>2026-04-07T10:31:56Z</time></trkpt>
<trkpt lat="43.2820070000" lon="-1.0548120000"><ele>264</ele><time>2026-04-07T10:31:58Z</time></trkpt>
<trkpt lat="43.2820000000" lon="-1.0548350000"><ele>264</ele><time>2026-04-07T10:32:00Z</time></trkpt>
<trkpt lat="43.2819900000" lon="-1.0548570000"><ele>264</ele><time>2026-04-07T10:32:02Z</time></trkpt>
<trkpt lat="43.2819870000" lon="-1.0548870000"><ele>264</ele><time>2026-04-07T10:32:04Z</time></trkpt>
<trkpt lat="43.2819720000" lon="-1.0549120000"><ele>264</ele><time>2026-04-07T10:32:06Z</time></trkpt>
<trkpt lat="43.2819620000" lon="-1.0549370000"><ele>264</ele><time>2026-04-07T10:32:08Z</time></trkpt>
<trkpt lat="43.2819570000" lon="-1.0549620000"><ele>264</ele><time>2026-04-07T10:32:10Z</time></trkpt>
<trkpt lat="43.2819520000" lon="-1.0549870000"><ele>264</ele><time>2026-04-07T10:32:12Z</time></trkpt>
<trkpt lat="43.2819470000" lon="-1.0550270000"><ele>264</ele><time>2026-04-07T10:32:15Z</time></trkpt>
<trkpt lat="43.2819370000" lon="-1.0550520000"><ele>263</ele><time>2026-04-07T10:32:17Z</time></trkpt>
<trkpt lat="43.2819220000" lon="-1.0550820000"><ele>263</ele><time>2026-04-07T10:32:19Z</time></trkpt>
<trkpt lat="43.2819070000" lon="-1.0551070000"><ele>263</ele><time>2026-04-07T10:32:21Z</time></trkpt>
<trkpt lat="43.2818950000" lon="-1.0551320000"><ele>263</ele><time>2026-04-07T10:32:23Z</time></trkpt>
<trkpt lat="43.2818970000" lon="-1.0551670000"><ele>263</ele><time>2026-04-07T10:32:26Z</time></trkpt>
<trkpt lat="43.2818970000" lon="-1.0552070000"><ele>263</ele><time>2026-04-07T10:32:28Z</time></trkpt>
<trkpt lat="43.2818950000" lon="-1.0552450000"><ele>262</ele><time>2026-04-07T10:32:30Z</time></trkpt>
<trkpt lat="43.2818920000" lon="-1.0552770000"><ele>262</ele><time>2026-04-07T10:32:32Z</time></trkpt>
<trkpt lat="43.2818800000" lon="-1.0553070000"><ele>262</ele><time>2026-04-07T10:32:34Z</time></trkpt>
<trkpt lat="43.2818700000" lon="-1.0553370000"><ele>262</ele><time>2026-04-07T10:32:36Z</time></trkpt>
<trkpt lat="43.2818670000" lon="-1.0553680000"><ele>262</ele><time>2026-04-07T10:32:38Z</time></trkpt>
<trkpt lat="43.2818670000" lon="-1.0554120000"><ele>261</ele><time>2026-04-07T10:32:40Z</time></trkpt>
<trkpt lat="43.2818620000" lon="-1.0554420000"><ele>261</ele><time>2026-04-07T10:32:42Z</time></trkpt>
<trkpt lat="43.2818600000" lon="-1.0554670000"><ele>261</ele><time>2026-04-07T10:32:43Z</time></trkpt>
<trkpt lat="43.2818520000" lon="-1.0555020000"><ele>261</ele><time>2026-04-07T10:32:45Z</time></trkpt>
<trkpt lat="43.2818570000" lon="-1.0555330000"><ele>260</ele><time>2026-04-07T10:32:47Z</time></trkpt>
<trkpt lat="43.2818650000" lon="-1.0555720000"><ele>260</ele><time>2026-04-07T10:32:49Z</time></trkpt>
<trkpt lat="43.2818670000" lon="-1.0556070000"><ele>260</ele><time>2026-04-07T10:32:51Z</time></trkpt>
<trkpt lat="43.2818700000" lon="-1.0556380000"><ele>260</ele><time>2026-04-07T10:32:53Z</time></trkpt>
<trkpt lat="43.2818770000" lon="-1.0556670000"><ele>260</ele><time>2026-04-07T10:32:55Z</time></trkpt>
<trkpt lat="43.2818870000" lon="-1.0557050000"><ele>260</ele><time>2026-04-07T10:32:57Z</time></trkpt>
<trkpt lat="43.2818870000" lon="-1.0557320000"><ele>260</ele><time>2026-04-07T10:32:59Z</time></trkpt>
<trkpt lat="43.2818920000" lon="-1.0557580000"><ele>260</ele><time>2026-04-07T10:33:01Z</time></trkpt>
<trkpt lat="43.2819000000" lon="-1.0557850000"><ele>259</ele><time>2026-04-07T10:33:03Z</time></trkpt>
<trkpt lat="43.2819120000" lon="-1.0558170000"><ele>259</ele><time>2026-04-07T10:33:05Z</time></trkpt>
<trkpt lat="43.2819170000" lon="-1.0558450000"><ele>259</ele><time>2026-04-07T10:33:07Z</time></trkpt>
<trkpt lat="43.2819170000" lon="-1.0558770000"><ele>259</ele><time>2026-04-07T10:33:10Z</time></trkpt>
<trkpt lat="43.2819220000" lon="-1.0559170000"><ele>258</ele><time>2026-04-07T10:33:13Z</time></trkpt>
<trkpt lat="43.2819270000" lon="-1.0559550000"><ele>258</ele><time>2026-04-07T10:33:15Z</time></trkpt>
<trkpt lat="43.2819330000" lon="-1.0559820000"><ele>258</ele><time>2026-04-07T10:33:17Z</time></trkpt>
<trkpt lat="43.2819330000" lon="-1.0560120000"><ele>258</ele><time>2026-04-07T10:33:19Z</time></trkpt>
<trkpt lat="43.2819420000" lon="-1.0560370000"><ele>258</ele><time>2026-04-07T10:33:21Z</time></trkpt>
<trkpt lat="43.2819500000" lon="-1.0560620000"><ele>258</ele><time>2026-04-07T10:33:23Z</time></trkpt>
<trkpt lat="43.2819520000" lon="-1.0560870000"><ele>258</ele><time>2026-04-07T10:33:25Z</time></trkpt>
<trkpt lat="43.2819500000" lon="-1.0561220000"><ele>257</ele><time>2026-04-07T10:33:27Z</time></trkpt>
<trkpt lat="43.2819600000" lon="-1.0561570000"><ele>257</ele><time>2026-04-07T10:33:29Z</time></trkpt>
<trkpt lat="43.2819670000" lon="-1.0561870000"><ele>257</ele><time>2026-04-07T10:33:31Z</time></trkpt>
<trkpt lat="43.2819850000" lon="-1.0562070000"><ele>257</ele><time>2026-04-07T10:33:33Z</time></trkpt>
<trkpt lat="43.2819970000" lon="-1.0562450000"><ele>256</ele><time>2026-04-07T10:33:36Z</time></trkpt>
<trkpt lat="43.2820070000" lon="-1.0562720000"><ele>256</ele><time>2026-04-07T10:33:38Z</time></trkpt>
<trkpt lat="43.2820200000" lon="-1.0562920000"><ele>256</ele><time>2026-04-07T10:33:40Z</time></trkpt>
<trkpt lat="43.2820220000" lon="-1.0563270000"><ele>255</ele><time>2026-04-07T10:33:43Z</time></trkpt>
<trkpt lat="43.2820270000" lon="-1.0563650000"><ele>255</ele><time>2026-04-07T10:33:45Z</time></trkpt>
<trkpt lat="43.2820370000" lon="-1.0563880000"><ele>255</ele><time>2026-04-07T10:33:47Z</time></trkpt>
<trkpt lat="43.2820470000" lon="-1.0564220000"><ele>254</ele><time>2026-04-07T10:33:49Z</time></trkpt>
<trkpt lat="43.2820620000" lon="-1.0564520000"><ele>254</ele><time>2026-04-07T10:33:52Z</time></trkpt>
<trkpt lat="43.2820750000" lon="-1.0564770000"><ele>254</ele><time>2026-04-07T10:33:54Z</time></trkpt>
<trkpt lat="43.2820880000" lon="-1.0565070000"><ele>254</ele><time>2026-04-07T10:33:56Z</time></trkpt>
<trkpt lat="43.2820870000" lon="-1.0565420000"><ele>253</ele><time>2026-04-07T10:33:58Z</time></trkpt>
<trkpt lat="43.2820850000" lon="-1.0565820000"><ele>253</ele><time>2026-04-07T10:34:00Z</time></trkpt>
<trkpt lat="43.2820870000" lon="-1.0566170000"><ele>253</ele><time>2026-04-07T10:34:02Z</time></trkpt>
<trkpt lat="43.2820880000" lon="-1.0566570000"><ele>252</ele><time>2026-04-07T10:34:04Z</time></trkpt>
<trkpt lat="43.2820880000" lon="-1.0567030000"><ele>252</ele><time>2026-04-07T10:34:06Z</time></trkpt>
<trkpt lat="43.2820920000" lon="-1.0567430000"><ele>251</ele><time>2026-04-07T10:34:08Z</time></trkpt>
<trkpt lat="43.2821000000" lon="-1.0567770000"><ele>251</ele><time>2026-04-07T10:34:10Z</time></trkpt>
<trkpt lat="43.2821050000" lon="-1.0568050000"><ele>251</ele><time>2026-04-07T10:34:12Z</time></trkpt>
<trkpt lat="43.2821120000" lon="-1.0568330000"><ele>250</ele><time>2026-04-07T10:34:14Z</time></trkpt>
<trkpt lat="43.2821170000" lon="-1.0568620000"><ele>250</ele><time>2026-04-07T10:34:16Z</time></trkpt>
<trkpt lat="43.2821200000" lon="-1.0568920000"><ele>250</ele><time>2026-04-07T10:34:18Z</time></trkpt>
<trkpt lat="43.2821300000" lon="-1.0569320000"><ele>249</ele><time>2026-04-07T10:34:20Z</time></trkpt>
<trkpt lat="43.2821420000" lon="-1.0569570000"><ele>249</ele><time>2026-04-07T10:34:22Z</time></trkpt>
<trkpt lat="43.2821570000" lon="-1.0569820000"><ele>249</ele><time>2026-04-07T10:34:24Z</time></trkpt>
<trkpt lat="43.2821670000" lon="-1.0570070000"><ele>248</ele><time>2026-04-07T10:34:26Z</time></trkpt>
<trkpt lat="43.2821720000" lon="-1.0570350000"><ele>248</ele><time>2026-04-07T10:34:28Z</time></trkpt>
<trkpt lat="43.2821770000" lon="-1.0570680000"><ele>247</ele><time>2026-04-07T10:34:30Z</time></trkpt>
<trkpt lat="43.2821800000" lon="-1.0570950000"><ele>247</ele><time>2026-04-07T10:34:32Z</time></trkpt>
<trkpt lat="43.2821720000" lon="-1.0571170000"><ele>247</ele><time>2026-04-07T10:34:34Z</time></trkpt>
<trkpt lat="43.2821670000" lon="-1.0570920000"><ele>246</ele><time>2026-04-07T10:34:42Z</time></trkpt>
<trkpt lat="43.2821820000" lon="-1.0571070000"><ele>246</ele><time>2026-04-07T10:34:53Z</time></trkpt>
<trkpt lat="43.2821950000" lon="-1.0571450000"><ele>246</ele><time>2026-04-07T10:34:55Z</time></trkpt>
<trkpt lat="43.2822070000" lon="-1.0571920000"><ele>246</ele><time>2026-04-07T10:34:57Z</time></trkpt>
<trkpt lat="43.2822150000" lon="-1.0572150000"><ele>246</ele><time>2026-04-07T10:34:58Z</time></trkpt>
<trkpt lat="43.2822320000" lon="-1.0572470000"><ele>246</ele><time>2026-04-07T10:35:00Z</time></trkpt>
<trkpt lat="43.2822420000" lon="-1.0572700000"><ele>245</ele><time>2026-04-07T10:35:02Z</time></trkpt>
<trkpt lat="43.2822520000" lon="-1.0572920000"><ele>245</ele><time>2026-04-07T10:35:06Z</time></trkpt>
<trkpt lat="43.2822600000" lon="-1.0573250000"><ele>245</ele><time>2026-04-07T10:35:09Z</time></trkpt>
<trkpt lat="43.2822620000" lon="-1.0573670000"><ele>244</ele><time>2026-04-07T10:35:11Z</time></trkpt>
<trkpt lat="43.2822620000" lon="-1.0574100000"><ele>244</ele><time>2026-04-07T10:35:13Z</time></trkpt>
<trkpt lat="43.2822650000" lon="-1.0574470000"><ele>243</ele><time>2026-04-07T10:35:15Z</time></trkpt>
<trkpt lat="43.2822670000" lon="-1.0574770000"><ele>243</ele><time>2026-04-07T10:35:17Z</time></trkpt>
<trkpt lat="43.2822670000" lon="-1.0575080000"><ele>242</ele><time>2026-04-07T10:35:20Z</time></trkpt>
<trkpt lat="43.2822720000" lon="-1.0575400000"><ele>242</ele><time>2026-04-07T10:35:22Z</time></trkpt>
<trkpt lat="43.2822820000" lon="-1.0575670000"><ele>242</ele><time>2026-04-07T10:35:24Z</time></trkpt>
<trkpt lat="43.2822920000" lon="-1.0575970000"><ele>241</ele><time>2026-04-07T10:35:26Z</time></trkpt>
<trkpt lat="43.2823000000" lon="-1.0576270000"><ele>241</ele><time>2026-04-07T10:35:28Z</time></trkpt>
<trkpt lat="43.2823020000" lon="-1.0576520000"><ele>241</ele><time>2026-04-07T10:35:30Z</time></trkpt>
<trkpt lat="43.2823120000" lon="-1.0576850000"><ele>240</ele><time>2026-04-07T10:35:32Z</time></trkpt>
<trkpt lat="43.2823200000" lon="-1.0577170000"><ele>240</ele><time>2026-04-07T10:35:34Z</time></trkpt>
<trkpt lat="43.2823270000" lon="-1.0577470000"><ele>240</ele><time>2026-04-07T10:35:36Z</time></trkpt>
<trkpt lat="43.2823370000" lon="-1.0577770000"><ele>240</ele><time>2026-04-07T10:35:38Z</time></trkpt>
<trkpt lat="43.2823470000" lon="-1.0578020000"><ele>240</ele><time>2026-04-07T10:35:40Z</time></trkpt>
<trkpt lat="43.2823570000" lon="-1.0578350000"><ele>240</ele><time>2026-04-07T10:35:42Z</time></trkpt>
<trkpt lat="43.2823670000" lon="-1.0578650000"><ele>240</ele><time>2026-04-07T10:35:44Z</time></trkpt>
<trkpt lat="43.2823670000" lon="-1.0578900000"><ele>239</ele><time>2026-04-07T10:35:50Z</time></trkpt>
<trkpt lat="43.2823800000" lon="-1.0579170000"><ele>239</ele><time>2026-04-07T10:35:52Z</time></trkpt>
<trkpt lat="43.2823920000" lon="-1.0579320000"><ele>239</ele><time>2026-04-07T10:35:53Z</time></trkpt>
<trkpt lat="43.2824000000" lon="-1.0579670000"><ele>239</ele><time>2026-04-07T10:35:55Z</time></trkpt>
<trkpt lat="43.2824020000" lon="-1.0580070000"><ele>238</ele><time>2026-04-07T10:35:57Z</time></trkpt>
<trkpt lat="43.2824020000" lon="-1.0580370000"><ele>238</ele><time>2026-04-07T10:36:00Z</time></trkpt>
<trkpt lat="43.2824000000" lon="-1.0580620000"><ele>238</ele><time>2026-04-07T10:36:02Z</time></trkpt>
<trkpt lat="43.2824120000" lon="-1.0580970000"><ele>237</ele><time>2026-04-07T10:36:05Z</time></trkpt>
<trkpt lat="43.2824270000" lon="-1.0581320000"><ele>237</ele><time>2026-04-07T10:36:07Z</time></trkpt>
<trkpt lat="43.2824320000" lon="-1.0581620000"><ele>237</ele><time>2026-04-07T10:36:09Z</time></trkpt>
<trkpt lat="43.2824370000" lon="-1.0581920000"><ele>237</ele><time>2026-04-07T10:36:11Z</time></trkpt>
<trkpt lat="43.2824370000" lon="-1.0582170000"><ele>236</ele><time>2026-04-07T10:36:13Z</time></trkpt>
<trkpt lat="43.2824300000" lon="-1.0582500000"><ele>236</ele><time>2026-04-07T10:36:15Z</time></trkpt>
<trkpt lat="43.2824270000" lon="-1.0582800000"><ele>236</ele><time>2026-04-07T10:36:17Z</time></trkpt>
<trkpt lat="43.2824270000" lon="-1.0583120000"><ele>237</ele><time>2026-04-07T10:36:20Z</time></trkpt>
<trkpt lat="43.2824120000" lon="-1.0583520000"><ele>237</ele><time>2026-04-07T10:36:23Z</time></trkpt>
<trkpt lat="43.2824020000" lon="-1.0583820000"><ele>237</ele><time>2026-04-07T10:36:25Z</time></trkpt>
<trkpt lat="43.2823900000" lon="-1.0584070000"><ele>237</ele><time>2026-04-07T10:36:27Z</time></trkpt>
<trkpt lat="43.2823920000" lon="-1.0584400000"><ele>237</ele><time>2026-04-07T10:36:32Z</time></trkpt>
<trkpt lat="43.2824000000" lon="-1.0584750000"><ele>237</ele><time>2026-04-07T10:36:34Z</time></trkpt>
<trkpt lat="43.2823950000" lon="-1.0585120000"><ele>237</ele><time>2026-04-07T10:36:36Z</time></trkpt>
<trkpt lat="43.2823970000" lon="-1.0585450000"><ele>237</ele><time>2026-04-07T10:36:38Z</time></trkpt>
<trkpt lat="43.2823920000" lon="-1.0585770000"><ele>237</ele><time>2026-04-07T10:36:40Z</time></trkpt>
<trkpt lat="43.2823870000" lon="-1.0586050000"><ele>237</ele><time>2026-04-07T10:36:43Z</time></trkpt>
<trkpt lat="43.2823700000" lon="-1.0586330000"><ele>238</ele><time>2026-04-07T10:36:45Z</time></trkpt>
<trkpt lat="43.2823620000" lon="-1.0586670000"><ele>238</ele><time>2026-04-07T10:36:47Z</time></trkpt>
<trkpt lat="43.2823570000" lon="-1.0587020000"><ele>238</ele><time>2026-04-07T10:36:49Z</time></trkpt>
<trkpt lat="43.2823520000" lon="-1.0587280000"><ele>238</ele><time>2026-04-07T10:36:51Z</time></trkpt>
<trkpt lat="43.2823520000" lon="-1.0587570000"><ele>238</ele><time>2026-04-07T10:36:53Z</time></trkpt>
<trkpt lat="43.2823450000" lon="-1.0587970000"><ele>238</ele><time>2026-04-07T10:36:56Z</time></trkpt>
<trkpt lat="43.2823470000" lon="-1.0588220000"><ele>238</ele><time>2026-04-07T10:36:57Z</time></trkpt>
<trkpt lat="43.2823420000" lon="-1.0588470000"><ele>238</ele><time>2026-04-07T10:36:58Z</time></trkpt>
<trkpt lat="43.2823320000" lon="-1.0588800000"><ele>238</ele><time>2026-04-07T10:37:00Z</time></trkpt>
<trkpt lat="43.2823220000" lon="-1.0589120000"><ele>237</ele><time>2026-04-07T10:37:03Z</time></trkpt>
<trkpt lat="43.2823170000" lon="-1.0589420000"><ele>238</ele><time>2026-04-07T10:37:05Z</time></trkpt>
<trkpt lat="43.2823130000" lon="-1.0589720000"><ele>238</ele><time>2026-04-07T10:37:07Z</time></trkpt>
<trkpt lat="43.2823000000" lon="-1.0590020000"><ele>238</ele><time>2026-04-07T10:37:09Z</time></trkpt>
<trkpt lat="43.2822950000" lon="-1.0590300000"><ele>238</ele><time>2026-04-07T10:37:11Z</time></trkpt>
<trkpt lat="43.2822900000" lon="-1.0590550000"><ele>238</ele><time>2026-04-07T10:37:13Z</time></trkpt>
<trkpt lat="43.2822720000" lon="-1.0590820000"><ele>238</ele><time>2026-04-07T10:37:17Z</time></trkpt>
<trkpt lat="43.2822570000" lon="-1.0591070000"><ele>238</ele><time>2026-04-07T10:37:19Z</time></trkpt>
<trkpt lat="43.2822470000" lon="-1.0591330000"><ele>238</ele><time>2026-04-07T10:37:21Z</time></trkpt>
<trkpt lat="43.2822370000" lon="-1.0591670000"><ele>238</ele><time>2026-04-07T10:37:23Z</time></trkpt>
<trkpt lat="43.2822280000" lon="-1.0591900000"><ele>238</ele><time>2026-04-07T10:37:25Z</time></trkpt>
<trkpt lat="43.2822270000" lon="-1.0592250000"><ele>238</ele><time>2026-04-07T10:37:27Z</time></trkpt>
<trkpt lat="43.2822270000" lon="-1.0592550000"><ele>238</ele><time>2026-04-07T10:37:29Z</time></trkpt>
<trkpt lat="43.2822200000" lon="-1.0592870000"><ele>238</ele><time>2026-04-07T10:37:31Z</time></trkpt>
<trkpt lat="43.2822020000" lon="-1.0593070000"><ele>238</ele><time>2026-04-07T10:37:34Z</time></trkpt>
<trkpt lat="43.2821850000" lon="-1.0593270000"><ele>238</ele><time>2026-04-07T10:37:35Z</time></trkpt>
<trkpt lat="43.2821800000" lon="-1.0593000000"><ele>238</ele><time>2026-04-07T10:37:44Z</time></trkpt>
<trkpt lat="43.2821870000" lon="-1.0593220000"><ele>238</ele><time>2026-04-07T10:38:03Z</time></trkpt>
<trkpt lat="43.2821950000" lon="-1.0593570000"><ele>238</ele><time>2026-04-07T10:38:04Z</time></trkpt>
<trkpt lat="43.2822020000" lon="-1.0594020000"><ele>238</ele><time>2026-04-07T10:38:05Z</time></trkpt>
<trkpt lat="43.2822050000" lon="-1.0594420000"><ele>238</ele><time>2026-04-07T10:38:06Z</time></trkpt>
<trkpt lat="43.2821970000" lon="-1.0594750000"><ele>238</ele><time>2026-04-07T10:38:07Z</time></trkpt>
<trkpt lat="43.2821850000" lon="-1.0595000000"><ele>238</ele><time>2026-04-07T10:38:08Z</time></trkpt>
<trkpt lat="43.2821650000" lon="-1.0595300000"><ele>238</ele><time>2026-04-07T10:38:10Z</time></trkpt>
<trkpt lat="43.2821470000" lon="-1.0595520000"><ele>237</ele><time>2026-04-07T10:38:12Z</time></trkpt>
<trkpt lat="43.2821370000" lon="-1.0595770000"><ele>237</ele><time>2026-04-07T10:38:14Z</time></trkpt>
<trkpt lat="43.2821300000" lon="-1.0596020000"><ele>237</ele><time>2026-04-07T10:38:17Z</time></trkpt>
<trkpt lat="43.2821100000" lon="-1.0596180000"><ele>237</ele><time>2026-04-07T10:38:20Z</time></trkpt>
<trkpt lat="43.2821000000" lon="-1.0596420000"><ele>236</ele><time>2026-04-07T10:38:23Z</time></trkpt>
<trkpt lat="43.2820920000" lon="-1.0596770000"><ele>236</ele><time>2026-04-07T10:38:26Z</time></trkpt>
<trkpt lat="43.2820920000" lon="-1.0597070000"><ele>236</ele><time>2026-04-07T10:38:28Z</time></trkpt>
<trkpt lat="43.2820820000" lon="-1.0597370000"><ele>235</ele><time>2026-04-07T10:38:30Z</time></trkpt>
<trkpt lat="43.2820720000" lon="-1.0597670000"><ele>235</ele><time>2026-04-07T10:38:32Z</time></trkpt>
<trkpt lat="43.2820600000" lon="-1.0597970000"><ele>234</ele><time>2026-04-07T10:38:34Z</time></trkpt>
<trkpt lat="43.2820570000" lon="-1.0598220000"><ele>234</ele><time>2026-04-07T10:38:37Z</time></trkpt>
<trkpt lat="43.2820500000" lon="-1.0598570000"><ele>233</ele><time>2026-04-07T10:38:40Z</time></trkpt>
<trkpt lat="43.2820450000" lon="-1.0598820000"><ele>233</ele><time>2026-04-07T10:38:42Z</time></trkpt>
<trkpt lat="43.2820270000" lon="-1.0599070000"><ele>233</ele><time>2026-04-07T10:38:44Z</time></trkpt>
<trkpt lat="43.2820120000" lon="-1.0599280000"><ele>232</ele><time>2026-04-07T10:38:46Z</time></trkpt>
<trkpt lat="43.2819950000" lon="-1.0599500000"><ele>232</ele><time>2026-04-07T10:38:48Z</time></trkpt>
<trkpt lat="43.2819800000" lon="-1.0599650000"><ele>231</ele><time>2026-04-07T10:38:50Z</time></trkpt>
<trkpt lat="43.2819620000" lon="-1.0599870000"><ele>231</ele><time>2026-04-07T10:38:52Z</time></trkpt>
<trkpt lat="43.2819550000" lon="-1.0600150000"><ele>231</ele><time>2026-04-07T10:38:54Z</time></trkpt>
<trkpt lat="43.2819470000" lon="-1.0600520000"><ele>230</ele><time>2026-04-07T10:38:57Z</time></trkpt>
<trkpt lat="43.2819370000" lon="-1.0600870000"><ele>230</ele><time>2026-04-07T10:38:59Z</time></trkpt>
<trkpt lat="43.2819200000" lon="-1.0601220000"><ele>230</ele><time>2026-04-07T10:39:01Z</time></trkpt>
<trkpt lat="43.2819070000" lon="-1.0601570000"><ele>229</ele><time>2026-04-07T10:39:03Z</time></trkpt>
<trkpt lat="43.2818920000" lon="-1.0601920000"><ele>229</ele><time>2026-04-07T10:39:05Z</time></trkpt>
<trkpt lat="43.2818870000" lon="-1.0602220000"><ele>228</ele><time>2026-04-07T10:39:07Z</time></trkpt>
<trkpt lat="43.2818770000" lon="-1.0602570000"><ele>228</ele><time>2026-04-07T10:39:09Z</time></trkpt>
<trkpt lat="43.2818670000" lon="-1.0602820000"><ele>227</ele><time>2026-04-07T10:39:11Z</time></trkpt>
<trkpt lat="43.2818650000" lon="-1.0603120000"><ele>227</ele><time>2026-04-07T10:39:14Z</time></trkpt>
<trkpt lat="43.2818620000" lon="-1.0603370000"><ele>226</ele><time>2026-04-07T10:39:16Z</time></trkpt>
<trkpt lat="43.2818550000" lon="-1.0603700000"><ele>226</ele><time>2026-04-07T10:39:18Z</time></trkpt>
<trkpt lat="43.2818520000" lon="-1.0603970000"><ele>225</ele><time>2026-04-07T10:39:20Z</time></trkpt>
<trkpt lat="43.2818470000" lon="-1.0604270000"><ele>225</ele><time>2026-04-07T10:39:23Z</time></trkpt>
<trkpt lat="43.2818400000" lon="-1.0604570000"><ele>224</ele><time>2026-04-07T10:39:26Z</time></trkpt>
<trkpt lat="43.2818320000" lon="-1.0604820000"><ele>224</ele><time>2026-04-07T10:39:28Z</time></trkpt>
<trkpt lat="43.2818270000" lon="-1.0605070000"><ele>223</ele><time>2026-04-07T10:39:30Z</time></trkpt>
<trkpt lat="43.2818200000" lon="-1.0605350000"><ele>223</ele><time>2026-04-07T10:39:32Z</time></trkpt>
<trkpt lat="43.2818100000" lon="-1.0605620000"><ele>222</ele><time>2026-04-07T10:39:34Z</time></trkpt>
<trkpt lat="43.2818020000" lon="-1.0605870000"><ele>222</ele><time>2026-04-07T10:39:36Z</time></trkpt>
<trkpt lat="43.2817920000" lon="-1.0606120000"><ele>221</ele><time>2026-04-07T10:39:38Z</time></trkpt>
<trkpt lat="43.2817870000" lon="-1.0606400000"><ele>221</ele><time>2026-04-07T10:39:40Z</time></trkpt>
<trkpt lat="43.2817780000" lon="-1.0606650000"><ele>221</ele><time>2026-04-07T10:39:42Z</time></trkpt>
<trkpt lat="43.2817770000" lon="-1.0606900000"><ele>220</ele><time>2026-04-07T10:39:44Z</time></trkpt>
<trkpt lat="43.2817650000" lon="-1.0607120000"><ele>220</ele><time>2026-04-07T10:39:46Z</time></trkpt>
<trkpt lat="43.2817550000" lon="-1.0607470000"><ele>219</ele><time>2026-04-07T10:39:49Z</time></trkpt>
<trkpt lat="43.2817520000" lon="-1.0607750000"><ele>218</ele><time>2026-04-07T10:39:51Z</time></trkpt>
<trkpt lat="43.2817470000" lon="-1.0608050000"><ele>218</ele><time>2026-04-07T10:39:53Z</time></trkpt>
<trkpt lat="43.2817420000" lon="-1.0608320000"><ele>218</ele><time>2026-04-07T10:39:55Z</time></trkpt>
<trkpt lat="43.2817350000" lon="-1.0608550000"><ele>217</ele><time>2026-04-07T10:39:57Z</time></trkpt>
<trkpt lat="43.2817270000" lon="-1.0608870000"><ele>217</ele><time>2026-04-07T10:40:00Z</time></trkpt>
<trkpt lat="43.2817200000" lon="-1.0609120000"><ele>216</ele><time>2026-04-07T10:40:02Z</time></trkpt>
<trkpt lat="43.2817020000" lon="-1.0609420000"><ele>215</ele><time>2026-04-07T10:40:05Z</time></trkpt>
<trkpt lat="43.2816900000" lon="-1.0609680000"><ele>215</ele><time>2026-04-07T10:40:08Z</time></trkpt>
<trkpt lat="43.2816720000" lon="-1.0610020000"><ele>214</ele><time>2026-04-07T10:40:11Z</time></trkpt>
<trkpt lat="43.2816670000" lon="-1.0610370000"><ele>214</ele><time>2026-04-07T10:40:13Z</time></trkpt>
<trkpt lat="43.2816570000" lon="-1.0610720000"><ele>213</ele><time>2026-04-07T10:40:15Z</time></trkpt>
<trkpt lat="43.2816520000" lon="-1.0611070000"><ele>213</ele><time>2026-04-07T10:40:17Z</time></trkpt>
<trkpt lat="43.2816420000" lon="-1.0611430000"><ele>212</ele><time>2026-04-07T10:40:19Z</time></trkpt>
<trkpt lat="43.2816350000" lon="-1.0611770000"><ele>212</ele><time>2026-04-07T10:40:21Z</time></trkpt>
<trkpt lat="43.2816300000" lon="-1.0612050000"><ele>212</ele><time>2026-04-07T10:40:23Z</time></trkpt>
<trkpt lat="43.2816220000" lon="-1.0612370000"><ele>211</ele><time>2026-04-07T10:40:26Z</time></trkpt>
<trkpt lat="43.2816220000" lon="-1.0612670000"><ele>210</ele><time>2026-04-07T10:40:29Z</time></trkpt>
<trkpt lat="43.2816170000" lon="-1.0612970000"><ele>210</ele><time>2026-04-07T10:40:32Z</time></trkpt>
<trkpt lat="43.2816120000" lon="-1.0613300000"><ele>210</ele><time>2026-04-07T10:40:34Z</time></trkpt>
<trkpt lat="43.2816120000" lon="-1.0613630000"><ele>209</ele><time>2026-04-07T10:40:36Z</time></trkpt>
<trkpt lat="43.2816000000" lon="-1.0613970000"><ele>209</ele><time>2026-04-07T10:40:38Z</time></trkpt>
<trkpt lat="43.2815870000" lon="-1.0614170000"><ele>208</ele><time>2026-04-07T10:40:40Z</time></trkpt>
<trkpt lat="43.2815750000" lon="-1.0614450000"><ele>208</ele><time>2026-04-07T10:40:43Z</time></trkpt>
<trkpt lat="43.2815600000" lon="-1.0614720000"><ele>207</ele><time>2026-04-07T10:40:45Z</time></trkpt>
<trkpt lat="43.2815470000" lon="-1.0615000000"><ele>207</ele><time>2026-04-07T10:40:47Z</time></trkpt>
<trkpt lat="43.2815370000" lon="-1.0615270000"><ele>206</ele><time>2026-04-07T10:40:49Z</time></trkpt>
<trkpt lat="43.2815320000" lon="-1.0615620000"><ele>206</ele><time>2026-04-07T10:40:51Z</time></trkpt>
<trkpt lat="43.2815270000" lon="-1.0615950000"><ele>206</ele><time>2026-04-07T10:40:53Z</time></trkpt>
<trkpt lat="43.2815150000" lon="-1.0616120000"><ele>205</ele><time>2026-04-07T10:40:55Z</time></trkpt>
<trkpt lat="43.2815020000" lon="-1.0616420000"><ele>205</ele><time>2026-04-07T10:40:57Z</time></trkpt>
<trkpt lat="43.2814870000" lon="-1.0616650000"><ele>204</ele><time>2026-04-07T10:40:59Z</time></trkpt>
<trkpt lat="43.2814720000" lon="-1.0616900000"><ele>204</ele><time>2026-04-07T10:41:01Z</time></trkpt>
<trkpt lat="43.2814650000" lon="-1.0617150000"><ele>203</ele><time>2026-04-07T10:41:03Z</time></trkpt>
<trkpt lat="43.2814600000" lon="-1.0617420000"><ele>203</ele><time>2026-04-07T10:41:05Z</time></trkpt>
<trkpt lat="43.2814520000" lon="-1.0617670000"><ele>202</ele><time>2026-04-07T10:41:07Z</time></trkpt>
<trkpt lat="43.2814420000" lon="-1.0617970000"><ele>202</ele><time>2026-04-07T10:41:09Z</time></trkpt>
<trkpt lat="43.2814320000" lon="-1.0618220000"><ele>201</ele><time>2026-04-07T10:41:11Z</time></trkpt>
<trkpt lat="43.2814220000" lon="-1.0618550000"><ele>201</ele><time>2026-04-07T10:41:14Z</time></trkpt>
<trkpt lat="43.2814150000" lon="-1.0618770000"><ele>200</ele><time>2026-04-07T10:41:16Z</time></trkpt>
<trkpt lat="43.2814050000" lon="-1.0619050000"><ele>200</ele><time>2026-04-07T10:41:18Z</time></trkpt>
<trkpt lat="43.2813970000" lon="-1.0619320000"><ele>200</ele><time>2026-04-07T10:41:20Z</time></trkpt>
<trkpt lat="43.2813900000" lon="-1.0619620000"><ele>199</ele><time>2026-04-07T10:41:22Z</time></trkpt>
<trkpt lat="43.2813900000" lon="-1.0619920000"><ele>199</ele><time>2026-04-07T10:41:24Z</time></trkpt>
<trkpt lat="43.2813770000" lon="-1.0620120000"><ele>198</ele><time>2026-04-07T10:41:26Z</time></trkpt>
<trkpt lat="43.2813670000" lon="-1.0620420000"><ele>198</ele><time>2026-04-07T10:41:28Z</time></trkpt>
<trkpt lat="43.2813620000" lon="-1.0620670000"><ele>198</ele><time>2026-04-07T10:41:30Z</time></trkpt>
<trkpt lat="43.2813570000" lon="-1.0620970000"><ele>197</ele><time>2026-04-07T10:41:32Z</time></trkpt>
<trkpt lat="43.2813420000" lon="-1.0621170000"><ele>197</ele><time>2026-04-07T10:41:34Z</time></trkpt>
<trkpt lat="43.2813270000" lon="-1.0621370000"><ele>196</ele><time>2026-04-07T10:41:36Z</time></trkpt>
<trkpt lat="43.2813120000" lon="-1.0621750000"><ele>196</ele><time>2026-04-07T10:41:39Z</time></trkpt>
<trkpt lat="43.2813000000" lon="-1.0622000000"><ele>195</ele><time>2026-04-07T10:41:41Z</time></trkpt>
<trkpt lat="43.2812900000" lon="-1.0622320000"><ele>195</ele><time>2026-04-07T10:41:43Z</time></trkpt>
<trkpt lat="43.2812770000" lon="-1.0622570000"><ele>194</ele><time>2026-04-07T10:41:45Z</time></trkpt>
<trkpt lat="43.2812700000" lon="-1.0622820000"><ele>194</ele><time>2026-04-07T10:41:47Z</time></trkpt>
<trkpt lat="43.2812600000" lon="-1.0623020000"><ele>194</ele><time>2026-04-07T10:41:49Z</time></trkpt>
<trkpt lat="43.2812420000" lon="-1.0623270000"><ele>193</ele><time>2026-04-07T10:41:51Z</time></trkpt>
<trkpt lat="43.2812320000" lon="-1.0623470000"><ele>193</ele><time>2026-04-07T10:41:53Z</time></trkpt>
<trkpt lat="43.2812170000" lon="-1.0623720000"><ele>193</ele><time>2026-04-07T10:41:55Z</time></trkpt>
<trkpt lat="43.2812050000" lon="-1.0623970000"><ele>192</ele><time>2026-04-07T10:41:57Z</time></trkpt>
<trkpt lat="43.2811920000" lon="-1.0624220000"><ele>192</ele><time>2026-04-07T10:41:59Z</time></trkpt>
<trkpt lat="43.2811870000" lon="-1.0624470000"><ele>191</ele><time>2026-04-07T10:42:01Z</time></trkpt>
<trkpt lat="43.2811800000" lon="-1.0624720000"><ele>191</ele><time>2026-04-07T10:42:03Z</time></trkpt>
<trkpt lat="43.2811720000" lon="-1.0625000000"><ele>191</ele><time>2026-04-07T10:42:05Z</time></trkpt>
<trkpt lat="43.2811600000" lon="-1.0625270000"><ele>190</ele><time>2026-04-07T10:42:07Z</time></trkpt>
<trkpt lat="43.2811470000" lon="-1.0625520000"><ele>190</ele><time>2026-04-07T10:42:09Z</time></trkpt>
<trkpt lat="43.2811350000" lon="-1.0625720000"><ele>189</ele><time>2026-04-07T10:42:11Z</time></trkpt>
<trkpt lat="43.2811220000" lon="-1.0626000000"><ele>189</ele><time>2026-04-07T10:42:13Z</time></trkpt>
<trkpt lat="43.2811070000" lon="-1.0626320000"><ele>189</ele><time>2026-04-07T10:42:16Z</time></trkpt>
<trkpt lat="43.2811000000" lon="-1.0626570000"><ele>188</ele><time>2026-04-07T10:42:18Z</time></trkpt>
<trkpt lat="43.2810920000" lon="-1.0626820000"><ele>188</ele><time>2026-04-07T10:42:20Z</time></trkpt>
<trkpt lat="43.2810800000" lon="-1.0627080000"><ele>188</ele><time>2026-04-07T10:42:22Z</time></trkpt>
<trkpt lat="43.2810670000" lon="-1.0627370000"><ele>187</ele><time>2026-04-07T10:42:24Z</time></trkpt>
<trkpt lat="43.2810570000" lon="-1.0627580000"><ele>187</ele><time>2026-04-07T10:42:26Z</time></trkpt>
<trkpt lat="43.2810420000" lon="-1.0627820000"><ele>187</ele><time>2026-04-07T10:42:28Z</time></trkpt>
<trkpt lat="43.2810270000" lon="-1.0627980000"><ele>186</ele><time>2026-04-07T10:42:30Z</time></trkpt>
<trkpt lat="43.2810100000" lon="-1.0628170000"><ele>186</ele><time>2026-04-07T10:42:32Z</time></trkpt>
<trkpt lat="43.2809970000" lon="-1.0628420000"><ele>185</ele><time>2026-04-07T10:42:34Z</time></trkpt>
<trkpt lat="43.2809820000" lon="-1.0628550000"><ele>185</ele><time>2026-04-07T10:42:36Z</time></trkpt>
<trkpt lat="43.2809620000" lon="-1.0628700000"><ele>185</ele><time>2026-04-07T10:42:38Z</time></trkpt>
<trkpt lat="43.2809400000" lon="-1.0628800000"><ele>184</ele><time>2026-04-07T10:42:40Z</time></trkpt>
<trkpt lat="43.2809220000" lon="-1.0628930000"><ele>184</ele><time>2026-04-07T10:42:42Z</time></trkpt>
<trkpt lat="43.2809170000" lon="-1.0629220000"><ele>184</ele><time>2026-04-07T10:42:44Z</time></trkpt>
<trkpt lat="43.2809020000" lon="-1.0629520000"><ele>183</ele><time>2026-04-07T10:42:46Z</time></trkpt>
<trkpt lat="43.2808870000" lon="-1.0629930000"><ele>183</ele><time>2026-04-07T10:42:48Z</time></trkpt>
<trkpt lat="43.2808720000" lon="-1.0630250000"><ele>183</ele><time>2026-04-07T10:42:50Z</time></trkpt>
<trkpt lat="43.2808570000" lon="-1.0630500000"><ele>183</ele><time>2026-04-07T10:42:52Z</time></trkpt>
<trkpt lat="43.2808470000" lon="-1.0630720000"><ele>183</ele><time>2026-04-07T10:42:54Z</time></trkpt>
<trkpt lat="43.2808370000" lon="-1.0631020000"><ele>182</ele><time>2026-04-07T10:42:56Z</time></trkpt>
<trkpt lat="43.2808120000" lon="-1.0631170000"><ele>182</ele><time>2026-04-07T10:42:58Z</time></trkpt>
<trkpt lat="43.2807820000" lon="-1.0631270000"><ele>182</ele><time>2026-04-07T10:43:00Z</time></trkpt>
<trkpt lat="43.2807650000" lon="-1.0631400000"><ele>182</ele><time>2026-04-07T10:43:02Z</time></trkpt>
<trkpt lat="43.2807470000" lon="-1.0631550000"><ele>182</ele><time>2026-04-07T10:43:04Z</time></trkpt>
<trkpt lat="43.2807170000" lon="-1.0631550000"><ele>181</ele><time>2026-04-07T10:43:06Z</time></trkpt>
<trkpt lat="43.2806920000" lon="-1.0631470000"><ele>181</ele><time>2026-04-07T10:43:08Z</time></trkpt>
<trkpt lat="43.2806670000" lon="-1.0631500000"><ele>181</ele><time>2026-04-07T10:43:10Z</time></trkpt>
<trkpt lat="43.2806470000" lon="-1.0631670000"><ele>180</ele><time>2026-04-07T10:43:13Z</time></trkpt>
<trkpt lat="43.2806220000" lon="-1.0631720000"><ele>180</ele><time>2026-04-07T10:43:15Z</time></trkpt>
<trkpt lat="43.2805970000" lon="-1.0631820000"><ele>180</ele><time>2026-04-07T10:43:17Z</time></trkpt>
<trkpt lat="43.2805770000" lon="-1.0631750000"><ele>180</ele><time>2026-04-07T10:43:19Z</time></trkpt>
<trkpt lat="43.2805550000" lon="-1.0631670000"><ele>180</ele><time>2026-04-07T10:43:21Z</time></trkpt>
<trkpt lat="43.2805320000" lon="-1.0631630000"><ele>180</ele><time>2026-04-07T10:43:23Z</time></trkpt>
<trkpt lat="43.2805020000" lon="-1.0631770000"><ele>180</ele><time>2026-04-07T10:43:25Z</time></trkpt>
<trkpt lat="43.2804820000" lon="-1.0631820000"><ele>179</ele><time>2026-04-07T10:43:28Z</time></trkpt>
<trkpt lat="43.2804720000" lon="-1.0632030000"><ele>179</ele><time>2026-04-07T10:43:35Z</time></trkpt>
<trkpt lat="43.2804550000" lon="-1.0632070000"><ele>179</ele><time>2026-04-07T10:43:40Z</time></trkpt>
<trkpt lat="43.2804400000" lon="-1.0631720000"><ele>178</ele><time>2026-04-07T10:43:53Z</time></trkpt>
<trkpt lat="43.2804300000" lon="-1.0631500000"><ele>178</ele><time>2026-04-07T10:43:54Z</time></trkpt>
<trkpt lat="43.2804120000" lon="-1.0631500000"><ele>178</ele><time>2026-04-07T10:44:00Z</time></trkpt>
<trkpt lat="43.2804120000" lon="-1.0631770000"><ele>177</ele><time>2026-04-07T10:44:06Z</time></trkpt>
<trkpt lat="43.2804220000" lon="-1.0631520000"><ele>178</ele><time>2026-04-07T10:46:27Z</time></trkpt>
<trkpt lat="43.2804200000" lon="-1.0631070000"><ele>178</ele><time>2026-04-07T10:46:29Z</time></trkpt>
<trkpt lat="43.2804000000" lon="-1.0631000000"><ele>177</ele><time>2026-04-07T10:47:07Z</time></trkpt>
<trkpt lat="43.2803750000" lon="-1.0631100000"><ele>177</ele><time>2026-04-07T10:47:09Z</time></trkpt>
<trkpt lat="43.2803520000" lon="-1.0631270000"><ele>178</ele><time>2026-04-07T10:47:11Z</time></trkpt>
<trkpt lat="43.2803320000" lon="-1.0631350000"><ele>178</ele><time>2026-04-07T10:47:13Z</time></trkpt>
<trkpt lat="43.2803070000" lon="-1.0631370000"><ele>178</ele><time>2026-04-07T10:47:15Z</time></trkpt>
<trkpt lat="43.2802870000" lon="-1.0631420000"><ele>178</ele><time>2026-04-07T10:47:16Z</time></trkpt>
<trkpt lat="43.2802620000" lon="-1.0631570000"><ele>178</ele><time>2026-04-07T10:47:18Z</time></trkpt>
<trkpt lat="43.2802350000" lon="-1.0631620000"><ele>179</ele><time>2026-04-07T10:47:20Z</time></trkpt>
<trkpt lat="43.2802100000" lon="-1.0631600000"><ele>179</ele><time>2026-04-07T10:47:22Z</time></trkpt>
<trkpt lat="43.2801870000" lon="-1.0631770000"><ele>179</ele><time>2026-04-07T10:47:24Z</time></trkpt>
<trkpt lat="43.2801670000" lon="-1.0631920000"><ele>179</ele><time>2026-04-07T10:47:26Z</time></trkpt>
<trkpt lat="43.2801420000" lon="-1.0631950000"><ele>179</ele><time>2026-04-07T10:47:28Z</time></trkpt>
<trkpt lat="43.2801220000" lon="-1.0631970000"><ele>179</ele><time>2026-04-07T10:47:30Z</time></trkpt>
<trkpt lat="43.2800970000" lon="-1.0632030000"><ele>179</ele><time>2026-04-07T10:47:32Z</time></trkpt>
<trkpt lat="43.2800700000" lon="-1.0632070000"><ele>179</ele><time>2026-04-07T10:47:34Z</time></trkpt>
<trkpt lat="43.2800470000" lon="-1.0632070000"><ele>179</ele><time>2026-04-07T10:47:36Z</time></trkpt>
<trkpt lat="43.2800150000" lon="-1.0632170000"><ele>179</ele><time>2026-04-07T10:47:38Z</time></trkpt>
<trkpt lat="43.2799870000" lon="-1.0632120000"><ele>179</ele><time>2026-04-07T10:47:40Z</time></trkpt>
<trkpt lat="43.2799630000" lon="-1.0632170000"><ele>179</ele><time>2026-04-07T10:47:42Z</time></trkpt>
<trkpt lat="43.2799420000" lon="-1.0632250000"><ele>179</ele><time>2026-04-07T10:47:44Z</time></trkpt>
<trkpt lat="43.2799170000" lon="-1.0632320000"><ele>179</ele><time>2026-04-07T10:47:46Z</time></trkpt>
<trkpt lat="43.2798950000" lon="-1.0632450000"><ele>179</ele><time>2026-04-07T10:47:49Z</time></trkpt>
<trkpt lat="43.2798770000" lon="-1.0632600000"><ele>179</ele><time>2026-04-07T10:47:51Z</time></trkpt>
<trkpt lat="43.2798620000" lon="-1.0632800000"><ele>180</ele><time>2026-04-07T10:47:53Z</time></trkpt>
<trkpt lat="43.2798400000" lon="-1.0632920000"><ele>180</ele><time>2026-04-07T10:47:55Z</time></trkpt>
<trkpt lat="43.2798270000" lon="-1.0633120000"><ele>180</ele><time>2026-04-07T10:47:56Z</time></trkpt>
<trkpt lat="43.2798070000" lon="-1.0633270000"><ele>180</ele><time>2026-04-07T10:47:58Z</time></trkpt>
<trkpt lat="43.2797870000" lon="-1.0633420000"><ele>180</ele><time>2026-04-07T10:48:00Z</time></trkpt>
<trkpt lat="43.2797650000" lon="-1.0633620000"><ele>180</ele><time>2026-04-07T10:48:02Z</time></trkpt>
<trkpt lat="43.2797450000" lon="-1.0633770000"><ele>180</ele><time>2026-04-07T10:48:04Z</time></trkpt>
<trkpt lat="43.2797220000" lon="-1.0633870000"><ele>181</ele><time>2026-04-07T10:48:06Z</time></trkpt>
<trkpt lat="43.2797050000" lon="-1.0634120000"><ele>181</ele><time>2026-04-07T10:48:08Z</time></trkpt>
<trkpt lat="43.2796800000" lon="-1.0634250000"><ele>181</ele><time>2026-04-07T10:48:11Z</time></trkpt>
<trkpt lat="43.2796620000" lon="-1.0634270000"><ele>181</ele><time>2026-04-07T10:48:13Z</time></trkpt>
<trkpt lat="43.2796370000" lon="-1.0634330000"><ele>182</ele><time>2026-04-07T10:48:15Z</time></trkpt>
<trkpt lat="43.2796150000" lon="-1.0634570000"><ele>182</ele><time>2026-04-07T10:48:18Z</time></trkpt>
<trkpt lat="43.2796020000" lon="-1.0634720000"><ele>182</ele><time>2026-04-07T10:48:20Z</time></trkpt>
<trkpt lat="43.2795800000" lon="-1.0634820000"><ele>182</ele><time>2026-04-07T10:48:22Z</time></trkpt>
<trkpt lat="43.2795600000" lon="-1.0635000000"><ele>183</ele><time>2026-04-07T10:48:26Z</time></trkpt>
<trkpt lat="43.2795420000" lon="-1.0635100000"><ele>183</ele><time>2026-04-07T10:48:28Z</time></trkpt>
<trkpt lat="43.2795250000" lon="-1.0635050000"><ele>184</ele><time>2026-04-07T10:48:30Z</time></trkpt>
<trkpt lat="43.2795070000" lon="-1.0635170000"><ele>184</ele><time>2026-04-07T10:48:33Z</time></trkpt>
<trkpt lat="43.2794870000" lon="-1.0635320000"><ele>184</ele><time>2026-04-07T10:48:35Z</time></trkpt>
<trkpt lat="43.2794670000" lon="-1.0635450000"><ele>185</ele><time>2026-04-07T10:48:38Z</time></trkpt>
<trkpt lat="43.2794500000" lon="-1.0635620000"><ele>185</ele><time>2026-04-07T10:48:41Z</time></trkpt>
<trkpt lat="43.2794270000" lon="-1.0635730000"><ele>186</ele><time>2026-04-07T10:48:44Z</time></trkpt>
<trkpt lat="43.2794070000" lon="-1.0635720000"><ele>186</ele><time>2026-04-07T10:48:46Z</time></trkpt>
<trkpt lat="43.2793850000" lon="-1.0635800000"><ele>187</ele><time>2026-04-07T10:48:49Z</time></trkpt>
<trkpt lat="43.2793670000" lon="-1.0635920000"><ele>187</ele><time>2026-04-07T10:48:51Z</time></trkpt>
<trkpt lat="43.2793470000" lon="-1.0635870000"><ele>187</ele><time>2026-04-07T10:48:54Z</time></trkpt>
<trkpt lat="43.2793320000" lon="-1.0636000000"><ele>188</ele><time>2026-04-07T10:48:57Z</time></trkpt>
<trkpt lat="43.2793170000" lon="-1.0636300000"><ele>188</ele><time>2026-04-07T10:49:00Z</time></trkpt>
<trkpt lat="43.2792970000" lon="-1.0636470000"><ele>188</ele><time>2026-04-07T10:49:02Z</time></trkpt>
<trkpt lat="43.2792730000" lon="-1.0636520000"><ele>189</ele><time>2026-04-07T10:49:04Z</time></trkpt>
<trkpt lat="43.2792500000" lon="-1.0636620000"><ele>189</ele><time>2026-04-07T10:49:07Z</time></trkpt>
<trkpt lat="43.2792250000" lon="-1.0636750000"><ele>189</ele><time>2026-04-07T10:49:10Z</time></trkpt>
<trkpt lat="43.2792070000" lon="-1.0636850000"><ele>190</ele><time>2026-04-07T10:49:12Z</time></trkpt>
<trkpt lat="43.2791820000" lon="-1.0636950000"><ele>190</ele><time>2026-04-07T10:49:15Z</time></trkpt>
<trkpt lat="43.2791620000" lon="-1.0637120000"><ele>190</ele><time>2026-04-07T10:49:18Z</time></trkpt>
<trkpt lat="43.2791470000" lon="-1.0637320000"><ele>190</ele><time>2026-04-07T10:49:20Z</time></trkpt>
<trkpt lat="43.2791300000" lon="-1.0637550000"><ele>190</ele><time>2026-04-07T10:49:23Z</time></trkpt>
<trkpt lat="43.2791070000" lon="-1.0637770000"><ele>191</ele><time>2026-04-07T10:49:26Z</time></trkpt>
<trkpt lat="43.2790950000" lon="-1.0637970000"><ele>191</ele><time>2026-04-07T10:49:28Z</time></trkpt>
<trkpt lat="43.2790770000" lon="-1.0638220000"><ele>191</ele><time>2026-04-07T10:49:31Z</time></trkpt>
<trkpt lat="43.2790620000" lon="-1.0638470000"><ele>191</ele><time>2026-04-07T10:49:34Z</time></trkpt>
<trkpt lat="43.2790450000" lon="-1.0638700000"><ele>192</ele><time>2026-04-07T10:49:37Z</time></trkpt>
<trkpt lat="43.2790320000" lon="-1.0638920000"><ele>192</ele><time>2026-04-07T10:49:39Z</time></trkpt>
<trkpt lat="43.2790170000" lon="-1.0639120000"><ele>192</ele><time>2026-04-07T10:49:41Z</time></trkpt>
<trkpt lat="43.2790020000" lon="-1.0639320000"><ele>192</ele><time>2026-04-07T10:49:44Z</time></trkpt>
<trkpt lat="43.2789820000" lon="-1.0639520000"><ele>192</ele><time>2026-04-07T10:49:47Z</time></trkpt>
<trkpt lat="43.2789720000" lon="-1.0639770000"><ele>193</ele><time>2026-04-07T10:49:49Z</time></trkpt>
<trkpt lat="43.2789650000" lon="-1.0640050000"><ele>193</ele><time>2026-04-07T10:49:51Z</time></trkpt>
<trkpt lat="43.2789620000" lon="-1.0640400000"><ele>193</ele><time>2026-04-07T10:49:53Z</time></trkpt>
<trkpt lat="43.2789600000" lon="-1.0640750000"><ele>193</ele><time>2026-04-07T10:49:55Z</time></trkpt>
<trkpt lat="43.2789500000" lon="-1.0641050000"><ele>193</ele><time>2026-04-07T10:49:57Z</time></trkpt>
<trkpt lat="43.2789350000" lon="-1.0641320000"><ele>193</ele><time>2026-04-07T10:49:59Z</time></trkpt>
<trkpt lat="43.2789170000" lon="-1.0641600000"><ele>193</ele><time>2026-04-07T10:50:01Z</time></trkpt>
<trkpt lat="43.2789020000" lon="-1.0641800000"><ele>194</ele><time>2026-04-07T10:50:03Z</time></trkpt>
<trkpt lat="43.2788870000" lon="-1.0642000000"><ele>194</ele><time>2026-04-07T10:50:05Z</time></trkpt>
<trkpt lat="43.2788770000" lon="-1.0642270000"><ele>194</ele><time>2026-04-07T10:50:08Z</time></trkpt>
<trkpt lat="43.2788550000" lon="-1.0642270000"><ele>193</ele><time>2026-04-07T10:50:11Z</time></trkpt>
<trkpt lat="43.2788420000" lon="-1.0642570000"><ele>193</ele><time>2026-04-07T10:50:13Z</time></trkpt>
<trkpt lat="43.2788270000" lon="-1.0642820000"><ele>194</ele><time>2026-04-07T10:50:15Z</time></trkpt>
<trkpt lat="43.2787970000" lon="-1.0642920000"><ele>194</ele><time>2026-04-07T10:50:18Z</time></trkpt>
<trkpt lat="43.2787720000" lon="-1.0643020000"><ele>194</ele><time>2026-04-07T10:50:20Z</time></trkpt>
<trkpt lat="43.2787500000" lon="-1.0643170000"><ele>194</ele><time>2026-04-07T10:50:22Z</time></trkpt>
<trkpt lat="43.2787320000" lon="-1.0643270000"><ele>194</ele><time>2026-04-07T10:50:24Z</time></trkpt>
<trkpt lat="43.2787070000" lon="-1.0643280000"><ele>194</ele><time>2026-04-07T10:50:27Z</time></trkpt>
<trkpt lat="43.2786870000" lon="-1.0643370000"><ele>194</ele><time>2026-04-07T10:50:29Z</time></trkpt>
<trkpt lat="43.2786620000" lon="-1.0643400000"><ele>194</ele><time>2026-04-07T10:50:31Z</time></trkpt>
<trkpt lat="43.2786450000" lon="-1.0643520000"><ele>194</ele><time>2026-04-07T10:50:33Z</time></trkpt>
<trkpt lat="43.2786220000" lon="-1.0643470000"><ele>194</ele><time>2026-04-07T10:50:35Z</time></trkpt>
<trkpt lat="43.2786020000" lon="-1.0643420000"><ele>193</ele><time>2026-04-07T10:50:37Z</time></trkpt>
<trkpt lat="43.2785800000" lon="-1.0643370000"><ele>193</ele><time>2026-04-07T10:50:39Z</time></trkpt>
<trkpt lat="43.2785620000" lon="-1.0643400000"><ele>194</ele><time>2026-04-07T10:50:41Z</time></trkpt>
<trkpt lat="43.2785370000" lon="-1.0643420000"><ele>194</ele><time>2026-04-07T10:50:44Z</time></trkpt>
<trkpt lat="43.2785170000" lon="-1.0643420000"><ele>194</ele><time>2026-04-07T10:50:46Z</time></trkpt>
<trkpt lat="43.2784920000" lon="-1.0643570000"><ele>194</ele><time>2026-04-07T10:50:49Z</time></trkpt>
<trkpt lat="43.2784720000" lon="-1.0643570000"><ele>194</ele><time>2026-04-07T10:50:51Z</time></trkpt>
<trkpt lat="43.2784520000" lon="-1.0643370000"><ele>194</ele><time>2026-04-07T10:50:54Z</time></trkpt>
<trkpt lat="43.2784270000" lon="-1.0643150000"><ele>194</ele><time>2026-04-07T10:50:57Z</time></trkpt>
<trkpt lat="43.2784120000" lon="-1.0642920000"><ele>194</ele><time>2026-04-07T10:50:59Z</time></trkpt>
<trkpt lat="43.2783970000" lon="-1.0642720000"><ele>194</ele><time>2026-04-07T10:51:01Z</time></trkpt>
<trkpt lat="43.2783770000" lon="-1.0642620000"><ele>194</ele><time>2026-04-07T10:51:03Z</time></trkpt>
<trkpt lat="43.2783570000" lon="-1.0642420000"><ele>194</ele><time>2026-04-07T10:51:05Z</time></trkpt>
<trkpt lat="43.2783420000" lon="-1.0642220000"><ele>194</ele><time>2026-04-07T10:51:07Z</time></trkpt>
<trkpt lat="43.2783270000" lon="-1.0641970000"><ele>194</ele><time>2026-04-07T10:51:09Z</time></trkpt>
<trkpt lat="43.2783150000" lon="-1.0641720000"><ele>194</ele><time>2026-04-07T10:51:11Z</time></trkpt>
<trkpt lat="43.2783020000" lon="-1.0641520000"><ele>193</ele><time>2026-04-07T10:51:13Z</time></trkpt>
<trkpt lat="43.2782870000" lon="-1.0641370000"><ele>193</ele><time>2026-04-07T10:51:14Z</time></trkpt>
<trkpt lat="43.2782720000" lon="-1.0641070000"><ele>193</ele><time>2026-04-07T10:51:16Z</time></trkpt>
<trkpt lat="43.2782520000" lon="-1.0640900000"><ele>193</ele><time>2026-04-07T10:51:18Z</time></trkpt>
<trkpt lat="43.2782270000" lon="-1.0640720000"><ele>193</ele><time>2026-04-07T10:51:21Z</time></trkpt>
<trkpt lat="43.2782120000" lon="-1.0640470000"><ele>193</ele><time>2026-04-07T10:51:23Z</time></trkpt>
<trkpt lat="43.2781920000" lon="-1.0640270000"><ele>193</ele><time>2026-04-07T10:51:25Z</time></trkpt>
<trkpt lat="43.2781620000" lon="-1.0640000000"><ele>193</ele><time>2026-04-07T10:51:27Z</time></trkpt>
<trkpt lat="43.2781480000" lon="-1.0639820000"><ele>192</ele><time>2026-04-07T10:51:28Z</time></trkpt>
<trkpt lat="43.2781370000" lon="-1.0639550000"><ele>192</ele><time>2026-04-07T10:51:29Z</time></trkpt>
<trkpt lat="43.2781250000" lon="-1.0639320000"><ele>192</ele><time>2026-04-07T10:51:30Z</time></trkpt>
<trkpt lat="43.2781070000" lon="-1.0639070000"><ele>192</ele><time>2026-04-07T10:51:31Z</time></trkpt>
<trkpt lat="43.2780850000" lon="-1.0638870000"><ele>192</ele><time>2026-04-07T10:51:33Z</time></trkpt>
<trkpt lat="43.2780620000" lon="-1.0638620000"><ele>192</ele><time>2026-04-07T10:51:35Z</time></trkpt>
<trkpt lat="43.2780350000" lon="-1.0638380000"><ele>192</ele><time>2026-04-07T10:51:37Z</time></trkpt>
<trkpt lat="43.2780170000" lon="-1.0638220000"><ele>192</ele><time>2026-04-07T10:51:39Z</time></trkpt>
<trkpt lat="43.2780020000" lon="-1.0638100000"><ele>192</ele><time>2026-04-07T10:51:41Z</time></trkpt>
<trkpt lat="43.2779820000" lon="-1.0638070000"><ele>192</ele><time>2026-04-07T10:51:43Z</time></trkpt>
<trkpt lat="43.2779520000" lon="-1.0638070000"><ele>192</ele><time>2026-04-07T10:51:45Z</time></trkpt>
<trkpt lat="43.2779320000" lon="-1.0637920000"><ele>191</ele><time>2026-04-07T10:51:47Z</time></trkpt>
<trkpt lat="43.2779120000" lon="-1.0637820000"><ele>191</ele><time>2026-04-07T10:51:49Z</time></trkpt>
<trkpt lat="43.2778870000" lon="-1.0637670000"><ele>191</ele><time>2026-04-07T10:51:51Z</time></trkpt>
<trkpt lat="43.2778620000" lon="-1.0637670000"><ele>191</ele><time>2026-04-07T10:51:53Z</time></trkpt>
<trkpt lat="43.2778420000" lon="-1.0637620000"><ele>191</ele><time>2026-04-07T10:51:55Z</time></trkpt>
<trkpt lat="43.2778200000" lon="-1.0637650000"><ele>191</ele><time>2026-04-07T10:51:57Z</time></trkpt>
<trkpt lat="43.2777970000" lon="-1.0637670000"><ele>191</ele><time>2026-04-07T10:51:59Z</time></trkpt>
<trkpt lat="43.2777750000" lon="-1.0637620000"><ele>191</ele><time>2026-04-07T10:52:01Z</time></trkpt>
<trkpt lat="43.2777550000" lon="-1.0637720000"><ele>191</ele><time>2026-04-07T10:52:10Z</time></trkpt>
<trkpt lat="43.2777320000" lon="-1.0637800000"><ele>191</ele><time>2026-04-07T10:52:12Z</time></trkpt>
<trkpt lat="43.2777120000" lon="-1.0637920000"><ele>191</ele><time>2026-04-07T10:52:14Z</time></trkpt>
<trkpt lat="43.2776920000" lon="-1.0638170000"><ele>191</ele><time>2026-04-07T10:52:16Z</time></trkpt>
<trkpt lat="43.2776870000" lon="-1.0638470000"><ele>191</ele><time>2026-04-07T10:52:18Z</time></trkpt>
<trkpt lat="43.2776820000" lon="-1.0638870000"><ele>191</ele><time>2026-04-07T10:52:20Z</time></trkpt>
<trkpt lat="43.2776770000" lon="-1.0639220000"><ele>191</ele><time>2026-04-07T10:52:22Z</time></trkpt>
<trkpt lat="43.2776700000" lon="-1.0639570000"><ele>191</ele><time>2026-04-07T10:52:24Z</time></trkpt>
<trkpt lat="43.2776620000" lon="-1.0639780000"><ele>191</ele><time>2026-04-07T10:52:26Z</time></trkpt>
<trkpt lat="43.2776520000" lon="-1.0640070000"><ele>191</ele><time>2026-04-07T10:52:28Z</time></trkpt>
<trkpt lat="43.2776350000" lon="-1.0640400000"><ele>192</ele><time>2026-04-07T10:52:30Z</time></trkpt>
<trkpt lat="43.2776220000" lon="-1.0640650000"><ele>192</ele><time>2026-04-07T10:52:32Z</time></trkpt>
<trkpt lat="43.2776120000" lon="-1.0640980000"><ele>192</ele><time>2026-04-07T10:52:34Z</time></trkpt>
<trkpt lat="43.2776000000" lon="-1.0641300000"><ele>192</ele><time>2026-04-07T10:52:36Z</time></trkpt>
<trkpt lat="43.2775850000" lon="-1.0641520000"><ele>192</ele><time>2026-04-07T10:52:38Z</time></trkpt>
<trkpt lat="43.2775670000" lon="-1.0641770000"><ele>192</ele><time>2026-04-07T10:52:40Z</time></trkpt>
<trkpt lat="43.2775520000" lon="-1.0642070000"><ele>191</ele><time>2026-04-07T10:52:42Z</time></trkpt>
<trkpt lat="43.2775350000" lon="-1.0642480000"><ele>191</ele><time>2026-04-07T10:52:44Z</time></trkpt>
<trkpt lat="43.2775300000" lon="-1.0642750000"><ele>191</ele><time>2026-04-07T10:52:45Z</time></trkpt>
<trkpt lat="43.2775170000" lon="-1.0643200000"><ele>191</ele><time>2026-04-07T10:52:47Z</time></trkpt>
<trkpt lat="43.2775150000" lon="-1.0643570000"><ele>191</ele><time>2026-04-07T10:52:48Z</time></trkpt>
<trkpt lat="43.2775070000" lon="-1.0644020000"><ele>191</ele><time>2026-04-07T10:52:50Z</time></trkpt>
<trkpt lat="43.2775100000" lon="-1.0644470000"><ele>191</ele><time>2026-04-07T10:52:52Z</time></trkpt>
<trkpt lat="43.2775150000" lon="-1.0644770000"><ele>191</ele><time>2026-04-07T10:52:54Z</time></trkpt>
<trkpt lat="43.2775200000" lon="-1.0645020000"><ele>191</ele><time>2026-04-07T10:52:56Z</time></trkpt>
<trkpt lat="43.2775250000" lon="-1.0645270000"><ele>191</ele><time>2026-04-07T10:52:58Z</time></trkpt>
<trkpt lat="43.2775320000" lon="-1.0645580000"><ele>191</ele><time>2026-04-07T10:53:00Z</time></trkpt>
<trkpt lat="43.2775370000" lon="-1.0645920000"><ele>191</ele><time>2026-04-07T10:53:02Z</time></trkpt>
<trkpt lat="43.2775420000" lon="-1.0646220000"><ele>191</ele><time>2026-04-07T10:53:04Z</time></trkpt>
<trkpt lat="43.2775550000" lon="-1.0646520000"><ele>191</ele><time>2026-04-07T10:53:06Z</time></trkpt>
<trkpt lat="43.2775670000" lon="-1.0646920000"><ele>191</ele><time>2026-04-07T10:53:08Z</time></trkpt>
<trkpt lat="43.2775720000" lon="-1.0647270000"><ele>191</ele><time>2026-04-07T10:53:10Z</time></trkpt>
<trkpt lat="43.2775720000" lon="-1.0647520000"><ele>191</ele><time>2026-04-07T10:53:12Z</time></trkpt>
<trkpt lat="43.2775870000" lon="-1.0647770000"><ele>191</ele><time>2026-04-07T10:53:14Z</time></trkpt>
<trkpt lat="43.2775970000" lon="-1.0648170000"><ele>191</ele><time>2026-04-07T10:53:17Z</time></trkpt>
<trkpt lat="43.2775970000" lon="-1.0648520000"><ele>191</ele><time>2026-04-07T10:53:19Z</time></trkpt>
<trkpt lat="43.2775970000" lon="-1.0648800000"><ele>191</ele><time>2026-04-07T10:53:21Z</time></trkpt>
<trkpt lat="43.2776000000" lon="-1.0649230000"><ele>191</ele><time>2026-04-07T10:53:23Z</time></trkpt>
<trkpt lat="43.2775970000" lon="-1.0649630000"><ele>191</ele><time>2026-04-07T10:53:25Z</time></trkpt>
<trkpt lat="43.2776020000" lon="-1.0650020000"><ele>191</ele><time>2026-04-07T10:53:27Z</time></trkpt>
<trkpt lat="43.2776020000" lon="-1.0650370000"><ele>191</ele><time>2026-04-07T10:53:29Z</time></trkpt>
<trkpt lat="43.2775920000" lon="-1.0650770000"><ele>191</ele><time>2026-04-07T10:53:31Z</time></trkpt>
<trkpt lat="43.2775950000" lon="-1.0651170000"><ele>191</ele><time>2026-04-07T10:53:33Z</time></trkpt>
<trkpt lat="43.2775970000" lon="-1.0651570000"><ele>191</ele><time>2026-04-07T10:53:35Z</time></trkpt>
<trkpt lat="43.2775970000" lon="-1.0651900000"><ele>191</ele><time>2026-04-07T10:53:37Z</time></trkpt>
<trkpt lat="43.2776050000" lon="-1.0652270000"><ele>191</ele><time>2026-04-07T10:53:40Z</time></trkpt>
<trkpt lat="43.2776070000" lon="-1.0652600000"><ele>191</ele><time>2026-04-07T10:53:42Z</time></trkpt>
<trkpt lat="43.2776070000" lon="-1.0652920000"><ele>191</ele><time>2026-04-07T10:53:44Z</time></trkpt>
<trkpt lat="43.2776200000" lon="-1.0653250000"><ele>191</ele><time>2026-04-07T10:53:47Z</time></trkpt>
<trkpt lat="43.2776320000" lon="-1.0653520000"><ele>191</ele><time>2026-04-07T10:53:49Z</time></trkpt>
<trkpt lat="43.2776320000" lon="-1.0653800000"><ele>191</ele><time>2026-04-07T10:53:51Z</time></trkpt>
<trkpt lat="43.2776270000" lon="-1.0654170000"><ele>191</ele><time>2026-04-07T10:53:53Z</time></trkpt>
<trkpt lat="43.2776220000" lon="-1.0654550000"><ele>191</ele><time>2026-04-07T10:53:55Z</time></trkpt>
<trkpt lat="43.2776250000" lon="-1.0654970000"><ele>191</ele><time>2026-04-07T10:53:57Z</time></trkpt>
<trkpt lat="43.2776220000" lon="-1.0655320000"><ele>190</ele><time>2026-04-07T10:53:59Z</time></trkpt>
<trkpt lat="43.2776350000" lon="-1.0655600000"><ele>190</ele><time>2026-04-07T10:54:01Z</time></trkpt>
<trkpt lat="43.2776350000" lon="-1.0655920000"><ele>190</ele><time>2026-04-07T10:54:03Z</time></trkpt>
<trkpt lat="43.2776250000" lon="-1.0656270000"><ele>190</ele><time>2026-04-07T10:54:05Z</time></trkpt>
<trkpt lat="43.2776170000" lon="-1.0656720000"><ele>190</ele><time>2026-04-07T10:54:07Z</time></trkpt>
<trkpt lat="43.2776100000" lon="-1.0657130000"><ele>190</ele><time>2026-04-07T10:54:09Z</time></trkpt>
<trkpt lat="43.2776200000" lon="-1.0657470000"><ele>190</ele><time>2026-04-07T10:54:11Z</time></trkpt>
<trkpt lat="43.2776220000" lon="-1.0657800000"><ele>189</ele><time>2026-04-07T10:54:13Z</time></trkpt>
<trkpt lat="43.2776220000" lon="-1.0658120000"><ele>189</ele><time>2026-04-07T10:54:15Z</time></trkpt>
<trkpt lat="43.2776270000" lon="-1.0658520000"><ele>189</ele><time>2026-04-07T10:54:17Z</time></trkpt>
<trkpt lat="43.2776320000" lon="-1.0658920000"><ele>189</ele><time>2026-04-07T10:54:19Z</time></trkpt>
<trkpt lat="43.2776300000" lon="-1.0659200000"><ele>189</ele><time>2026-04-07T10:54:21Z</time></trkpt>
<trkpt lat="43.2776300000" lon="-1.0659520000"><ele>189</ele><time>2026-04-07T10:54:23Z</time></trkpt>
<trkpt lat="43.2776320000" lon="-1.0659870000"><ele>189</ele><time>2026-04-07T10:54:25Z</time></trkpt>
<trkpt lat="43.2776350000" lon="-1.0660150000"><ele>189</ele><time>2026-04-07T10:54:27Z</time></trkpt>
<trkpt lat="43.2776370000" lon="-1.0660520000"><ele>189</ele><time>2026-04-07T10:54:29Z</time></trkpt>
<trkpt lat="43.2776370000" lon="-1.0660830000"><ele>188</ele><time>2026-04-07T10:54:31Z</time></trkpt>
<trkpt lat="43.2776420000" lon="-1.0661220000"><ele>188</ele><time>2026-04-07T10:54:33Z</time></trkpt>
<trkpt lat="43.2776420000" lon="-1.0661500000"><ele>188</ele><time>2026-04-07T10:54:34Z</time></trkpt>
<trkpt lat="43.2776500000" lon="-1.0661870000"><ele>188</ele><time>2026-04-07T10:54:36Z</time></trkpt>
<trkpt lat="43.2776520000" lon="-1.0662180000"><ele>188</ele><time>2026-04-07T10:54:38Z</time></trkpt>
<trkpt lat="43.2776500000" lon="-1.0662530000"><ele>188</ele><time>2026-04-07T10:54:40Z</time></trkpt>
<trkpt lat="43.2776420000" lon="-1.0662870000"><ele>188</ele><time>2026-04-07T10:54:43Z</time></trkpt>
<trkpt lat="43.2776470000" lon="-1.0663170000"><ele>188</ele><time>2026-04-07T10:54:45Z</time></trkpt>
<trkpt lat="43.2776470000" lon="-1.0663470000"><ele>189</ele><time>2026-04-07T10:54:47Z</time></trkpt>
<trkpt lat="43.2776520000" lon="-1.0663770000"><ele>189</ele><time>2026-04-07T10:54:49Z</time></trkpt>
<trkpt lat="43.2776520000" lon="-1.0664120000"><ele>189</ele><time>2026-04-07T10:54:51Z</time></trkpt>
<trkpt lat="43.2776420000" lon="-1.0664520000"><ele>189</ele><time>2026-04-07T10:54:53Z</time></trkpt>
<trkpt lat="43.2776420000" lon="-1.0664830000"><ele>189</ele><time>2026-04-07T10:54:55Z</time></trkpt>
<trkpt lat="43.2776420000" lon="-1.0665150000"><ele>189</ele><time>2026-04-07T10:54:57Z</time></trkpt>
<trkpt lat="43.2776370000" lon="-1.0665470000"><ele>189</ele><time>2026-04-07T10:54:59Z</time></trkpt>
<trkpt lat="43.2776400000" lon="-1.0665870000"><ele>190</ele><time>2026-04-07T10:55:01Z</time></trkpt>
<trkpt lat="43.2776400000" lon="-1.0666170000"><ele>190</ele><time>2026-04-07T10:55:03Z</time></trkpt>
<trkpt lat="43.2776350000" lon="-1.0666470000"><ele>190</ele><time>2026-04-07T10:55:05Z</time></trkpt>
<trkpt lat="43.2776370000" lon="-1.0666850000"><ele>190</ele><time>2026-04-07T10:55:08Z</time></trkpt>
<trkpt lat="43.2776370000" lon="-1.0667120000"><ele>190</ele><time>2026-04-07T10:55:10Z</time></trkpt>
<trkpt lat="43.2776400000" lon="-1.0667400000"><ele>190</ele><time>2026-04-07T10:55:12Z</time></trkpt>
<trkpt lat="43.2776420000" lon="-1.0667720000"><ele>190</ele><time>2026-04-07T10:55:14Z</time></trkpt>
<trkpt lat="43.2776450000" lon="-1.0668020000"><ele>190</ele><time>2026-04-07T10:55:16Z</time></trkpt>
<trkpt lat="43.2776350000" lon="-1.0668420000"><ele>190</ele><time>2026-04-07T10:55:18Z</time></trkpt>
<trkpt lat="43.2776130000" lon="-1.0668820000"><ele>190</ele><time>2026-04-07T10:55:20Z</time></trkpt>
<trkpt lat="43.2776000000" lon="-1.0669170000"><ele>190</ele><time>2026-04-07T10:55:22Z</time></trkpt>
<trkpt lat="43.2775870000" lon="-1.0669570000"><ele>190</ele><time>2026-04-07T10:55:24Z</time></trkpt>
<trkpt lat="43.2775800000" lon="-1.0669920000"><ele>190</ele><time>2026-04-07T10:55:26Z</time></trkpt>
<trkpt lat="43.2775770000" lon="-1.0670200000"><ele>190</ele><time>2026-04-07T10:55:28Z</time></trkpt>
<trkpt lat="43.2775770000" lon="-1.0670470000"><ele>190</ele><time>2026-04-07T10:55:30Z</time></trkpt>
<trkpt lat="43.2775800000" lon="-1.0670820000"><ele>190</ele><time>2026-04-07T10:55:33Z</time></trkpt>
<trkpt lat="43.2775750000" lon="-1.0671120000"><ele>190</ele><time>2026-04-07T10:55:35Z</time></trkpt>
<trkpt lat="43.2775720000" lon="-1.0671420000"><ele>190</ele><time>2026-04-07T10:55:37Z</time></trkpt>
<trkpt lat="43.2775600000" lon="-1.0671750000"><ele>190</ele><time>2026-04-07T10:55:39Z</time></trkpt>
<trkpt lat="43.2775520000" lon="-1.0672070000"><ele>190</ele><time>2026-04-07T10:55:41Z</time></trkpt>
<trkpt lat="43.2775400000" lon="-1.0672370000"><ele>190</ele><time>2026-04-07T10:55:43Z</time></trkpt>
<trkpt lat="43.2775320000" lon="-1.0672670000"><ele>190</ele><time>2026-04-07T10:55:45Z</time></trkpt>
<trkpt lat="43.2775170000" lon="-1.0672920000"><ele>190</ele><time>2026-04-07T10:55:47Z</time></trkpt>
<trkpt lat="43.2775070000" lon="-1.0673280000"><ele>190</ele><time>2026-04-07T10:55:50Z</time></trkpt>
<trkpt lat="43.2775100000" lon="-1.0673770000"><ele>190</ele><time>2026-04-07T10:55:52Z</time></trkpt>
<trkpt lat="43.2775070000" lon="-1.0674120000"><ele>190</ele><time>2026-04-07T10:55:54Z</time></trkpt>
<trkpt lat="43.2775050000" lon="-1.0674450000"><ele>190</ele><time>2026-04-07T10:55:56Z</time></trkpt>
<trkpt lat="43.2775120000" lon="-1.0674870000"><ele>190</ele><time>2026-04-07T10:55:58Z</time></trkpt>
<trkpt lat="43.2775100000" lon="-1.0675130000"><ele>190</ele><time>2026-04-07T10:56:00Z</time></trkpt>
<trkpt lat="43.2775120000" lon="-1.0675520000"><ele>190</ele><time>2026-04-07T10:56:02Z</time></trkpt>
<trkpt lat="43.2775100000" lon="-1.0675820000"><ele>190</ele><time>2026-04-07T10:56:04Z</time></trkpt>
<trkpt lat="43.2775050000" lon="-1.0676220000"><ele>191</ele><time>2026-04-07T10:56:06Z</time></trkpt>
<trkpt lat="43.2775000000" lon="-1.0676570000"><ele>191</ele><time>2026-04-07T10:56:08Z</time></trkpt>
<trkpt lat="43.2775050000" lon="-1.0676870000"><ele>191</ele><time>2026-04-07T10:56:10Z</time></trkpt>
<trkpt lat="43.2774950000" lon="-1.0677220000"><ele>191</ele><time>2026-04-07T10:56:12Z</time></trkpt>
<trkpt lat="43.2774870000" lon="-1.0677500000"><ele>191</ele><time>2026-04-07T10:56:14Z</time></trkpt>
<trkpt lat="43.2774820000" lon="-1.0677920000"><ele>191</ele><time>2026-04-07T10:56:16Z</time></trkpt>
<trkpt lat="43.2774750000" lon="-1.0678230000"><ele>191</ele><time>2026-04-07T10:56:18Z</time></trkpt>
<trkpt lat="43.2774670000" lon="-1.0678570000"><ele>191</ele><time>2026-04-07T10:56:20Z</time></trkpt>
<trkpt lat="43.2774650000" lon="-1.0678870000"><ele>191</ele><time>2026-04-07T10:56:22Z</time></trkpt>
<trkpt lat="43.2774720000" lon="-1.0679220000"><ele>192</ele><time>2026-04-07T10:56:25Z</time></trkpt>
<trkpt lat="43.2774720000" lon="-1.0679580000"><ele>192</ele><time>2026-04-07T10:56:27Z</time></trkpt>
<trkpt lat="43.2774720000" lon="-1.0679950000"><ele>192</ele><time>2026-04-07T10:56:29Z</time></trkpt>
<trkpt lat="43.2774620000" lon="-1.0680250000"><ele>192</ele><time>2026-04-07T10:56:31Z</time></trkpt>
<trkpt lat="43.2774520000" lon="-1.0680570000"><ele>192</ele><time>2026-04-07T10:56:33Z</time></trkpt>
<trkpt lat="43.2774350000" lon="-1.0680870000"><ele>192</ele><time>2026-04-07T10:56:35Z</time></trkpt>
<trkpt lat="43.2774200000" lon="-1.0681220000"><ele>192</ele><time>2026-04-07T10:56:37Z</time></trkpt>
<trkpt lat="43.2774170000" lon="-1.0681570000"><ele>192</ele><time>2026-04-07T10:56:39Z</time></trkpt>
<trkpt lat="43.2774120000" lon="-1.0681970000"><ele>192</ele><time>2026-04-07T10:56:41Z</time></trkpt>
<trkpt lat="43.2774070000" lon="-1.0682320000"><ele>192</ele><time>2026-04-07T10:56:43Z</time></trkpt>
<trkpt lat="43.2774020000" lon="-1.0682620000"><ele>192</ele><time>2026-04-07T10:56:45Z</time></trkpt>
<trkpt lat="43.2773970000" lon="-1.0682900000"><ele>192</ele><time>2026-04-07T10:56:47Z</time></trkpt>
<trkpt lat="43.2773970000" lon="-1.0683230000"><ele>192</ele><time>2026-04-07T10:56:50Z</time></trkpt>
<trkpt lat="43.2773970000" lon="-1.0683520000"><ele>192</ele><time>2026-04-07T10:56:52Z</time></trkpt>
<trkpt lat="43.2773850000" lon="-1.0683870000"><ele>192</ele><time>2026-04-07T10:56:54Z</time></trkpt>
<trkpt lat="43.2773720000" lon="-1.0684170000"><ele>192</ele><time>2026-04-07T10:56:56Z</time></trkpt>
<trkpt lat="43.2773620000" lon="-1.0684470000"><ele>192</ele><time>2026-04-07T10:56:58Z</time></trkpt>
<trkpt lat="43.2773550000" lon="-1.0684850000"><ele>192</ele><time>2026-04-07T10:57:00Z</time></trkpt>
<trkpt lat="43.2773420000" lon="-1.0685150000"><ele>193</ele><time>2026-04-07T10:57:02Z</time></trkpt>
<trkpt lat="43.2773250000" lon="-1.0685420000"><ele>192</ele><time>2026-04-07T10:57:04Z</time></trkpt>
<trkpt lat="43.2773150000" lon="-1.0685820000"><ele>193</ele><time>2026-04-07T10:57:06Z</time></trkpt>
<trkpt lat="43.2773100000" lon="-1.0686200000"><ele>193</ele><time>2026-04-07T10:57:08Z</time></trkpt>
<trkpt lat="43.2773120000" lon="-1.0686620000"><ele>193</ele><time>2026-04-07T10:57:10Z</time></trkpt>
<trkpt lat="43.2773070000" lon="-1.0686920000"><ele>193</ele><time>2026-04-07T10:57:12Z</time></trkpt>
<trkpt lat="43.2773030000" lon="-1.0687230000"><ele>193</ele><time>2026-04-07T10:57:14Z</time></trkpt>
<trkpt lat="43.2772920000" lon="-1.0687620000"><ele>193</ele><time>2026-04-07T10:57:16Z</time></trkpt>
<trkpt lat="43.2772850000" lon="-1.0687850000"><ele>193</ele><time>2026-04-07T10:57:18Z</time></trkpt>
<trkpt lat="43.2772800000" lon="-1.0688120000"><ele>193</ele><time>2026-04-07T10:57:20Z</time></trkpt>
<trkpt lat="43.2772800000" lon="-1.0688450000"><ele>193</ele><time>2026-04-07T10:57:23Z</time></trkpt>
<trkpt lat="43.2772720000" lon="-1.0688720000"><ele>193</ele><time>2026-04-07T10:57:25Z</time></trkpt>
<trkpt lat="43.2772620000" lon="-1.0689030000"><ele>194</ele><time>2026-04-07T10:57:27Z</time></trkpt>
<trkpt lat="43.2772520000" lon="-1.0689320000"><ele>194</ele><time>2026-04-07T10:57:29Z</time></trkpt>
<trkpt lat="43.2772420000" lon="-1.0689580000"><ele>194</ele><time>2026-04-07T10:57:31Z</time></trkpt>
<trkpt lat="43.2772320000" lon="-1.0689870000"><ele>194</ele><time>2026-04-07T10:57:33Z</time></trkpt>
<trkpt lat="43.2772270000" lon="-1.0690170000"><ele>194</ele><time>2026-04-07T10:57:35Z</time></trkpt>
<trkpt lat="43.2772120000" lon="-1.0690470000"><ele>194</ele><time>2026-04-07T10:57:37Z</time></trkpt>
<trkpt lat="43.2772000000" lon="-1.0690770000"><ele>194</ele><time>2026-04-07T10:57:39Z</time></trkpt>
<trkpt lat="43.2771870000" lon="-1.0691050000"><ele>194</ele><time>2026-04-07T10:57:41Z</time></trkpt>
<trkpt lat="43.2771750000" lon="-1.0691270000"><ele>194</ele><time>2026-04-07T10:57:43Z</time></trkpt>
<trkpt lat="43.2771570000" lon="-1.0691420000"><ele>194</ele><time>2026-04-07T10:57:45Z</time></trkpt>
<trkpt lat="43.2771350000" lon="-1.0691570000"><ele>194</ele><time>2026-04-07T10:57:47Z</time></trkpt>
<trkpt lat="43.2771150000" lon="-1.0691730000"><ele>194</ele><time>2026-04-07T10:57:49Z</time></trkpt>
<trkpt lat="43.2770950000" lon="-1.0691970000"><ele>194</ele><time>2026-04-07T10:57:51Z</time></trkpt>
<trkpt lat="43.2770750000" lon="-1.0692270000"><ele>195</ele><time>2026-04-07T10:57:53Z</time></trkpt>
<trkpt lat="43.2770550000" lon="-1.0692600000"><ele>195</ele><time>2026-04-07T10:57:55Z</time></trkpt>
<trkpt lat="43.2770400000" lon="-1.0692850000"><ele>195</ele><time>2026-04-07T10:57:57Z</time></trkpt>
<trkpt lat="43.2770270000" lon="-1.0693070000"><ele>195</ele><time>2026-04-07T10:57:59Z</time></trkpt>
<trkpt lat="43.2770070000" lon="-1.0693220000"><ele>195</ele><time>2026-04-07T10:58:01Z</time></trkpt>
<trkpt lat="43.2769920000" lon="-1.0693420000"><ele>194</ele><time>2026-04-07T10:58:03Z</time></trkpt>
<trkpt lat="43.2769670000" lon="-1.0693570000"><ele>194</ele><time>2026-04-07T10:58:05Z</time></trkpt>
<trkpt lat="43.2769520000" lon="-1.0693720000"><ele>194</ele><time>2026-04-07T10:58:07Z</time></trkpt>
<trkpt lat="43.2769270000" lon="-1.0693900000"><ele>194</ele><time>2026-04-07T10:58:09Z</time></trkpt>
<trkpt lat="43.2769050000" lon="-1.0694070000"><ele>194</ele><time>2026-04-07T10:58:11Z</time></trkpt>
<trkpt lat="43.2768800000" lon="-1.0694220000"><ele>194</ele><time>2026-04-07T10:58:13Z</time></trkpt>
<trkpt lat="43.2768620000" lon="-1.0694320000"><ele>194</ele><time>2026-04-07T10:58:14Z</time></trkpt>
<trkpt lat="43.2768400000" lon="-1.0694420000"><ele>194</ele><time>2026-04-07T10:58:16Z</time></trkpt>
<trkpt lat="43.2768220000" lon="-1.0694750000"><ele>194</ele><time>2026-04-07T10:58:18Z</time></trkpt>
<trkpt lat="43.2768020000" lon="-1.0694920000"><ele>193</ele><time>2026-04-07T10:58:20Z</time></trkpt>
<trkpt lat="43.2767820000" lon="-1.0695070000"><ele>193</ele><time>2026-04-07T10:58:22Z</time></trkpt>
<trkpt lat="43.2767600000" lon="-1.0695270000"><ele>193</ele><time>2026-04-07T10:58:24Z</time></trkpt>
<trkpt lat="43.2767320000" lon="-1.0695450000"><ele>193</ele><time>2026-04-07T10:58:27Z</time></trkpt>
<trkpt lat="43.2767120000" lon="-1.0695470000"><ele>193</ele><time>2026-04-07T10:58:29Z</time></trkpt>
<trkpt lat="43.2766900000" lon="-1.0695600000"><ele>193</ele><time>2026-04-07T10:58:31Z</time></trkpt>
<trkpt lat="43.2766670000" lon="-1.0695620000"><ele>193</ele><time>2026-04-07T10:58:33Z</time></trkpt>
<trkpt lat="43.2766500000" lon="-1.0695720000"><ele>193</ele><time>2026-04-07T10:58:35Z</time></trkpt>
<trkpt lat="43.2766320000" lon="-1.0695870000"><ele>193</ele><time>2026-04-07T10:58:37Z</time></trkpt>
<trkpt lat="43.2766120000" lon="-1.0695970000"><ele>193</ele><time>2026-04-07T10:58:39Z</time></trkpt>
<trkpt lat="43.2765820000" lon="-1.0696020000"><ele>193</ele><time>2026-04-07T10:58:41Z</time></trkpt>
<trkpt lat="43.2765600000" lon="-1.0696070000"><ele>193</ele><time>2026-04-07T10:58:43Z</time></trkpt>
<trkpt lat="43.2765370000" lon="-1.0696170000"><ele>194</ele><time>2026-04-07T10:58:45Z</time></trkpt>
<trkpt lat="43.2765170000" lon="-1.0696470000"><ele>194</ele><time>2026-04-07T10:58:47Z</time></trkpt>
<trkpt lat="43.2765050000" lon="-1.0696820000"><ele>194</ele><time>2026-04-07T10:58:49Z</time></trkpt>
<trkpt lat="43.2764920000" lon="-1.0697120000"><ele>194</ele><time>2026-04-07T10:58:51Z</time></trkpt>
<trkpt lat="43.2764720000" lon="-1.0697370000"><ele>194</ele><time>2026-04-07T10:58:53Z</time></trkpt>
<trkpt lat="43.2764550000" lon="-1.0697570000"><ele>195</ele><time>2026-04-07T10:58:55Z</time></trkpt>
<trkpt lat="43.2764350000" lon="-1.0697720000"><ele>195</ele><time>2026-04-07T10:58:57Z</time></trkpt>
<trkpt lat="43.2764120000" lon="-1.0697820000"><ele>195</ele><time>2026-04-07T10:58:59Z</time></trkpt>
<trkpt lat="43.2763870000" lon="-1.0697900000"><ele>195</ele><time>2026-04-07T10:59:01Z</time></trkpt>
<trkpt lat="43.2763700000" lon="-1.0698000000"><ele>195</ele><time>2026-04-07T10:59:03Z</time></trkpt>
<trkpt lat="43.2763470000" lon="-1.0698020000"><ele>196</ele><time>2026-04-07T10:59:06Z</time></trkpt>
<trkpt lat="43.2763270000" lon="-1.0697750000"><ele>196</ele><time>2026-04-07T10:59:08Z</time></trkpt>
<trkpt lat="43.2763120000" lon="-1.0697350000"><ele>196</ele><time>2026-04-07T10:59:10Z</time></trkpt>
<trkpt lat="43.2763020000" lon="-1.0696970000"><ele>195</ele><time>2026-04-07T10:59:12Z</time></trkpt>
<trkpt lat="43.2763020000" lon="-1.0696600000"><ele>195</ele><time>2026-04-07T10:59:14Z</time></trkpt>
<trkpt lat="43.2763000000" lon="-1.0696330000"><ele>195</ele><time>2026-04-07T10:59:16Z</time></trkpt>
<trkpt lat="43.2763020000" lon="-1.0695970000"><ele>195</ele><time>2026-04-07T10:59:18Z</time></trkpt>
<trkpt lat="43.2763070000" lon="-1.0695620000"><ele>195</ele><time>2026-04-07T10:59:20Z</time></trkpt>
<trkpt lat="43.2763020000" lon="-1.0695370000"><ele>195</ele><time>2026-04-07T10:59:23Z</time></trkpt>
<trkpt lat="43.2762950000" lon="-1.0695070000"><ele>196</ele><time>2026-04-07T10:59:26Z</time></trkpt>
<trkpt lat="43.2762820000" lon="-1.0694820000"><ele>196</ele><time>2026-04-07T10:59:28Z</time></trkpt>
<trkpt lat="43.2762720000" lon="-1.0694570000"><ele>196</ele><time>2026-04-07T10:59:30Z</time></trkpt>
<trkpt lat="43.2762900000" lon="-1.0694520000"><ele>197</ele><time>2026-04-07T10:59:36Z</time></trkpt>
<trkpt lat="43.2762700000" lon="-1.0694570000"><ele>197</ele><time>2026-04-07T11:00:13Z</time></trkpt>
<trkpt lat="43.2762520000" lon="-1.0694620000"><ele>197</ele><time>2026-04-07T11:00:14Z</time></trkpt>
<trkpt lat="43.2762320000" lon="-1.0694670000"><ele>197</ele><time>2026-04-07T11:00:15Z</time></trkpt>
<trkpt lat="43.2762100000" lon="-1.0694770000"><ele>197</ele><time>2026-04-07T11:00:17Z</time></trkpt>
<trkpt lat="43.2761920000" lon="-1.0694800000"><ele>197</ele><time>2026-04-07T11:00:19Z</time></trkpt>
<trkpt lat="43.2761820000" lon="-1.0694550000"><ele>197</ele><time>2026-04-07T11:00:21Z</time></trkpt>
<trkpt lat="43.2761770000" lon="-1.0694170000"><ele>197</ele><time>2026-04-07T11:00:23Z</time></trkpt>
<trkpt lat="43.2761700000" lon="-1.0693870000"><ele>197</ele><time>2026-04-07T11:00:25Z</time></trkpt>
<trkpt lat="43.2761700000" lon="-1.0693600000"><ele>197</ele><time>2026-04-07T11:00:27Z</time></trkpt>
<trkpt lat="43.2761550000" lon="-1.0693350000"><ele>198</ele><time>2026-04-07T11:00:30Z</time></trkpt>
<trkpt lat="43.2761370000" lon="-1.0693170000"><ele>198</ele><time>2026-04-07T11:00:33Z</time></trkpt>
<trkpt lat="43.2761100000" lon="-1.0693070000"><ele>199</ele><time>2026-04-07T11:00:36Z</time></trkpt>
<trkpt lat="43.2760970000" lon="-1.0692920000"><ele>199</ele><time>2026-04-07T11:00:39Z</time></trkpt>
<trkpt lat="43.2760770000" lon="-1.0692670000"><ele>200</ele><time>2026-04-07T11:00:42Z</time></trkpt>
<trkpt lat="43.2760570000" lon="-1.0692550000"><ele>200</ele><time>2026-04-07T11:00:44Z</time></trkpt>
<trkpt lat="43.2760420000" lon="-1.0692450000"><ele>200</ele><time>2026-04-07T11:00:46Z</time></trkpt>
<trkpt lat="43.2760170000" lon="-1.0692350000"><ele>201</ele><time>2026-04-07T11:00:49Z</time></trkpt>
<trkpt lat="43.2760020000" lon="-1.0692200000"><ele>201</ele><time>2026-04-07T11:00:51Z</time></trkpt>
<trkpt lat="43.2759820000" lon="-1.0692020000"><ele>201</ele><time>2026-04-07T11:00:53Z</time></trkpt>
<trkpt lat="43.2759650000" lon="-1.0691920000"><ele>201</ele><time>2026-04-07T11:00:55Z</time></trkpt>
<trkpt lat="43.2759470000" lon="-1.0691800000"><ele>202</ele><time>2026-04-07T11:00:57Z</time></trkpt>
<trkpt lat="43.2759270000" lon="-1.0691620000"><ele>202</ele><time>2026-04-07T11:00:59Z</time></trkpt>
<trkpt lat="43.2759050000" lon="-1.0691570000"><ele>202</ele><time>2026-04-07T11:01:01Z</time></trkpt>
<trkpt lat="43.2758850000" lon="-1.0691520000"><ele>202</ele><time>2026-04-07T11:01:03Z</time></trkpt>
<trkpt lat="43.2758620000" lon="-1.0691450000"><ele>203</ele><time>2026-04-07T11:01:06Z</time></trkpt>
<trkpt lat="43.2758450000" lon="-1.0691270000"><ele>203</ele><time>2026-04-07T11:01:08Z</time></trkpt>
<trkpt lat="43.2758200000" lon="-1.0691220000"><ele>203</ele><time>2026-04-07T11:01:10Z</time></trkpt>
<trkpt lat="43.2757970000" lon="-1.0691220000"><ele>203</ele><time>2026-04-07T11:01:12Z</time></trkpt>
<trkpt lat="43.2757700000" lon="-1.0691150000"><ele>203</ele><time>2026-04-07T11:01:15Z</time></trkpt>
<trkpt lat="43.2757520000" lon="-1.0691100000"><ele>204</ele><time>2026-04-07T11:01:17Z</time></trkpt>
<trkpt lat="43.2757320000" lon="-1.0691000000"><ele>204</ele><time>2026-04-07T11:01:19Z</time></trkpt>
<trkpt lat="43.2757120000" lon="-1.0690820000"><ele>204</ele><time>2026-04-07T11:01:21Z</time></trkpt>
<trkpt lat="43.2756900000" lon="-1.0690820000"><ele>204</ele><time>2026-04-07T11:01:25Z</time></trkpt>
<trkpt lat="43.2756720000" lon="-1.0690820000"><ele>205</ele><time>2026-04-07T11:01:28Z</time></trkpt>
<trkpt lat="43.2756520000" lon="-1.0691050000"><ele>205</ele><time>2026-04-07T11:01:30Z</time></trkpt>
<trkpt lat="43.2756370000" lon="-1.0691170000"><ele>205</ele><time>2026-04-07T11:01:33Z</time></trkpt>
<trkpt lat="43.2756150000" lon="-1.0691000000"><ele>206</ele><time>2026-04-07T11:01:36Z</time></trkpt>
<trkpt lat="43.2755900000" lon="-1.0690770000"><ele>206</ele><time>2026-04-07T11:01:38Z</time></trkpt>
<trkpt lat="43.2755700000" lon="-1.0690570000"><ele>206</ele><time>2026-04-07T11:01:40Z</time></trkpt>
<trkpt lat="43.2755470000" lon="-1.0690330000"><ele>206</ele><time>2026-04-07T11:01:42Z</time></trkpt>
<trkpt lat="43.2755270000" lon="-1.0690270000"><ele>207</ele><time>2026-04-07T11:01:44Z</time></trkpt>
<trkpt lat="43.2755000000" lon="-1.0690120000"><ele>207</ele><time>2026-04-07T11:01:47Z</time></trkpt>
<trkpt lat="43.2754820000" lon="-1.0689930000"><ele>207</ele><time>2026-04-07T11:01:49Z</time></trkpt>
<trkpt lat="43.2754600000" lon="-1.0689970000"><ele>208</ele><time>2026-04-07T11:01:52Z</time></trkpt>
<trkpt lat="43.2754400000" lon="-1.0689930000"><ele>208</ele><time>2026-04-07T11:01:55Z</time></trkpt>
<trkpt lat="43.2754220000" lon="-1.0690070000"><ele>208</ele><time>2026-04-07T11:01:58Z</time></trkpt>
<trkpt lat="43.2753970000" lon="-1.0690050000"><ele>209</ele><time>2026-04-07T11:02:01Z</time></trkpt>
<trkpt lat="43.2753800000" lon="-1.0690050000"><ele>209</ele><time>2026-04-07T11:02:03Z</time></trkpt>
<trkpt lat="43.2753520000" lon="-1.0689920000"><ele>209</ele><time>2026-04-07T11:02:06Z</time></trkpt>
<trkpt lat="43.2753330000" lon="-1.0689920000"><ele>210</ele><time>2026-04-07T11:02:08Z</time></trkpt>
<trkpt lat="43.2753100000" lon="-1.0690020000"><ele>210</ele><time>2026-04-07T11:02:11Z</time></trkpt>
<trkpt lat="43.2752870000" lon="-1.0690050000"><ele>210</ele><time>2026-04-07T11:02:14Z</time></trkpt>
<trkpt lat="43.2752670000" lon="-1.0690020000"><ele>211</ele><time>2026-04-07T11:02:18Z</time></trkpt>
<trkpt lat="43.2752450000" lon="-1.0690120000"><ele>211</ele><time>2026-04-07T11:02:20Z</time></trkpt>
<trkpt lat="43.2752270000" lon="-1.0690200000"><ele>211</ele><time>2026-04-07T11:02:21Z</time></trkpt>
<trkpt lat="43.2752020000" lon="-1.0690200000"><ele>212</ele><time>2026-04-07T11:02:23Z</time></trkpt>
<trkpt lat="43.2751820000" lon="-1.0690150000"><ele>212</ele><time>2026-04-07T11:02:26Z</time></trkpt>
<trkpt lat="43.2751650000" lon="-1.0690120000"><ele>212</ele><time>2026-04-07T11:02:29Z</time></trkpt>
<trkpt lat="43.2751420000" lon="-1.0690070000"><ele>212</ele><time>2026-04-07T11:02:32Z</time></trkpt>
<trkpt lat="43.2751170000" lon="-1.0690070000"><ele>213</ele><time>2026-04-07T11:02:35Z</time></trkpt>
<trkpt lat="43.2750870000" lon="-1.0689970000"><ele>213</ele><time>2026-04-07T11:02:38Z</time></trkpt>
<trkpt lat="43.2750670000" lon="-1.0690050000"><ele>214</ele><time>2026-04-07T11:02:41Z</time></trkpt>
<trkpt lat="43.2750520000" lon="-1.0690170000"><ele>214</ele><time>2026-04-07T11:02:43Z</time></trkpt>
<trkpt lat="43.2750370000" lon="-1.0690330000"><ele>214</ele><time>2026-04-07T11:02:45Z</time></trkpt>
<trkpt lat="43.2750100000" lon="-1.0690370000"><ele>215</ele><time>2026-04-07T11:02:48Z</time></trkpt>
<trkpt lat="43.2749870000" lon="-1.0690120000"><ele>215</ele><time>2026-04-07T11:02:50Z</time></trkpt>
<trkpt lat="43.2749650000" lon="-1.0689800000"><ele>215</ele><time>2026-04-07T11:02:52Z</time></trkpt>
<trkpt lat="43.2749500000" lon="-1.0689520000"><ele>216</ele><time>2026-04-07T11:02:54Z</time></trkpt>
<trkpt lat="43.2749350000" lon="-1.0689320000"><ele>216</ele><time>2026-04-07T11:02:56Z</time></trkpt>
<trkpt lat="43.2749170000" lon="-1.0689200000"><ele>217</ele><time>2026-04-07T11:02:59Z</time></trkpt>
<trkpt lat="43.2748970000" lon="-1.0689300000"><ele>217</ele><time>2026-04-07T11:03:01Z</time></trkpt>
<trkpt lat="43.2748770000" lon="-1.0689320000"><ele>217</ele><time>2026-04-07T11:03:04Z</time></trkpt>
<trkpt lat="43.2748620000" lon="-1.0689420000"><ele>218</ele><time>2026-04-07T11:03:07Z</time></trkpt>
<trkpt lat="43.2748420000" lon="-1.0689570000"><ele>218</ele><time>2026-04-07T11:03:11Z</time></trkpt>
<trkpt lat="43.2748220000" lon="-1.0689670000"><ele>219</ele><time>2026-04-07T11:03:14Z</time></trkpt>
<trkpt lat="43.2747970000" lon="-1.0689620000"><ele>219</ele><time>2026-04-07T11:03:17Z</time></trkpt>
<trkpt lat="43.2747770000" lon="-1.0689700000"><ele>220</ele><time>2026-04-07T11:03:20Z</time></trkpt>
<trkpt lat="43.2747570000" lon="-1.0689870000"><ele>220</ele><time>2026-04-07T11:03:23Z</time></trkpt>
<trkpt lat="43.2747370000" lon="-1.0689920000"><ele>220</ele><time>2026-04-07T11:03:26Z</time></trkpt>
<trkpt lat="43.2747150000" lon="-1.0689930000"><ele>221</ele><time>2026-04-07T11:03:29Z</time></trkpt>
<trkpt lat="43.2746920000" lon="-1.0689920000"><ele>221</ele><time>2026-04-07T11:03:31Z</time></trkpt>
<trkpt lat="43.2746750000" lon="-1.0689920000"><ele>221</ele><time>2026-04-07T11:03:33Z</time></trkpt>
<trkpt lat="43.2746550000" lon="-1.0689920000"><ele>222</ele><time>2026-04-07T11:03:36Z</time></trkpt>
<trkpt lat="43.2746370000" lon="-1.0690020000"><ele>222</ele><time>2026-04-07T11:03:38Z</time></trkpt>
<trkpt lat="43.2746120000" lon="-1.0690070000"><ele>222</ele><time>2026-04-07T11:03:41Z</time></trkpt>
<trkpt lat="43.2745920000" lon="-1.0690120000"><ele>223</ele><time>2026-04-07T11:03:44Z</time></trkpt>
<trkpt lat="43.2745670000" lon="-1.0690300000"><ele>223</ele><time>2026-04-07T11:03:47Z</time></trkpt>
<trkpt lat="43.2745520000" lon="-1.0690420000"><ele>223</ele><time>2026-04-07T11:03:49Z</time></trkpt>
<trkpt lat="43.2745370000" lon="-1.0690600000"><ele>224</ele><time>2026-04-07T11:03:51Z</time></trkpt>
<trkpt lat="43.2745250000" lon="-1.0690870000"><ele>224</ele><time>2026-04-07T11:03:53Z</time></trkpt>
<trkpt lat="43.2745100000" lon="-1.0691150000"><ele>224</ele><time>2026-04-07T11:03:55Z</time></trkpt>
<trkpt lat="43.2744970000" lon="-1.0691450000"><ele>224</ele><time>2026-04-07T11:03:57Z</time></trkpt>
<trkpt lat="43.2744820000" lon="-1.0691770000"><ele>224</ele><time>2026-04-07T11:03:59Z</time></trkpt>
<trkpt lat="43.2744700000" lon="-1.0692020000"><ele>224</ele><time>2026-04-07T11:04:01Z</time></trkpt>
<trkpt lat="43.2744550000" lon="-1.0692200000"><ele>224</ele><time>2026-04-07T11:04:03Z</time></trkpt>
<trkpt lat="43.2744330000" lon="-1.0692280000"><ele>224</ele><time>2026-04-07T11:04:05Z</time></trkpt>
<trkpt lat="43.2744150000" lon="-1.0692450000"><ele>224</ele><time>2026-04-07T11:04:08Z</time></trkpt>
<trkpt lat="43.2744020000" lon="-1.0692620000"><ele>224</ele><time>2026-04-07T11:04:10Z</time></trkpt>
<trkpt lat="43.2743670000" lon="-1.0692670000"><ele>224</ele><time>2026-04-07T11:04:13Z</time></trkpt>
<trkpt lat="43.2743370000" lon="-1.0692630000"><ele>224</ele><time>2026-04-07T11:04:15Z</time></trkpt>
<trkpt lat="43.2743170000" lon="-1.0692620000"><ele>224</ele><time>2026-04-07T11:04:16Z</time></trkpt>
<trkpt lat="43.2742900000" lon="-1.0692550000"><ele>224</ele><time>2026-04-07T11:04:18Z</time></trkpt>
<trkpt lat="43.2742650000" lon="-1.0692520000"><ele>224</ele><time>2026-04-07T11:04:21Z</time></trkpt>
<trkpt lat="43.2742370000" lon="-1.0692370000"><ele>224</ele><time>2026-04-07T11:04:23Z</time></trkpt>
<trkpt lat="43.2742080000" lon="-1.0692170000"><ele>224</ele><time>2026-04-07T11:04:25Z</time></trkpt>
<trkpt lat="43.2742020000" lon="-1.0691900000"><ele>224</ele><time>2026-04-07T11:04:26Z</time></trkpt>
<trkpt lat="43.2741770000" lon="-1.0691620000"><ele>224</ele><time>2026-04-07T11:04:28Z</time></trkpt>
<trkpt lat="43.2741600000" lon="-1.0691520000"><ele>224</ele><time>2026-04-07T11:04:30Z</time></trkpt>
<trkpt lat="43.2741420000" lon="-1.0691370000"><ele>224</ele><time>2026-04-07T11:04:32Z</time></trkpt>
<trkpt lat="43.2741220000" lon="-1.0691270000"><ele>224</ele><time>2026-04-07T11:04:34Z</time></trkpt>
<trkpt lat="43.2741000000" lon="-1.0691120000"><ele>224</ele><time>2026-04-07T11:04:36Z</time></trkpt>
<trkpt lat="43.2740700000" lon="-1.0691050000"><ele>224</ele><time>2026-04-07T11:04:38Z</time></trkpt>
<trkpt lat="43.2740450000" lon="-1.0691100000"><ele>224</ele><time>2026-04-07T11:04:40Z</time></trkpt>
<trkpt lat="43.2740270000" lon="-1.0691200000"><ele>224</ele><time>2026-04-07T11:04:41Z</time></trkpt>
<trkpt lat="43.2740070000" lon="-1.0691200000"><ele>224</ele><time>2026-04-07T11:04:43Z</time></trkpt>
<trkpt lat="43.2739850000" lon="-1.0691320000"><ele>224</ele><time>2026-04-07T11:04:45Z</time></trkpt>
<trkpt lat="43.2739650000" lon="-1.0691450000"><ele>224</ele><time>2026-04-07T11:04:47Z</time></trkpt>
<trkpt lat="43.2739450000" lon="-1.0691600000"><ele>224</ele><time>2026-04-07T11:04:49Z</time></trkpt>
<trkpt lat="43.2739270000" lon="-1.0691670000"><ele>224</ele><time>2026-04-07T11:04:51Z</time></trkpt>
<trkpt lat="43.2739050000" lon="-1.0691670000"><ele>224</ele><time>2026-04-07T11:04:53Z</time></trkpt>
<trkpt lat="43.2738870000" lon="-1.0691770000"><ele>224</ele><time>2026-04-07T11:04:55Z</time></trkpt>
<trkpt lat="43.2738600000" lon="-1.0691970000"><ele>224</ele><time>2026-04-07T11:04:58Z</time></trkpt>
<trkpt lat="43.2738350000" lon="-1.0692050000"><ele>224</ele><time>2026-04-07T11:05:00Z</time></trkpt>
<trkpt lat="43.2738100000" lon="-1.0692050000"><ele>224</ele><time>2026-04-07T11:05:02Z</time></trkpt>
<trkpt lat="43.2737870000" lon="-1.0691970000"><ele>224</ele><time>2026-04-07T11:05:04Z</time></trkpt>
<trkpt lat="43.2737620000" lon="-1.0691920000"><ele>224</ele><time>2026-04-07T11:05:07Z</time></trkpt>
<trkpt lat="43.2737370000" lon="-1.0691870000"><ele>224</ele><time>2026-04-07T11:05:09Z</time></trkpt>
<trkpt lat="43.2737170000" lon="-1.0691770000"><ele>224</ele><time>2026-04-07T11:05:11Z</time></trkpt>
<trkpt lat="43.2736970000" lon="-1.0691680000"><ele>224</ele><time>2026-04-07T11:05:13Z</time></trkpt>
<trkpt lat="43.2736770000" lon="-1.0691520000"><ele>224</ele><time>2026-04-07T11:05:15Z</time></trkpt>
<trkpt lat="43.2736650000" lon="-1.0691220000"><ele>224</ele><time>2026-04-07T11:05:17Z</time></trkpt>
<trkpt lat="43.2736520000" lon="-1.0690930000"><ele>224</ele><time>2026-04-07T11:05:19Z</time></trkpt>
<trkpt lat="43.2736420000" lon="-1.0690650000"><ele>224</ele><time>2026-04-07T11:05:21Z</time></trkpt>
<trkpt lat="43.2736400000" lon="-1.0690380000"><ele>224</ele><time>2026-04-07T11:05:23Z</time></trkpt>
<trkpt lat="43.2736370000" lon="-1.0690070000"><ele>224</ele><time>2026-04-07T11:05:25Z</time></trkpt>
<trkpt lat="43.2736320000" lon="-1.0689800000"><ele>224</ele><time>2026-04-07T11:05:27Z</time></trkpt>
<trkpt lat="43.2736200000" lon="-1.0689420000"><ele>223</ele><time>2026-04-07T11:05:29Z</time></trkpt>
<trkpt lat="43.2736320000" lon="-1.0689070000"><ele>223</ele><time>2026-04-07T11:05:31Z</time></trkpt>
<trkpt lat="43.2736320000" lon="-1.0688630000"><ele>224</ele><time>2026-04-07T11:05:33Z</time></trkpt>
<trkpt lat="43.2736300000" lon="-1.0688200000"><ele>224</ele><time>2026-04-07T11:05:35Z</time></trkpt>
<trkpt lat="43.2736250000" lon="-1.0687800000"><ele>224</ele><time>2026-04-07T11:05:37Z</time></trkpt>
<trkpt lat="43.2736170000" lon="-1.0687400000"><ele>223</ele><time>2026-04-07T11:05:39Z</time></trkpt>
<trkpt lat="43.2736050000" lon="-1.0687070000"><ele>223</ele><time>2026-04-07T11:05:41Z</time></trkpt>
<trkpt lat="43.2735970000" lon="-1.0686820000"><ele>223</ele><time>2026-04-07T11:05:43Z</time></trkpt>
<trkpt lat="43.2735920000" lon="-1.0686570000"><ele>223</ele><time>2026-04-07T11:05:45Z</time></trkpt>
<trkpt lat="43.2735870000" lon="-1.0686320000"><ele>223</ele><time>2026-04-07T11:05:47Z</time></trkpt>
<trkpt lat="43.2735820000" lon="-1.0686000000"><ele>223</ele><time>2026-04-07T11:05:49Z</time></trkpt>
<trkpt lat="43.2735770000" lon="-1.0685720000"><ele>223</ele><time>2026-04-07T11:05:51Z</time></trkpt>
<trkpt lat="43.2735720000" lon="-1.0685370000"><ele>223</ele><time>2026-04-07T11:05:53Z</time></trkpt>
<trkpt lat="43.2735620000" lon="-1.0685050000"><ele>223</ele><time>2026-04-07T11:05:55Z</time></trkpt>
<trkpt lat="43.2735550000" lon="-1.0684720000"><ele>223</ele><time>2026-04-07T11:05:57Z</time></trkpt>
<trkpt lat="43.2735450000" lon="-1.0684370000"><ele>223</ele><time>2026-04-07T11:05:59Z</time></trkpt>
<trkpt lat="43.2735300000" lon="-1.0684020000"><ele>223</ele><time>2026-04-07T11:06:01Z</time></trkpt>
<trkpt lat="43.2735250000" lon="-1.0683720000"><ele>223</ele><time>2026-04-07T11:06:03Z</time></trkpt>
<trkpt lat="43.2735120000" lon="-1.0683420000"><ele>223</ele><time>2026-04-07T11:06:05Z</time></trkpt>
<trkpt lat="43.2735020000" lon="-1.0683120000"><ele>223</ele><time>2026-04-07T11:06:07Z</time></trkpt>
<trkpt lat="43.2734920000" lon="-1.0682830000"><ele>223</ele><time>2026-04-07T11:06:09Z</time></trkpt>
<trkpt lat="43.2734820000" lon="-1.0682600000"><ele>223</ele><time>2026-04-07T11:06:11Z</time></trkpt>
<trkpt lat="43.2734720000" lon="-1.0682280000"><ele>223</ele><time>2026-04-07T11:06:13Z</time></trkpt>
<trkpt lat="43.2734570000" lon="-1.0682020000"><ele>222</ele><time>2026-04-07T11:06:15Z</time></trkpt>
<trkpt lat="43.2734370000" lon="-1.0682020000"><ele>223</ele><time>2026-04-07T11:06:41Z</time></trkpt>
<trkpt lat="43.2734570000" lon="-1.0682120000"><ele>223</ele><time>2026-04-07T11:06:46Z</time></trkpt>
<trkpt lat="43.2734450000" lon="-1.0681770000"><ele>223</ele><time>2026-04-07T11:06:49Z</time></trkpt>
<trkpt lat="43.2734250000" lon="-1.0681470000"><ele>223</ele><time>2026-04-07T11:06:51Z</time></trkpt>
<trkpt lat="43.2734070000" lon="-1.0681200000"><ele>222</ele><time>2026-04-07T11:06:53Z</time></trkpt>
<trkpt lat="43.2733870000" lon="-1.0680900000"><ele>222</ele><time>2026-04-07T11:06:55Z</time></trkpt>
<trkpt lat="43.2733670000" lon="-1.0680620000"><ele>222</ele><time>2026-04-07T11:06:57Z</time></trkpt>
<trkpt lat="43.2733470000" lon="-1.0680420000"><ele>222</ele><time>2026-04-07T11:06:59Z</time></trkpt>
<trkpt lat="43.2733300000" lon="-1.0680220000"><ele>222</ele><time>2026-04-07T11:07:01Z</time></trkpt>
<trkpt lat="43.2733070000" lon="-1.0680020000"><ele>222</ele><time>2026-04-07T11:07:03Z</time></trkpt>
<trkpt lat="43.2732870000" lon="-1.0679800000"><ele>222</ele><time>2026-04-07T11:07:05Z</time></trkpt>
<trkpt lat="43.2732670000" lon="-1.0679570000"><ele>222</ele><time>2026-04-07T11:07:07Z</time></trkpt>
<trkpt lat="43.2732470000" lon="-1.0679370000"><ele>222</ele><time>2026-04-07T11:07:09Z</time></trkpt>
<trkpt lat="43.2732270000" lon="-1.0679170000"><ele>222</ele><time>2026-04-07T11:07:11Z</time></trkpt>
<trkpt lat="43.2732120000" lon="-1.0679020000"><ele>222</ele><time>2026-04-07T11:07:13Z</time></trkpt>
<trkpt lat="43.2731920000" lon="-1.0678820000"><ele>222</ele><time>2026-04-07T11:07:15Z</time></trkpt>
<trkpt lat="43.2731700000" lon="-1.0678650000"><ele>222</ele><time>2026-04-07T11:07:17Z</time></trkpt>
<trkpt lat="43.2731470000" lon="-1.0678500000"><ele>222</ele><time>2026-04-07T11:07:19Z</time></trkpt>
<trkpt lat="43.2731220000" lon="-1.0678420000"><ele>222</ele><time>2026-04-07T11:07:21Z</time></trkpt>
<trkpt lat="43.2730970000" lon="-1.0678370000"><ele>222</ele><time>2026-04-07T11:07:23Z</time></trkpt>
<trkpt lat="43.2730750000" lon="-1.0678320000"><ele>222</ele><time>2026-04-07T11:07:25Z</time></trkpt>
<trkpt lat="43.2730470000" lon="-1.0678300000"><ele>222</ele><time>2026-04-07T11:07:27Z</time></trkpt>
<trkpt lat="43.2730270000" lon="-1.0678230000"><ele>222</ele><time>2026-04-07T11:07:29Z</time></trkpt>
<trkpt lat="43.2730000000" lon="-1.0678170000"><ele>222</ele><time>2026-04-07T11:07:31Z</time></trkpt>
<trkpt lat="43.2729750000" lon="-1.0678120000"><ele>222</ele><time>2026-04-07T11:07:33Z</time></trkpt>
<trkpt lat="43.2729520000" lon="-1.0678000000"><ele>222</ele><time>2026-04-07T11:07:35Z</time></trkpt>
<trkpt lat="43.2729300000" lon="-1.0677920000"><ele>222</ele><time>2026-04-07T11:07:37Z</time></trkpt>
<trkpt lat="43.2729070000" lon="-1.0677780000"><ele>222</ele><time>2026-04-07T11:07:39Z</time></trkpt>
<trkpt lat="43.2728800000" lon="-1.0677770000"><ele>222</ele><time>2026-04-07T11:07:41Z</time></trkpt>
<trkpt lat="43.2728600000" lon="-1.0677770000"><ele>222</ele><time>2026-04-07T11:07:43Z</time></trkpt>
<trkpt lat="43.2728420000" lon="-1.0677870000"><ele>222</ele><time>2026-04-07T11:07:45Z</time></trkpt>
<trkpt lat="43.2728220000" lon="-1.0678000000"><ele>222</ele><time>2026-04-07T11:07:47Z</time></trkpt>
<trkpt lat="43.2728020000" lon="-1.0677970000"><ele>222</ele><time>2026-04-07T11:07:49Z</time></trkpt>
<trkpt lat="43.2727770000" lon="-1.0677950000"><ele>222</ele><time>2026-04-07T11:07:51Z</time></trkpt>
<trkpt lat="43.2727520000" lon="-1.0677670000"><ele>222</ele><time>2026-04-07T11:07:53Z</time></trkpt>
<trkpt lat="43.2727350000" lon="-1.0677470000"><ele>222</ele><time>2026-04-07T11:07:54Z</time></trkpt>
<trkpt lat="43.2727120000" lon="-1.0677070000"><ele>222</ele><time>2026-04-07T11:07:56Z</time></trkpt>
<trkpt lat="43.2726920000" lon="-1.0676670000"><ele>222</ele><time>2026-04-07T11:07:58Z</time></trkpt>
<trkpt lat="43.2726850000" lon="-1.0676320000"><ele>222</ele><time>2026-04-07T11:08:00Z</time></trkpt>
<trkpt lat="43.2726750000" lon="-1.0676020000"><ele>222</ele><time>2026-04-07T11:08:02Z</time></trkpt>
<trkpt lat="43.2726670000" lon="-1.0675720000"><ele>222</ele><time>2026-04-07T11:08:04Z</time></trkpt>
<trkpt lat="43.2726570000" lon="-1.0675370000"><ele>222</ele><time>2026-04-07T11:08:06Z</time></trkpt>
<trkpt lat="43.2726470000" lon="-1.0675050000"><ele>222</ele><time>2026-04-07T11:08:08Z</time></trkpt>
<trkpt lat="43.2726370000" lon="-1.0674720000"><ele>222</ele><time>2026-04-07T11:08:10Z</time></trkpt>
<trkpt lat="43.2726270000" lon="-1.0674450000"><ele>222</ele><time>2026-04-07T11:08:12Z</time></trkpt>
<trkpt lat="43.2726150000" lon="-1.0674120000"><ele>222</ele><time>2026-04-07T11:08:14Z</time></trkpt>
<trkpt lat="43.2726000000" lon="-1.0673780000"><ele>222</ele><time>2026-04-07T11:08:16Z</time></trkpt>
<trkpt lat="43.2725850000" lon="-1.0673470000"><ele>222</ele><time>2026-04-07T11:08:18Z</time></trkpt>
<trkpt lat="43.2725720000" lon="-1.0673170000"><ele>222</ele><time>2026-04-07T11:08:20Z</time></trkpt>
<trkpt lat="43.2725550000" lon="-1.0672920000"><ele>222</ele><time>2026-04-07T11:08:22Z</time></trkpt>
<trkpt lat="43.2725370000" lon="-1.0672670000"><ele>221</ele><time>2026-04-07T11:08:24Z</time></trkpt>
<trkpt lat="43.2725200000" lon="-1.0672380000"><ele>221</ele><time>2026-04-07T11:08:26Z</time></trkpt>
<trkpt lat="43.2725050000" lon="-1.0672120000"><ele>221</ele><time>2026-04-07T11:08:28Z</time></trkpt>
<trkpt lat="43.2724920000" lon="-1.0671850000"><ele>221</ele><time>2026-04-07T11:08:30Z</time></trkpt>
<trkpt lat="43.2724770000" lon="-1.0671570000"><ele>221</ele><time>2026-04-07T11:08:32Z</time></trkpt>
<trkpt lat="43.2724630000" lon="-1.0671320000"><ele>221</ele><time>2026-04-07T11:08:34Z</time></trkpt>
<trkpt lat="43.2724470000" lon="-1.0671000000"><ele>221</ele><time>2026-04-07T11:08:36Z</time></trkpt>
<trkpt lat="43.2724320000" lon="-1.0670630000"><ele>221</ele><time>2026-04-07T11:08:38Z</time></trkpt>
<trkpt lat="43.2724170000" lon="-1.0670270000"><ele>221</ele><time>2026-04-07T11:08:40Z</time></trkpt>
<trkpt lat="43.2724070000" lon="-1.0670000000"><ele>221</ele><time>2026-04-07T11:08:42Z</time></trkpt>
<trkpt lat="43.2723970000" lon="-1.0669680000"><ele>221</ele><time>2026-04-07T11:08:44Z</time></trkpt>
<trkpt lat="43.2723820000" lon="-1.0669400000"><ele>221</ele><time>2026-04-07T11:08:46Z</time></trkpt>
<trkpt lat="43.2723700000" lon="-1.0669070000"><ele>221</ele><time>2026-04-07T11:08:48Z</time></trkpt>
<trkpt lat="43.2723600000" lon="-1.0668720000"><ele>221</ele><time>2026-04-07T11:08:50Z</time></trkpt>
<trkpt lat="43.2723420000" lon="-1.0668450000"><ele>221</ele><time>2026-04-07T11:08:52Z</time></trkpt>
<trkpt lat="43.2723320000" lon="-1.0668200000"><ele>221</ele><time>2026-04-07T11:08:54Z</time></trkpt>
<trkpt lat="43.2723170000" lon="-1.0667920000"><ele>221</ele><time>2026-04-07T11:08:56Z</time></trkpt>
<trkpt lat="43.2723000000" lon="-1.0667580000"><ele>221</ele><time>2026-04-07T11:08:58Z</time></trkpt>
<trkpt lat="43.2722920000" lon="-1.0667320000"><ele>221</ele><time>2026-04-07T11:09:00Z</time></trkpt>
<trkpt lat="43.2722770000" lon="-1.0667000000"><ele>221</ele><time>2026-04-07T11:09:03Z</time></trkpt>
<trkpt lat="43.2722650000" lon="-1.0666820000"><ele>221</ele><time>2026-04-07T11:09:04Z</time></trkpt>
<trkpt lat="43.2722500000" lon="-1.0666520000"><ele>221</ele><time>2026-04-07T11:09:06Z</time></trkpt>
<trkpt lat="43.2722370000" lon="-1.0666350000"><ele>221</ele><time>2026-04-07T11:09:07Z</time></trkpt>
<trkpt lat="43.2722170000" lon="-1.0666100000"><ele>221</ele><time>2026-04-07T11:09:09Z</time></trkpt>
<trkpt lat="43.2722070000" lon="-1.0665870000"><ele>221</ele><time>2026-04-07T11:09:11Z</time></trkpt>
<trkpt lat="43.2722020000" lon="-1.0665520000"><ele>221</ele><time>2026-04-07T11:09:14Z</time></trkpt>
<trkpt lat="43.2721920000" lon="-1.0665120000"><ele>221</ele><time>2026-04-07T11:09:16Z</time></trkpt>
<trkpt lat="43.2721870000" lon="-1.0664870000"><ele>221</ele><time>2026-04-07T11:09:17Z</time></trkpt>
<trkpt lat="43.2721770000" lon="-1.0664480000"><ele>221</ele><time>2026-04-07T11:09:19Z</time></trkpt>
<trkpt lat="43.2721670000" lon="-1.0664120000"><ele>221</ele><time>2026-04-07T11:09:21Z</time></trkpt>
<trkpt lat="43.2721470000" lon="-1.0663850000"><ele>221</ele><time>2026-04-07T11:09:23Z</time></trkpt>
<trkpt lat="43.2721320000" lon="-1.0663570000"><ele>221</ele><time>2026-04-07T11:09:25Z</time></trkpt>
<trkpt lat="43.2721270000" lon="-1.0663270000"><ele>221</ele><time>2026-04-07T11:09:27Z</time></trkpt>
<trkpt lat="43.2721170000" lon="-1.0662920000"><ele>221</ele><time>2026-04-07T11:09:29Z</time></trkpt>
<trkpt lat="43.2721070000" lon="-1.0662620000"><ele>221</ele><time>2026-04-07T11:09:31Z</time></trkpt>
<trkpt lat="43.2721020000" lon="-1.0662270000"><ele>220</ele><time>2026-04-07T11:09:33Z</time></trkpt>
<trkpt lat="43.2720970000" lon="-1.0661920000"><ele>220</ele><time>2026-04-07T11:09:35Z</time></trkpt>
<trkpt lat="43.2720870000" lon="-1.0661670000"><ele>220</ele><time>2026-04-07T11:09:37Z</time></trkpt>
<trkpt lat="43.2720720000" lon="-1.0661470000"><ele>220</ele><time>2026-04-07T11:09:39Z</time></trkpt>
<trkpt lat="43.2720570000" lon="-1.0661350000"><ele>220</ele><time>2026-04-07T11:09:41Z</time></trkpt>
<trkpt lat="43.2720370000" lon="-1.0661170000"><ele>220</ele><time>2026-04-07T11:09:44Z</time></trkpt>
<trkpt lat="43.2720320000" lon="-1.0660870000"><ele>220</ele><time>2026-04-07T11:09:46Z</time></trkpt>
<trkpt lat="43.2720270000" lon="-1.0660520000"><ele>221</ele><time>2026-04-07T11:09:49Z</time></trkpt>
<trkpt lat="43.2720400000" lon="-1.0660220000"><ele>221</ele><time>2026-04-07T11:09:51Z</time></trkpt>
<trkpt lat="43.2720150000" lon="-1.0659920000"><ele>220</ele><time>2026-04-07T11:09:53Z</time></trkpt>
<trkpt lat="43.2719970000" lon="-1.0659770000"><ele>220</ele><time>2026-04-07T11:09:54Z</time></trkpt>
<trkpt lat="43.2719820000" lon="-1.0659620000"><ele>220</ele><time>2026-04-07T11:09:55Z</time></trkpt>
<trkpt lat="43.2719670000" lon="-1.0659370000"><ele>220</ele><time>2026-04-07T11:09:57Z</time></trkpt>
<trkpt lat="43.2719620000" lon="-1.0659080000"><ele>220</ele><time>2026-04-07T11:09:59Z</time></trkpt>
<trkpt lat="43.2719500000" lon="-1.0658820000"><ele>220</ele><time>2026-04-07T11:10:01Z</time></trkpt>
<trkpt lat="43.2719420000" lon="-1.0658470000"><ele>220</ele><time>2026-04-07T11:10:03Z</time></trkpt>
<trkpt lat="43.2719270000" lon="-1.0658080000"><ele>220</ele><time>2026-04-07T11:10:05Z</time></trkpt>
<trkpt lat="43.2719070000" lon="-1.0657800000"><ele>220</ele><time>2026-04-07T11:10:07Z</time></trkpt>
<trkpt lat="43.2718870000" lon="-1.0657520000"><ele>220</ele><time>2026-04-07T11:10:09Z</time></trkpt>
<trkpt lat="43.2718820000" lon="-1.0657220000"><ele>220</ele><time>2026-04-07T11:10:12Z</time></trkpt>
<trkpt lat="43.2718720000" lon="-1.0656920000"><ele>220</ele><time>2026-04-07T11:10:14Z</time></trkpt>
<trkpt lat="43.2718700000" lon="-1.0656550000"><ele>220</ele><time>2026-04-07T11:10:16Z</time></trkpt>
<trkpt lat="43.2718580000" lon="-1.0656230000"><ele>220</ele><time>2026-04-07T11:10:18Z</time></trkpt>
<trkpt lat="43.2718470000" lon="-1.0655920000"><ele>220</ele><time>2026-04-07T11:10:20Z</time></trkpt>
<trkpt lat="43.2718400000" lon="-1.0655620000"><ele>220</ele><time>2026-04-07T11:10:22Z</time></trkpt>
<trkpt lat="43.2718250000" lon="-1.0655430000"><ele>220</ele><time>2026-04-07T11:10:24Z</time></trkpt>
<trkpt lat="43.2718070000" lon="-1.0655200000"><ele>220</ele><time>2026-04-07T11:10:26Z</time></trkpt>
<trkpt lat="43.2717870000" lon="-1.0654850000"><ele>220</ele><time>2026-04-07T11:10:28Z</time></trkpt>
<trkpt lat="43.2717730000" lon="-1.0654550000"><ele>220</ele><time>2026-04-07T11:10:30Z</time></trkpt>
<trkpt lat="43.2717620000" lon="-1.0654370000"><ele>220</ele><time>2026-04-07T11:10:31Z</time></trkpt>
<trkpt lat="43.2717420000" lon="-1.0654020000"><ele>220</ele><time>2026-04-07T11:10:33Z</time></trkpt>
<trkpt lat="43.2717120000" lon="-1.0653820000"><ele>220</ele><time>2026-04-07T11:10:35Z</time></trkpt>
<trkpt lat="43.2716950000" lon="-1.0653970000"><ele>220</ele><time>2026-04-07T11:10:36Z</time></trkpt>
<trkpt lat="43.2716750000" lon="-1.0654320000"><ele>220</ele><time>2026-04-07T11:10:38Z</time></trkpt>
<trkpt lat="43.2716700000" lon="-1.0654620000"><ele>220</ele><time>2026-04-07T11:10:39Z</time></trkpt>
<trkpt lat="43.2716600000" lon="-1.0654970000"><ele>220</ele><time>2026-04-07T11:10:41Z</time></trkpt>
<trkpt lat="43.2716520000" lon="-1.0655220000"><ele>220</ele><time>2026-04-07T11:10:45Z</time></trkpt>
<trkpt lat="43.2716320000" lon="-1.0655370000"><ele>220</ele><time>2026-04-07T11:10:47Z</time></trkpt>
<trkpt lat="43.2716520000" lon="-1.0655520000"><ele>220</ele><time>2026-04-07T11:11:36Z</time></trkpt>
<trkpt lat="43.2716750000" lon="-1.0655670000"><ele>220</ele><time>2026-04-07T11:11:38Z</time></trkpt>
<trkpt lat="43.2716750000" lon="-1.0655920000"><ele>220</ele><time>2026-04-07T11:11:41Z</time></trkpt>
<trkpt lat="43.2716770000" lon="-1.0656230000"><ele>221</ele><time>2026-04-07T11:11:44Z</time></trkpt>
<trkpt lat="43.2716770000" lon="-1.0656500000"><ele>221</ele><time>2026-04-07T11:11:46Z</time></trkpt>
<trkpt lat="43.2716770000" lon="-1.0656770000"><ele>221</ele><time>2026-04-07T11:11:48Z</time></trkpt>
<trkpt lat="43.2716720000" lon="-1.0657070000"><ele>221</ele><time>2026-04-07T11:11:50Z</time></trkpt>
<trkpt lat="43.2716670000" lon="-1.0657370000"><ele>221</ele><time>2026-04-07T11:11:53Z</time></trkpt>
<trkpt lat="43.2716550000" lon="-1.0657720000"><ele>222</ele><time>2026-04-07T11:11:56Z</time></trkpt>
<trkpt lat="43.2716470000" lon="-1.0657970000"><ele>222</ele><time>2026-04-07T11:11:58Z</time></trkpt>
<trkpt lat="43.2716350000" lon="-1.0658220000"><ele>222</ele><time>2026-04-07T11:12:01Z</time></trkpt>
<trkpt lat="43.2716220000" lon="-1.0658450000"><ele>223</ele><time>2026-04-07T11:12:03Z</time></trkpt>
<trkpt lat="43.2716100000" lon="-1.0658700000"><ele>223</ele><time>2026-04-07T11:12:05Z</time></trkpt>
<trkpt lat="43.2715920000" lon="-1.0658930000"><ele>223</ele><time>2026-04-07T11:12:08Z</time></trkpt>
<trkpt lat="43.2715770000" lon="-1.0659220000"><ele>224</ele><time>2026-04-07T11:12:11Z</time></trkpt>
<trkpt lat="43.2715570000" lon="-1.0659420000"><ele>224</ele><time>2026-04-07T11:12:14Z</time></trkpt>
<trkpt lat="43.2715400000" lon="-1.0659670000"><ele>224</ele><time>2026-04-07T11:12:17Z</time></trkpt>
<trkpt lat="43.2715170000" lon="-1.0659870000"><ele>225</ele><time>2026-04-07T11:12:19Z</time></trkpt>
<trkpt lat="43.2715020000" lon="-1.0660100000"><ele>225</ele><time>2026-04-07T11:12:21Z</time></trkpt>
<trkpt lat="43.2714850000" lon="-1.0660320000"><ele>225</ele><time>2026-04-07T11:12:23Z</time></trkpt>
<trkpt lat="43.2714720000" lon="-1.0660550000"><ele>225</ele><time>2026-04-07T11:12:25Z</time></trkpt>
<trkpt lat="43.2714600000" lon="-1.0660750000"><ele>226</ele><time>2026-04-07T11:12:27Z</time></trkpt>
<trkpt lat="43.2714450000" lon="-1.0661000000"><ele>226</ele><time>2026-04-07T11:12:29Z</time></trkpt>
<trkpt lat="43.2714220000" lon="-1.0661300000"><ele>226</ele><time>2026-04-07T11:12:31Z</time></trkpt>
<trkpt lat="43.2714000000" lon="-1.0661500000"><ele>226</ele><time>2026-04-07T11:12:33Z</time></trkpt>
<trkpt lat="43.2713820000" lon="-1.0661720000"><ele>226</ele><time>2026-04-07T11:12:35Z</time></trkpt>
<trkpt lat="43.2713670000" lon="-1.0661920000"><ele>227</ele><time>2026-04-07T11:12:37Z</time></trkpt>
<trkpt lat="43.2713550000" lon="-1.0662180000"><ele>227</ele><time>2026-04-07T11:12:40Z</time></trkpt>
<trkpt lat="43.2713500000" lon="-1.0662470000"><ele>227</ele><time>2026-04-07T11:12:42Z</time></trkpt>
<trkpt lat="43.2713420000" lon="-1.0662700000"><ele>227</ele><time>2026-04-07T11:12:44Z</time></trkpt>
<trkpt lat="43.2713370000" lon="-1.0662970000"><ele>227</ele><time>2026-04-07T11:12:46Z</time></trkpt>
<trkpt lat="43.2713370000" lon="-1.0663220000"><ele>228</ele><time>2026-04-07T11:12:48Z</time></trkpt>
<trkpt lat="43.2713420000" lon="-1.0663450000"><ele>228</ele><time>2026-04-07T11:12:50Z</time></trkpt>
<trkpt lat="43.2713450000" lon="-1.0663720000"><ele>228</ele><time>2026-04-07T11:12:52Z</time></trkpt>
<trkpt lat="43.2713370000" lon="-1.0664020000"><ele>228</ele><time>2026-04-07T11:12:55Z</time></trkpt>
<trkpt lat="43.2713220000" lon="-1.0664200000"><ele>228</ele><time>2026-04-07T11:12:57Z</time></trkpt>
<trkpt lat="43.2713100000" lon="-1.0664450000"><ele>228</ele><time>2026-04-07T11:12:59Z</time></trkpt>
<trkpt lat="43.2712950000" lon="-1.0664720000"><ele>229</ele><time>2026-04-07T11:13:01Z</time></trkpt>
<trkpt lat="43.2712770000" lon="-1.0664950000"><ele>229</ele><time>2026-04-07T11:13:03Z</time></trkpt>
<trkpt lat="43.2712670000" lon="-1.0665220000"><ele>229</ele><time>2026-04-07T11:13:05Z</time></trkpt>
<trkpt lat="43.2712570000" lon="-1.0665520000"><ele>229</ele><time>2026-04-07T11:13:07Z</time></trkpt>
<trkpt lat="43.2712450000" lon="-1.0665750000"><ele>229</ele><time>2026-04-07T11:13:09Z</time></trkpt>
<trkpt lat="43.2712350000" lon="-1.0665970000"><ele>230</ele><time>2026-04-07T11:13:11Z</time></trkpt>
<trkpt lat="43.2712300000" lon="-1.0666270000"><ele>230</ele><time>2026-04-07T11:13:13Z</time></trkpt>
<trkpt lat="43.2712150000" lon="-1.0666470000"><ele>230</ele><time>2026-04-07T11:13:15Z</time></trkpt>
<trkpt lat="43.2711970000" lon="-1.0666720000"><ele>230</ele><time>2026-04-07T11:13:17Z</time></trkpt>
<trkpt lat="43.2711770000" lon="-1.0666870000"><ele>231</ele><time>2026-04-07T11:13:19Z</time></trkpt>
<trkpt lat="43.2711600000" lon="-1.0667000000"><ele>231</ele><time>2026-04-07T11:13:21Z</time></trkpt>
<trkpt lat="43.2711470000" lon="-1.0667170000"><ele>231</ele><time>2026-04-07T11:13:23Z</time></trkpt>
<trkpt lat="43.2711320000" lon="-1.0667370000"><ele>231</ele><time>2026-04-07T11:13:26Z</time></trkpt>
<trkpt lat="43.2711170000" lon="-1.0667520000"><ele>231</ele><time>2026-04-07T11:13:28Z</time></trkpt>
<trkpt lat="43.2711050000" lon="-1.0667820000"><ele>232</ele><time>2026-04-07T11:13:31Z</time></trkpt>
<trkpt lat="43.2710870000" lon="-1.0668100000"><ele>232</ele><time>2026-04-07T11:13:34Z</time></trkpt>
<trkpt lat="43.2710770000" lon="-1.0668370000"><ele>232</ele><time>2026-04-07T11:13:37Z</time></trkpt>
<trkpt lat="43.2710670000" lon="-1.0668600000"><ele>233</ele><time>2026-04-07T11:13:39Z</time></trkpt>
<trkpt lat="43.2710520000" lon="-1.0668770000"><ele>233</ele><time>2026-04-07T11:13:41Z</time></trkpt>
<trkpt lat="43.2710320000" lon="-1.0668920000"><ele>233</ele><time>2026-04-07T11:13:43Z</time></trkpt>
<trkpt lat="43.2710120000" lon="-1.0669120000"><ele>233</ele><time>2026-04-07T11:13:45Z</time></trkpt>
<trkpt lat="43.2709950000" lon="-1.0669270000"><ele>233</ele><time>2026-04-07T11:13:47Z</time></trkpt>
<trkpt lat="43.2709820000" lon="-1.0669520000"><ele>233</ele><time>2026-04-07T11:13:49Z</time></trkpt>
<trkpt lat="43.2709670000" lon="-1.0669730000"><ele>234</ele><time>2026-04-07T11:13:51Z</time></trkpt>
<trkpt lat="43.2709550000" lon="-1.0669920000"><ele>234</ele><time>2026-04-07T11:13:53Z</time></trkpt>
<trkpt lat="43.2709420000" lon="-1.0670070000"><ele>234</ele><time>2026-04-07T11:13:55Z</time></trkpt>
<trkpt lat="43.2709300000" lon="-1.0670270000"><ele>234</ele><time>2026-04-07T11:13:57Z</time></trkpt>
<trkpt lat="43.2709200000" lon="-1.0670500000"><ele>234</ele><time>2026-04-07T11:13:59Z</time></trkpt>
<trkpt lat="43.2709100000" lon="-1.0670720000"><ele>234</ele><time>2026-04-07T11:14:01Z</time></trkpt>
<trkpt lat="43.2709000000" lon="-1.0670950000"><ele>234</ele><time>2026-04-07T11:14:03Z</time></trkpt>
<trkpt lat="43.2708870000" lon="-1.0671120000"><ele>235</ele><time>2026-04-07T11:14:05Z</time></trkpt>
<trkpt lat="43.2708670000" lon="-1.0671420000"><ele>235</ele><time>2026-04-07T11:14:08Z</time></trkpt>
<trkpt lat="43.2708470000" lon="-1.0671600000"><ele>235</ele><time>2026-04-07T11:14:10Z</time></trkpt>
<trkpt lat="43.2708370000" lon="-1.0671870000"><ele>235</ele><time>2026-04-07T11:14:12Z</time></trkpt>
<trkpt lat="43.2708270000" lon="-1.0672120000"><ele>236</ele><time>2026-04-07T11:14:14Z</time></trkpt>
<trkpt lat="43.2708170000" lon="-1.0672350000"><ele>236</ele><time>2026-04-07T11:14:16Z</time></trkpt>
<trkpt lat="43.2708050000" lon="-1.0672550000"><ele>236</ele><time>2026-04-07T11:14:18Z</time></trkpt>
<trkpt lat="43.2707920000" lon="-1.0672800000"><ele>236</ele><time>2026-04-07T11:14:20Z</time></trkpt>
<trkpt lat="43.2707800000" lon="-1.0673050000"><ele>236</ele><time>2026-04-07T11:14:22Z</time></trkpt>
<trkpt lat="43.2707670000" lon="-1.0673320000"><ele>236</ele><time>2026-04-07T11:14:24Z</time></trkpt>
<trkpt lat="43.2707570000" lon="-1.0673600000"><ele>236</ele><time>2026-04-07T11:14:26Z</time></trkpt>
<trkpt lat="43.2707370000" lon="-1.0673820000"><ele>237</ele><time>2026-04-07T11:14:29Z</time></trkpt>
<trkpt lat="43.2707320000" lon="-1.0674170000"><ele>237</ele><time>2026-04-07T11:14:32Z</time></trkpt>
<trkpt lat="43.2707300000" lon="-1.0674470000"><ele>237</ele><time>2026-04-07T11:14:34Z</time></trkpt>
<trkpt lat="43.2707270000" lon="-1.0674720000"><ele>237</ele><time>2026-04-07T11:14:36Z</time></trkpt>
<trkpt lat="43.2707180000" lon="-1.0675000000"><ele>237</ele><time>2026-04-07T11:14:38Z</time></trkpt>
<trkpt lat="43.2707120000" lon="-1.0675220000"><ele>237</ele><time>2026-04-07T11:14:40Z</time></trkpt>
<trkpt lat="43.2707070000" lon="-1.0675600000"><ele>237</ele><time>2026-04-07T11:14:43Z</time></trkpt>
<trkpt lat="43.2706970000" lon="-1.0675870000"><ele>237</ele><time>2026-04-07T11:15:17Z</time></trkpt>
<trkpt lat="43.2706950000" lon="-1.0676120000"><ele>237</ele><time>2026-04-07T11:15:19Z</time></trkpt>
<trkpt lat="43.2706800000" lon="-1.0676480000"><ele>237</ele><time>2026-04-07T11:15:21Z</time></trkpt>
<trkpt lat="43.2706600000" lon="-1.0676820000"><ele>238</ele><time>2026-04-07T11:15:23Z</time></trkpt>
<trkpt lat="43.2706450000" lon="-1.0677120000"><ele>238</ele><time>2026-04-07T11:15:25Z</time></trkpt>
<trkpt lat="43.2706320000" lon="-1.0677380000"><ele>238</ele><time>2026-04-07T11:15:27Z</time></trkpt>
<trkpt lat="43.2706170000" lon="-1.0677620000"><ele>238</ele><time>2026-04-07T11:15:29Z</time></trkpt>
<trkpt lat="43.2706020000" lon="-1.0677870000"><ele>238</ele><time>2026-04-07T11:15:31Z</time></trkpt>
<trkpt lat="43.2705870000" lon="-1.0678150000"><ele>238</ele><time>2026-04-07T11:15:33Z</time></trkpt>
<trkpt lat="43.2705670000" lon="-1.0678470000"><ele>238</ele><time>2026-04-07T11:15:35Z</time></trkpt>
<trkpt lat="43.2705470000" lon="-1.0678620000"><ele>239</ele><time>2026-04-07T11:15:37Z</time></trkpt>
<trkpt lat="43.2705300000" lon="-1.0678780000"><ele>239</ele><time>2026-04-07T11:15:43Z</time></trkpt>
<trkpt lat="43.2705170000" lon="-1.0679000000"><ele>239</ele><time>2026-04-07T11:15:45Z</time></trkpt>
<trkpt lat="43.2705120000" lon="-1.0679250000"><ele>239</ele><time>2026-04-07T11:15:47Z</time></trkpt>
<trkpt lat="43.2705050000" lon="-1.0679550000"><ele>240</ele><time>2026-04-07T11:15:49Z</time></trkpt>
<trkpt lat="43.2704970000" lon="-1.0679870000"><ele>240</ele><time>2026-04-07T11:15:51Z</time></trkpt>
<trkpt lat="43.2704870000" lon="-1.0680170000"><ele>240</ele><time>2026-04-07T11:15:53Z</time></trkpt>
<trkpt lat="43.2704770000" lon="-1.0680420000"><ele>240</ele><time>2026-04-07T11:15:55Z</time></trkpt>
<trkpt lat="43.2704670000" lon="-1.0680670000"><ele>240</ele><time>2026-04-07T11:15:57Z</time></trkpt>
<trkpt lat="43.2704520000" lon="-1.0681000000"><ele>240</ele><time>2026-04-07T11:16:00Z</time></trkpt>
<trkpt lat="43.2704420000" lon="-1.0681270000"><ele>240</ele><time>2026-04-07T11:16:02Z</time></trkpt>
<trkpt lat="43.2704300000" lon="-1.0681570000"><ele>241</ele><time>2026-04-07T11:16:04Z</time></trkpt>
<trkpt lat="43.2704220000" lon="-1.0681870000"><ele>241</ele><time>2026-04-07T11:16:06Z</time></trkpt>
<trkpt lat="43.2704080000" lon="-1.0682170000"><ele>241</ele><time>2026-04-07T11:16:08Z</time></trkpt>
<trkpt lat="43.2703970000" lon="-1.0682470000"><ele>241</ele><time>2026-04-07T11:16:10Z</time></trkpt>
<trkpt lat="43.2703870000" lon="-1.0682720000"><ele>241</ele><time>2026-04-07T11:16:12Z</time></trkpt>
<trkpt lat="43.2703720000" lon="-1.0683000000"><ele>241</ele><time>2026-04-07T11:16:14Z</time></trkpt>
<trkpt lat="43.2703570000" lon="-1.0683320000"><ele>241</ele><time>2026-04-07T11:16:16Z</time></trkpt>
<trkpt lat="43.2703470000" lon="-1.0683620000"><ele>241</ele><time>2026-04-07T11:16:18Z</time></trkpt>
<trkpt lat="43.2703370000" lon="-1.0683900000"><ele>240</ele><time>2026-04-07T11:16:20Z</time></trkpt>
<trkpt lat="43.2703270000" lon="-1.0684130000"><ele>240</ele><time>2026-04-07T11:16:22Z</time></trkpt>
<trkpt lat="43.2703170000" lon="-1.0684420000"><ele>240</ele><time>2026-04-07T11:16:24Z</time></trkpt>
<trkpt lat="43.2703020000" lon="-1.0684670000"><ele>240</ele><time>2026-04-07T11:16:26Z</time></trkpt>
<trkpt lat="43.2702950000" lon="-1.0684970000"><ele>240</ele><time>2026-04-07T11:16:28Z</time></trkpt>
<trkpt lat="43.2702850000" lon="-1.0685220000"><ele>240</ele><time>2026-04-07T11:16:30Z</time></trkpt>
<trkpt lat="43.2702770000" lon="-1.0685450000"><ele>240</ele><time>2026-04-07T11:16:32Z</time></trkpt>
<trkpt lat="43.2702680000" lon="-1.0685750000"><ele>239</ele><time>2026-04-07T11:16:34Z</time></trkpt>
<trkpt lat="43.2702620000" lon="-1.0686070000"><ele>239</ele><time>2026-04-07T11:16:36Z</time></trkpt>
<trkpt lat="43.2702520000" lon="-1.0686330000"><ele>239</ele><time>2026-04-07T11:16:38Z</time></trkpt>
<trkpt lat="43.2702400000" lon="-1.0686620000"><ele>239</ele><time>2026-04-07T11:16:40Z</time></trkpt>
<trkpt lat="43.2702270000" lon="-1.0686870000"><ele>239</ele><time>2026-04-07T11:16:42Z</time></trkpt>
<trkpt lat="43.2702170000" lon="-1.0687230000"><ele>238</ele><time>2026-04-07T11:16:44Z</time></trkpt>
<trkpt lat="43.2702050000" lon="-1.0687570000"><ele>238</ele><time>2026-04-07T11:16:46Z</time></trkpt>
<trkpt lat="43.2701750000" lon="-1.0687820000"><ele>238</ele><time>2026-04-07T11:16:48Z</time></trkpt>
<trkpt lat="43.2701450000" lon="-1.0687970000"><ele>238</ele><time>2026-04-07T11:16:50Z</time></trkpt>
<trkpt lat="43.2701320000" lon="-1.0688220000"><ele>238</ele><time>2026-04-07T11:16:52Z</time></trkpt>
<trkpt lat="43.2701270000" lon="-1.0688580000"><ele>238</ele><time>2026-04-07T11:16:54Z</time></trkpt>
<trkpt lat="43.2701220000" lon="-1.0688850000"><ele>238</ele><time>2026-04-07T11:16:55Z</time></trkpt>
<trkpt lat="43.2701170000" lon="-1.0689170000"><ele>237</ele><time>2026-04-07T11:16:57Z</time></trkpt>
<trkpt lat="43.2701120000" lon="-1.0689420000"><ele>238</ele><time>2026-04-07T11:16:59Z</time></trkpt>
<trkpt lat="43.2701050000" lon="-1.0689670000"><ele>237</ele><time>2026-04-07T11:17:01Z</time></trkpt>
<trkpt lat="43.2700920000" lon="-1.0690020000"><ele>237</ele><time>2026-04-07T11:17:04Z</time></trkpt>
<trkpt lat="43.2700770000" lon="-1.0690220000"><ele>237</ele><time>2026-04-07T11:17:06Z</time></trkpt>
<trkpt lat="43.2700650000" lon="-1.0690420000"><ele>237</ele><time>2026-04-07T11:17:08Z</time></trkpt>
<trkpt lat="43.2700470000" lon="-1.0690600000"><ele>237</ele><time>2026-04-07T11:17:10Z</time></trkpt>
<trkpt lat="43.2700220000" lon="-1.0690750000"><ele>237</ele><time>2026-04-07T11:17:12Z</time></trkpt>
<trkpt lat="43.2700070000" lon="-1.0690870000"><ele>237</ele><time>2026-04-07T11:17:14Z</time></trkpt>
<trkpt lat="43.2699870000" lon="-1.0690970000"><ele>238</ele><time>2026-04-07T11:17:42Z</time></trkpt>
<trkpt lat="43.2699650000" lon="-1.0691050000"><ele>238</ele><time>2026-04-07T11:17:44Z</time></trkpt>
<trkpt lat="43.2699450000" lon="-1.0690970000"><ele>238</ele><time>2026-04-07T11:17:46Z</time></trkpt>
<trkpt lat="43.2699220000" lon="-1.0690870000"><ele>238</ele><time>2026-04-07T11:17:48Z</time></trkpt>
<trkpt lat="43.2699050000" lon="-1.0690670000"><ele>238</ele><time>2026-04-07T11:17:51Z</time></trkpt>
<trkpt lat="43.2698770000" lon="-1.0690500000"><ele>238</ele><time>2026-04-07T11:17:53Z</time></trkpt>
<trkpt lat="43.2698520000" lon="-1.0690320000"><ele>238</ele><time>2026-04-07T11:17:55Z</time></trkpt>
<trkpt lat="43.2698270000" lon="-1.0690200000"><ele>238</ele><time>2026-04-07T11:17:57Z</time></trkpt>
<trkpt lat="43.2698070000" lon="-1.0690020000"><ele>238</ele><time>2026-04-07T11:17:59Z</time></trkpt>
<trkpt lat="43.2697950000" lon="-1.0689850000"><ele>237</ele><time>2026-04-07T11:18:01Z</time></trkpt>
<trkpt lat="43.2697770000" lon="-1.0689420000"><ele>237</ele><time>2026-04-07T11:18:03Z</time></trkpt>
<trkpt lat="43.2697620000" lon="-1.0689170000"><ele>237</ele><time>2026-04-07T11:18:05Z</time></trkpt>
<trkpt lat="43.2697420000" lon="-1.0689030000"><ele>237</ele><time>2026-04-07T11:18:07Z</time></trkpt>
<trkpt lat="43.2697220000" lon="-1.0688900000"><ele>237</ele><time>2026-04-07T11:18:09Z</time></trkpt>
<trkpt lat="43.2697020000" lon="-1.0688770000"><ele>237</ele><time>2026-04-07T11:18:11Z</time></trkpt>
<trkpt lat="43.2696800000" lon="-1.0688630000"><ele>237</ele><time>2026-04-07T11:18:13Z</time></trkpt>
<trkpt lat="43.2696570000" lon="-1.0688570000"><ele>237</ele><time>2026-04-07T11:18:15Z</time></trkpt>
<trkpt lat="43.2696350000" lon="-1.0688420000"><ele>237</ele><time>2026-04-07T11:18:17Z</time></trkpt>
<trkpt lat="43.2696170000" lon="-1.0688320000"><ele>237</ele><time>2026-04-07T11:18:18Z</time></trkpt>
<trkpt lat="43.2695950000" lon="-1.0688170000"><ele>238</ele><time>2026-04-07T11:18:20Z</time></trkpt>
<trkpt lat="43.2695700000" lon="-1.0687970000"><ele>238</ele><time>2026-04-07T11:18:23Z</time></trkpt>
<trkpt lat="43.2695470000" lon="-1.0687820000"><ele>238</ele><time>2026-04-07T11:18:25Z</time></trkpt>
<trkpt lat="43.2695270000" lon="-1.0687820000"><ele>238</ele><time>2026-04-07T11:18:27Z</time></trkpt>
<trkpt lat="43.2695080000" lon="-1.0687920000"><ele>238</ele><time>2026-04-07T11:18:30Z</time></trkpt>
<trkpt lat="43.2695220000" lon="-1.0688400000"><ele>239</ele><time>2026-04-07T11:19:10Z</time></trkpt>
<trkpt lat="43.2695020000" lon="-1.0688420000"><ele>239</ele><time>2026-04-07T11:19:32Z</time></trkpt>
<trkpt lat="43.2695120000" lon="-1.0688170000"><ele>238</ele><time>2026-04-07T11:20:30Z</time></trkpt>
<trkpt lat="43.2695200000" lon="-1.0687920000"><ele>239</ele><time>2026-04-07T11:20:33Z</time></trkpt>
<trkpt lat="43.2695070000" lon="-1.0688120000"><ele>239</ele><time>2026-04-07T11:21:08Z</time></trkpt>
<trkpt lat="43.2694970000" lon="-1.0688350000"><ele>240</ele><time>2026-04-07T11:23:32Z</time></trkpt>
<trkpt lat="43.2695120000" lon="-1.0688520000"><ele>240</ele><time>2026-04-07T11:24:51Z</time></trkpt>
<trkpt lat="43.2695270000" lon="-1.0688270000"><ele>241</ele><time>2026-04-07T11:26:12Z</time></trkpt>
<trkpt lat="43.2695370000" lon="-1.0688070000"><ele>241</ele><time>2026-04-07T11:26:14Z</time></trkpt>
<trkpt lat="43.2695320000" lon="-1.0688350000"><ele>242</ele><time>2026-04-07T11:28:29Z</time></trkpt>
<trkpt lat="43.2695150000" lon="-1.0688230000"><ele>242</ele><time>2026-04-07T11:28:33Z</time></trkpt>
<trkpt lat="43.2695120000" lon="-1.0688000000"><ele>242</ele><time>2026-04-07T11:28:40Z</time></trkpt>
<trkpt lat="43.2694970000" lon="-1.0687850000"><ele>242</ele><time>2026-04-07T11:28:56Z</time></trkpt>
<trkpt lat="43.2694770000" lon="-1.0687680000"><ele>242</ele><time>2026-04-07T11:28:58Z</time></trkpt>
<trkpt lat="43.2694570000" lon="-1.0687550000"><ele>242</ele><time>2026-04-07T11:29:00Z</time></trkpt>
<trkpt lat="43.2694370000" lon="-1.0687470000"><ele>242</ele><time>2026-04-07T11:29:04Z</time></trkpt>
<trkpt lat="43.2694200000" lon="-1.0687370000"><ele>243</ele><time>2026-04-07T11:29:06Z</time></trkpt>
<trkpt lat="43.2693950000" lon="-1.0687170000"><ele>243</ele><time>2026-04-07T11:29:09Z</time></trkpt>
<trkpt lat="43.2693770000" lon="-1.0687050000"><ele>243</ele><time>2026-04-07T11:29:11Z</time></trkpt>
<trkpt lat="43.2693600000" lon="-1.0686880000"><ele>243</ele><time>2026-04-07T11:29:13Z</time></trkpt>
<trkpt lat="43.2693470000" lon="-1.0686720000"><ele>243</ele><time>2026-04-07T11:29:15Z</time></trkpt>
<trkpt lat="43.2693300000" lon="-1.0686570000"><ele>243</ele><time>2026-04-07T11:29:17Z</time></trkpt>
<trkpt lat="43.2693120000" lon="-1.0686370000"><ele>243</ele><time>2026-04-07T11:29:19Z</time></trkpt>
<trkpt lat="43.2692970000" lon="-1.0686120000"><ele>243</ele><time>2026-04-07T11:29:21Z</time></trkpt>
<trkpt lat="43.2692800000" lon="-1.0686000000"><ele>243</ele><time>2026-04-07T11:29:23Z</time></trkpt>
<trkpt lat="43.2692600000" lon="-1.0685870000"><ele>243</ele><time>2026-04-07T11:29:25Z</time></trkpt>
<trkpt lat="43.2692400000" lon="-1.0685670000"><ele>243</ele><time>2026-04-07T11:29:27Z</time></trkpt>
<trkpt lat="43.2692170000" lon="-1.0685530000"><ele>243</ele><time>2026-04-07T11:29:29Z</time></trkpt>
<trkpt lat="43.2691970000" lon="-1.0685350000"><ele>243</ele><time>2026-04-07T11:29:31Z</time></trkpt>
<trkpt lat="43.2691820000" lon="-1.0685150000"><ele>243</ele><time>2026-04-07T11:29:33Z</time></trkpt>
<trkpt lat="43.2691650000" lon="-1.0684980000"><ele>243</ele><time>2026-04-07T11:29:35Z</time></trkpt>
<trkpt lat="43.2691420000" lon="-1.0684770000"><ele>243</ele><time>2026-04-07T11:29:37Z</time></trkpt>
<trkpt lat="43.2691170000" lon="-1.0684530000"><ele>244</ele><time>2026-04-07T11:29:39Z</time></trkpt>
<trkpt lat="43.2691020000" lon="-1.0684320000"><ele>244</ele><time>2026-04-07T11:29:41Z</time></trkpt>
<trkpt lat="43.2690770000" lon="-1.0684220000"><ele>244</ele><time>2026-04-07T11:29:43Z</time></trkpt>
<trkpt lat="43.2690570000" lon="-1.0684030000"><ele>244</ele><time>2026-04-07T11:29:45Z</time></trkpt>
<trkpt lat="43.2690370000" lon="-1.0683920000"><ele>244</ele><time>2026-04-07T11:29:47Z</time></trkpt>
<trkpt lat="43.2690120000" lon="-1.0683630000"><ele>244</ele><time>2026-04-07T11:29:49Z</time></trkpt>
<trkpt lat="43.2689870000" lon="-1.0683420000"><ele>244</ele><time>2026-04-07T11:29:51Z</time></trkpt>
<trkpt lat="43.2689620000" lon="-1.0683270000"><ele>244</ele><time>2026-04-07T11:29:53Z</time></trkpt>
<trkpt lat="43.2689420000" lon="-1.0683170000"><ele>245</ele><time>2026-04-07T11:29:55Z</time></trkpt>
<trkpt lat="43.2689170000" lon="-1.0683120000"><ele>245</ele><time>2026-04-07T11:29:57Z</time></trkpt>
<trkpt lat="43.2688920000" lon="-1.0683020000"><ele>245</ele><time>2026-04-07T11:29:59Z</time></trkpt>
<trkpt lat="43.2688700000" lon="-1.0682950000"><ele>245</ele><time>2026-04-07T11:30:01Z</time></trkpt>
<trkpt lat="43.2688470000" lon="-1.0682920000"><ele>245</ele><time>2026-04-07T11:30:03Z</time></trkpt>
<trkpt lat="43.2688270000" lon="-1.0682920000"><ele>245</ele><time>2026-04-07T11:30:05Z</time></trkpt>
<trkpt lat="43.2688070000" lon="-1.0682970000"><ele>245</ele><time>2026-04-07T11:30:07Z</time></trkpt>
<trkpt lat="43.2687820000" lon="-1.0682970000"><ele>245</ele><time>2026-04-07T11:30:09Z</time></trkpt>
<trkpt lat="43.2687570000" lon="-1.0683000000"><ele>245</ele><time>2026-04-07T11:30:11Z</time></trkpt>
<trkpt lat="43.2687320000" lon="-1.0683000000"><ele>246</ele><time>2026-04-07T11:30:13Z</time></trkpt>
<trkpt lat="43.2687070000" lon="-1.0682970000"><ele>246</ele><time>2026-04-07T11:30:15Z</time></trkpt>
<trkpt lat="43.2686870000" lon="-1.0683070000"><ele>246</ele><time>2026-04-07T11:30:17Z</time></trkpt>
<trkpt lat="43.2686670000" lon="-1.0683070000"><ele>246</ele><time>2026-04-07T11:30:19Z</time></trkpt>
<trkpt lat="43.2686420000" lon="-1.0683100000"><ele>246</ele><time>2026-04-07T11:30:22Z</time></trkpt>
<trkpt lat="43.2686120000" lon="-1.0682970000"><ele>247</ele><time>2026-04-07T11:30:25Z</time></trkpt>
<trkpt lat="43.2685920000" lon="-1.0682950000"><ele>247</ele><time>2026-04-07T11:30:27Z</time></trkpt>
<trkpt lat="43.2685700000" lon="-1.0682920000"><ele>247</ele><time>2026-04-07T11:30:29Z</time></trkpt>
<trkpt lat="43.2685470000" lon="-1.0682870000"><ele>247</ele><time>2026-04-07T11:30:31Z</time></trkpt>
<trkpt lat="43.2685220000" lon="-1.0682770000"><ele>247</ele><time>2026-04-07T11:30:33Z</time></trkpt>
<trkpt lat="43.2684970000" lon="-1.0682670000"><ele>247</ele><time>2026-04-07T11:30:35Z</time></trkpt>
<trkpt lat="43.2684720000" lon="-1.0682520000"><ele>247</ele><time>2026-04-07T11:30:38Z</time></trkpt>
<trkpt lat="43.2684570000" lon="-1.0682420000"><ele>247</ele><time>2026-04-07T11:30:40Z</time></trkpt>
<trkpt lat="43.2684420000" lon="-1.0682270000"><ele>247</ele><time>2026-04-07T11:30:42Z</time></trkpt>
<trkpt lat="43.2684220000" lon="-1.0682020000"><ele>246</ele><time>2026-04-07T11:30:44Z</time></trkpt>
<trkpt lat="43.2684050000" lon="-1.0681820000"><ele>246</ele><time>2026-04-07T11:30:46Z</time></trkpt>
<trkpt lat="43.2683850000" lon="-1.0681520000"><ele>246</ele><time>2026-04-07T11:30:50Z</time></trkpt>
<trkpt lat="43.2683770000" lon="-1.0681430000"><ele>246</ele><time>2026-04-07T11:30:51Z</time></trkpt>
<trkpt lat="43.2683650000" lon="-1.0681220000"><ele>246</ele><time>2026-04-07T11:30:53Z</time></trkpt>
<trkpt lat="43.2683520000" lon="-1.0680970000"><ele>245</ele><time>2026-04-07T11:30:55Z</time></trkpt>
<trkpt lat="43.2683370000" lon="-1.0680770000"><ele>245</ele><time>2026-04-07T11:30:57Z</time></trkpt>
<trkpt lat="43.2683250000" lon="-1.0680480000"><ele>245</ele><time>2026-04-07T11:30:59Z</time></trkpt>
<trkpt lat="43.2683200000" lon="-1.0680220000"><ele>245</ele><time>2026-04-07T11:31:14Z</time></trkpt>
<trkpt lat="43.2683170000" lon="-1.0679920000"><ele>245</ele><time>2026-04-07T11:31:23Z</time></trkpt>
<trkpt lat="43.2683000000" lon="-1.0679670000"><ele>245</ele><time>2026-04-07T11:31:25Z</time></trkpt>
<trkpt lat="43.2682800000" lon="-1.0679400000"><ele>244</ele><time>2026-04-07T11:31:27Z</time></trkpt>
<trkpt lat="43.2682620000" lon="-1.0679130000"><ele>244</ele><time>2026-04-07T11:31:29Z</time></trkpt>
<trkpt lat="43.2682500000" lon="-1.0678970000"><ele>244</ele><time>2026-04-07T11:31:31Z</time></trkpt>
<trkpt lat="43.2682300000" lon="-1.0678730000"><ele>244</ele><time>2026-04-07T11:31:34Z</time></trkpt>
<trkpt lat="43.2682120000" lon="-1.0678500000"><ele>244</ele><time>2026-04-07T11:31:37Z</time></trkpt>
<trkpt lat="43.2681970000" lon="-1.0678300000"><ele>244</ele><time>2026-04-07T11:31:39Z</time></trkpt>
<trkpt lat="43.2681870000" lon="-1.0678070000"><ele>244</ele><time>2026-04-07T11:31:41Z</time></trkpt>
<trkpt lat="43.2681770000" lon="-1.0677770000"><ele>243</ele><time>2026-04-07T11:31:43Z</time></trkpt>
<trkpt lat="43.2681650000" lon="-1.0677570000"><ele>243</ele><time>2026-04-07T11:31:45Z</time></trkpt>
<trkpt lat="43.2681470000" lon="-1.0677250000"><ele>243</ele><time>2026-04-07T11:31:48Z</time></trkpt>
<trkpt lat="43.2681350000" lon="-1.0676970000"><ele>243</ele><time>2026-04-07T11:31:50Z</time></trkpt>
<trkpt lat="43.2681220000" lon="-1.0676720000"><ele>243</ele><time>2026-04-07T11:31:52Z</time></trkpt>
<trkpt lat="43.2681070000" lon="-1.0676420000"><ele>242</ele><time>2026-04-07T11:31:54Z</time></trkpt>
<trkpt lat="43.2680970000" lon="-1.0676150000"><ele>242</ele><time>2026-04-07T11:31:56Z</time></trkpt>
<trkpt lat="43.2680850000" lon="-1.0675870000"><ele>242</ele><time>2026-04-07T11:31:58Z</time></trkpt>
<trkpt lat="43.2680750000" lon="-1.0675570000"><ele>242</ele><time>2026-04-07T11:32:00Z</time></trkpt>
<trkpt lat="43.2680650000" lon="-1.0675270000"><ele>242</ele><time>2026-04-07T11:32:02Z</time></trkpt>
<trkpt lat="43.2680500000" lon="-1.0675020000"><ele>241</ele><time>2026-04-07T11:32:04Z</time></trkpt>
<trkpt lat="43.2680300000" lon="-1.0674770000"><ele>241</ele><time>2026-04-07T11:32:06Z</time></trkpt>
<trkpt lat="43.2680150000" lon="-1.0674550000"><ele>241</ele><time>2026-04-07T11:32:08Z</time></trkpt>
<trkpt lat="43.2680000000" lon="-1.0674270000"><ele>241</ele><time>2026-04-07T11:32:10Z</time></trkpt>
<trkpt lat="43.2679850000" lon="-1.0674050000"><ele>241</ele><time>2026-04-07T11:32:12Z</time></trkpt>
<trkpt lat="43.2679720000" lon="-1.0673870000"><ele>241</ele><time>2026-04-07T11:32:14Z</time></trkpt>
<trkpt lat="43.2679500000" lon="-1.0673700000"><ele>240</ele><time>2026-04-07T11:32:17Z</time></trkpt>
<trkpt lat="43.2679320000" lon="-1.0673570000"><ele>240</ele><time>2026-04-07T11:32:19Z</time></trkpt>
<trkpt lat="43.2679170000" lon="-1.0673420000"><ele>240</ele><time>2026-04-07T11:32:21Z</time></trkpt>
<trkpt lat="43.2679000000" lon="-1.0673120000"><ele>240</ele><time>2026-04-07T11:32:23Z</time></trkpt>
<trkpt lat="43.2678820000" lon="-1.0672770000"><ele>240</ele><time>2026-04-07T11:32:25Z</time></trkpt>
<trkpt lat="43.2678650000" lon="-1.0672500000"><ele>239</ele><time>2026-04-07T11:32:27Z</time></trkpt>
<trkpt lat="43.2678470000" lon="-1.0672270000"><ele>239</ele><time>2026-04-07T11:32:29Z</time></trkpt>
<trkpt lat="43.2678320000" lon="-1.0672020000"><ele>239</ele><time>2026-04-07T11:32:31Z</time></trkpt>
<trkpt lat="43.2678150000" lon="-1.0671770000"><ele>238</ele><time>2026-04-07T11:32:33Z</time></trkpt>
<trkpt lat="43.2677970000" lon="-1.0671620000"><ele>238</ele><time>2026-04-07T11:32:35Z</time></trkpt>
<trkpt lat="43.2677770000" lon="-1.0671470000"><ele>238</ele><time>2026-04-07T11:32:37Z</time></trkpt>
<trkpt lat="43.2677570000" lon="-1.0671400000"><ele>238</ele><time>2026-04-07T11:32:39Z</time></trkpt>
<trkpt lat="43.2677400000" lon="-1.0671320000"><ele>238</ele><time>2026-04-07T11:32:41Z</time></trkpt>
<trkpt lat="43.2677200000" lon="-1.0671220000"><ele>238</ele><time>2026-04-07T11:32:43Z</time></trkpt>
<trkpt lat="43.2677000000" lon="-1.0671070000"><ele>237</ele><time>2026-04-07T11:32:45Z</time></trkpt>
<trkpt lat="43.2676770000" lon="-1.0670950000"><ele>237</ele><time>2026-04-07T11:32:47Z</time></trkpt>
<trkpt lat="43.2676620000" lon="-1.0670820000"><ele>237</ele><time>2026-04-07T11:32:49Z</time></trkpt>
<trkpt lat="43.2676320000" lon="-1.0670750000"><ele>236</ele><time>2026-04-07T11:33:05Z</time></trkpt>
<trkpt lat="43.2676020000" lon="-1.0670670000"><ele>236</ele><time>2026-04-07T11:33:07Z</time></trkpt>
<trkpt lat="43.2675720000" lon="-1.0670580000"><ele>236</ele><time>2026-04-07T11:33:09Z</time></trkpt>
<trkpt lat="43.2675470000" lon="-1.0670570000"><ele>236</ele><time>2026-04-07T11:33:11Z</time></trkpt>
<trkpt lat="43.2675300000" lon="-1.0670520000"><ele>236</ele><time>2026-04-07T11:33:13Z</time></trkpt>
<trkpt lat="43.2675100000" lon="-1.0670470000"><ele>235</ele><time>2026-04-07T11:33:15Z</time></trkpt>
<trkpt lat="43.2674920000" lon="-1.0670570000"><ele>235</ele><time>2026-04-07T11:33:18Z</time></trkpt>
<trkpt lat="43.2674650000" lon="-1.0670520000"><ele>235</ele><time>2026-04-07T11:33:27Z</time></trkpt>
<trkpt lat="43.2674420000" lon="-1.0670570000"><ele>235</ele><time>2026-04-07T11:33:29Z</time></trkpt>
<trkpt lat="43.2674170000" lon="-1.0670570000"><ele>235</ele><time>2026-04-07T11:33:31Z</time></trkpt>
<trkpt lat="43.2673920000" lon="-1.0670570000"><ele>234</ele><time>2026-04-07T11:33:34Z</time></trkpt>
<trkpt lat="43.2673620000" lon="-1.0670450000"><ele>234</ele><time>2026-04-07T11:33:36Z</time></trkpt>
<trkpt lat="43.2673320000" lon="-1.0670370000"><ele>234</ele><time>2026-04-07T11:33:38Z</time></trkpt>
<trkpt lat="43.2673020000" lon="-1.0670320000"><ele>234</ele><time>2026-04-07T11:33:40Z</time></trkpt>
<trkpt lat="43.2672820000" lon="-1.0670350000"><ele>233</ele><time>2026-04-07T11:33:42Z</time></trkpt>
<trkpt lat="43.2672570000" lon="-1.0670320000"><ele>233</ele><time>2026-04-07T11:33:44Z</time></trkpt>
<trkpt lat="43.2672370000" lon="-1.0670320000"><ele>233</ele><time>2026-04-07T11:33:46Z</time></trkpt>
<trkpt lat="43.2672150000" lon="-1.0670350000"><ele>233</ele><time>2026-04-07T11:33:48Z</time></trkpt>
<trkpt lat="43.2671950000" lon="-1.0670370000"><ele>232</ele><time>2026-04-07T11:33:50Z</time></trkpt>
<trkpt lat="43.2671720000" lon="-1.0670450000"><ele>232</ele><time>2026-04-07T11:33:52Z</time></trkpt>
<trkpt lat="43.2671470000" lon="-1.0670570000"><ele>232</ele><time>2026-04-07T11:33:55Z</time></trkpt>
<trkpt lat="43.2671270000" lon="-1.0670680000"><ele>231</ele><time>2026-04-07T11:33:57Z</time></trkpt>
<trkpt lat="43.2671120000" lon="-1.0670820000"><ele>231</ele><time>2026-04-07T11:33:59Z</time></trkpt>
<trkpt lat="43.2670950000" lon="-1.0670950000"><ele>231</ele><time>2026-04-07T11:34:01Z</time></trkpt>
<trkpt lat="43.2670730000" lon="-1.0671070000"><ele>231</ele><time>2026-04-07T11:34:03Z</time></trkpt>
<trkpt lat="43.2670520000" lon="-1.0671220000"><ele>230</ele><time>2026-04-07T11:34:06Z</time></trkpt>
<trkpt lat="43.2670350000" lon="-1.0671420000"><ele>229</ele><time>2026-04-07T11:34:18Z</time></trkpt>
<trkpt lat="43.2670150000" lon="-1.0671670000"><ele>229</ele><time>2026-04-07T11:34:20Z</time></trkpt>
<trkpt lat="43.2669920000" lon="-1.0671920000"><ele>229</ele><time>2026-04-07T11:34:22Z</time></trkpt>
<trkpt lat="43.2669670000" lon="-1.0672100000"><ele>229</ele><time>2026-04-07T11:34:24Z</time></trkpt>
<trkpt lat="43.2669470000" lon="-1.0672300000"><ele>228</ele><time>2026-04-07T11:34:26Z</time></trkpt>
<trkpt lat="43.2669300000" lon="-1.0672500000"><ele>228</ele><time>2026-04-07T11:34:28Z</time></trkpt>
<trkpt lat="43.2669120000" lon="-1.0672670000"><ele>228</ele><time>2026-04-07T11:34:30Z</time></trkpt>
<trkpt lat="43.2668970000" lon="-1.0672870000"><ele>228</ele><time>2026-04-07T11:34:32Z</time></trkpt>
<trkpt lat="43.2668820000" lon="-1.0673070000"><ele>227</ele><time>2026-04-07T11:34:34Z</time></trkpt>
<trkpt lat="43.2668670000" lon="-1.0673320000"><ele>227</ele><time>2026-04-07T11:34:36Z</time></trkpt>
<trkpt lat="43.2668570000" lon="-1.0673570000"><ele>227</ele><time>2026-04-07T11:34:38Z</time></trkpt>
<trkpt lat="43.2668480000" lon="-1.0673820000"><ele>227</ele><time>2026-04-07T11:34:40Z</time></trkpt>
<trkpt lat="43.2668320000" lon="-1.0674100000"><ele>226</ele><time>2026-04-07T11:34:42Z</time></trkpt>
<trkpt lat="43.2668170000" lon="-1.0674270000"><ele>226</ele><time>2026-04-07T11:34:44Z</time></trkpt>
<trkpt lat="43.2668020000" lon="-1.0674500000"><ele>225</ele><time>2026-04-07T11:34:46Z</time></trkpt>
<trkpt lat="43.2667850000" lon="-1.0674670000"><ele>225</ele><time>2026-04-07T11:34:48Z</time></trkpt>
<trkpt lat="43.2667670000" lon="-1.0674870000"><ele>225</ele><time>2026-04-07T11:34:50Z</time></trkpt>
<trkpt lat="43.2667520000" lon="-1.0675120000"><ele>225</ele><time>2026-04-07T11:34:52Z</time></trkpt>
<trkpt lat="43.2667370000" lon="-1.0675400000"><ele>224</ele><time>2026-04-07T11:34:54Z</time></trkpt>
<trkpt lat="43.2667270000" lon="-1.0675650000"><ele>224</ele><time>2026-04-07T11:34:56Z</time></trkpt>
<trkpt lat="43.2667020000" lon="-1.0675870000"><ele>224</ele><time>2026-04-07T11:34:59Z</time></trkpt>
<trkpt lat="43.2666920000" lon="-1.0676120000"><ele>223</ele><time>2026-04-07T11:35:16Z</time></trkpt>
<trkpt lat="43.2666820000" lon="-1.0676520000"><ele>223</ele><time>2026-04-07T11:35:18Z</time></trkpt>
<trkpt lat="43.2666500000" lon="-1.0676800000"><ele>222</ele><time>2026-04-07T11:35:21Z</time></trkpt>
<trkpt lat="43.2666350000" lon="-1.0676800000"><ele>222</ele><time>2026-04-07T11:35:25Z</time></trkpt>
<trkpt lat="43.2666150000" lon="-1.0676850000"><ele>222</ele><time>2026-04-07T11:35:27Z</time></trkpt>
<trkpt lat="43.2665950000" lon="-1.0676950000"><ele>222</ele><time>2026-04-07T11:35:35Z</time></trkpt>
<trkpt lat="43.2665720000" lon="-1.0677120000"><ele>221</ele><time>2026-04-07T11:35:38Z</time></trkpt>
<trkpt lat="43.2665530000" lon="-1.0677250000"><ele>221</ele><time>2026-04-07T11:36:06Z</time></trkpt>
<trkpt lat="43.2665350000" lon="-1.0677420000"><ele>221</ele><time>2026-04-07T11:36:08Z</time></trkpt>
<trkpt lat="43.2665220000" lon="-1.0677620000"><ele>221</ele><time>2026-04-07T11:36:10Z</time></trkpt>
<trkpt lat="43.2665070000" lon="-1.0677770000"><ele>221</ele><time>2026-04-07T11:36:18Z</time></trkpt>
<trkpt lat="43.2664920000" lon="-1.0678020000"><ele>221</ele><time>2026-04-07T11:36:20Z</time></trkpt>
<trkpt lat="43.2664770000" lon="-1.0678200000"><ele>221</ele><time>2026-04-07T11:36:22Z</time></trkpt>
<trkpt lat="43.2664520000" lon="-1.0678370000"><ele>221</ele><time>2026-04-07T11:36:25Z</time></trkpt>
<trkpt lat="43.2664450000" lon="-1.0678450000"><ele>221</ele><time>2026-04-07T11:36:26Z</time></trkpt>
<trkpt lat="43.2664300000" lon="-1.0678620000"><ele>221</ele><time>2026-04-07T11:36:28Z</time></trkpt>
<trkpt lat="43.2664300000" lon="-1.0678300000"><ele>220</ele><time>2026-04-07T11:37:08Z</time></trkpt>
<trkpt lat="43.2664470000" lon="-1.0678050000"><ele>220</ele><time>2026-04-07T11:37:10Z</time></trkpt>
<trkpt lat="43.2664770000" lon="-1.0677720000"><ele>220</ele><time>2026-04-07T11:37:13Z</time></trkpt>
<trkpt lat="43.2664850000" lon="-1.0677600000"><ele>220</ele><time>2026-04-07T11:37:14Z</time></trkpt>
<trkpt lat="43.2665120000" lon="-1.0677420000"><ele>220</ele><time>2026-04-07T11:37:16Z</time></trkpt>
<trkpt lat="43.2665320000" lon="-1.0677270000"><ele>221</ele><time>2026-04-07T11:37:18Z</time></trkpt>
<trkpt lat="43.2665520000" lon="-1.0677070000"><ele>221</ele><time>2026-04-07T11:37:20Z</time></trkpt>
<trkpt lat="43.2665720000" lon="-1.0676750000"><ele>221</ele><time>2026-04-07T11:37:23Z</time></trkpt>
<trkpt lat="43.2665870000" lon="-1.0676570000"><ele>220</ele><time>2026-04-07T11:37:26Z</time></trkpt>
<trkpt lat="43.2665970000" lon="-1.0676300000"><ele>220</ele><time>2026-04-07T11:37:29Z</time></trkpt>
<trkpt lat="43.2666070000" lon="-1.0676030000"><ele>220</ele><time>2026-04-07T11:37:31Z</time></trkpt>
<trkpt lat="43.2666230000" lon="-1.0675620000"><ele>220</ele><time>2026-04-07T11:37:34Z</time></trkpt>
<trkpt lat="43.2666320000" lon="-1.0675530000"><ele>219</ele><time>2026-04-07T11:37:35Z</time></trkpt>
<trkpt lat="43.2666370000" lon="-1.0675320000"><ele>219</ele><time>2026-04-07T11:37:37Z</time></trkpt>
<trkpt lat="43.2666370000" lon="-1.0675070000"><ele>219</ele><time>2026-04-07T11:37:43Z</time></trkpt>
<trkpt lat="43.2666500000" lon="-1.0674670000"><ele>218</ele><time>2026-04-07T11:37:49Z</time></trkpt>
<trkpt lat="43.2666670000" lon="-1.0674070000"><ele>218</ele><time>2026-04-07T11:37:52Z</time></trkpt>
<trkpt lat="43.2666720000" lon="-1.0673870000"><ele>218</ele><time>2026-04-07T11:37:53Z</time></trkpt>
<trkpt lat="43.2666770000" lon="-1.0673520000"><ele>218</ele><time>2026-04-07T11:37:55Z</time></trkpt>
<trkpt lat="43.2666870000" lon="-1.0673050000"><ele>218</ele><time>2026-04-07T11:37:58Z</time></trkpt>
<trkpt lat="43.2666850000" lon="-1.0672870000"><ele>218</ele><time>2026-04-07T11:37:59Z</time></trkpt>
<trkpt lat="43.2666970000" lon="-1.0672520000"><ele>218</ele><time>2026-04-07T11:38:01Z</time></trkpt>
<trkpt lat="43.2667120000" lon="-1.0672170000"><ele>218</ele><time>2026-04-07T11:38:04Z</time></trkpt>
<trkpt lat="43.2667070000" lon="-1.0671980000"><ele>218</ele><time>2026-04-07T11:38:16Z</time></trkpt>
<trkpt lat="43.2667070000" lon="-1.0671700000"><ele>218</ele><time>2026-04-07T11:38:18Z</time></trkpt>
<trkpt lat="43.2667170000" lon="-1.0671320000"><ele>217</ele><time>2026-04-07T11:38:20Z</time></trkpt>
<trkpt lat="43.2667170000" lon="-1.0671070000"><ele>217</ele><time>2026-04-07T11:38:22Z</time></trkpt>
<trkpt lat="43.2667170000" lon="-1.0670800000"><ele>217</ele><time>2026-04-07T11:38:24Z</time></trkpt>
<trkpt lat="43.2667170000" lon="-1.0670550000"><ele>217</ele><time>2026-04-07T11:38:29Z</time></trkpt>
<trkpt lat="43.2667250000" lon="-1.0670280000"><ele>217</ele><time>2026-04-07T11:38:33Z</time></trkpt>
<trkpt lat="43.2667270000" lon="-1.0669920000"><ele>216</ele><time>2026-04-07T11:38:52Z</time></trkpt>
<trkpt lat="43.2667300000" lon="-1.0669220000"><ele>216</ele><time>2026-04-07T11:38:55Z</time></trkpt>
<trkpt lat="43.2667300000" lon="-1.0669020000"><ele>216</ele><time>2026-04-07T11:38:56Z</time></trkpt>
<trkpt lat="43.2667270000" lon="-1.0668720000"><ele>216</ele><time>2026-04-07T11:38:58Z</time></trkpt>
<trkpt lat="43.2667320000" lon="-1.0668470000"><ele>216</ele><time>2026-04-07T11:39:00Z</time></trkpt>
<trkpt lat="43.2667350000" lon="-1.0668170000"><ele>215</ele><time>2026-04-07T11:39:02Z</time></trkpt>
<trkpt lat="43.2667370000" lon="-1.0667870000"><ele>215</ele><time>2026-04-07T11:39:04Z</time></trkpt>
<trkpt lat="43.2667420000" lon="-1.0667420000"><ele>215</ele><time>2026-04-07T11:39:07Z</time></trkpt>
<trkpt lat="43.2667450000" lon="-1.0667270000"><ele>215</ele><time>2026-04-07T11:39:08Z</time></trkpt>
<trkpt lat="43.2667470000" lon="-1.0666970000"><ele>214</ele><time>2026-04-07T11:39:10Z</time></trkpt>
<trkpt lat="43.2667520000" lon="-1.0666630000"><ele>214</ele><time>2026-04-07T11:39:12Z</time></trkpt>
<trkpt lat="43.2667570000" lon="-1.0666350000"><ele>214</ele><time>2026-04-07T11:39:14Z</time></trkpt>
<trkpt lat="43.2667620000" lon="-1.0666050000"><ele>214</ele><time>2026-04-07T11:39:16Z</time></trkpt>
<trkpt lat="43.2667700000" lon="-1.0665720000"><ele>213</ele><time>2026-04-07T11:39:18Z</time></trkpt>
<trkpt lat="43.2667750000" lon="-1.0665400000"><ele>213</ele><time>2026-04-07T11:39:20Z</time></trkpt>
<trkpt lat="43.2667770000" lon="-1.0665100000"><ele>213</ele><time>2026-04-07T11:39:22Z</time></trkpt>
<trkpt lat="43.2667820000" lon="-1.0664820000"><ele>212</ele><time>2026-04-07T11:39:24Z</time></trkpt>
<trkpt lat="43.2667820000" lon="-1.0664470000"><ele>212</ele><time>2026-04-07T11:39:26Z</time></trkpt>
<trkpt lat="43.2667870000" lon="-1.0664150000"><ele>212</ele><time>2026-04-07T11:39:28Z</time></trkpt>
<trkpt lat="43.2667920000" lon="-1.0663850000"><ele>211</ele><time>2026-04-07T11:39:30Z</time></trkpt>
<trkpt lat="43.2667900000" lon="-1.0663520000"><ele>211</ele><time>2026-04-07T11:39:32Z</time></trkpt>
<trkpt lat="43.2667900000" lon="-1.0663200000"><ele>211</ele><time>2026-04-07T11:39:34Z</time></trkpt>
<trkpt lat="43.2667900000" lon="-1.0662870000"><ele>211</ele><time>2026-04-07T11:39:38Z</time></trkpt>
<trkpt lat="43.2667920000" lon="-1.0662520000"><ele>210</ele><time>2026-04-07T11:39:40Z</time></trkpt>
<trkpt lat="43.2668020000" lon="-1.0662100000"><ele>210</ele><time>2026-04-07T11:39:42Z</time></trkpt>
<trkpt lat="43.2668070000" lon="-1.0661720000"><ele>210</ele><time>2026-04-07T11:39:44Z</time></trkpt>
<trkpt lat="43.2668150000" lon="-1.0661470000"><ele>210</ele><time>2026-04-07T11:39:46Z</time></trkpt>
<trkpt lat="43.2668220000" lon="-1.0661170000"><ele>209</ele><time>2026-04-07T11:39:48Z</time></trkpt>
<trkpt lat="43.2668270000" lon="-1.0660820000"><ele>209</ele><time>2026-04-07T11:39:50Z</time></trkpt>
<trkpt lat="43.2668270000" lon="-1.0660520000"><ele>209</ele><time>2026-04-07T11:39:52Z</time></trkpt>
<trkpt lat="43.2668300000" lon="-1.0660070000"><ele>209</ele><time>2026-04-07T11:39:55Z</time></trkpt>
<trkpt lat="43.2668320000" lon="-1.0659970000"><ele>209</ele><time>2026-04-07T11:39:56Z</time></trkpt>
<trkpt lat="43.2668370000" lon="-1.0659700000"><ele>209</ele><time>2026-04-07T11:39:58Z</time></trkpt>
<trkpt lat="43.2668400000" lon="-1.0659420000"><ele>208</ele><time>2026-04-07T11:40:00Z</time></trkpt>
<trkpt lat="43.2668420000" lon="-1.0659080000"><ele>208</ele><time>2026-04-07T11:40:02Z</time></trkpt>
<trkpt lat="43.2668470000" lon="-1.0658800000"><ele>208</ele><time>2026-04-07T11:40:04Z</time></trkpt>
<trkpt lat="43.2668520000" lon="-1.0658470000"><ele>208</ele><time>2026-04-07T11:40:06Z</time></trkpt>
<trkpt lat="43.2668620000" lon="-1.0658220000"><ele>207</ele><time>2026-04-07T11:40:08Z</time></trkpt>
<trkpt lat="43.2668720000" lon="-1.0657920000"><ele>207</ele><time>2026-04-07T11:40:10Z</time></trkpt>
<trkpt lat="43.2668770000" lon="-1.0657620000"><ele>207</ele><time>2026-04-07T11:40:12Z</time></trkpt>
<trkpt lat="43.2668800000" lon="-1.0657350000"><ele>206</ele><time>2026-04-07T11:40:14Z</time></trkpt>
<trkpt lat="43.2668770000" lon="-1.0657020000"><ele>206</ele><time>2026-04-07T11:40:16Z</time></trkpt>
<trkpt lat="43.2668770000" lon="-1.0656520000"><ele>206</ele><time>2026-04-07T11:40:19Z</time></trkpt>
<trkpt lat="43.2668770000" lon="-1.0656350000"><ele>206</ele><time>2026-04-07T11:40:20Z</time></trkpt>
<trkpt lat="43.2668700000" lon="-1.0656050000"><ele>205</ele><time>2026-04-07T11:40:22Z</time></trkpt>
<trkpt lat="43.2668670000" lon="-1.0655750000"><ele>205</ele><time>2026-04-07T11:40:24Z</time></trkpt>
<trkpt lat="43.2668670000" lon="-1.0655470000"><ele>205</ele><time>2026-04-07T11:40:26Z</time></trkpt>
<trkpt lat="43.2668670000" lon="-1.0655170000"><ele>204</ele><time>2026-04-07T11:40:28Z</time></trkpt>
<trkpt lat="43.2668670000" lon="-1.0654720000"><ele>204</ele><time>2026-04-07T11:40:31Z</time></trkpt>
<trkpt lat="43.2668670000" lon="-1.0654570000"><ele>204</ele><time>2026-04-07T11:40:32Z</time></trkpt>
<trkpt lat="43.2668620000" lon="-1.0654270000"><ele>204</ele><time>2026-04-07T11:40:34Z</time></trkpt>
<trkpt lat="43.2668650000" lon="-1.0653950000"><ele>203</ele><time>2026-04-07T11:40:36Z</time></trkpt>
<trkpt lat="43.2668650000" lon="-1.0653670000"><ele>203</ele><time>2026-04-07T11:40:38Z</time></trkpt>
<trkpt lat="43.2668670000" lon="-1.0653370000"><ele>203</ele><time>2026-04-07T11:40:40Z</time></trkpt>
<trkpt lat="43.2668670000" lon="-1.0652920000"><ele>202</ele><time>2026-04-07T11:40:43Z</time></trkpt>
<trkpt lat="43.2668720000" lon="-1.0652570000"><ele>202</ele><time>2026-04-07T11:40:46Z</time></trkpt>
<trkpt lat="43.2668720000" lon="-1.0652450000"><ele>202</ele><time>2026-04-07T11:40:47Z</time></trkpt>
<trkpt lat="43.2668670000" lon="-1.0652170000"><ele>201</ele><time>2026-04-07T11:40:49Z</time></trkpt>
<trkpt lat="43.2668620000" lon="-1.0651820000"><ele>201</ele><time>2026-04-07T11:40:52Z</time></trkpt>
<trkpt lat="43.2668620000" lon="-1.0651520000"><ele>200</ele><time>2026-04-07T11:40:54Z</time></trkpt>
<trkpt lat="43.2668750000" lon="-1.0651200000"><ele>200</ele><time>2026-04-07T11:40:56Z</time></trkpt>
<trkpt lat="43.2668800000" lon="-1.0650820000"><ele>199</ele><time>2026-04-07T11:40:58Z</time></trkpt>
<trkpt lat="43.2668800000" lon="-1.0650500000"><ele>199</ele><time>2026-04-07T11:41:00Z</time></trkpt>
<trkpt lat="43.2668750000" lon="-1.0650250000"><ele>199</ele><time>2026-04-07T11:41:02Z</time></trkpt>
<trkpt lat="43.2668770000" lon="-1.0649950000"><ele>198</ele><time>2026-04-07T11:41:04Z</time></trkpt>
<trkpt lat="43.2668870000" lon="-1.0649450000"><ele>198</ele><time>2026-04-07T11:41:07Z</time></trkpt>
<trkpt lat="43.2668900000" lon="-1.0649300000"><ele>198</ele><time>2026-04-07T11:41:08Z</time></trkpt>
<trkpt lat="43.2668920000" lon="-1.0649020000"><ele>197</ele><time>2026-04-07T11:41:10Z</time></trkpt>
<trkpt lat="43.2668970000" lon="-1.0648680000"><ele>197</ele><time>2026-04-07T11:41:12Z</time></trkpt>
<trkpt lat="43.2669000000" lon="-1.0648400000"><ele>197</ele><time>2026-04-07T11:41:14Z</time></trkpt>
<trkpt lat="43.2669100000" lon="-1.0648150000"><ele>196</ele><time>2026-04-07T11:41:16Z</time></trkpt>
<trkpt lat="43.2669220000" lon="-1.0647870000"><ele>196</ele><time>2026-04-07T11:41:19Z</time></trkpt>
<trkpt lat="43.2669330000" lon="-1.0647600000"><ele>195</ele><time>2026-04-07T11:41:22Z</time></trkpt>
<trkpt lat="43.2669470000" lon="-1.0647370000"><ele>195</ele><time>2026-04-07T11:41:24Z</time></trkpt>
<trkpt lat="43.2669720000" lon="-1.0647000000"><ele>194</ele><time>2026-04-07T11:41:28Z</time></trkpt>
<trkpt lat="43.2669820000" lon="-1.0646880000"><ele>194</ele><time>2026-04-07T11:41:29Z</time></trkpt>
<trkpt lat="43.2669970000" lon="-1.0646720000"><ele>193</ele><time>2026-04-07T11:41:31Z</time></trkpt>
<trkpt lat="43.2670120000" lon="-1.0646370000"><ele>193</ele><time>2026-04-07T11:41:34Z</time></trkpt>
<trkpt lat="43.2670170000" lon="-1.0646220000"><ele>193</ele><time>2026-04-07T11:41:35Z</time></trkpt>
<trkpt lat="43.2670400000" lon="-1.0645970000"><ele>192</ele><time>2026-04-07T11:41:38Z</time></trkpt>
<trkpt lat="43.2670620000" lon="-1.0645820000"><ele>191</ele><time>2026-04-07T11:41:40Z</time></trkpt>
<trkpt lat="43.2670770000" lon="-1.0645620000"><ele>191</ele><time>2026-04-07T11:41:42Z</time></trkpt>
<trkpt lat="43.2671000000" lon="-1.0645420000"><ele>191</ele><time>2026-04-07T11:41:44Z</time></trkpt>
<trkpt lat="43.2671120000" lon="-1.0645170000"><ele>191</ele><time>2026-04-07T11:41:46Z</time></trkpt>
<trkpt lat="43.2671300000" lon="-1.0644850000"><ele>190</ele><time>2026-04-07T11:41:49Z</time></trkpt>
<trkpt lat="43.2671370000" lon="-1.0644720000"><ele>190</ele><time>2026-04-07T11:41:50Z</time></trkpt>
<trkpt lat="43.2671520000" lon="-1.0644550000"><ele>190</ele><time>2026-04-07T11:41:52Z</time></trkpt>
<trkpt lat="43.2671670000" lon="-1.0644370000"><ele>190</ele><time>2026-04-07T11:41:54Z</time></trkpt>
<trkpt lat="43.2671720000" lon="-1.0644100000"><ele>189</ele><time>2026-04-07T11:41:56Z</time></trkpt>
<trkpt lat="43.2671820000" lon="-1.0643820000"><ele>189</ele><time>2026-04-07T11:41:58Z</time></trkpt>
<trkpt lat="43.2672050000" lon="-1.0643520000"><ele>188</ele><time>2026-04-07T11:42:01Z</time></trkpt>
<trkpt lat="43.2672150000" lon="-1.0643420000"><ele>188</ele><time>2026-04-07T11:42:02Z</time></trkpt>
<trkpt lat="43.2672270000" lon="-1.0643170000"><ele>188</ele><time>2026-04-07T11:42:04Z</time></trkpt>
<trkpt lat="43.2672370000" lon="-1.0642880000"><ele>188</ele><time>2026-04-07T11:42:06Z</time></trkpt>
<trkpt lat="43.2672570000" lon="-1.0642670000"><ele>187</ele><time>2026-04-07T11:42:08Z</time></trkpt>
<trkpt lat="43.2672670000" lon="-1.0642370000"><ele>187</ele><time>2026-04-07T11:42:10Z</time></trkpt>
<trkpt lat="43.2672820000" lon="-1.0642070000"><ele>187</ele><time>2026-04-07T11:42:13Z</time></trkpt>
<trkpt lat="43.2673020000" lon="-1.0642020000"><ele>186</ele><time>2026-04-07T11:42:20Z</time></trkpt>
<trkpt lat="43.2673070000" lon="-1.0641770000"><ele>185</ele><time>2026-04-07T11:42:39Z</time></trkpt>
<trkpt lat="43.2673100000" lon="-1.0641520000"><ele>185</ele><time>2026-04-07T11:42:41Z</time></trkpt>
<trkpt lat="43.2673250000" lon="-1.0641220000"><ele>185</ele><time>2026-04-07T11:43:06Z</time></trkpt>
<trkpt lat="43.2673420000" lon="-1.0640950000"><ele>184</ele><time>2026-04-07T11:43:08Z</time></trkpt>
<trkpt lat="43.2673470000" lon="-1.0640670000"><ele>184</ele><time>2026-04-07T11:43:10Z</time></trkpt>
<trkpt lat="43.2673420000" lon="-1.0640180000"><ele>184</ele><time>2026-04-07T11:43:13Z</time></trkpt>
<trkpt lat="43.2673420000" lon="-1.0640070000"><ele>184</ele><time>2026-04-07T11:43:14Z</time></trkpt>
<trkpt lat="43.2673470000" lon="-1.0639770000"><ele>183</ele><time>2026-04-07T11:43:16Z</time></trkpt>
<trkpt lat="43.2673500000" lon="-1.0639520000"><ele>183</ele><time>2026-04-07T11:43:18Z</time></trkpt>
<trkpt lat="43.2673450000" lon="-1.0639270000"><ele>183</ele><time>2026-04-07T11:43:20Z</time></trkpt>
<trkpt lat="43.2673220000" lon="-1.0639170000"><ele>182</ele><time>2026-04-07T11:43:23Z</time></trkpt>
<trkpt lat="43.2673220000" lon="-1.0639420000"><ele>182</ele><time>2026-04-07T11:43:26Z</time></trkpt>
<trkpt lat="43.2673370000" lon="-1.0639270000"><ele>182</ele><time>2026-04-07T11:44:11Z</time></trkpt>
<trkpt lat="43.2673420000" lon="-1.0638780000"><ele>182</ele><time>2026-04-07T11:44:13Z</time></trkpt>
<trkpt lat="43.2673420000" lon="-1.0638550000"><ele>182</ele><time>2026-04-07T11:44:14Z</time></trkpt>
<trkpt lat="43.2673420000" lon="-1.0638100000"><ele>182</ele><time>2026-04-07T11:44:16Z</time></trkpt>
<trkpt lat="43.2673370000" lon="-1.0637570000"><ele>181</ele><time>2026-04-07T11:44:19Z</time></trkpt>
<trkpt lat="43.2673370000" lon="-1.0637370000"><ele>181</ele><time>2026-04-07T11:44:20Z</time></trkpt>
<trkpt lat="43.2673370000" lon="-1.0637070000"><ele>181</ele><time>2026-04-07T11:44:22Z</time></trkpt>
<trkpt lat="43.2673320000" lon="-1.0636800000"><ele>180</ele><time>2026-04-07T11:44:24Z</time></trkpt>
<trkpt lat="43.2673300000" lon="-1.0636470000"><ele>180</ele><time>2026-04-07T11:44:26Z</time></trkpt>
<trkpt lat="43.2673250000" lon="-1.0636170000"><ele>180</ele><time>2026-04-07T11:44:28Z</time></trkpt>
<trkpt lat="43.2673170000" lon="-1.0635820000"><ele>180</ele><time>2026-04-07T11:44:30Z</time></trkpt>
<trkpt lat="43.2673050000" lon="-1.0635600000"><ele>179</ele><time>2026-04-07T11:44:32Z</time></trkpt>
<trkpt lat="43.2672900000" lon="-1.0635320000"><ele>179</ele><time>2026-04-07T11:44:34Z</time></trkpt>
<trkpt lat="43.2672750000" lon="-1.0635120000"><ele>179</ele><time>2026-04-07T11:44:36Z</time></trkpt>
<trkpt lat="43.2672570000" lon="-1.0634850000"><ele>179</ele><time>2026-04-07T11:44:38Z</time></trkpt>
<trkpt lat="43.2672450000" lon="-1.0634620000"><ele>179</ele><time>2026-04-07T11:44:40Z</time></trkpt>
<trkpt lat="43.2672170000" lon="-1.0634170000"><ele>179</ele><time>2026-04-07T11:44:43Z</time></trkpt>
<trkpt lat="43.2672120000" lon="-1.0633970000"><ele>178</ele><time>2026-04-07T11:44:44Z</time></trkpt>
<trkpt lat="43.2672020000" lon="-1.0633520000"><ele>178</ele><time>2026-04-07T11:44:46Z</time></trkpt>
<trkpt lat="43.2671900000" lon="-1.0633150000"><ele>178</ele><time>2026-04-07T11:44:48Z</time></trkpt>
<trkpt lat="43.2671720000" lon="-1.0632820000"><ele>178</ele><time>2026-04-07T11:44:50Z</time></trkpt>
<trkpt lat="43.2671620000" lon="-1.0632520000"><ele>178</ele><time>2026-04-07T11:44:52Z</time></trkpt>
<trkpt lat="43.2671550000" lon="-1.0632250000"><ele>178</ele><time>2026-04-07T11:44:54Z</time></trkpt>
<trkpt lat="43.2671420000" lon="-1.0631970000"><ele>177</ele><time>2026-04-07T11:44:56Z</time></trkpt>
<trkpt lat="43.2671270000" lon="-1.0631680000"><ele>177</ele><time>2026-04-07T11:44:58Z</time></trkpt>
<trkpt lat="43.2671070000" lon="-1.0631470000"><ele>177</ele><time>2026-04-07T11:45:00Z</time></trkpt>
<trkpt lat="43.2670870000" lon="-1.0631220000"><ele>177</ele><time>2026-04-07T11:45:02Z</time></trkpt>
<trkpt lat="43.2670720000" lon="-1.0631000000"><ele>177</ele><time>2026-04-07T11:45:04Z</time></trkpt>
<trkpt lat="43.2670550000" lon="-1.0630770000"><ele>177</ele><time>2026-04-07T11:45:06Z</time></trkpt>
<trkpt lat="43.2670420000" lon="-1.0630520000"><ele>177</ele><time>2026-04-07T11:45:08Z</time></trkpt>
<trkpt lat="43.2670270000" lon="-1.0630280000"><ele>177</ele><time>2026-04-07T11:45:10Z</time></trkpt>
<trkpt lat="43.2670070000" lon="-1.0629920000"><ele>177</ele><time>2026-04-07T11:45:13Z</time></trkpt>
<trkpt lat="43.2669970000" lon="-1.0629850000"><ele>177</ele><time>2026-04-07T11:45:14Z</time></trkpt>
<trkpt lat="43.2669870000" lon="-1.0629570000"><ele>177</ele><time>2026-04-07T11:45:16Z</time></trkpt>
<trkpt lat="43.2669670000" lon="-1.0629320000"><ele>177</ele><time>2026-04-07T11:45:18Z</time></trkpt>
<trkpt lat="43.2669500000" lon="-1.0629070000"><ele>177</ele><time>2026-04-07T11:45:20Z</time></trkpt>
<trkpt lat="43.2669320000" lon="-1.0628870000"><ele>177</ele><time>2026-04-07T11:45:22Z</time></trkpt>
<trkpt lat="43.2669020000" lon="-1.0628700000"><ele>176</ele><time>2026-04-07T11:45:25Z</time></trkpt>
<trkpt lat="43.2668920000" lon="-1.0628670000"><ele>176</ele><time>2026-04-07T11:45:26Z</time></trkpt>
<trkpt lat="43.2668720000" lon="-1.0628520000"><ele>176</ele><time>2026-04-07T11:45:28Z</time></trkpt>
<trkpt lat="43.2668520000" lon="-1.0628300000"><ele>176</ele><time>2026-04-07T11:45:30Z</time></trkpt>
<trkpt lat="43.2668320000" lon="-1.0628120000"><ele>176</ele><time>2026-04-07T11:45:32Z</time></trkpt>
<trkpt lat="43.2668170000" lon="-1.0627920000"><ele>175</ele><time>2026-04-07T11:45:34Z</time></trkpt>
<trkpt lat="43.2667970000" lon="-1.0627720000"><ele>175</ele><time>2026-04-07T11:45:36Z</time></trkpt>
<trkpt lat="43.2667770000" lon="-1.0627500000"><ele>175</ele><time>2026-04-07T11:45:38Z</time></trkpt>
<trkpt lat="43.2667620000" lon="-1.0627300000"><ele>174</ele><time>2026-04-07T11:45:40Z</time></trkpt>
<trkpt lat="43.2667420000" lon="-1.0627120000"><ele>174</ele><time>2026-04-07T11:45:42Z</time></trkpt>
<trkpt lat="43.2667250000" lon="-1.0626950000"><ele>174</ele><time>2026-04-07T11:45:44Z</time></trkpt>
<trkpt lat="43.2667070000" lon="-1.0626820000"><ele>174</ele><time>2026-04-07T11:45:46Z</time></trkpt>
<trkpt lat="43.2666820000" lon="-1.0626670000"><ele>174</ele><time>2026-04-07T11:45:49Z</time></trkpt>
<trkpt lat="43.2666570000" lon="-1.0626400000"><ele>173</ele><time>2026-04-07T11:45:52Z</time></trkpt>
<trkpt lat="43.2666470000" lon="-1.0626320000"><ele>173</ele><time>2026-04-07T11:45:53Z</time></trkpt>
<trkpt lat="43.2666270000" lon="-1.0626150000"><ele>173</ele><time>2026-04-07T11:45:55Z</time></trkpt>
<trkpt lat="43.2666070000" lon="-1.0625880000"><ele>172</ele><time>2026-04-07T11:45:57Z</time></trkpt>
<trkpt lat="43.2665920000" lon="-1.0625620000"><ele>172</ele><time>2026-04-07T11:45:59Z</time></trkpt>
<trkpt lat="43.2665770000" lon="-1.0625370000"><ele>172</ele><time>2026-04-07T11:46:01Z</time></trkpt>
<trkpt lat="43.2665650000" lon="-1.0625170000"><ele>172</ele><time>2026-04-07T11:46:03Z</time></trkpt>
<trkpt lat="43.2665470000" lon="-1.0624970000"><ele>172</ele><time>2026-04-07T11:46:05Z</time></trkpt>
<trkpt lat="43.2665300000" lon="-1.0624570000"><ele>171</ele><time>2026-04-07T11:46:07Z</time></trkpt>
<trkpt lat="43.2665020000" lon="-1.0623950000"><ele>171</ele><time>2026-04-07T11:46:10Z</time></trkpt>
<trkpt lat="43.2664800000" lon="-1.0623670000"><ele>171</ele><time>2026-04-07T11:46:12Z</time></trkpt>
<trkpt lat="43.2664620000" lon="-1.0623470000"><ele>170</ele><time>2026-04-07T11:46:14Z</time></trkpt>
<trkpt lat="43.2664470000" lon="-1.0623300000"><ele>170</ele><time>2026-04-07T11:46:16Z</time></trkpt>
<trkpt lat="43.2664320000" lon="-1.0623070000"><ele>170</ele><time>2026-04-07T11:46:18Z</time></trkpt>
<trkpt lat="43.2664220000" lon="-1.0622850000"><ele>170</ele><time>2026-04-07T11:46:20Z</time></trkpt>
<trkpt lat="43.2664100000" lon="-1.0622600000"><ele>169</ele><time>2026-04-07T11:46:22Z</time></trkpt>
<trkpt lat="43.2663950000" lon="-1.0622350000"><ele>169</ele><time>2026-04-07T11:46:24Z</time></trkpt>
<trkpt lat="43.2663770000" lon="-1.0622170000"><ele>169</ele><time>2026-04-07T11:46:26Z</time></trkpt>
<trkpt lat="43.2663570000" lon="-1.0622020000"><ele>169</ele><time>2026-04-07T11:46:28Z</time></trkpt>
<trkpt lat="43.2663400000" lon="-1.0621870000"><ele>169</ele><time>2026-04-07T11:46:30Z</time></trkpt>
<trkpt lat="43.2663220000" lon="-1.0621700000"><ele>168</ele><time>2026-04-07T11:46:32Z</time></trkpt>
<trkpt lat="43.2663020000" lon="-1.0621500000"><ele>168</ele><time>2026-04-07T11:46:34Z</time></trkpt>
<trkpt lat="43.2662750000" lon="-1.0621280000"><ele>168</ele><time>2026-04-07T11:46:37Z</time></trkpt>
<trkpt lat="43.2662620000" lon="-1.0621220000"><ele>168</ele><time>2026-04-07T11:46:38Z</time></trkpt>
<trkpt lat="43.2662420000" lon="-1.0621100000"><ele>167</ele><time>2026-04-07T11:46:40Z</time></trkpt>
<trkpt lat="43.2662170000" lon="-1.0620870000"><ele>167</ele><time>2026-04-07T11:46:43Z</time></trkpt>
<trkpt lat="43.2662070000" lon="-1.0620770000"><ele>167</ele><time>2026-04-07T11:46:44Z</time></trkpt>
<trkpt lat="43.2661870000" lon="-1.0620570000"><ele>167</ele><time>2026-04-07T11:46:46Z</time></trkpt>
<trkpt lat="43.2661720000" lon="-1.0620370000"><ele>167</ele><time>2026-04-07T11:46:48Z</time></trkpt>
<trkpt lat="43.2661550000" lon="-1.0620080000"><ele>167</ele><time>2026-04-07T11:46:50Z</time></trkpt>
<trkpt lat="43.2661370000" lon="-1.0619920000"><ele>167</ele><time>2026-04-07T11:46:52Z</time></trkpt>
<trkpt lat="43.2661200000" lon="-1.0619750000"><ele>166</ele><time>2026-04-07T11:46:54Z</time></trkpt>
<trkpt lat="43.2660950000" lon="-1.0619400000"><ele>166</ele><time>2026-04-07T11:46:58Z</time></trkpt>
<trkpt lat="43.2660850000" lon="-1.0619270000"><ele>166</ele><time>2026-04-07T11:46:59Z</time></trkpt>
<trkpt lat="43.2660670000" lon="-1.0619020000"><ele>166</ele><time>2026-04-07T11:47:01Z</time></trkpt>
<trkpt lat="43.2660400000" lon="-1.0618670000"><ele>166</ele><time>2026-04-07T11:47:04Z</time></trkpt>
<trkpt lat="43.2660300000" lon="-1.0618520000"><ele>166</ele><time>2026-04-07T11:47:05Z</time></trkpt>
<trkpt lat="43.2660120000" lon="-1.0618370000"><ele>166</ele><time>2026-04-07T11:47:07Z</time></trkpt>
<trkpt lat="43.2659850000" lon="-1.0618220000"><ele>166</ele><time>2026-04-07T11:47:10Z</time></trkpt>
<trkpt lat="43.2659770000" lon="-1.0618170000"><ele>166</ele><time>2026-04-07T11:47:11Z</time></trkpt>
<trkpt lat="43.2659470000" lon="-1.0618020000"><ele>166</ele><time>2026-04-07T11:47:14Z</time></trkpt>
<trkpt lat="43.2659300000" lon="-1.0617870000"><ele>166</ele><time>2026-04-07T11:47:16Z</time></trkpt>
<trkpt lat="43.2659120000" lon="-1.0617520000"><ele>166</ele><time>2026-04-07T11:47:19Z</time></trkpt>
<trkpt lat="43.2659100000" lon="-1.0617350000"><ele>166</ele><time>2026-04-07T11:47:20Z</time></trkpt>
<trkpt lat="43.2659070000" lon="-1.0617050000"><ele>165</ele><time>2026-04-07T11:47:22Z</time></trkpt>
<trkpt lat="43.2658870000" lon="-1.0616920000"><ele>165</ele><time>2026-04-07T11:47:23Z</time></trkpt>
<trkpt lat="43.2658520000" lon="-1.0616750000"><ele>165</ele><time>2026-04-07T11:47:25Z</time></trkpt>
<trkpt lat="43.2658320000" lon="-1.0616670000"><ele>165</ele><time>2026-04-07T11:47:26Z</time></trkpt>
<trkpt lat="43.2658170000" lon="-1.0616420000"><ele>165</ele><time>2026-04-07T11:47:28Z</time></trkpt>
<trkpt lat="43.2657970000" lon="-1.0616170000"><ele>165</ele><time>2026-04-07T11:47:30Z</time></trkpt>
<trkpt lat="43.2657770000" lon="-1.0615970000"><ele>165</ele><time>2026-04-07T11:47:32Z</time></trkpt>
<trkpt lat="43.2657650000" lon="-1.0615720000"><ele>165</ele><time>2026-04-07T11:47:35Z</time></trkpt>
<trkpt lat="43.2657450000" lon="-1.0615550000"><ele>165</ele><time>2026-04-07T11:47:37Z</time></trkpt>
<trkpt lat="43.2657220000" lon="-1.0615370000"><ele>164</ele><time>2026-04-07T11:47:39Z</time></trkpt>
<trkpt lat="43.2657050000" lon="-1.0615080000"><ele>164</ele><time>2026-04-07T11:47:41Z</time></trkpt>
<trkpt lat="43.2656870000" lon="-1.0614820000"><ele>164</ele><time>2026-04-07T11:47:43Z</time></trkpt>
<trkpt lat="43.2656720000" lon="-1.0614520000"><ele>164</ele><time>2026-04-07T11:47:45Z</time></trkpt>
<trkpt lat="43.2656550000" lon="-1.0614200000"><ele>164</ele><time>2026-04-07T11:47:47Z</time></trkpt>
<trkpt lat="43.2656470000" lon="-1.0613950000"><ele>164</ele><time>2026-04-07T11:47:49Z</time></trkpt>
<trkpt lat="43.2656320000" lon="-1.0613770000"><ele>163</ele><time>2026-04-07T11:47:51Z</time></trkpt>
<trkpt lat="43.2656250000" lon="-1.0613550000"><ele>163</ele><time>2026-04-07T11:47:53Z</time></trkpt>
<trkpt lat="43.2656100000" lon="-1.0613300000"><ele>163</ele><time>2026-04-07T11:47:55Z</time></trkpt>
<trkpt lat="43.2655950000" lon="-1.0613120000"><ele>163</ele><time>2026-04-07T11:47:57Z</time></trkpt>
<trkpt lat="43.2655800000" lon="-1.0612970000"><ele>162</ele><time>2026-04-07T11:47:59Z</time></trkpt>
<trkpt lat="43.2655670000" lon="-1.0612770000"><ele>162</ele><time>2026-04-07T11:48:01Z</time></trkpt>
<trkpt lat="43.2655450000" lon="-1.0612370000"><ele>162</ele><time>2026-04-07T11:48:04Z</time></trkpt>
<trkpt lat="43.2655370000" lon="-1.0612250000"><ele>162</ele><time>2026-04-07T11:48:05Z</time></trkpt>
<trkpt lat="43.2655220000" lon="-1.0612020000"><ele>161</ele><time>2026-04-07T11:48:07Z</time></trkpt>
<trkpt lat="43.2655070000" lon="-1.0611820000"><ele>161</ele><time>2026-04-07T11:48:09Z</time></trkpt>
<trkpt lat="43.2654920000" lon="-1.0611670000"><ele>161</ele><time>2026-04-07T11:48:11Z</time></trkpt>
<trkpt lat="43.2654750000" lon="-1.0611470000"><ele>161</ele><time>2026-04-07T11:48:13Z</time></trkpt>
<trkpt lat="43.2654620000" lon="-1.0611250000"><ele>161</ele><time>2026-04-07T11:48:15Z</time></trkpt>
<trkpt lat="43.2654450000" lon="-1.0611070000"><ele>160</ele><time>2026-04-07T11:48:17Z</time></trkpt>
<trkpt lat="43.2654250000" lon="-1.0610870000"><ele>160</ele><time>2026-04-07T11:48:20Z</time></trkpt>
<trkpt lat="43.2654120000" lon="-1.0610620000"><ele>160</ele><time>2026-04-07T11:48:24Z</time></trkpt>
<trkpt lat="43.2653870000" lon="-1.0610520000"><ele>160</ele><time>2026-04-07T11:48:26Z</time></trkpt>
<trkpt lat="43.2653720000" lon="-1.0610370000"><ele>159</ele><time>2026-04-07T11:48:28Z</time></trkpt>
<trkpt lat="43.2653420000" lon="-1.0610300000"><ele>159</ele><time>2026-04-07T11:48:30Z</time></trkpt>
<trkpt lat="43.2653250000" lon="-1.0610030000"><ele>159</ele><time>2026-04-07T11:48:32Z</time></trkpt>
<trkpt lat="43.2653070000" lon="-1.0609720000"><ele>159</ele><time>2026-04-07T11:48:34Z</time></trkpt>
<trkpt lat="43.2652870000" lon="-1.0609320000"><ele>159</ele><time>2026-04-07T11:48:36Z</time></trkpt>
<trkpt lat="43.2652700000" lon="-1.0608970000"><ele>158</ele><time>2026-04-07T11:48:38Z</time></trkpt>
<trkpt lat="43.2652520000" lon="-1.0608670000"><ele>158</ele><time>2026-04-07T11:48:40Z</time></trkpt>
<trkpt lat="43.2652370000" lon="-1.0608370000"><ele>158</ele><time>2026-04-07T11:48:44Z</time></trkpt>
<trkpt lat="43.2652170000" lon="-1.0608100000"><ele>158</ele><time>2026-04-07T11:48:46Z</time></trkpt>
<trkpt lat="43.2652020000" lon="-1.0607820000"><ele>157</ele><time>2026-04-07T11:48:48Z</time></trkpt>
<trkpt lat="43.2651920000" lon="-1.0607570000"><ele>157</ele><time>2026-04-07T11:48:50Z</time></trkpt>
<trkpt lat="43.2651720000" lon="-1.0607520000"><ele>157</ele><time>2026-04-07T11:48:59Z</time></trkpt>
<trkpt lat="43.2651600000" lon="-1.0607200000"><ele>157</ele><time>2026-04-07T11:49:02Z</time></trkpt>
<trkpt lat="43.2651520000" lon="-1.0606970000"><ele>157</ele><time>2026-04-07T11:49:04Z</time></trkpt>
<trkpt lat="43.2651400000" lon="-1.0606650000"><ele>157</ele><time>2026-04-07T11:49:06Z</time></trkpt>
<trkpt lat="43.2651220000" lon="-1.0606320000"><ele>157</ele><time>2026-04-07T11:49:08Z</time></trkpt>
<trkpt lat="43.2651030000" lon="-1.0606020000"><ele>156</ele><time>2026-04-07T11:49:10Z</time></trkpt>
<trkpt lat="43.2650900000" lon="-1.0605670000"><ele>156</ele><time>2026-04-07T11:49:12Z</time></trkpt>
<trkpt lat="43.2650820000" lon="-1.0605320000"><ele>156</ele><time>2026-04-07T11:49:14Z</time></trkpt>
<trkpt lat="43.2650770000" lon="-1.0605050000"><ele>156</ele><time>2026-04-07T11:49:16Z</time></trkpt>
<trkpt lat="43.2650670000" lon="-1.0604750000"><ele>156</ele><time>2026-04-07T11:49:18Z</time></trkpt>
<trkpt lat="43.2650550000" lon="-1.0604450000"><ele>156</ele><time>2026-04-07T11:49:20Z</time></trkpt>
<trkpt lat="43.2650470000" lon="-1.0604150000"><ele>156</ele><time>2026-04-07T11:49:22Z</time></trkpt>
<trkpt lat="43.2650420000" lon="-1.0603820000"><ele>155</ele><time>2026-04-07T11:49:25Z</time></trkpt>
<trkpt lat="43.2650370000" lon="-1.0603520000"><ele>155</ele><time>2026-04-07T11:49:27Z</time></trkpt>
<trkpt lat="43.2650370000" lon="-1.0603220000"><ele>155</ele><time>2026-04-07T11:49:29Z</time></trkpt>
<trkpt lat="43.2650330000" lon="-1.0602880000"><ele>155</ele><time>2026-04-07T11:49:31Z</time></trkpt>
<trkpt lat="43.2650220000" lon="-1.0602620000"><ele>154</ele><time>2026-04-07T11:49:33Z</time></trkpt>
<trkpt lat="43.2650070000" lon="-1.0602370000"><ele>154</ele><time>2026-04-07T11:49:36Z</time></trkpt>
<trkpt lat="43.2649870000" lon="-1.0602070000"><ele>154</ele><time>2026-04-07T11:49:39Z</time></trkpt>
<trkpt lat="43.2649670000" lon="-1.0601970000"><ele>154</ele><time>2026-04-07T11:49:41Z</time></trkpt>
<trkpt lat="43.2649400000" lon="-1.0601670000"><ele>153</ele><time>2026-04-07T11:49:43Z</time></trkpt>
<trkpt lat="43.2649200000" lon="-1.0601270000"><ele>153</ele><time>2026-04-07T11:49:45Z</time></trkpt>
<trkpt lat="43.2649070000" lon="-1.0601100000"><ele>153</ele><time>2026-04-07T11:49:46Z</time></trkpt>
<trkpt lat="43.2648820000" lon="-1.0600750000"><ele>153</ele><time>2026-04-07T11:49:48Z</time></trkpt>
<trkpt lat="43.2648650000" lon="-1.0600350000"><ele>153</ele><time>2026-04-07T11:49:50Z</time></trkpt>
<trkpt lat="43.2648470000" lon="-1.0600050000"><ele>153</ele><time>2026-04-07T11:49:52Z</time></trkpt>
<trkpt lat="43.2648400000" lon="-1.0599720000"><ele>153</ele><time>2026-04-07T11:49:54Z</time></trkpt>
<trkpt lat="43.2648270000" lon="-1.0599570000"><ele>153</ele><time>2026-04-07T11:49:56Z</time></trkpt>
<trkpt lat="43.2648000000" lon="-1.0599320000"><ele>152</ele><time>2026-04-07T11:49:58Z</time></trkpt>
<trkpt lat="43.2647770000" lon="-1.0599120000"><ele>152</ele><time>2026-04-07T11:50:00Z</time></trkpt>
<trkpt lat="43.2647620000" lon="-1.0598880000"><ele>152</ele><time>2026-04-07T11:50:03Z</time></trkpt>
<trkpt lat="43.2647600000" lon="-1.0598320000"><ele>151</ele><time>2026-04-07T11:50:08Z</time></trkpt>
<trkpt lat="43.2647570000" lon="-1.0598170000"><ele>151</ele><time>2026-04-07T11:50:09Z</time></trkpt>
<trkpt lat="43.2647520000" lon="-1.0597820000"><ele>151</ele><time>2026-04-07T11:50:12Z</time></trkpt>
<trkpt lat="43.2647450000" lon="-1.0597570000"><ele>151</ele><time>2026-04-07T11:50:14Z</time></trkpt>
<trkpt lat="43.2647370000" lon="-1.0597320000"><ele>151</ele><time>2026-04-07T11:50:16Z</time></trkpt>
<trkpt lat="43.2647220000" lon="-1.0597030000"><ele>151</ele><time>2026-04-07T11:50:18Z</time></trkpt>
<trkpt lat="43.2647120000" lon="-1.0596720000"><ele>151</ele><time>2026-04-07T11:50:20Z</time></trkpt>
<trkpt lat="43.2647070000" lon="-1.0596400000"><ele>151</ele><time>2026-04-07T11:50:22Z</time></trkpt>
<trkpt lat="43.2647000000" lon="-1.0596020000"><ele>151</ele><time>2026-04-07T11:50:24Z</time></trkpt>
<trkpt lat="43.2646870000" lon="-1.0595720000"><ele>150</ele><time>2026-04-07T11:50:26Z</time></trkpt>
<trkpt lat="43.2646720000" lon="-1.0595420000"><ele>150</ele><time>2026-04-07T11:50:28Z</time></trkpt>
<trkpt lat="43.2646500000" lon="-1.0595150000"><ele>150</ele><time>2026-04-07T11:50:30Z</time></trkpt>
<trkpt lat="43.2646400000" lon="-1.0594830000"><ele>150</ele><time>2026-04-07T11:50:32Z</time></trkpt>
<trkpt lat="43.2646320000" lon="-1.0594520000"><ele>150</ele><time>2026-04-07T11:50:34Z</time></trkpt>
<trkpt lat="43.2646220000" lon="-1.0594300000"><ele>150</ele><time>2026-04-07T11:50:36Z</time></trkpt>
<trkpt lat="43.2646120000" lon="-1.0594070000"><ele>150</ele><time>2026-04-07T11:50:38Z</time></trkpt>
<trkpt lat="43.2646020000" lon="-1.0593770000"><ele>149</ele><time>2026-04-07T11:50:40Z</time></trkpt>
<trkpt lat="43.2645920000" lon="-1.0593550000"><ele>149</ele><time>2026-04-07T11:50:42Z</time></trkpt>
<trkpt lat="43.2645750000" lon="-1.0593370000"><ele>149</ele><time>2026-04-07T11:50:44Z</time></trkpt>
<trkpt lat="43.2645600000" lon="-1.0593220000"><ele>149</ele><time>2026-04-07T11:50:46Z</time></trkpt>
<trkpt lat="43.2645470000" lon="-1.0592970000"><ele>149</ele><time>2026-04-07T11:50:49Z</time></trkpt>
<trkpt lat="43.2645270000" lon="-1.0592770000"><ele>148</ele><time>2026-04-07T11:50:52Z</time></trkpt>
<trkpt lat="43.2645120000" lon="-1.0592450000"><ele>148</ele><time>2026-04-07T11:50:55Z</time></trkpt>
<trkpt lat="43.2644970000" lon="-1.0592120000"><ele>148</ele><time>2026-04-07T11:50:57Z</time></trkpt>
<trkpt lat="43.2644750000" lon="-1.0591850000"><ele>147</ele><time>2026-04-07T11:50:59Z</time></trkpt>
<trkpt lat="43.2644570000" lon="-1.0591570000"><ele>147</ele><time>2026-04-07T11:51:01Z</time></trkpt>
<trkpt lat="43.2644420000" lon="-1.0591330000"><ele>147</ele><time>2026-04-07T11:51:03Z</time></trkpt>
<trkpt lat="43.2644250000" lon="-1.0591070000"><ele>147</ele><time>2026-04-07T11:51:05Z</time></trkpt>
<trkpt lat="43.2644150000" lon="-1.0590850000"><ele>147</ele><time>2026-04-07T11:51:07Z</time></trkpt>
<trkpt lat="43.2644050000" lon="-1.0590550000"><ele>146</ele><time>2026-04-07T11:51:09Z</time></trkpt>
<trkpt lat="43.2643920000" lon="-1.0590220000"><ele>146</ele><time>2026-04-07T11:51:11Z</time></trkpt>
<trkpt lat="43.2643820000" lon="-1.0589930000"><ele>146</ele><time>2026-04-07T11:51:13Z</time></trkpt>
<trkpt lat="43.2643620000" lon="-1.0589770000"><ele>146</ele><time>2026-04-07T11:51:15Z</time></trkpt>
<trkpt lat="43.2643320000" lon="-1.0589620000"><ele>146</ele><time>2026-04-07T11:51:17Z</time></trkpt>
<trkpt lat="43.2643150000" lon="-1.0589400000"><ele>145</ele><time>2026-04-07T11:51:21Z</time></trkpt>
<trkpt lat="43.2642970000" lon="-1.0589270000"><ele>145</ele><time>2026-04-07T11:51:23Z</time></trkpt>
<trkpt lat="43.2642730000" lon="-1.0589150000"><ele>145</ele><time>2026-04-07T11:51:25Z</time></trkpt>
<trkpt lat="43.2642470000" lon="-1.0588970000"><ele>145</ele><time>2026-04-07T11:51:27Z</time></trkpt>
<trkpt lat="43.2642300000" lon="-1.0588750000"><ele>145</ele><time>2026-04-07T11:51:29Z</time></trkpt>
<trkpt lat="43.2642120000" lon="-1.0588570000"><ele>144</ele><time>2026-04-07T11:51:32Z</time></trkpt>
<trkpt lat="43.2642020000" lon="-1.0588320000"><ele>144</ele><time>2026-04-07T11:51:34Z</time></trkpt>
<trkpt lat="43.2641920000" lon="-1.0588020000"><ele>144</ele><time>2026-04-07T11:51:36Z</time></trkpt>
<trkpt lat="43.2641950000" lon="-1.0587750000"><ele>143</ele><time>2026-04-07T11:51:39Z</time></trkpt>
<trkpt lat="43.2641720000" lon="-1.0587570000"><ele>143</ele><time>2026-04-07T11:51:42Z</time></trkpt>
<trkpt lat="43.2641520000" lon="-1.0587350000"><ele>143</ele><time>2026-04-07T11:51:45Z</time></trkpt>
<trkpt lat="43.2641370000" lon="-1.0587170000"><ele>143</ele><time>2026-04-07T11:51:47Z</time></trkpt>
<trkpt lat="43.2641180000" lon="-1.0586970000"><ele>142</ele><time>2026-04-07T11:51:49Z</time></trkpt>
<trkpt lat="43.2641020000" lon="-1.0586770000"><ele>142</ele><time>2026-04-07T11:51:51Z</time></trkpt>
<trkpt lat="43.2640900000" lon="-1.0586600000"><ele>142</ele><time>2026-04-07T11:51:53Z</time></trkpt>
<trkpt lat="43.2640700000" lon="-1.0586470000"><ele>142</ele><time>2026-04-07T11:51:55Z</time></trkpt>
<trkpt lat="43.2640470000" lon="-1.0586370000"><ele>141</ele><time>2026-04-07T11:51:58Z</time></trkpt>
<trkpt lat="43.2640220000" lon="-1.0586220000"><ele>141</ele><time>2026-04-07T11:52:00Z</time></trkpt>
<trkpt lat="43.2640000000" lon="-1.0586070000"><ele>140</ele><time>2026-04-07T11:52:02Z</time></trkpt>
<trkpt lat="43.2639700000" lon="-1.0585850000"><ele>140</ele><time>2026-04-07T11:52:04Z</time></trkpt>
<trkpt lat="43.2639420000" lon="-1.0585720000"><ele>140</ele><time>2026-04-07T11:52:06Z</time></trkpt>
<trkpt lat="43.2639220000" lon="-1.0585600000"><ele>140</ele><time>2026-04-07T11:52:08Z</time></trkpt>
<trkpt lat="43.2639050000" lon="-1.0585380000"><ele>139</ele><time>2026-04-07T11:52:10Z</time></trkpt>
<trkpt lat="43.2638900000" lon="-1.0585250000"><ele>139</ele><time>2026-04-07T11:52:12Z</time></trkpt>
<trkpt lat="43.2638750000" lon="-1.0585050000"><ele>139</ele><time>2026-04-07T11:52:14Z</time></trkpt>
<trkpt lat="43.2638570000" lon="-1.0584820000"><ele>139</ele><time>2026-04-07T11:52:16Z</time></trkpt>
<trkpt lat="43.2638420000" lon="-1.0584580000"><ele>138</ele><time>2026-04-07T11:52:18Z</time></trkpt>
<trkpt lat="43.2638270000" lon="-1.0584300000"><ele>138</ele><time>2026-04-07T11:52:20Z</time></trkpt>
<trkpt lat="43.2638170000" lon="-1.0584000000"><ele>137</ele><time>2026-04-07T11:52:22Z</time></trkpt>
<trkpt lat="43.2638020000" lon="-1.0583720000"><ele>137</ele><time>2026-04-07T11:52:24Z</time></trkpt>
<trkpt lat="43.2637920000" lon="-1.0583520000"><ele>136</ele><time>2026-04-07T11:52:26Z</time></trkpt>
<trkpt lat="43.2637720000" lon="-1.0583520000"><ele>135</ele><time>2026-04-07T11:52:33Z</time></trkpt>
<trkpt lat="43.2637570000" lon="-1.0583270000"><ele>135</ele><time>2026-04-07T11:52:35Z</time></trkpt>
<trkpt lat="43.2637450000" lon="-1.0582970000"><ele>135</ele><time>2026-04-07T11:52:37Z</time></trkpt>
<trkpt lat="43.2637350000" lon="-1.0582720000"><ele>134</ele><time>2026-04-07T11:52:39Z</time></trkpt>
<trkpt lat="43.2637270000" lon="-1.0582420000"><ele>134</ele><time>2026-04-07T11:52:41Z</time></trkpt>
<trkpt lat="43.2637170000" lon="-1.0582120000"><ele>134</ele><time>2026-04-07T11:52:43Z</time></trkpt>
<trkpt lat="43.2637070000" lon="-1.0581880000"><ele>133</ele><time>2026-04-07T11:52:45Z</time></trkpt>
<trkpt lat="43.2636950000" lon="-1.0581600000"><ele>133</ele><time>2026-04-07T11:52:47Z</time></trkpt>
<trkpt lat="43.2636850000" lon="-1.0581370000"><ele>133</ele><time>2026-04-07T11:52:49Z</time></trkpt>
<trkpt lat="43.2636770000" lon="-1.0581120000"><ele>132</ele><time>2026-04-07T11:52:51Z</time></trkpt>
<trkpt lat="43.2636720000" lon="-1.0580850000"><ele>132</ele><time>2026-04-07T11:52:53Z</time></trkpt>
<trkpt lat="43.2636670000" lon="-1.0580620000"><ele>132</ele><time>2026-04-07T11:52:55Z</time></trkpt>
<trkpt lat="43.2636570000" lon="-1.0580370000"><ele>131</ele><time>2026-04-07T11:52:57Z</time></trkpt>
<trkpt lat="43.2636520000" lon="-1.0580080000"><ele>131</ele><time>2026-04-07T11:52:59Z</time></trkpt>
<trkpt lat="43.2636470000" lon="-1.0579800000"><ele>131</ele><time>2026-04-07T11:53:01Z</time></trkpt>
<trkpt lat="43.2636450000" lon="-1.0579450000"><ele>130</ele><time>2026-04-07T11:53:03Z</time></trkpt>
<trkpt lat="43.2636450000" lon="-1.0579120000"><ele>130</ele><time>2026-04-07T11:53:05Z</time></trkpt>
<trkpt lat="43.2636350000" lon="-1.0578870000"><ele>130</ele><time>2026-04-07T11:53:07Z</time></trkpt>
<trkpt lat="43.2636250000" lon="-1.0578620000"><ele>130</ele><time>2026-04-07T11:53:09Z</time></trkpt>
<trkpt lat="43.2636120000" lon="-1.0578370000"><ele>129</ele><time>2026-04-07T11:53:11Z</time></trkpt>
<trkpt lat="43.2635970000" lon="-1.0578170000"><ele>129</ele><time>2026-04-07T11:53:13Z</time></trkpt>
<trkpt lat="43.2635770000" lon="-1.0577830000"><ele>129</ele><time>2026-04-07T11:53:15Z</time></trkpt>
<trkpt lat="43.2635650000" lon="-1.0577620000"><ele>129</ele><time>2026-04-07T11:53:17Z</time></trkpt>
<trkpt lat="43.2635520000" lon="-1.0577370000"><ele>128</ele><time>2026-04-07T11:53:19Z</time></trkpt>
<trkpt lat="43.2635420000" lon="-1.0577120000"><ele>128</ele><time>2026-04-07T11:53:21Z</time></trkpt>
<trkpt lat="43.2635300000" lon="-1.0576920000"><ele>128</ele><time>2026-04-07T11:53:23Z</time></trkpt>
<trkpt lat="43.2635220000" lon="-1.0576670000"><ele>128</ele><time>2026-04-07T11:53:25Z</time></trkpt>
<trkpt lat="43.2635170000" lon="-1.0576370000"><ele>128</ele><time>2026-04-07T11:53:27Z</time></trkpt>
<trkpt lat="43.2635200000" lon="-1.0576030000"><ele>127</ele><time>2026-04-07T11:53:30Z</time></trkpt>
<trkpt lat="43.2635020000" lon="-1.0576020000"><ele>127</ele><time>2026-04-07T11:53:33Z</time></trkpt>
<trkpt lat="43.2634820000" lon="-1.0576020000"><ele>127</ele><time>2026-04-07T11:53:35Z</time></trkpt>
<trkpt lat="43.2634820000" lon="-1.0575680000"><ele>127</ele><time>2026-04-07T11:53:39Z</time></trkpt>
<trkpt lat="43.2634720000" lon="-1.0575920000"><ele>127</ele><time>2026-04-07T11:53:46Z</time></trkpt>
<trkpt lat="43.2634850000" lon="-1.0575620000"><ele>127</ele><time>2026-04-07T11:53:51Z</time></trkpt>
<trkpt lat="43.2635020000" lon="-1.0575320000"><ele>127</ele><time>2026-04-07T11:53:53Z</time></trkpt>
<trkpt lat="43.2635200000" lon="-1.0575020000"><ele>127</ele><time>2026-04-07T11:53:55Z</time></trkpt>
<trkpt lat="43.2635370000" lon="-1.0574820000"><ele>127</ele><time>2026-04-07T11:53:57Z</time></trkpt>
<trkpt lat="43.2635570000" lon="-1.0574570000"><ele>127</ele><time>2026-04-07T11:53:59Z</time></trkpt>
<trkpt lat="43.2635720000" lon="-1.0574250000"><ele>127</ele><time>2026-04-07T11:54:02Z</time></trkpt>
<trkpt lat="43.2635870000" lon="-1.0574100000"><ele>127</ele><time>2026-04-07T11:54:04Z</time></trkpt>
<trkpt lat="43.2636070000" lon="-1.0573920000"><ele>128</ele><time>2026-04-07T11:54:07Z</time></trkpt>
<trkpt lat="43.2636320000" lon="-1.0573770000"><ele>128</ele><time>2026-04-07T11:54:10Z</time></trkpt>
<trkpt lat="43.2636520000" lon="-1.0573670000"><ele>128</ele><time>2026-04-07T11:54:13Z</time></trkpt>
<trkpt lat="43.2636720000" lon="-1.0573670000"><ele>128</ele><time>2026-04-07T11:54:15Z</time></trkpt>
<trkpt lat="43.2636900000" lon="-1.0573670000"><ele>128</ele><time>2026-04-07T11:54:19Z</time></trkpt>
<trkpt lat="43.2636750000" lon="-1.0573470000"><ele>128</ele><time>2026-04-07T11:54:22Z</time></trkpt>
<trkpt lat="43.2636770000" lon="-1.0573100000"><ele>128</ele><time>2026-04-07T11:54:25Z</time></trkpt>
<trkpt lat="43.2636570000" lon="-1.0572920000"><ele>127</ele><time>2026-04-07T11:54:48Z</time></trkpt>
<trkpt lat="43.2636370000" lon="-1.0572720000"><ele>127</ele><time>2026-04-07T11:54:49Z</time></trkpt>
<trkpt lat="43.2636120000" lon="-1.0572520000"><ele>127</ele><time>2026-04-07T11:54:50Z</time></trkpt>
<trkpt lat="43.2635820000" lon="-1.0572320000"><ele>127</ele><time>2026-04-07T11:54:51Z</time></trkpt>
<trkpt lat="43.2635320000" lon="-1.0571980000"><ele>127</ele><time>2026-04-07T11:54:53Z</time></trkpt>
<trkpt lat="43.2635130000" lon="-1.0571870000"><ele>127</ele><time>2026-04-07T11:54:54Z</time></trkpt>
<trkpt lat="43.2634950000" lon="-1.0571820000"><ele>127</ele><time>2026-04-07T11:54:55Z</time></trkpt>
<trkpt lat="43.2634520000" lon="-1.0571820000"><ele>127</ele><time>2026-04-07T11:54:58Z</time></trkpt>
<trkpt lat="43.2634400000" lon="-1.0571800000"><ele>127</ele><time>2026-04-07T11:54:59Z</time></trkpt>
<trkpt lat="43.2634170000" lon="-1.0571670000"><ele>127</ele><time>2026-04-07T11:55:02Z</time></trkpt>
<trkpt lat="43.2634120000" lon="-1.0571420000"><ele>127</ele><time>2026-04-07T11:55:07Z</time></trkpt>
<trkpt lat="43.2634270000" lon="-1.0571570000"><ele>127</ele><time>2026-04-07T11:55:53Z</time></trkpt>
<trkpt lat="43.2634570000" lon="-1.0571630000"><ele>127</ele><time>2026-04-07T11:55:54Z</time></trkpt>
<trkpt lat="43.2634870000" lon="-1.0571720000"><ele>127</ele><time>2026-04-07T11:55:55Z</time></trkpt>
<trkpt lat="43.2635170000" lon="-1.0571850000"><ele>127</ele><time>2026-04-07T11:55:56Z</time></trkpt>
<trkpt lat="43.2635370000" lon="-1.0571970000"><ele>127</ele><time>2026-04-07T11:55:57Z</time></trkpt>
<trkpt lat="43.2635620000" lon="-1.0572420000"><ele>127</ele><time>2026-04-07T11:56:00Z</time></trkpt>
<trkpt lat="43.2635770000" lon="-1.0572370000"><ele>127</ele><time>2026-04-07T11:56:02Z</time></trkpt>
<trkpt lat="43.2635950000" lon="-1.0572320000"><ele>127</ele><time>2026-04-07T11:56:10Z</time></trkpt>
<trkpt lat="43.2635850000" lon="-1.0572030000"><ele>127</ele><time>2026-04-07T11:56:15Z</time></trkpt>
<trkpt lat="43.2635570000" lon="-1.0571800000"><ele>127</ele><time>2026-04-07T11:56:17Z</time></trkpt>
<trkpt lat="43.2635270000" lon="-1.0571400000"><ele>127</ele><time>2026-04-07T11:56:19Z</time></trkpt>
<trkpt lat="43.2635470000" lon="-1.0571370000"><ele>127</ele><time>2026-04-07T11:56:55Z</time></trkpt>
<trkpt lat="43.2635350000" lon="-1.0571620000"><ele>127</ele><time>2026-04-07T11:56:59Z</time></trkpt>
<trkpt lat="43.2635620000" lon="-1.0571900000"><ele>127</ele><time>2026-04-07T11:57:21Z</time></trkpt>
<trkpt lat="43.2635820000" lon="-1.0572070000"><ele>127</ele><time>2026-04-07T11:57:22Z</time></trkpt>
<trkpt lat="43.2636020000" lon="-1.0572300000"><ele>127</ele><time>2026-04-07T11:57:23Z</time></trkpt>
<trkpt lat="43.2636170000" lon="-1.0572500000"><ele>127</ele><time>2026-04-07T11:57:24Z</time></trkpt>
<trkpt lat="43.2636400000" lon="-1.0572770000"><ele>127</ele><time>2026-04-07T11:57:26Z</time></trkpt>
<trkpt lat="43.2636550000" lon="-1.0572920000"><ele>127</ele><time>2026-04-07T11:57:28Z</time></trkpt>
<trkpt lat="43.2636320000" lon="-1.0572950000"><ele>127</ele><time>2026-04-07T11:57:37Z</time></trkpt>
<trkpt lat="43.2636150000" lon="-1.0572950000"><ele>127</ele><time>2026-04-07T11:58:27Z</time></trkpt>
<trkpt lat="43.2636020000" lon="-1.0572770000"><ele>127</ele><time>2026-04-07T11:58:30Z</time></trkpt>
<trkpt lat="43.2635820000" lon="-1.0572720000"><ele>127</ele><time>2026-04-07T11:59:26Z</time></trkpt>
<trkpt lat="43.2635670000" lon="-1.0572870000"><ele>127</ele><time>2026-04-07T11:59:28Z</time></trkpt>
<trkpt lat="43.2635470000" lon="-1.0572920000"><ele>127</ele><time>2026-04-07T11:59:30Z</time></trkpt>
<trkpt lat="43.2635220000" lon="-1.0572970000"><ele>127</ele><time>2026-04-07T11:59:32Z</time></trkpt>
<trkpt lat="43.2634970000" lon="-1.0572720000"><ele>127</ele><time>2026-04-07T11:59:34Z</time></trkpt>
<trkpt lat="43.2634820000" lon="-1.0572420000"><ele>127</ele><time>2026-04-07T11:59:36Z</time></trkpt>
<trkpt lat="43.2634620000" lon="-1.0572150000"><ele>127</ele><time>2026-04-07T11:59:38Z</time></trkpt>
<trkpt lat="43.2634370000" lon="-1.0571950000"><ele>126</ele><time>2026-04-07T11:59:40Z</time></trkpt>
<trkpt lat="43.2634200000" lon="-1.0571770000"><ele>126</ele><time>2026-04-07T11:59:42Z</time></trkpt>
<trkpt lat="43.2633970000" lon="-1.0571620000"><ele>126</ele><time>2026-04-07T11:59:44Z</time></trkpt>
<trkpt lat="43.2633800000" lon="-1.0571470000"><ele>126</ele><time>2026-04-07T11:59:46Z</time></trkpt>
<trkpt lat="43.2633570000" lon="-1.0571320000"><ele>126</ele><time>2026-04-07T11:59:48Z</time></trkpt>
<trkpt lat="43.2633320000" lon="-1.0571150000"><ele>126</ele><time>2026-04-07T11:59:50Z</time></trkpt>
<trkpt lat="43.2633100000" lon="-1.0571000000"><ele>126</ele><time>2026-04-07T11:59:52Z</time></trkpt>
<trkpt lat="43.2632920000" lon="-1.0570900000"><ele>126</ele><time>2026-04-07T11:59:54Z</time></trkpt>
<trkpt lat="43.2632720000" lon="-1.0570770000"><ele>126</ele><time>2026-04-07T11:59:56Z</time></trkpt>
<trkpt lat="43.2632400000" lon="-1.0570520000"><ele>126</ele><time>2026-04-07T11:59:59Z</time></trkpt>
<trkpt lat="43.2632300000" lon="-1.0570420000"><ele>126</ele><time>2026-04-07T12:00:00Z</time></trkpt>
<trkpt lat="43.2632100000" lon="-1.0570220000"><ele>126</ele><time>2026-04-07T12:00:02Z</time></trkpt>
<trkpt lat="43.2631950000" lon="-1.0570070000"><ele>126</ele><time>2026-04-07T12:00:04Z</time></trkpt>
<trkpt lat="43.2631750000" lon="-1.0569820000"><ele>126</ele><time>2026-04-07T12:00:06Z</time></trkpt>
<trkpt lat="43.2631570000" lon="-1.0569620000"><ele>126</ele><time>2026-04-07T12:00:08Z</time></trkpt>
<trkpt lat="43.2631320000" lon="-1.0569320000"><ele>126</ele><time>2026-04-07T12:00:11Z</time></trkpt>
<trkpt lat="43.2631200000" lon="-1.0569270000"><ele>126</ele><time>2026-04-07T12:00:12Z</time></trkpt>
<trkpt lat="43.2631000000" lon="-1.0569070000"><ele>126</ele><time>2026-04-07T12:00:14Z</time></trkpt>
<trkpt lat="43.2630770000" lon="-1.0568920000"><ele>126</ele><time>2026-04-07T12:00:16Z</time></trkpt>
<trkpt lat="43.2630500000" lon="-1.0568850000"><ele>126</ele><time>2026-04-07T12:00:18Z</time></trkpt>
<trkpt lat="43.2630220000" lon="-1.0568820000"><ele>125</ele><time>2026-04-07T12:00:20Z</time></trkpt>
<trkpt lat="43.2629820000" lon="-1.0568820000"><ele>125</ele><time>2026-04-07T12:00:23Z</time></trkpt>
<trkpt lat="43.2629700000" lon="-1.0568780000"><ele>125</ele><time>2026-04-07T12:00:24Z</time></trkpt>
<trkpt lat="43.2629420000" lon="-1.0568770000"><ele>125</ele><time>2026-04-07T12:00:26Z</time></trkpt>
<trkpt lat="43.2629170000" lon="-1.0568750000"><ele>125</ele><time>2026-04-07T12:00:28Z</time></trkpt>
<trkpt lat="43.2628870000" lon="-1.0568770000"><ele>125</ele><time>2026-04-07T12:00:30Z</time></trkpt>
<trkpt lat="43.2628620000" lon="-1.0568820000"><ele>125</ele><time>2026-04-07T12:00:32Z</time></trkpt>
<trkpt lat="43.2628380000" lon="-1.0568870000"><ele>125</ele><time>2026-04-07T12:00:34Z</time></trkpt>
<trkpt lat="43.2628170000" lon="-1.0569050000"><ele>125</ele><time>2026-04-07T12:00:36Z</time></trkpt>
<trkpt lat="43.2627770000" lon="-1.0569270000"><ele>125</ele><time>2026-04-07T12:00:39Z</time></trkpt>
<trkpt lat="43.2627720000" lon="-1.0569330000"><ele>125</ele><time>2026-04-07T12:00:40Z</time></trkpt>
<trkpt lat="43.2627520000" lon="-1.0569370000"><ele>125</ele><time>2026-04-07T12:00:43Z</time></trkpt>
<trkpt lat="43.2627320000" lon="-1.0569280000"><ele>125</ele><time>2026-04-07T12:00:45Z</time></trkpt>
<trkpt lat="43.2626870000" lon="-1.0569100000"><ele>125</ele><time>2026-04-07T12:00:48Z</time></trkpt>
<trkpt lat="43.2626700000" lon="-1.0569020000"><ele>125</ele><time>2026-04-07T12:00:49Z</time></trkpt>
<trkpt lat="43.2626420000" lon="-1.0568920000"><ele>125</ele><time>2026-04-07T12:00:52Z</time></trkpt>
<trkpt lat="43.2626200000" lon="-1.0568970000"><ele>125</ele><time>2026-04-07T12:00:54Z</time></trkpt>
<trkpt lat="43.2625750000" lon="-1.0568900000"><ele>125</ele><time>2026-04-07T12:00:57Z</time></trkpt>
<trkpt lat="43.2625600000" lon="-1.0568920000"><ele>125</ele><time>2026-04-07T12:00:58Z</time></trkpt>
<trkpt lat="43.2625420000" lon="-1.0568870000"><ele>125</ele><time>2026-04-07T12:01:00Z</time></trkpt>
<trkpt lat="43.2624900000" lon="-1.0568720000"><ele>125</ele><time>2026-04-07T12:01:03Z</time></trkpt>
<trkpt lat="43.2624620000" lon="-1.0568720000"><ele>125</ele><time>2026-04-07T12:01:05Z</time></trkpt>
<trkpt lat="43.2624370000" lon="-1.0568620000"><ele>125</ele><time>2026-04-07T12:01:07Z</time></trkpt>
<trkpt lat="43.2624170000" lon="-1.0568470000"><ele>125</ele><time>2026-04-07T12:01:09Z</time></trkpt>
<trkpt lat="43.2624020000" lon="-1.0568320000"><ele>125</ele><time>2026-04-07T12:01:11Z</time></trkpt>
<trkpt lat="43.2623870000" lon="-1.0568100000"><ele>125</ele><time>2026-04-07T12:01:13Z</time></trkpt>
<trkpt lat="43.2623650000" lon="-1.0567980000"><ele>125</ele><time>2026-04-07T12:01:15Z</time></trkpt>
<trkpt lat="43.2623370000" lon="-1.0567930000"><ele>126</ele><time>2026-04-07T12:01:18Z</time></trkpt>
<trkpt lat="43.2623120000" lon="-1.0567920000"><ele>126</ele><time>2026-04-07T12:01:21Z</time></trkpt>
<trkpt lat="43.2622870000" lon="-1.0567720000"><ele>126</ele><time>2026-04-07T12:01:24Z</time></trkpt>
<trkpt lat="43.2622770000" lon="-1.0567650000"><ele>126</ele><time>2026-04-07T12:01:25Z</time></trkpt>
<trkpt lat="43.2622600000" lon="-1.0567500000"><ele>126</ele><time>2026-04-07T12:01:27Z</time></trkpt>
<trkpt lat="43.2622420000" lon="-1.0567100000"><ele>127</ele><time>2026-04-07T12:01:30Z</time></trkpt>
<trkpt lat="43.2622330000" lon="-1.0566970000"><ele>127</ele><time>2026-04-07T12:01:31Z</time></trkpt>
<trkpt lat="43.2622200000" lon="-1.0566820000"><ele>127</ele><time>2026-04-07T12:01:33Z</time></trkpt>
<trkpt lat="43.2622000000" lon="-1.0566620000"><ele>127</ele><time>2026-04-07T12:01:35Z</time></trkpt>
<trkpt lat="43.2621820000" lon="-1.0566470000"><ele>127</ele><time>2026-04-07T12:01:37Z</time></trkpt>
<trkpt lat="43.2621670000" lon="-1.0566230000"><ele>128</ele><time>2026-04-07T12:01:39Z</time></trkpt>
<trkpt lat="43.2621470000" lon="-1.0565950000"><ele>128</ele><time>2026-04-07T12:01:42Z</time></trkpt>
<trkpt lat="43.2621370000" lon="-1.0565850000"><ele>128</ele><time>2026-04-07T12:01:43Z</time></trkpt>
<trkpt lat="43.2621220000" lon="-1.0565680000"><ele>129</ele><time>2026-04-07T12:01:45Z</time></trkpt>
<trkpt lat="43.2620970000" lon="-1.0565570000"><ele>129</ele><time>2026-04-07T12:01:48Z</time></trkpt>
<trkpt lat="43.2620770000" lon="-1.0565620000"><ele>129</ele><time>2026-04-07T12:01:51Z</time></trkpt>
<trkpt lat="43.2620620000" lon="-1.0565450000"><ele>130</ele><time>2026-04-07T12:01:54Z</time></trkpt>
<trkpt lat="43.2620400000" lon="-1.0565420000"><ele>130</ele><time>2026-04-07T12:01:56Z</time></trkpt>
<trkpt lat="43.2620170000" lon="-1.0565370000"><ele>130</ele><time>2026-04-07T12:01:58Z</time></trkpt>
<trkpt lat="43.2620000000" lon="-1.0565070000"><ele>130</ele><time>2026-04-07T12:02:00Z</time></trkpt>
<trkpt lat="43.2619770000" lon="-1.0564700000"><ele>131</ele><time>2026-04-07T12:02:03Z</time></trkpt>
<trkpt lat="43.2619700000" lon="-1.0564570000"><ele>131</ele><time>2026-04-07T12:02:04Z</time></trkpt>
<trkpt lat="43.2619500000" lon="-1.0564370000"><ele>131</ele><time>2026-04-07T12:02:06Z</time></trkpt>
<trkpt lat="43.2619300000" lon="-1.0564270000"><ele>131</ele><time>2026-04-07T12:02:08Z</time></trkpt>
<trkpt lat="43.2619050000" lon="-1.0564120000"><ele>132</ele><time>2026-04-07T12:02:10Z</time></trkpt>
<trkpt lat="43.2618850000" lon="-1.0563930000"><ele>132</ele><time>2026-04-07T12:02:12Z</time></trkpt>
<trkpt lat="43.2618420000" lon="-1.0563600000"><ele>132</ele><time>2026-04-07T12:02:15Z</time></trkpt>
<trkpt lat="43.2618170000" lon="-1.0563520000"><ele>132</ele><time>2026-04-07T12:02:18Z</time></trkpt>
<trkpt lat="43.2617920000" lon="-1.0563450000"><ele>133</ele><time>2026-04-07T12:02:21Z</time></trkpt>
<trkpt lat="43.2617620000" lon="-1.0563400000"><ele>133</ele><time>2026-04-07T12:02:24Z</time></trkpt>
<trkpt lat="43.2617570000" lon="-1.0563400000"><ele>133</ele><time>2026-04-07T12:02:25Z</time></trkpt>
<trkpt lat="43.2617370000" lon="-1.0563480000"><ele>133</ele><time>2026-04-07T12:02:28Z</time></trkpt>
<trkpt lat="43.2617220000" lon="-1.0563750000"><ele>134</ele><time>2026-04-07T12:02:33Z</time></trkpt>
<trkpt lat="43.2617050000" lon="-1.0563750000"><ele>134</ele><time>2026-04-07T12:02:35Z</time></trkpt>
<trkpt lat="43.2616770000" lon="-1.0563770000"><ele>134</ele><time>2026-04-07T12:02:38Z</time></trkpt>
<trkpt lat="43.2616470000" lon="-1.0563520000"><ele>135</ele><time>2026-04-07T12:02:40Z</time></trkpt>
<trkpt lat="43.2616170000" lon="-1.0563400000"><ele>135</ele><time>2026-04-07T12:02:42Z</time></trkpt>
<trkpt lat="43.2615870000" lon="-1.0563270000"><ele>135</ele><time>2026-04-07T12:02:44Z</time></trkpt>
<trkpt lat="43.2615700000" lon="-1.0563120000"><ele>135</ele><time>2026-04-07T12:02:46Z</time></trkpt>
<trkpt lat="43.2615520000" lon="-1.0563020000"><ele>135</ele><time>2026-04-07T12:02:48Z</time></trkpt>
<trkpt lat="43.2615320000" lon="-1.0562820000"><ele>136</ele><time>2026-04-07T12:02:50Z</time></trkpt>
<trkpt lat="43.2615020000" lon="-1.0562620000"><ele>136</ele><time>2026-04-07T12:02:53Z</time></trkpt>
<trkpt lat="43.2614920000" lon="-1.0562580000"><ele>136</ele><time>2026-04-07T12:02:54Z</time></trkpt>
<trkpt lat="43.2614720000" lon="-1.0562800000"><ele>137</ele><time>2026-04-07T12:02:57Z</time></trkpt>
<trkpt lat="43.2614520000" lon="-1.0562870000"><ele>137</ele><time>2026-04-07T12:02:59Z</time></trkpt>
<trkpt lat="43.2614320000" lon="-1.0563020000"><ele>137</ele><time>2026-04-07T12:03:02Z</time></trkpt>
<trkpt lat="43.2614100000" lon="-1.0563200000"><ele>138</ele><time>2026-04-07T12:03:05Z</time></trkpt>
<trkpt lat="43.2614050000" lon="-1.0563370000"><ele>138</ele><time>2026-04-07T12:03:06Z</time></trkpt>
<trkpt lat="43.2613920000" lon="-1.0563800000"><ele>138</ele><time>2026-04-07T12:03:08Z</time></trkpt>
<trkpt lat="43.2613900000" lon="-1.0564170000"><ele>138</ele><time>2026-04-07T12:03:10Z</time></trkpt>
<trkpt lat="43.2613870000" lon="-1.0564520000"><ele>138</ele><time>2026-04-07T12:03:12Z</time></trkpt>
<trkpt lat="43.2613820000" lon="-1.0564770000"><ele>139</ele><time>2026-04-07T12:03:14Z</time></trkpt>
<trkpt lat="43.2613800000" lon="-1.0565100000"><ele>139</ele><time>2026-04-07T12:03:17Z</time></trkpt>
<trkpt lat="43.2613870000" lon="-1.0565420000"><ele>139</ele><time>2026-04-07T12:03:20Z</time></trkpt>
<trkpt lat="43.2613900000" lon="-1.0565680000"><ele>140</ele><time>2026-04-07T12:03:22Z</time></trkpt>
<trkpt lat="43.2613920000" lon="-1.0565970000"><ele>140</ele><time>2026-04-07T12:03:24Z</time></trkpt>
<trkpt lat="43.2613920000" lon="-1.0566220000"><ele>140</ele><time>2026-04-07T12:03:26Z</time></trkpt>
<trkpt lat="43.2613970000" lon="-1.0566500000"><ele>141</ele><time>2026-04-07T12:03:28Z</time></trkpt>
<trkpt lat="43.2613970000" lon="-1.0566750000"><ele>141</ele><time>2026-04-07T12:03:30Z</time></trkpt>
<trkpt lat="43.2614000000" lon="-1.0567020000"><ele>141</ele><time>2026-04-07T12:03:32Z</time></trkpt>
<trkpt lat="43.2614020000" lon="-1.0567370000"><ele>141</ele><time>2026-04-07T12:03:35Z</time></trkpt>
<trkpt lat="43.2614050000" lon="-1.0567720000"><ele>142</ele><time>2026-04-07T12:03:38Z</time></trkpt>
<trkpt lat="43.2614120000" lon="-1.0568070000"><ele>142</ele><time>2026-04-07T12:03:41Z</time></trkpt>
<trkpt lat="43.2614120000" lon="-1.0568320000"><ele>142</ele><time>2026-04-07T12:03:43Z</time></trkpt>
<trkpt lat="43.2614120000" lon="-1.0568570000"><ele>142</ele><time>2026-04-07T12:03:45Z</time></trkpt>
<trkpt lat="43.2614120000" lon="-1.0568870000"><ele>143</ele><time>2026-04-07T12:03:47Z</time></trkpt>
<trkpt lat="43.2614170000" lon="-1.0569120000"><ele>143</ele><time>2026-04-07T12:03:49Z</time></trkpt>
<trkpt lat="43.2614120000" lon="-1.0569370000"><ele>143</ele><time>2026-04-07T12:03:51Z</time></trkpt>
<trkpt lat="43.2614050000" lon="-1.0569620000"><ele>143</ele><time>2026-04-07T12:03:53Z</time></trkpt>
<trkpt lat="43.2613970000" lon="-1.0569900000"><ele>144</ele><time>2026-04-07T12:03:56Z</time></trkpt>
<trkpt lat="43.2613900000" lon="-1.0570130000"><ele>144</ele><time>2026-04-07T12:03:58Z</time></trkpt>
<trkpt lat="43.2613870000" lon="-1.0570400000"><ele>144</ele><time>2026-04-07T12:04:00Z</time></trkpt>
<trkpt lat="43.2613920000" lon="-1.0570720000"><ele>144</ele><time>2026-04-07T12:04:03Z</time></trkpt>
<trkpt lat="43.2613850000" lon="-1.0571080000"><ele>144</ele><time>2026-04-07T12:04:06Z</time></trkpt>
<trkpt lat="43.2613900000" lon="-1.0571470000"><ele>144</ele><time>2026-04-07T12:04:09Z</time></trkpt>
<trkpt lat="43.2613820000" lon="-1.0571800000"><ele>145</ele><time>2026-04-07T12:04:12Z</time></trkpt>
<trkpt lat="43.2613850000" lon="-1.0572120000"><ele>145</ele><time>2026-04-07T12:04:14Z</time></trkpt>
<trkpt lat="43.2613870000" lon="-1.0572420000"><ele>145</ele><time>2026-04-07T12:04:16Z</time></trkpt>
<trkpt lat="43.2613950000" lon="-1.0572670000"><ele>145</ele><time>2026-04-07T12:04:18Z</time></trkpt>
<trkpt lat="43.2613970000" lon="-1.0572970000"><ele>145</ele><time>2026-04-07T12:04:20Z</time></trkpt>
<trkpt lat="43.2613920000" lon="-1.0573320000"><ele>145</ele><time>2026-04-07T12:04:22Z</time></trkpt>
<trkpt lat="43.2613900000" lon="-1.0573600000"><ele>145</ele><time>2026-04-07T12:04:24Z</time></trkpt>
<trkpt lat="43.2613870000" lon="-1.0573950000"><ele>146</ele><time>2026-04-07T12:04:27Z</time></trkpt>
<trkpt lat="43.2613820000" lon="-1.0574270000"><ele>146</ele><time>2026-04-07T12:04:29Z</time></trkpt>
<trkpt lat="43.2613800000" lon="-1.0574570000"><ele>146</ele><time>2026-04-07T12:04:31Z</time></trkpt>
<trkpt lat="43.2613800000" lon="-1.0574850000"><ele>146</ele><time>2026-04-07T12:04:33Z</time></trkpt>
<trkpt lat="43.2613770000" lon="-1.0575120000"><ele>146</ele><time>2026-04-07T12:04:35Z</time></trkpt>
<trkpt lat="43.2613770000" lon="-1.0575420000"><ele>147</ele><time>2026-04-07T12:04:37Z</time></trkpt>
<trkpt lat="43.2613720000" lon="-1.0575680000"><ele>147</ele><time>2026-04-07T12:04:39Z</time></trkpt>
<trkpt lat="43.2613700000" lon="-1.0576020000"><ele>147</ele><time>2026-04-07T12:04:41Z</time></trkpt>
<trkpt lat="43.2613720000" lon="-1.0576320000"><ele>147</ele><time>2026-04-07T12:04:43Z</time></trkpt>
<trkpt lat="43.2613700000" lon="-1.0576600000"><ele>147</ele><time>2026-04-07T12:04:45Z</time></trkpt>
<trkpt lat="43.2613670000" lon="-1.0576950000"><ele>147</ele><time>2026-04-07T12:04:48Z</time></trkpt>
<trkpt lat="43.2613670000" lon="-1.0577200000"><ele>148</ele><time>2026-04-07T12:04:50Z</time></trkpt>
<trkpt lat="43.2613670000" lon="-1.0577470000"><ele>148</ele><time>2026-04-07T12:04:52Z</time></trkpt>
<trkpt lat="43.2613600000" lon="-1.0577820000"><ele>148</ele><time>2026-04-07T12:04:55Z</time></trkpt>
<trkpt lat="43.2613520000" lon="-1.0578070000"><ele>149</ele><time>2026-04-07T12:04:57Z</time></trkpt>
<trkpt lat="43.2613500000" lon="-1.0578370000"><ele>149</ele><time>2026-04-07T12:04:59Z</time></trkpt>
<trkpt lat="43.2613420000" lon="-1.0578730000"><ele>149</ele><time>2026-04-07T12:05:02Z</time></trkpt>
<trkpt lat="43.2613420000" lon="-1.0579070000"><ele>149</ele><time>2026-04-07T12:05:04Z</time></trkpt>
<trkpt lat="43.2613420000" lon="-1.0579420000"><ele>149</ele><time>2026-04-07T12:05:06Z</time></trkpt>
<trkpt lat="43.2613520000" lon="-1.0579720000"><ele>149</ele><time>2026-04-07T12:05:08Z</time></trkpt>
<trkpt lat="43.2613570000" lon="-1.0580020000"><ele>150</ele><time>2026-04-07T12:05:10Z</time></trkpt>
<trkpt lat="43.2613620000" lon="-1.0580300000"><ele>150</ele><time>2026-04-07T12:05:12Z</time></trkpt>
<trkpt lat="43.2613620000" lon="-1.0580570000"><ele>150</ele><time>2026-04-07T12:05:14Z</time></trkpt>
<trkpt lat="43.2613600000" lon="-1.0580920000"><ele>150</ele><time>2026-04-07T12:05:16Z</time></trkpt>
<trkpt lat="43.2613570000" lon="-1.0581220000"><ele>150</ele><time>2026-04-07T12:05:18Z</time></trkpt>
<trkpt lat="43.2613570000" lon="-1.0581470000"><ele>150</ele><time>2026-04-07T12:05:20Z</time></trkpt>
<trkpt lat="43.2613570000" lon="-1.0581750000"><ele>151</ele><time>2026-04-07T12:05:22Z</time></trkpt>
<trkpt lat="43.2613520000" lon="-1.0582020000"><ele>151</ele><time>2026-04-07T12:05:24Z</time></trkpt>
<trkpt lat="43.2613450000" lon="-1.0582270000"><ele>151</ele><time>2026-04-07T12:05:26Z</time></trkpt>
<trkpt lat="43.2613470000" lon="-1.0582620000"><ele>151</ele><time>2026-04-07T12:05:29Z</time></trkpt>
<trkpt lat="43.2613350000" lon="-1.0582920000"><ele>152</ele><time>2026-04-07T12:05:31Z</time></trkpt>
<trkpt lat="43.2613270000" lon="-1.0583220000"><ele>152</ele><time>2026-04-07T12:05:33Z</time></trkpt>
<trkpt lat="43.2613120000" lon="-1.0583470000"><ele>152</ele><time>2026-04-07T12:05:35Z</time></trkpt>
<trkpt lat="43.2613100000" lon="-1.0583770000"><ele>152</ele><time>2026-04-07T12:05:37Z</time></trkpt>
<trkpt lat="43.2613120000" lon="-1.0584030000"><ele>152</ele><time>2026-04-07T12:05:39Z</time></trkpt>
<trkpt lat="43.2612900000" lon="-1.0584270000"><ele>153</ele><time>2026-04-07T12:05:42Z</time></trkpt>
<trkpt lat="43.2612770000" lon="-1.0584470000"><ele>153</ele><time>2026-04-07T12:05:44Z</time></trkpt>
<trkpt lat="43.2612520000" lon="-1.0584620000"><ele>153</ele><time>2026-04-07T12:05:46Z</time></trkpt>
<trkpt lat="43.2612320000" lon="-1.0584720000"><ele>154</ele><time>2026-04-07T12:05:48Z</time></trkpt>
<trkpt lat="43.2612150000" lon="-1.0584800000"><ele>154</ele><time>2026-04-07T12:05:50Z</time></trkpt>
<trkpt lat="43.2612220000" lon="-1.0585020000"><ele>154</ele><time>2026-04-07T12:05:57Z</time></trkpt>
<trkpt lat="43.2612420000" lon="-1.0584850000"><ele>155</ele><time>2026-04-07T12:06:22Z</time></trkpt>
<trkpt lat="43.2612200000" lon="-1.0584980000"><ele>154</ele><time>2026-04-07T12:06:29Z</time></trkpt>
<trkpt lat="43.2612020000" lon="-1.0585270000"><ele>154</ele><time>2026-04-07T12:06:31Z</time></trkpt>
<trkpt lat="43.2612050000" lon="-1.0585770000"><ele>154</ele><time>2026-04-07T12:06:32Z</time></trkpt>
<trkpt lat="43.2611920000" lon="-1.0586170000"><ele>155</ele><time>2026-04-07T12:06:34Z</time></trkpt>
<trkpt lat="43.2611800000" lon="-1.0586370000"><ele>155</ele><time>2026-04-07T12:06:36Z</time></trkpt>
<trkpt lat="43.2611670000" lon="-1.0586570000"><ele>155</ele><time>2026-04-07T12:06:38Z</time></trkpt>
<trkpt lat="43.2611520000" lon="-1.0586770000"><ele>155</ele><time>2026-04-07T12:06:40Z</time></trkpt>
<trkpt lat="43.2611420000" lon="-1.0587000000"><ele>155</ele><time>2026-04-07T12:06:42Z</time></trkpt>
<trkpt lat="43.2611270000" lon="-1.0587200000"><ele>155</ele><time>2026-04-07T12:06:44Z</time></trkpt>
<trkpt lat="43.2611120000" lon="-1.0587420000"><ele>155</ele><time>2026-04-07T12:06:46Z</time></trkpt>
<trkpt lat="43.2611050000" lon="-1.0587680000"><ele>156</ele><time>2026-04-07T12:06:49Z</time></trkpt>
<trkpt lat="43.2610970000" lon="-1.0587920000"><ele>156</ele><time>2026-04-07T12:06:59Z</time></trkpt>
<trkpt lat="43.2610770000" lon="-1.0588320000"><ele>156</ele><time>2026-04-07T12:07:01Z</time></trkpt>
<trkpt lat="43.2610600000" lon="-1.0588670000"><ele>156</ele><time>2026-04-07T12:07:03Z</time></trkpt>
<trkpt lat="43.2610420000" lon="-1.0588980000"><ele>156</ele><time>2026-04-07T12:07:05Z</time></trkpt>
<trkpt lat="43.2610300000" lon="-1.0589270000"><ele>156</ele><time>2026-04-07T12:07:07Z</time></trkpt>
<trkpt lat="43.2610220000" lon="-1.0589570000"><ele>156</ele><time>2026-04-07T12:07:09Z</time></trkpt>
<trkpt lat="43.2610150000" lon="-1.0589850000"><ele>156</ele><time>2026-04-07T12:07:11Z</time></trkpt>
<trkpt lat="43.2610020000" lon="-1.0590120000"><ele>156</ele><time>2026-04-07T12:07:13Z</time></trkpt>
<trkpt lat="43.2609870000" lon="-1.0590370000"><ele>156</ele><time>2026-04-07T12:07:15Z</time></trkpt>
<trkpt lat="43.2609770000" lon="-1.0590650000"><ele>157</ele><time>2026-04-07T12:07:17Z</time></trkpt>
<trkpt lat="43.2609670000" lon="-1.0590920000"><ele>157</ele><time>2026-04-07T12:07:19Z</time></trkpt>
<trkpt lat="43.2609570000" lon="-1.0591170000"><ele>157</ele><time>2026-04-07T12:07:21Z</time></trkpt>
<trkpt lat="43.2609520000" lon="-1.0591450000"><ele>157</ele><time>2026-04-07T12:07:23Z</time></trkpt>
<trkpt lat="43.2609470000" lon="-1.0591730000"><ele>157</ele><time>2026-04-07T12:07:25Z</time></trkpt>
<trkpt lat="43.2609420000" lon="-1.0592070000"><ele>157</ele><time>2026-04-07T12:07:27Z</time></trkpt>
<trkpt lat="43.2609320000" lon="-1.0592370000"><ele>157</ele><time>2026-04-07T12:07:29Z</time></trkpt>
<trkpt lat="43.2609250000" lon="-1.0592630000"><ele>157</ele><time>2026-04-07T12:07:31Z</time></trkpt>
<trkpt lat="43.2609120000" lon="-1.0592920000"><ele>157</ele><time>2026-04-07T12:07:33Z</time></trkpt>
<trkpt lat="43.2609070000" lon="-1.0593170000"><ele>157</ele><time>2026-04-07T12:07:35Z</time></trkpt>
<trkpt lat="43.2609020000" lon="-1.0593450000"><ele>157</ele><time>2026-04-07T12:07:37Z</time></trkpt>
<trkpt lat="43.2608970000" lon="-1.0593720000"><ele>157</ele><time>2026-04-07T12:07:39Z</time></trkpt>
<trkpt lat="43.2608920000" lon="-1.0594030000"><ele>157</ele><time>2026-04-07T12:07:41Z</time></trkpt>
<trkpt lat="43.2608750000" lon="-1.0594370000"><ele>157</ele><time>2026-04-07T12:07:43Z</time></trkpt>
<trkpt lat="43.2608620000" lon="-1.0594720000"><ele>157</ele><time>2026-04-07T12:07:45Z</time></trkpt>
<trkpt lat="43.2608500000" lon="-1.0594970000"><ele>157</ele><time>2026-04-07T12:07:47Z</time></trkpt>
<trkpt lat="43.2608370000" lon="-1.0595230000"><ele>157</ele><time>2026-04-07T12:07:49Z</time></trkpt>
<trkpt lat="43.2608320000" lon="-1.0595520000"><ele>157</ele><time>2026-04-07T12:07:51Z</time></trkpt>
<trkpt lat="43.2608320000" lon="-1.0595780000"><ele>157</ele><time>2026-04-07T12:07:53Z</time></trkpt>
<trkpt lat="43.2608270000" lon="-1.0596100000"><ele>157</ele><time>2026-04-07T12:07:55Z</time></trkpt>
<trkpt lat="43.2608200000" lon="-1.0596320000"><ele>157</ele><time>2026-04-07T12:07:57Z</time></trkpt>
<trkpt lat="43.2608100000" lon="-1.0596570000"><ele>157</ele><time>2026-04-07T12:07:59Z</time></trkpt>
<trkpt lat="43.2607950000" lon="-1.0596820000"><ele>157</ele><time>2026-04-07T12:08:01Z</time></trkpt>
<trkpt lat="43.2607770000" lon="-1.0597030000"><ele>157</ele><time>2026-04-07T12:08:03Z</time></trkpt>
<trkpt lat="43.2607620000" lon="-1.0597270000"><ele>157</ele><time>2026-04-07T12:08:05Z</time></trkpt>
<trkpt lat="43.2607470000" lon="-1.0597480000"><ele>157</ele><time>2026-04-07T12:08:07Z</time></trkpt>
<trkpt lat="43.2607350000" lon="-1.0597750000"><ele>157</ele><time>2026-04-07T12:08:09Z</time></trkpt>
<trkpt lat="43.2607200000" lon="-1.0597970000"><ele>157</ele><time>2026-04-07T12:08:11Z</time></trkpt>
<trkpt lat="43.2607070000" lon="-1.0598170000"><ele>157</ele><time>2026-04-07T12:08:13Z</time></trkpt>
<trkpt lat="43.2606900000" lon="-1.0598420000"><ele>157</ele><time>2026-04-07T12:08:15Z</time></trkpt>
<trkpt lat="43.2606720000" lon="-1.0598650000"><ele>157</ele><time>2026-04-07T12:08:17Z</time></trkpt>
<trkpt lat="43.2606570000" lon="-1.0598830000"><ele>157</ele><time>2026-04-07T12:08:19Z</time></trkpt>
<trkpt lat="43.2606420000" lon="-1.0599150000"><ele>158</ele><time>2026-04-07T12:08:21Z</time></trkpt>
<trkpt lat="43.2606270000" lon="-1.0599370000"><ele>158</ele><time>2026-04-07T12:08:23Z</time></trkpt>
<trkpt lat="43.2606170000" lon="-1.0599620000"><ele>158</ele><time>2026-04-07T12:08:25Z</time></trkpt>
<trkpt lat="43.2606050000" lon="-1.0599870000"><ele>158</ele><time>2026-04-07T12:08:27Z</time></trkpt>
<trkpt lat="43.2605920000" lon="-1.0600120000"><ele>158</ele><time>2026-04-07T12:08:29Z</time></trkpt>
<trkpt lat="43.2605820000" lon="-1.0600370000"><ele>158</ele><time>2026-04-07T12:08:31Z</time></trkpt>
<trkpt lat="43.2605720000" lon="-1.0600620000"><ele>158</ele><time>2026-04-07T12:08:33Z</time></trkpt>
<trkpt lat="43.2605620000" lon="-1.0600870000"><ele>158</ele><time>2026-04-07T12:08:35Z</time></trkpt>
<trkpt lat="43.2605520000" lon="-1.0601070000"><ele>158</ele><time>2026-04-07T12:08:37Z</time></trkpt>
<trkpt lat="43.2605370000" lon="-1.0601320000"><ele>158</ele><time>2026-04-07T12:08:39Z</time></trkpt>
<trkpt lat="43.2605170000" lon="-1.0601570000"><ele>158</ele><time>2026-04-07T12:08:41Z</time></trkpt>
<trkpt lat="43.2605050000" lon="-1.0601770000"><ele>159</ele><time>2026-04-07T12:08:54Z</time></trkpt>
<trkpt lat="43.2604920000" lon="-1.0601980000"><ele>159</ele><time>2026-04-07T12:08:56Z</time></trkpt>
<trkpt lat="43.2604720000" lon="-1.0602300000"><ele>159</ele><time>2026-04-07T12:08:58Z</time></trkpt>
<trkpt lat="43.2604570000" lon="-1.0602520000"><ele>158</ele><time>2026-04-07T12:09:07Z</time></trkpt>
<trkpt lat="43.2604400000" lon="-1.0602800000"><ele>159</ele><time>2026-04-07T12:09:09Z</time></trkpt>
<trkpt lat="43.2604200000" lon="-1.0603170000"><ele>159</ele><time>2026-04-07T12:09:11Z</time></trkpt>
<trkpt lat="43.2603970000" lon="-1.0603550000"><ele>159</ele><time>2026-04-07T12:09:13Z</time></trkpt>
<trkpt lat="43.2603800000" lon="-1.0603830000"><ele>159</ele><time>2026-04-07T12:09:15Z</time></trkpt>
<trkpt lat="43.2603650000" lon="-1.0604120000"><ele>159</ele><time>2026-04-07T12:09:17Z</time></trkpt>
<trkpt lat="43.2603520000" lon="-1.0604400000"><ele>159</ele><time>2026-04-07T12:09:19Z</time></trkpt>
<trkpt lat="43.2603330000" lon="-1.0604680000"><ele>159</ele><time>2026-04-07T12:09:21Z</time></trkpt>
<trkpt lat="43.2603220000" lon="-1.0605020000"><ele>159</ele><time>2026-04-07T12:09:23Z</time></trkpt>
<trkpt lat="43.2603100000" lon="-1.0605270000"><ele>159</ele><time>2026-04-07T12:09:25Z</time></trkpt>
<trkpt lat="43.2603050000" lon="-1.0605550000"><ele>159</ele><time>2026-04-07T12:09:27Z</time></trkpt>
<trkpt lat="43.2602920000" lon="-1.0605820000"><ele>159</ele><time>2026-04-07T12:09:29Z</time></trkpt>
<trkpt lat="43.2602800000" lon="-1.0606100000"><ele>160</ele><time>2026-04-07T12:09:31Z</time></trkpt>
<trkpt lat="43.2602670000" lon="-1.0606350000"><ele>160</ele><time>2026-04-07T12:09:33Z</time></trkpt>
<trkpt lat="43.2602570000" lon="-1.0606620000"><ele>160</ele><time>2026-04-07T12:09:35Z</time></trkpt>
<trkpt lat="43.2602470000" lon="-1.0606900000"><ele>160</ele><time>2026-04-07T12:09:37Z</time></trkpt>
<trkpt lat="43.2602350000" lon="-1.0607170000"><ele>160</ele><time>2026-04-07T12:09:39Z</time></trkpt>
<trkpt lat="43.2602270000" lon="-1.0607420000"><ele>161</ele><time>2026-04-07T12:09:41Z</time></trkpt>
<trkpt lat="43.2602170000" lon="-1.0607700000"><ele>161</ele><time>2026-04-07T12:09:43Z</time></trkpt>
<trkpt lat="43.2602070000" lon="-1.0607970000"><ele>161</ele><time>2026-04-07T12:09:45Z</time></trkpt>
<trkpt lat="43.2602020000" lon="-1.0608250000"><ele>161</ele><time>2026-04-07T12:09:47Z</time></trkpt>
<trkpt lat="43.2601950000" lon="-1.0608520000"><ele>161</ele><time>2026-04-07T12:09:49Z</time></trkpt>
<trkpt lat="43.2601820000" lon="-1.0608730000"><ele>161</ele><time>2026-04-07T12:09:51Z</time></trkpt>
<trkpt lat="43.2601750000" lon="-1.0609000000"><ele>162</ele><time>2026-04-07T12:09:53Z</time></trkpt>
<trkpt lat="43.2601620000" lon="-1.0609280000"><ele>162</ele><time>2026-04-07T12:09:55Z</time></trkpt>
<trkpt lat="43.2601470000" lon="-1.0609520000"><ele>162</ele><time>2026-04-07T12:09:57Z</time></trkpt>
<trkpt lat="43.2601350000" lon="-1.0609800000"><ele>162</ele><time>2026-04-07T12:09:59Z</time></trkpt>
<trkpt lat="43.2601270000" lon="-1.0610070000"><ele>162</ele><time>2026-04-07T12:10:01Z</time></trkpt>
<trkpt lat="43.2601170000" lon="-1.0610320000"><ele>162</ele><time>2026-04-07T12:10:03Z</time></trkpt>
<trkpt lat="43.2601080000" lon="-1.0610570000"><ele>162</ele><time>2026-04-07T12:10:05Z</time></trkpt>
<trkpt lat="43.2601070000" lon="-1.0610870000"><ele>163</ele><time>2026-04-07T12:10:07Z</time></trkpt>
<trkpt lat="43.2600970000" lon="-1.0611200000"><ele>163</ele><time>2026-04-07T12:10:09Z</time></trkpt>
<trkpt lat="43.2600820000" lon="-1.0611520000"><ele>163</ele><time>2026-04-07T12:10:11Z</time></trkpt>
<trkpt lat="43.2600720000" lon="-1.0611820000"><ele>163</ele><time>2026-04-07T12:10:13Z</time></trkpt>
<trkpt lat="43.2600620000" lon="-1.0612120000"><ele>163</ele><time>2026-04-07T12:10:15Z</time></trkpt>
<trkpt lat="43.2600550000" lon="-1.0612370000"><ele>163</ele><time>2026-04-07T12:10:17Z</time></trkpt>
<trkpt lat="43.2600520000" lon="-1.0612670000"><ele>163</ele><time>2026-04-07T12:10:19Z</time></trkpt>
<trkpt lat="43.2600470000" lon="-1.0612920000"><ele>163</ele><time>2026-04-07T12:10:21Z</time></trkpt>
<trkpt lat="43.2600420000" lon="-1.0613220000"><ele>163</ele><time>2026-04-07T12:10:23Z</time></trkpt>
<trkpt lat="43.2600320000" lon="-1.0613550000"><ele>163</ele><time>2026-04-07T12:10:25Z</time></trkpt>
<trkpt lat="43.2600170000" lon="-1.0613870000"><ele>163</ele><time>2026-04-07T12:10:27Z</time></trkpt>
<trkpt lat="43.2600050000" lon="-1.0614120000"><ele>163</ele><time>2026-04-07T12:10:29Z</time></trkpt>
<trkpt lat="43.2599920000" lon="-1.0614450000"><ele>163</ele><time>2026-04-07T12:10:31Z</time></trkpt>
<trkpt lat="43.2599850000" lon="-1.0614770000"><ele>163</ele><time>2026-04-07T12:10:33Z</time></trkpt>
<trkpt lat="43.2599750000" lon="-1.0615120000"><ele>163</ele><time>2026-04-07T12:10:35Z</time></trkpt>
<trkpt lat="43.2599670000" lon="-1.0615400000"><ele>163</ele><time>2026-04-07T12:10:37Z</time></trkpt>
<trkpt lat="43.2599570000" lon="-1.0615720000"><ele>163</ele><time>2026-04-07T12:10:39Z</time></trkpt>
<trkpt lat="43.2599500000" lon="-1.0616020000"><ele>163</ele><time>2026-04-07T12:10:41Z</time></trkpt>
<trkpt lat="43.2599400000" lon="-1.0616320000"><ele>163</ele><time>2026-04-07T12:10:43Z</time></trkpt>
<trkpt lat="43.2599320000" lon="-1.0616620000"><ele>163</ele><time>2026-04-07T12:10:45Z</time></trkpt>
<trkpt lat="43.2599270000" lon="-1.0616950000"><ele>163</ele><time>2026-04-07T12:10:47Z</time></trkpt>
<trkpt lat="43.2599220000" lon="-1.0617270000"><ele>163</ele><time>2026-04-07T12:10:49Z</time></trkpt>
<trkpt lat="43.2599150000" lon="-1.0617550000"><ele>164</ele><time>2026-04-07T12:10:51Z</time></trkpt>
<trkpt lat="43.2599020000" lon="-1.0617850000"><ele>164</ele><time>2026-04-07T12:10:53Z</time></trkpt>
<trkpt lat="43.2598950000" lon="-1.0618120000"><ele>164</ele><time>2026-04-07T12:10:55Z</time></trkpt>
<trkpt lat="43.2598820000" lon="-1.0618420000"><ele>164</ele><time>2026-04-07T12:10:57Z</time></trkpt>
<trkpt lat="43.2598700000" lon="-1.0618670000"><ele>164</ele><time>2026-04-07T12:10:59Z</time></trkpt>
<trkpt lat="43.2598620000" lon="-1.0619000000"><ele>164</ele><time>2026-04-07T12:11:01Z</time></trkpt>
<trkpt lat="43.2598520000" lon="-1.0619320000"><ele>164</ele><time>2026-04-07T12:11:03Z</time></trkpt>
<trkpt lat="43.2598420000" lon="-1.0619650000"><ele>164</ele><time>2026-04-07T12:11:05Z</time></trkpt>
<trkpt lat="43.2598370000" lon="-1.0619970000"><ele>164</ele><time>2026-04-07T12:11:07Z</time></trkpt>
<trkpt lat="43.2598320000" lon="-1.0620320000"><ele>164</ele><time>2026-04-07T12:11:09Z</time></trkpt>
<trkpt lat="43.2598220000" lon="-1.0620670000"><ele>164</ele><time>2026-04-07T12:11:11Z</time></trkpt>
<trkpt lat="43.2598120000" lon="-1.0621000000"><ele>164</ele><time>2026-04-07T12:11:13Z</time></trkpt>
<trkpt lat="43.2598020000" lon="-1.0621280000"><ele>164</ele><time>2026-04-07T12:11:15Z</time></trkpt>
<trkpt lat="43.2597920000" lon="-1.0621620000"><ele>164</ele><time>2026-04-07T12:11:17Z</time></trkpt>
<trkpt lat="43.2597820000" lon="-1.0621920000"><ele>164</ele><time>2026-04-07T12:11:19Z</time></trkpt>
<trkpt lat="43.2597770000" lon="-1.0622270000"><ele>164</ele><time>2026-04-07T12:11:21Z</time></trkpt>
<trkpt lat="43.2597650000" lon="-1.0622600000"><ele>164</ele><time>2026-04-07T12:11:23Z</time></trkpt>
<trkpt lat="43.2597500000" lon="-1.0622920000"><ele>164</ele><time>2026-04-07T12:11:25Z</time></trkpt>
<trkpt lat="43.2597400000" lon="-1.0623250000"><ele>164</ele><time>2026-04-07T12:11:27Z</time></trkpt>
<trkpt lat="43.2597320000" lon="-1.0623530000"><ele>164</ele><time>2026-04-07T12:11:29Z</time></trkpt>
<trkpt lat="43.2597280000" lon="-1.0623820000"><ele>164</ele><time>2026-04-07T12:11:31Z</time></trkpt>
<trkpt lat="43.2597320000" lon="-1.0624120000"><ele>164</ele><time>2026-04-07T12:11:33Z</time></trkpt>
<trkpt lat="43.2597280000" lon="-1.0624400000"><ele>165</ele><time>2026-04-07T12:11:35Z</time></trkpt>
<trkpt lat="43.2597200000" lon="-1.0624700000"><ele>165</ele><time>2026-04-07T12:11:37Z</time></trkpt>
<trkpt lat="43.2597000000" lon="-1.0624930000"><ele>165</ele><time>2026-04-07T12:11:39Z</time></trkpt>
<trkpt lat="43.2596820000" lon="-1.0625170000"><ele>165</ele><time>2026-04-07T12:11:41Z</time></trkpt>
<trkpt lat="43.2596750000" lon="-1.0625400000"><ele>165</ele><time>2026-04-07T12:11:43Z</time></trkpt>
<trkpt lat="43.2596670000" lon="-1.0625700000"><ele>165</ele><time>2026-04-07T12:11:45Z</time></trkpt>
<trkpt lat="43.2596670000" lon="-1.0625970000"><ele>165</ele><time>2026-04-07T12:11:47Z</time></trkpt>
<trkpt lat="43.2596620000" lon="-1.0626270000"><ele>165</ele><time>2026-04-07T12:11:49Z</time></trkpt>
<trkpt lat="43.2596570000" lon="-1.0626620000"><ele>165</ele><time>2026-04-07T12:11:51Z</time></trkpt>
<trkpt lat="43.2596520000" lon="-1.0626970000"><ele>166</ele><time>2026-04-07T12:11:53Z</time></trkpt>
<trkpt lat="43.2596420000" lon="-1.0627300000"><ele>166</ele><time>2026-04-07T12:11:55Z</time></trkpt>
<trkpt lat="43.2596320000" lon="-1.0627580000"><ele>166</ele><time>2026-04-07T12:11:57Z</time></trkpt>
<trkpt lat="43.2596220000" lon="-1.0627920000"><ele>166</ele><time>2026-04-07T12:11:59Z</time></trkpt>
<trkpt lat="43.2596120000" lon="-1.0628170000"><ele>166</ele><time>2026-04-07T12:12:01Z</time></trkpt>
<trkpt lat="43.2596020000" lon="-1.0628430000"><ele>166</ele><time>2026-04-07T12:12:03Z</time></trkpt>
<trkpt lat="43.2595920000" lon="-1.0628770000"><ele>166</ele><time>2026-04-07T12:12:05Z</time></trkpt>
<trkpt lat="43.2595850000" lon="-1.0629070000"><ele>167</ele><time>2026-04-07T12:12:07Z</time></trkpt>
<trkpt lat="43.2595720000" lon="-1.0629370000"><ele>167</ele><time>2026-04-07T12:12:09Z</time></trkpt>
<trkpt lat="43.2595620000" lon="-1.0629650000"><ele>167</ele><time>2026-04-07T12:12:11Z</time></trkpt>
<trkpt lat="43.2595520000" lon="-1.0629970000"><ele>167</ele><time>2026-04-07T12:12:13Z</time></trkpt>
<trkpt lat="43.2595470000" lon="-1.0630270000"><ele>167</ele><time>2026-04-07T12:12:15Z</time></trkpt>
<trkpt lat="43.2595370000" lon="-1.0630570000"><ele>167</ele><time>2026-04-07T12:12:17Z</time></trkpt>
<trkpt lat="43.2595320000" lon="-1.0630900000"><ele>167</ele><time>2026-04-07T12:12:19Z</time></trkpt>
<trkpt lat="43.2595220000" lon="-1.0631120000"><ele>167</ele><time>2026-04-07T12:12:22Z</time></trkpt>
<trkpt lat="43.2595100000" lon="-1.0631370000"><ele>167</ele><time>2026-04-07T12:12:33Z</time></trkpt>
<trkpt lat="43.2595070000" lon="-1.0631720000"><ele>167</ele><time>2026-04-07T12:12:35Z</time></trkpt>
<trkpt lat="43.2595030000" lon="-1.0632170000"><ele>167</ele><time>2026-04-07T12:12:37Z</time></trkpt>
<trkpt lat="43.2594970000" lon="-1.0632520000"><ele>167</ele><time>2026-04-07T12:12:39Z</time></trkpt>
<trkpt lat="43.2594900000" lon="-1.0632870000"><ele>167</ele><time>2026-04-07T12:12:41Z</time></trkpt>
<trkpt lat="43.2594820000" lon="-1.0633170000"><ele>168</ele><time>2026-04-07T12:12:43Z</time></trkpt>
<trkpt lat="43.2594770000" lon="-1.0633420000"><ele>168</ele><time>2026-04-07T12:12:45Z</time></trkpt>
<trkpt lat="43.2594670000" lon="-1.0633720000"><ele>168</ele><time>2026-04-07T12:12:47Z</time></trkpt>
<trkpt lat="43.2594570000" lon="-1.0634050000"><ele>168</ele><time>2026-04-07T12:12:49Z</time></trkpt>
<trkpt lat="43.2594470000" lon="-1.0634320000"><ele>168</ele><time>2026-04-07T12:12:51Z</time></trkpt>
<trkpt lat="43.2594370000" lon="-1.0634600000"><ele>168</ele><time>2026-04-07T12:12:53Z</time></trkpt>
<trkpt lat="43.2594320000" lon="-1.0634870000"><ele>168</ele><time>2026-04-07T12:12:55Z</time></trkpt>
<trkpt lat="43.2594250000" lon="-1.0635170000"><ele>168</ele><time>2026-04-07T12:12:57Z</time></trkpt>
<trkpt lat="43.2594220000" lon="-1.0635450000"><ele>168</ele><time>2026-04-07T12:12:59Z</time></trkpt>
<trkpt lat="43.2594170000" lon="-1.0635720000"><ele>168</ele><time>2026-04-07T12:13:01Z</time></trkpt>
<trkpt lat="43.2594120000" lon="-1.0636020000"><ele>168</ele><time>2026-04-07T12:13:03Z</time></trkpt>
<trkpt lat="43.2594070000" lon="-1.0636320000"><ele>168</ele><time>2026-04-07T12:13:05Z</time></trkpt>
<trkpt lat="43.2594000000" lon="-1.0636600000"><ele>168</ele><time>2026-04-07T12:13:07Z</time></trkpt>
<trkpt lat="43.2593920000" lon="-1.0636900000"><ele>168</ele><time>2026-04-07T12:13:09Z</time></trkpt>
<trkpt lat="43.2593900000" lon="-1.0637220000"><ele>168</ele><time>2026-04-07T12:13:11Z</time></trkpt>
<trkpt lat="43.2593870000" lon="-1.0637520000"><ele>168</ele><time>2026-04-07T12:13:13Z</time></trkpt>
<trkpt lat="43.2593870000" lon="-1.0637820000"><ele>168</ele><time>2026-04-07T12:13:15Z</time></trkpt>
<trkpt lat="43.2593770000" lon="-1.0638070000"><ele>168</ele><time>2026-04-07T12:13:17Z</time></trkpt>
<trkpt lat="43.2593720000" lon="-1.0638370000"><ele>168</ele><time>2026-04-07T12:13:19Z</time></trkpt>
<trkpt lat="43.2593620000" lon="-1.0638670000"><ele>167</ele><time>2026-04-07T12:13:21Z</time></trkpt>
<trkpt lat="43.2593620000" lon="-1.0639000000"><ele>167</ele><time>2026-04-07T12:13:23Z</time></trkpt>
<trkpt lat="43.2593570000" lon="-1.0639270000"><ele>167</ele><time>2026-04-07T12:13:25Z</time></trkpt>
<trkpt lat="43.2593550000" lon="-1.0639600000"><ele>167</ele><time>2026-04-07T12:13:27Z</time></trkpt>
<trkpt lat="43.2593480000" lon="-1.0639920000"><ele>167</ele><time>2026-04-07T12:13:29Z</time></trkpt>
<trkpt lat="43.2593470000" lon="-1.0640250000"><ele>167</ele><time>2026-04-07T12:13:31Z</time></trkpt>
<trkpt lat="43.2593470000" lon="-1.0640570000"><ele>167</ele><time>2026-04-07T12:13:33Z</time></trkpt>
<trkpt lat="43.2593520000" lon="-1.0640920000"><ele>167</ele><time>2026-04-07T12:13:35Z</time></trkpt>
<trkpt lat="43.2593520000" lon="-1.0641270000"><ele>167</ele><time>2026-04-07T12:13:37Z</time></trkpt>
<trkpt lat="43.2593470000" lon="-1.0641620000"><ele>167</ele><time>2026-04-07T12:13:39Z</time></trkpt>
<trkpt lat="43.2593470000" lon="-1.0641920000"><ele>167</ele><time>2026-04-07T12:13:41Z</time></trkpt>
<trkpt lat="43.2593420000" lon="-1.0642220000"><ele>166</ele><time>2026-04-07T12:13:43Z</time></trkpt>
<trkpt lat="43.2593400000" lon="-1.0642600000"><ele>166</ele><time>2026-04-07T12:13:45Z</time></trkpt>
<trkpt lat="43.2593400000" lon="-1.0642920000"><ele>166</ele><time>2026-04-07T12:13:47Z</time></trkpt>
<trkpt lat="43.2593400000" lon="-1.0643230000"><ele>166</ele><time>2026-04-07T12:13:49Z</time></trkpt>
<trkpt lat="43.2593370000" lon="-1.0643570000"><ele>166</ele><time>2026-04-07T12:13:51Z</time></trkpt>
<trkpt lat="43.2593320000" lon="-1.0643920000"><ele>166</ele><time>2026-04-07T12:13:53Z</time></trkpt>
<trkpt lat="43.2593320000" lon="-1.0644230000"><ele>166</ele><time>2026-04-07T12:13:55Z</time></trkpt>
<trkpt lat="43.2593300000" lon="-1.0644570000"><ele>165</ele><time>2026-04-07T12:13:57Z</time></trkpt>
<trkpt lat="43.2593300000" lon="-1.0644870000"><ele>165</ele><time>2026-04-07T12:13:59Z</time></trkpt>
<trkpt lat="43.2593300000" lon="-1.0645220000"><ele>165</ele><time>2026-04-07T12:14:01Z</time></trkpt>
<trkpt lat="43.2593270000" lon="-1.0645570000"><ele>165</ele><time>2026-04-07T12:14:03Z</time></trkpt>
<trkpt lat="43.2593200000" lon="-1.0645920000"><ele>165</ele><time>2026-04-07T12:14:05Z</time></trkpt>
<trkpt lat="43.2593120000" lon="-1.0646250000"><ele>165</ele><time>2026-04-07T12:14:07Z</time></trkpt>
<trkpt lat="43.2593020000" lon="-1.0646570000"><ele>165</ele><time>2026-04-07T12:14:09Z</time></trkpt>
<trkpt lat="43.2593050000" lon="-1.0646870000"><ele>164</ele><time>2026-04-07T12:14:11Z</time></trkpt>
<trkpt lat="43.2593100000" lon="-1.0647120000"><ele>164</ele><time>2026-04-07T12:14:13Z</time></trkpt>
<trkpt lat="43.2593200000" lon="-1.0647420000"><ele>164</ele><time>2026-04-07T12:14:15Z</time></trkpt>
<trkpt lat="43.2593220000" lon="-1.0647730000"><ele>164</ele><time>2026-04-07T12:14:17Z</time></trkpt>
<trkpt lat="43.2593200000" lon="-1.0648050000"><ele>164</ele><time>2026-04-07T12:14:19Z</time></trkpt>
<trkpt lat="43.2593170000" lon="-1.0648420000"><ele>164</ele><time>2026-04-07T12:14:21Z</time></trkpt>
<trkpt lat="43.2593200000" lon="-1.0648770000"><ele>164</ele><time>2026-04-07T12:14:23Z</time></trkpt>
<trkpt lat="43.2593300000" lon="-1.0649070000"><ele>164</ele><time>2026-04-07T12:14:25Z</time></trkpt>
<trkpt lat="43.2593370000" lon="-1.0649420000"><ele>163</ele><time>2026-04-07T12:14:27Z</time></trkpt>
<trkpt lat="43.2593320000" lon="-1.0649750000"><ele>163</ele><time>2026-04-07T12:14:29Z</time></trkpt>
<trkpt lat="43.2593320000" lon="-1.0650150000"><ele>163</ele><time>2026-04-07T12:14:31Z</time></trkpt>
<trkpt lat="43.2593370000" lon="-1.0650500000"><ele>163</ele><time>2026-04-07T12:14:33Z</time></trkpt>
<trkpt lat="43.2593370000" lon="-1.0650870000"><ele>163</ele><time>2026-04-07T12:14:35Z</time></trkpt>
<trkpt lat="43.2593320000" lon="-1.0651170000"><ele>163</ele><time>2026-04-07T12:14:37Z</time></trkpt>
<trkpt lat="43.2593300000" lon="-1.0651520000"><ele>163</ele><time>2026-04-07T12:14:39Z</time></trkpt>
<trkpt lat="43.2593300000" lon="-1.0651820000"><ele>162</ele><time>2026-04-07T12:14:41Z</time></trkpt>
<trkpt lat="43.2593320000" lon="-1.0652150000"><ele>162</ele><time>2026-04-07T12:14:43Z</time></trkpt>
<trkpt lat="43.2593320000" lon="-1.0652470000"><ele>162</ele><time>2026-04-07T12:14:45Z</time></trkpt>
<trkpt lat="43.2593320000" lon="-1.0652800000"><ele>162</ele><time>2026-04-07T12:14:47Z</time></trkpt>
<trkpt lat="43.2593300000" lon="-1.0653100000"><ele>162</ele><time>2026-04-07T12:14:49Z</time></trkpt>
<trkpt lat="43.2593220000" lon="-1.0653400000"><ele>162</ele><time>2026-04-07T12:14:51Z</time></trkpt>
<trkpt lat="43.2593220000" lon="-1.0653720000"><ele>162</ele><time>2026-04-07T12:14:53Z</time></trkpt>
<trkpt lat="43.2593250000" lon="-1.0654070000"><ele>162</ele><time>2026-04-07T12:14:55Z</time></trkpt>
<trkpt lat="43.2593320000" lon="-1.0654370000"><ele>162</ele><time>2026-04-07T12:14:57Z</time></trkpt>
<trkpt lat="43.2593320000" lon="-1.0654670000"><ele>161</ele><time>2026-04-07T12:14:59Z</time></trkpt>
<trkpt lat="43.2593370000" lon="-1.0654950000"><ele>161</ele><time>2026-04-07T12:15:01Z</time></trkpt>
<trkpt lat="43.2593420000" lon="-1.0655250000"><ele>161</ele><time>2026-04-07T12:15:03Z</time></trkpt>
<trkpt lat="43.2593450000" lon="-1.0655620000"><ele>161</ele><time>2026-04-07T12:15:05Z</time></trkpt>
<trkpt lat="43.2593470000" lon="-1.0655920000"><ele>161</ele><time>2026-04-07T12:15:07Z</time></trkpt>
<trkpt lat="43.2593480000" lon="-1.0656220000"><ele>161</ele><time>2026-04-07T12:15:09Z</time></trkpt>
<trkpt lat="43.2593480000" lon="-1.0656550000"><ele>161</ele><time>2026-04-07T12:15:11Z</time></trkpt>
<trkpt lat="43.2593470000" lon="-1.0656850000"><ele>160</ele><time>2026-04-07T12:15:13Z</time></trkpt>
<trkpt lat="43.2593270000" lon="-1.0657070000"><ele>160</ele><time>2026-04-07T12:15:22Z</time></trkpt>
<trkpt lat="43.2593300000" lon="-1.0657500000"><ele>160</ele><time>2026-04-07T12:15:24Z</time></trkpt>
<trkpt lat="43.2593350000" lon="-1.0657900000"><ele>160</ele><time>2026-04-07T12:15:26Z</time></trkpt>
<trkpt lat="43.2593350000" lon="-1.0658250000"><ele>159</ele><time>2026-04-07T12:15:28Z</time></trkpt>
<trkpt lat="43.2593350000" lon="-1.0658600000"><ele>159</ele><time>2026-04-07T12:15:30Z</time></trkpt>
<trkpt lat="43.2593300000" lon="-1.0658870000"><ele>159</ele><time>2026-04-07T12:15:32Z</time></trkpt>
<trkpt lat="43.2593320000" lon="-1.0659220000"><ele>159</ele><time>2026-04-07T12:15:34Z</time></trkpt>
<trkpt lat="43.2593300000" lon="-1.0659520000"><ele>159</ele><time>2026-04-07T12:15:36Z</time></trkpt>
<trkpt lat="43.2593320000" lon="-1.0659820000"><ele>158</ele><time>2026-04-07T12:15:38Z</time></trkpt>
<trkpt lat="43.2593320000" lon="-1.0660120000"><ele>158</ele><time>2026-04-07T12:15:40Z</time></trkpt>
<trkpt lat="43.2593350000" lon="-1.0660420000"><ele>158</ele><time>2026-04-07T12:15:42Z</time></trkpt>
<trkpt lat="43.2593400000" lon="-1.0660720000"><ele>158</ele><time>2026-04-07T12:15:44Z</time></trkpt>
<trkpt lat="43.2593470000" lon="-1.0661000000"><ele>157</ele><time>2026-04-07T12:15:46Z</time></trkpt>
<trkpt lat="43.2593600000" lon="-1.0661300000"><ele>157</ele><time>2026-04-07T12:15:48Z</time></trkpt>
<trkpt lat="43.2593720000" lon="-1.0661620000"><ele>157</ele><time>2026-04-07T12:15:50Z</time></trkpt>
<trkpt lat="43.2593820000" lon="-1.0661920000"><ele>157</ele><time>2026-04-07T12:15:52Z</time></trkpt>
<trkpt lat="43.2593920000" lon="-1.0662130000"><ele>157</ele><time>2026-04-07T12:15:54Z</time></trkpt>
<trkpt lat="43.2594070000" lon="-1.0662420000"><ele>157</ele><time>2026-04-07T12:15:56Z</time></trkpt>
<trkpt lat="43.2594220000" lon="-1.0662670000"><ele>156</ele><time>2026-04-07T12:15:58Z</time></trkpt>
<trkpt lat="43.2594350000" lon="-1.0662920000"><ele>156</ele><time>2026-04-07T12:16:00Z</time></trkpt>
<trkpt lat="43.2594520000" lon="-1.0663130000"><ele>156</ele><time>2026-04-07T12:16:02Z</time></trkpt>
<trkpt lat="43.2594750000" lon="-1.0663370000"><ele>156</ele><time>2026-04-07T12:16:04Z</time></trkpt>
<trkpt lat="43.2594970000" lon="-1.0663450000"><ele>155</ele><time>2026-04-07T12:16:22Z</time></trkpt>
<trkpt lat="43.2595170000" lon="-1.0663720000"><ele>155</ele><time>2026-04-07T12:16:24Z</time></trkpt>
<trkpt lat="43.2595300000" lon="-1.0664020000"><ele>155</ele><time>2026-04-07T12:16:26Z</time></trkpt>
<trkpt lat="43.2595420000" lon="-1.0664320000"><ele>155</ele><time>2026-04-07T12:16:28Z</time></trkpt>
<trkpt lat="43.2595520000" lon="-1.0664800000"><ele>155</ele><time>2026-04-07T12:16:30Z</time></trkpt>
<trkpt lat="43.2595520000" lon="-1.0665270000"><ele>154</ele><time>2026-04-07T12:16:32Z</time></trkpt>
<trkpt lat="43.2595520000" lon="-1.0665520000"><ele>154</ele><time>2026-04-07T12:16:33Z</time></trkpt>
<trkpt lat="43.2595420000" lon="-1.0665970000"><ele>154</ele><time>2026-04-07T12:16:35Z</time></trkpt>
<trkpt lat="43.2595370000" lon="-1.0666420000"><ele>154</ele><time>2026-04-07T12:16:37Z</time></trkpt>
<trkpt lat="43.2595320000" lon="-1.0666700000"><ele>154</ele><time>2026-04-07T12:16:39Z</time></trkpt>
<trkpt lat="43.2595370000" lon="-1.0666970000"><ele>153</ele><time>2026-04-07T12:16:41Z</time></trkpt>
<trkpt lat="43.2595370000" lon="-1.0667270000"><ele>153</ele><time>2026-04-07T12:16:44Z</time></trkpt>
<trkpt lat="43.2595470000" lon="-1.0667500000"><ele>153</ele><time>2026-04-07T12:16:47Z</time></trkpt>
<trkpt lat="43.2595470000" lon="-1.0667770000"><ele>152</ele><time>2026-04-07T12:16:49Z</time></trkpt>
<trkpt lat="43.2595500000" lon="-1.0668050000"><ele>152</ele><time>2026-04-07T12:16:51Z</time></trkpt>
<trkpt lat="43.2595470000" lon="-1.0668370000"><ele>152</ele><time>2026-04-07T12:16:53Z</time></trkpt>
<trkpt lat="43.2595500000" lon="-1.0668700000"><ele>152</ele><time>2026-04-07T12:16:55Z</time></trkpt>
<trkpt lat="43.2595520000" lon="-1.0668970000"><ele>151</ele><time>2026-04-07T12:16:57Z</time></trkpt>
<trkpt lat="43.2595550000" lon="-1.0669270000"><ele>151</ele><time>2026-04-07T12:16:59Z</time></trkpt>
<trkpt lat="43.2595550000" lon="-1.0669570000"><ele>151</ele><time>2026-04-07T12:17:01Z</time></trkpt>
<trkpt lat="43.2595520000" lon="-1.0669870000"><ele>151</ele><time>2026-04-07T12:17:03Z</time></trkpt>
<trkpt lat="43.2595520000" lon="-1.0670200000"><ele>150</ele><time>2026-04-07T12:17:05Z</time></trkpt>
<trkpt lat="43.2595520000" lon="-1.0670500000"><ele>150</ele><time>2026-04-07T12:17:07Z</time></trkpt>
<trkpt lat="43.2595520000" lon="-1.0670770000"><ele>150</ele><time>2026-04-07T12:17:09Z</time></trkpt>
<trkpt lat="43.2595470000" lon="-1.0671080000"><ele>149</ele><time>2026-04-07T12:17:11Z</time></trkpt>
<trkpt lat="43.2595450000" lon="-1.0671400000"><ele>149</ele><time>2026-04-07T12:17:13Z</time></trkpt>
<trkpt lat="43.2595420000" lon="-1.0671720000"><ele>149</ele><time>2026-04-07T12:17:15Z</time></trkpt>
<trkpt lat="43.2595370000" lon="-1.0672020000"><ele>149</ele><time>2026-04-07T12:17:17Z</time></trkpt>
<trkpt lat="43.2595320000" lon="-1.0672270000"><ele>148</ele><time>2026-04-07T12:17:19Z</time></trkpt>
<trkpt lat="43.2595250000" lon="-1.0672570000"><ele>148</ele><time>2026-04-07T12:17:21Z</time></trkpt>
<trkpt lat="43.2595170000" lon="-1.0672900000"><ele>148</ele><time>2026-04-07T12:17:23Z</time></trkpt>
<trkpt lat="43.2595120000" lon="-1.0673170000"><ele>147</ele><time>2026-04-07T12:17:25Z</time></trkpt>
<trkpt lat="43.2595070000" lon="-1.0673500000"><ele>147</ele><time>2026-04-07T12:17:27Z</time></trkpt>
<trkpt lat="43.2595020000" lon="-1.0673820000"><ele>147</ele><time>2026-04-07T12:17:29Z</time></trkpt>
<trkpt lat="43.2594920000" lon="-1.0674070000"><ele>146</ele><time>2026-04-07T12:17:31Z</time></trkpt>
<trkpt lat="43.2594850000" lon="-1.0674370000"><ele>146</ele><time>2026-04-07T12:17:33Z</time></trkpt>
<trkpt lat="43.2594850000" lon="-1.0674670000"><ele>146</ele><time>2026-04-07T12:17:35Z</time></trkpt>
<trkpt lat="43.2594820000" lon="-1.0674970000"><ele>145</ele><time>2026-04-07T12:17:37Z</time></trkpt>
<trkpt lat="43.2594750000" lon="-1.0675250000"><ele>145</ele><time>2026-04-07T12:17:39Z</time></trkpt>
<trkpt lat="43.2594650000" lon="-1.0675520000"><ele>145</ele><time>2026-04-07T12:17:41Z</time></trkpt>
<trkpt lat="43.2594470000" lon="-1.0675850000"><ele>144</ele><time>2026-04-07T12:17:43Z</time></trkpt>
<trkpt lat="43.2594320000" lon="-1.0676020000"><ele>144</ele><time>2026-04-07T12:17:44Z</time></trkpt>
<trkpt lat="43.2594270000" lon="-1.0676320000"><ele>144</ele><time>2026-04-07T12:17:46Z</time></trkpt>
<trkpt lat="43.2594170000" lon="-1.0676570000"><ele>143</ele><time>2026-04-07T12:17:48Z</time></trkpt>
<trkpt lat="43.2594100000" lon="-1.0676870000"><ele>143</ele><time>2026-04-07T12:17:50Z</time></trkpt>
<trkpt lat="43.2594020000" lon="-1.0677150000"><ele>143</ele><time>2026-04-07T12:17:52Z</time></trkpt>
<trkpt lat="43.2593900000" lon="-1.0677430000"><ele>143</ele><time>2026-04-07T12:17:54Z</time></trkpt>
<trkpt lat="43.2593720000" lon="-1.0677770000"><ele>143</ele><time>2026-04-07T12:17:56Z</time></trkpt>
<trkpt lat="43.2593600000" lon="-1.0678120000"><ele>142</ele><time>2026-04-07T12:17:58Z</time></trkpt>
<trkpt lat="43.2593470000" lon="-1.0678470000"><ele>142</ele><time>2026-04-07T12:18:00Z</time></trkpt>
<trkpt lat="43.2593320000" lon="-1.0678770000"><ele>142</ele><time>2026-04-07T12:18:02Z</time></trkpt>
<trkpt lat="43.2593250000" lon="-1.0679100000"><ele>142</ele><time>2026-04-07T12:18:04Z</time></trkpt>
<trkpt lat="43.2593170000" lon="-1.0679400000"><ele>141</ele><time>2026-04-07T12:18:06Z</time></trkpt>
<trkpt lat="43.2593070000" lon="-1.0679720000"><ele>141</ele><time>2026-04-07T12:18:08Z</time></trkpt>
<trkpt lat="43.2593020000" lon="-1.0680000000"><ele>141</ele><time>2026-04-07T12:18:10Z</time></trkpt>
<trkpt lat="43.2592950000" lon="-1.0680320000"><ele>141</ele><time>2026-04-07T12:18:12Z</time></trkpt>
<trkpt lat="43.2592920000" lon="-1.0680620000"><ele>141</ele><time>2026-04-07T12:18:14Z</time></trkpt>
<trkpt lat="43.2592850000" lon="-1.0680930000"><ele>140</ele><time>2026-04-07T12:18:16Z</time></trkpt>
<trkpt lat="43.2592770000" lon="-1.0681250000"><ele>140</ele><time>2026-04-07T12:18:18Z</time></trkpt>
<trkpt lat="43.2592700000" lon="-1.0681570000"><ele>140</ele><time>2026-04-07T12:18:20Z</time></trkpt>
<trkpt lat="43.2592650000" lon="-1.0681880000"><ele>140</ele><time>2026-04-07T12:18:22Z</time></trkpt>
<trkpt lat="43.2592570000" lon="-1.0682170000"><ele>140</ele><time>2026-04-07T12:18:24Z</time></trkpt>
<trkpt lat="43.2592470000" lon="-1.0682470000"><ele>140</ele><time>2026-04-07T12:18:26Z</time></trkpt>
<trkpt lat="43.2592420000" lon="-1.0682720000"><ele>139</ele><time>2026-04-07T12:18:28Z</time></trkpt>
<trkpt lat="43.2592350000" lon="-1.0683020000"><ele>139</ele><time>2026-04-07T12:18:30Z</time></trkpt>
<trkpt lat="43.2592250000" lon="-1.0683300000"><ele>139</ele><time>2026-04-07T12:18:32Z</time></trkpt>
<trkpt lat="43.2592150000" lon="-1.0683580000"><ele>139</ele><time>2026-04-07T12:18:34Z</time></trkpt>
<trkpt lat="43.2592070000" lon="-1.0683900000"><ele>139</ele><time>2026-04-07T12:18:36Z</time></trkpt>
<trkpt lat="43.2591930000" lon="-1.0684270000"><ele>139</ele><time>2026-04-07T12:18:38Z</time></trkpt>
<trkpt lat="43.2591800000" lon="-1.0684580000"><ele>139</ele><time>2026-04-07T12:18:40Z</time></trkpt>
<trkpt lat="43.2591670000" lon="-1.0684920000"><ele>138</ele><time>2026-04-07T12:18:42Z</time></trkpt>
<trkpt lat="43.2591650000" lon="-1.0685200000"><ele>138</ele><time>2026-04-07T12:18:44Z</time></trkpt>
<trkpt lat="43.2591570000" lon="-1.0685500000"><ele>138</ele><time>2026-04-07T12:18:46Z</time></trkpt>
<trkpt lat="43.2591500000" lon="-1.0685820000"><ele>138</ele><time>2026-04-07T12:18:48Z</time></trkpt>
<trkpt lat="43.2591420000" lon="-1.0686100000"><ele>138</ele><time>2026-04-07T12:18:50Z</time></trkpt>
<trkpt lat="43.2591320000" lon="-1.0686420000"><ele>138</ele><time>2026-04-07T12:18:52Z</time></trkpt>
<trkpt lat="43.2591270000" lon="-1.0686720000"><ele>138</ele><time>2026-04-07T12:18:54Z</time></trkpt>
<trkpt lat="43.2591200000" lon="-1.0687020000"><ele>138</ele><time>2026-04-07T12:18:56Z</time></trkpt>
<trkpt lat="43.2591120000" lon="-1.0687350000"><ele>137</ele><time>2026-04-07T12:18:58Z</time></trkpt>
<trkpt lat="43.2590970000" lon="-1.0687670000"><ele>137</ele><time>2026-04-07T12:19:00Z</time></trkpt>
<trkpt lat="43.2590870000" lon="-1.0688000000"><ele>137</ele><time>2026-04-07T12:19:02Z</time></trkpt>
<trkpt lat="43.2590770000" lon="-1.0688300000"><ele>137</ele><time>2026-04-07T12:19:04Z</time></trkpt>
<trkpt lat="43.2590670000" lon="-1.0688580000"><ele>137</ele><time>2026-04-07T12:19:06Z</time></trkpt>
<trkpt lat="43.2590520000" lon="-1.0688870000"><ele>137</ele><time>2026-04-07T12:19:08Z</time></trkpt>
<trkpt lat="43.2590370000" lon="-1.0689150000"><ele>137</ele><time>2026-04-07T12:19:10Z</time></trkpt>
<trkpt lat="43.2590220000" lon="-1.0689400000"><ele>137</ele><time>2026-04-07T12:19:12Z</time></trkpt>
<trkpt lat="43.2590120000" lon="-1.0689720000"><ele>137</ele><time>2026-04-07T12:19:14Z</time></trkpt>
<trkpt lat="43.2590070000" lon="-1.0690020000"><ele>137</ele><time>2026-04-07T12:19:16Z</time></trkpt>
<trkpt lat="43.2590000000" lon="-1.0690370000"><ele>136</ele><time>2026-04-07T12:19:18Z</time></trkpt>
<trkpt lat="43.2589920000" lon="-1.0690670000"><ele>136</ele><time>2026-04-07T12:19:20Z</time></trkpt>
<trkpt lat="43.2589900000" lon="-1.0690970000"><ele>136</ele><time>2026-04-07T12:19:22Z</time></trkpt>
<trkpt lat="43.2589850000" lon="-1.0691270000"><ele>136</ele><time>2026-04-07T12:19:24Z</time></trkpt>
<trkpt lat="43.2589800000" lon="-1.0691550000"><ele>136</ele><time>2026-04-07T12:19:26Z</time></trkpt>
<trkpt lat="43.2589680000" lon="-1.0691850000"><ele>136</ele><time>2026-04-07T12:19:28Z</time></trkpt>
<trkpt lat="43.2589600000" lon="-1.0692130000"><ele>136</ele><time>2026-04-07T12:19:30Z</time></trkpt>
<trkpt lat="43.2589470000" lon="-1.0692420000"><ele>135</ele><time>2026-04-07T12:19:32Z</time></trkpt>
<trkpt lat="43.2589370000" lon="-1.0692670000"><ele>135</ele><time>2026-04-07T12:19:34Z</time></trkpt>
<trkpt lat="43.2589270000" lon="-1.0692950000"><ele>135</ele><time>2026-04-07T12:19:36Z</time></trkpt>
<trkpt lat="43.2589200000" lon="-1.0693250000"><ele>135</ele><time>2026-04-07T12:19:38Z</time></trkpt>
<trkpt lat="43.2589070000" lon="-1.0693570000"><ele>135</ele><time>2026-04-07T12:19:40Z</time></trkpt>
<trkpt lat="43.2588980000" lon="-1.0693870000"><ele>135</ele><time>2026-04-07T12:19:42Z</time></trkpt>
<trkpt lat="43.2588870000" lon="-1.0694250000"><ele>135</ele><time>2026-04-07T12:19:44Z</time></trkpt>
<trkpt lat="43.2588720000" lon="-1.0694550000"><ele>135</ele><time>2026-04-07T12:19:46Z</time></trkpt>
<trkpt lat="43.2588620000" lon="-1.0694820000"><ele>135</ele><time>2026-04-07T12:19:48Z</time></trkpt>
<trkpt lat="43.2588520000" lon="-1.0695100000"><ele>135</ele><time>2026-04-07T12:19:50Z</time></trkpt>
<trkpt lat="43.2588350000" lon="-1.0695370000"><ele>135</ele><time>2026-04-07T12:19:52Z</time></trkpt>
<trkpt lat="43.2588170000" lon="-1.0695620000"><ele>135</ele><time>2026-04-07T12:19:54Z</time></trkpt>
<trkpt lat="43.2587970000" lon="-1.0695870000"><ele>135</ele><time>2026-04-07T12:19:56Z</time></trkpt>
<trkpt lat="43.2587800000" lon="-1.0696070000"><ele>135</ele><time>2026-04-07T12:19:58Z</time></trkpt>
<trkpt lat="43.2587650000" lon="-1.0696320000"><ele>135</ele><time>2026-04-07T12:20:00Z</time></trkpt>
<trkpt lat="43.2587430000" lon="-1.0696520000"><ele>135</ele><time>2026-04-07T12:20:02Z</time></trkpt>
<trkpt lat="43.2587250000" lon="-1.0696720000"><ele>134</ele><time>2026-04-07T12:20:04Z</time></trkpt>
<trkpt lat="43.2587050000" lon="-1.0696950000"><ele>135</ele><time>2026-04-07T12:20:06Z</time></trkpt>
<trkpt lat="43.2586820000" lon="-1.0697170000"><ele>134</ele><time>2026-04-07T12:20:08Z</time></trkpt>
<trkpt lat="43.2586670000" lon="-1.0697300000"><ele>134</ele><time>2026-04-07T12:20:10Z</time></trkpt>
<trkpt lat="43.2586470000" lon="-1.0697500000"><ele>134</ele><time>2026-04-07T12:20:12Z</time></trkpt>
<trkpt lat="43.2586270000" lon="-1.0697750000"><ele>134</ele><time>2026-04-07T12:20:14Z</time></trkpt>
<trkpt lat="43.2586070000" lon="-1.0697920000"><ele>134</ele><time>2026-04-07T12:20:16Z</time></trkpt>
<trkpt lat="43.2585820000" lon="-1.0698070000"><ele>134</ele><time>2026-04-07T12:20:18Z</time></trkpt>
<trkpt lat="43.2585550000" lon="-1.0698200000"><ele>134</ele><time>2026-04-07T12:20:20Z</time></trkpt>
<trkpt lat="43.2585220000" lon="-1.0698320000"><ele>135</ele><time>2026-04-07T12:20:22Z</time></trkpt>
<trkpt lat="43.2584920000" lon="-1.0698370000"><ele>135</ele><time>2026-04-07T12:20:24Z</time></trkpt>
<trkpt lat="43.2584670000" lon="-1.0698470000"><ele>135</ele><time>2026-04-07T12:20:26Z</time></trkpt>
<trkpt lat="43.2584500000" lon="-1.0698520000"><ele>135</ele><time>2026-04-07T12:20:28Z</time></trkpt>
<trkpt lat="43.2584270000" lon="-1.0698570000"><ele>135</ele><time>2026-04-07T12:20:30Z</time></trkpt>
<trkpt lat="43.2584070000" lon="-1.0698670000"><ele>135</ele><time>2026-04-07T12:20:32Z</time></trkpt>
<trkpt lat="43.2583900000" lon="-1.0698770000"><ele>135</ele><time>2026-04-07T12:20:34Z</time></trkpt>
<trkpt lat="43.2583700000" lon="-1.0698830000"><ele>135</ele><time>2026-04-07T12:20:36Z</time></trkpt>
<trkpt lat="43.2583450000" lon="-1.0698920000"><ele>135</ele><time>2026-04-07T12:20:38Z</time></trkpt>
<trkpt lat="43.2583200000" lon="-1.0699020000"><ele>136</ele><time>2026-04-07T12:20:40Z</time></trkpt>
<trkpt lat="43.2582930000" lon="-1.0699100000"><ele>136</ele><time>2026-04-07T12:20:42Z</time></trkpt>
<trkpt lat="43.2582750000" lon="-1.0699170000"><ele>136</ele><time>2026-04-07T12:20:44Z</time></trkpt>
<trkpt lat="43.2582520000" lon="-1.0699250000"><ele>136</ele><time>2026-04-07T12:20:46Z</time></trkpt>
<trkpt lat="43.2582270000" lon="-1.0699320000"><ele>136</ele><time>2026-04-07T12:20:48Z</time></trkpt>
<trkpt lat="43.2582050000" lon="-1.0699370000"><ele>136</ele><time>2026-04-07T12:20:50Z</time></trkpt>
<trkpt lat="43.2581820000" lon="-1.0699420000"><ele>136</ele><time>2026-04-07T12:20:52Z</time></trkpt>
<trkpt lat="43.2581620000" lon="-1.0699520000"><ele>137</ele><time>2026-04-07T12:20:54Z</time></trkpt>
<trkpt lat="43.2581420000" lon="-1.0699650000"><ele>137</ele><time>2026-04-07T12:20:56Z</time></trkpt>
<trkpt lat="43.2581220000" lon="-1.0699730000"><ele>137</ele><time>2026-04-07T12:20:58Z</time></trkpt>
<trkpt lat="43.2581020000" lon="-1.0699870000"><ele>137</ele><time>2026-04-07T12:21:00Z</time></trkpt>
<trkpt lat="43.2580820000" lon="-1.0699970000"><ele>137</ele><time>2026-04-07T12:21:02Z</time></trkpt>
<trkpt lat="43.2580620000" lon="-1.0700070000"><ele>137</ele><time>2026-04-07T12:21:04Z</time></trkpt>
<trkpt lat="43.2580470000" lon="-1.0700170000"><ele>137</ele><time>2026-04-07T12:21:06Z</time></trkpt>
<trkpt lat="43.2580270000" lon="-1.0700270000"><ele>138</ele><time>2026-04-07T12:21:08Z</time></trkpt>
<trkpt lat="43.2580070000" lon="-1.0700370000"><ele>138</ele><time>2026-04-07T12:21:10Z</time></trkpt>
<trkpt lat="43.2579830000" lon="-1.0700420000"><ele>138</ele><time>2026-04-07T12:21:12Z</time></trkpt>
<trkpt lat="43.2579620000" lon="-1.0700470000"><ele>138</ele><time>2026-04-07T12:21:14Z</time></trkpt>
<trkpt lat="43.2579400000" lon="-1.0700550000"><ele>138</ele><time>2026-04-07T12:21:16Z</time></trkpt>
<trkpt lat="43.2579170000" lon="-1.0700620000"><ele>138</ele><time>2026-04-07T12:21:18Z</time></trkpt>
<trkpt lat="43.2578920000" lon="-1.0700630000"><ele>139</ele><time>2026-04-07T12:21:20Z</time></trkpt>
<trkpt lat="43.2578720000" lon="-1.0700670000"><ele>139</ele><time>2026-04-07T12:21:22Z</time></trkpt>
<trkpt lat="43.2578520000" lon="-1.0700720000"><ele>139</ele><time>2026-04-07T12:21:25Z</time></trkpt>
<trkpt lat="43.2578270000" lon="-1.0700780000"><ele>139</ele><time>2026-04-07T12:21:28Z</time></trkpt>
<trkpt lat="43.2578050000" lon="-1.0700820000"><ele>140</ele><time>2026-04-07T12:21:30Z</time></trkpt>
<trkpt lat="43.2577800000" lon="-1.0700770000"><ele>140</ele><time>2026-04-07T12:21:32Z</time></trkpt>
<trkpt lat="43.2577570000" lon="-1.0700720000"><ele>140</ele><time>2026-04-07T12:21:34Z</time></trkpt>
<trkpt lat="43.2577400000" lon="-1.0700620000"><ele>140</ele><time>2026-04-07T12:21:35Z</time></trkpt>
<trkpt lat="43.2577220000" lon="-1.0700520000"><ele>140</ele><time>2026-04-07T12:21:36Z</time></trkpt>
<trkpt lat="43.2577000000" lon="-1.0700600000"><ele>140</ele><time>2026-04-07T12:21:38Z</time></trkpt>
<trkpt lat="43.2576820000" lon="-1.0700620000"><ele>140</ele><time>2026-04-07T12:21:41Z</time></trkpt>
<trkpt lat="43.2576620000" lon="-1.0700520000"><ele>140</ele><time>2026-04-07T12:21:43Z</time></trkpt>
<trkpt lat="43.2576400000" lon="-1.0700420000"><ele>140</ele><time>2026-04-07T12:21:45Z</time></trkpt>
<trkpt lat="43.2576200000" lon="-1.0700400000"><ele>140</ele><time>2026-04-07T12:21:47Z</time></trkpt>
<trkpt lat="43.2575970000" lon="-1.0700400000"><ele>140</ele><time>2026-04-07T12:21:49Z</time></trkpt>
<trkpt lat="43.2575770000" lon="-1.0700370000"><ele>141</ele><time>2026-04-07T12:21:51Z</time></trkpt>
<trkpt lat="43.2575570000" lon="-1.0700370000"><ele>141</ele><time>2026-04-07T12:21:53Z</time></trkpt>
<trkpt lat="43.2575370000" lon="-1.0700350000"><ele>141</ele><time>2026-04-07T12:21:55Z</time></trkpt>
<trkpt lat="43.2575120000" lon="-1.0700300000"><ele>141</ele><time>2026-04-07T12:21:57Z</time></trkpt>
<trkpt lat="43.2574870000" lon="-1.0700220000"><ele>141</ele><time>2026-04-07T12:22:00Z</time></trkpt>
<trkpt lat="43.2574670000" lon="-1.0700120000"><ele>141</ele><time>2026-04-07T12:22:02Z</time></trkpt>
<trkpt lat="43.2574420000" lon="-1.0700070000"><ele>141</ele><time>2026-04-07T12:22:04Z</time></trkpt>
<trkpt lat="43.2574200000" lon="-1.0700020000"><ele>141</ele><time>2026-04-07T12:22:06Z</time></trkpt>
<trkpt lat="43.2573970000" lon="-1.0699970000"><ele>141</ele><time>2026-04-07T12:22:08Z</time></trkpt>
<trkpt lat="43.2573720000" lon="-1.0700000000"><ele>142</ele><time>2026-04-07T12:22:10Z</time></trkpt>
<trkpt lat="43.2573520000" lon="-1.0700070000"><ele>142</ele><time>2026-04-07T12:22:12Z</time></trkpt>
<trkpt lat="43.2573300000" lon="-1.0700070000"><ele>142</ele><time>2026-04-07T12:22:14Z</time></trkpt>
<trkpt lat="43.2573070000" lon="-1.0700120000"><ele>142</ele><time>2026-04-07T12:22:16Z</time></trkpt>
<trkpt lat="43.2572900000" lon="-1.0700170000"><ele>142</ele><time>2026-04-07T12:22:18Z</time></trkpt>
<trkpt lat="43.2572670000" lon="-1.0700220000"><ele>142</ele><time>2026-04-07T12:22:20Z</time></trkpt>
<trkpt lat="43.2572420000" lon="-1.0700170000"><ele>143</ele><time>2026-04-07T12:22:22Z</time></trkpt>
<trkpt lat="43.2572200000" lon="-1.0700180000"><ele>143</ele><time>2026-04-07T12:22:24Z</time></trkpt>
<trkpt lat="43.2572020000" lon="-1.0700270000"><ele>143</ele><time>2026-04-07T12:22:26Z</time></trkpt>
<trkpt lat="43.2571820000" lon="-1.0700450000"><ele>143</ele><time>2026-04-07T12:22:28Z</time></trkpt>
<trkpt lat="43.2571620000" lon="-1.0700570000"><ele>143</ele><time>2026-04-07T12:22:30Z</time></trkpt>
<trkpt lat="43.2571400000" lon="-1.0700630000"><ele>143</ele><time>2026-04-07T12:22:32Z</time></trkpt>
<trkpt lat="43.2571200000" lon="-1.0700720000"><ele>143</ele><time>2026-04-07T12:22:34Z</time></trkpt>
<trkpt lat="43.2571000000" lon="-1.0700820000"><ele>143</ele><time>2026-04-07T12:22:36Z</time></trkpt>
<trkpt lat="43.2570770000" lon="-1.0700950000"><ele>144</ele><time>2026-04-07T12:22:38Z</time></trkpt>
<trkpt lat="43.2570570000" lon="-1.0701070000"><ele>144</ele><time>2026-04-07T12:22:40Z</time></trkpt>
<trkpt lat="43.2570350000" lon="-1.0701170000"><ele>144</ele><time>2026-04-07T12:22:42Z</time></trkpt>
<trkpt lat="43.2570170000" lon="-1.0701320000"><ele>144</ele><time>2026-04-07T12:22:44Z</time></trkpt>
<trkpt lat="43.2569980000" lon="-1.0701470000"><ele>144</ele><time>2026-04-07T12:22:46Z</time></trkpt>
<trkpt lat="43.2569770000" lon="-1.0701580000"><ele>144</ele><time>2026-04-07T12:22:48Z</time></trkpt>
<trkpt lat="43.2569520000" lon="-1.0701650000"><ele>145</ele><time>2026-04-07T12:22:50Z</time></trkpt>
<trkpt lat="43.2569270000" lon="-1.0701720000"><ele>145</ele><time>2026-04-07T12:22:52Z</time></trkpt>
<trkpt lat="43.2569070000" lon="-1.0701850000"><ele>145</ele><time>2026-04-07T12:22:54Z</time></trkpt>
<trkpt lat="43.2568870000" lon="-1.0701970000"><ele>145</ele><time>2026-04-07T12:22:56Z</time></trkpt>
<trkpt lat="43.2568570000" lon="-1.0702070000"><ele>145</ele><time>2026-04-07T12:22:58Z</time></trkpt>
<trkpt lat="43.2568320000" lon="-1.0702170000"><ele>146</ele><time>2026-04-07T12:23:00Z</time></trkpt>
<trkpt lat="43.2568120000" lon="-1.0702320000"><ele>146</ele><time>2026-04-07T12:23:02Z</time></trkpt>
<trkpt lat="43.2567870000" lon="-1.0702470000"><ele>146</ele><time>2026-04-07T12:23:04Z</time></trkpt>
<trkpt lat="43.2567650000" lon="-1.0702600000"><ele>146</ele><time>2026-04-07T12:23:06Z</time></trkpt>
<trkpt lat="43.2567420000" lon="-1.0702720000"><ele>146</ele><time>2026-04-07T12:23:09Z</time></trkpt>
<trkpt lat="43.2567200000" lon="-1.0702870000"><ele>147</ele><time>2026-04-07T12:23:12Z</time></trkpt>
<trkpt lat="43.2567020000" lon="-1.0702970000"><ele>147</ele><time>2026-04-07T12:23:14Z</time></trkpt>
<trkpt lat="43.2566800000" lon="-1.0703100000"><ele>147</ele><time>2026-04-07T12:23:16Z</time></trkpt>
<trkpt lat="43.2566600000" lon="-1.0703250000"><ele>147</ele><time>2026-04-07T12:23:18Z</time></trkpt>
<trkpt lat="43.2566400000" lon="-1.0703370000"><ele>147</ele><time>2026-04-07T12:23:20Z</time></trkpt>
<trkpt lat="43.2566150000" lon="-1.0703470000"><ele>147</ele><time>2026-04-07T12:23:22Z</time></trkpt>
<trkpt lat="43.2565920000" lon="-1.0703570000"><ele>148</ele><time>2026-04-07T12:23:24Z</time></trkpt>
<trkpt lat="43.2565720000" lon="-1.0703670000"><ele>148</ele><time>2026-04-07T12:23:26Z</time></trkpt>
<trkpt lat="43.2565520000" lon="-1.0703770000"><ele>148</ele><time>2026-04-07T12:23:28Z</time></trkpt>
<trkpt lat="43.2565300000" lon="-1.0703880000"><ele>148</ele><time>2026-04-07T12:23:32Z</time></trkpt>
<trkpt lat="43.2565100000" lon="-1.0703970000"><ele>148</ele><time>2026-04-07T12:23:34Z</time></trkpt>
<trkpt lat="43.2564870000" lon="-1.0704070000"><ele>148</ele><time>2026-04-07T12:23:36Z</time></trkpt>
<trkpt lat="43.2564670000" lon="-1.0704200000"><ele>149</ele><time>2026-04-07T12:23:38Z</time></trkpt>
<trkpt lat="43.2564470000" lon="-1.0704280000"><ele>149</ele><time>2026-04-07T12:23:40Z</time></trkpt>
<trkpt lat="43.2564270000" lon="-1.0704420000"><ele>149</ele><time>2026-04-07T12:23:42Z</time></trkpt>
<trkpt lat="43.2564070000" lon="-1.0704520000"><ele>149</ele><time>2026-04-07T12:23:44Z</time></trkpt>
<trkpt lat="43.2563870000" lon="-1.0704620000"><ele>149</ele><time>2026-04-07T12:23:46Z</time></trkpt>
<trkpt lat="43.2563670000" lon="-1.0704680000"><ele>149</ele><time>2026-04-07T12:23:48Z</time></trkpt>
<trkpt lat="43.2563450000" lon="-1.0704720000"><ele>150</ele><time>2026-04-07T12:23:50Z</time></trkpt>
<trkpt lat="43.2563220000" lon="-1.0704770000"><ele>150</ele><time>2026-04-07T12:23:52Z</time></trkpt>
<trkpt lat="43.2563000000" lon="-1.0704770000"><ele>150</ele><time>2026-04-07T12:23:54Z</time></trkpt>
<trkpt lat="43.2562820000" lon="-1.0704870000"><ele>150</ele><time>2026-04-07T12:23:56Z</time></trkpt>
<trkpt lat="43.2562620000" lon="-1.0704970000"><ele>151</ele><time>2026-04-07T12:23:58Z</time></trkpt>
<trkpt lat="43.2562380000" lon="-1.0705000000"><ele>151</ele><time>2026-04-07T12:24:00Z</time></trkpt>
<trkpt lat="43.2562220000" lon="-1.0705170000"><ele>151</ele><time>2026-04-07T12:24:02Z</time></trkpt>
<trkpt lat="43.2562050000" lon="-1.0705400000"><ele>151</ele><time>2026-04-07T12:24:04Z</time></trkpt>
<trkpt lat="43.2561920000" lon="-1.0705580000"><ele>151</ele><time>2026-04-07T12:24:06Z</time></trkpt>
<trkpt lat="43.2561770000" lon="-1.0705770000"><ele>151</ele><time>2026-04-07T12:24:09Z</time></trkpt>
<trkpt lat="43.2561570000" lon="-1.0705750000"><ele>152</ele><time>2026-04-07T12:24:16Z</time></trkpt>
<trkpt lat="43.2561420000" lon="-1.0706020000"><ele>152</ele><time>2026-04-07T12:24:19Z</time></trkpt>
<trkpt lat="43.2561220000" lon="-1.0706020000"><ele>152</ele><time>2026-04-07T12:24:22Z</time></trkpt>
<trkpt lat="43.2561020000" lon="-1.0706100000"><ele>152</ele><time>2026-04-07T12:24:24Z</time></trkpt>
<trkpt lat="43.2560820000" lon="-1.0706170000"><ele>152</ele><time>2026-04-07T12:24:26Z</time></trkpt>
<trkpt lat="43.2560650000" lon="-1.0706250000"><ele>153</ele><time>2026-04-07T12:24:28Z</time></trkpt>
<trkpt lat="43.2560420000" lon="-1.0706450000"><ele>153</ele><time>2026-04-07T12:24:31Z</time></trkpt>
<trkpt lat="43.2560220000" lon="-1.0706620000"><ele>153</ele><time>2026-04-07T12:24:33Z</time></trkpt>
<trkpt lat="43.2560020000" lon="-1.0706750000"><ele>153</ele><time>2026-04-07T12:24:35Z</time></trkpt>
<trkpt lat="43.2559850000" lon="-1.0706920000"><ele>153</ele><time>2026-04-07T12:24:37Z</time></trkpt>
<trkpt lat="43.2559700000" lon="-1.0707070000"><ele>153</ele><time>2026-04-07T12:24:39Z</time></trkpt>
<trkpt lat="43.2559570000" lon="-1.0707270000"><ele>154</ele><time>2026-04-07T12:24:41Z</time></trkpt>
<trkpt lat="43.2559420000" lon="-1.0707520000"><ele>154</ele><time>2026-04-07T12:24:43Z</time></trkpt>
<trkpt lat="43.2559270000" lon="-1.0707770000"><ele>154</ele><time>2026-04-07T12:24:45Z</time></trkpt>
<trkpt lat="43.2559170000" lon="-1.0708070000"><ele>154</ele><time>2026-04-07T12:24:47Z</time></trkpt>
<trkpt lat="43.2559100000" lon="-1.0708370000"><ele>154</ele><time>2026-04-07T12:24:49Z</time></trkpt>
<trkpt lat="43.2559020000" lon="-1.0708670000"><ele>154</ele><time>2026-04-07T12:24:51Z</time></trkpt>
<trkpt lat="43.2558920000" lon="-1.0708970000"><ele>154</ele><time>2026-04-07T12:24:53Z</time></trkpt>
<trkpt lat="43.2558870000" lon="-1.0709270000"><ele>155</ele><time>2026-04-07T12:24:55Z</time></trkpt>
<trkpt lat="43.2558820000" lon="-1.0709570000"><ele>155</ele><time>2026-04-07T12:24:57Z</time></trkpt>
<trkpt lat="43.2558800000" lon="-1.0709900000"><ele>155</ele><time>2026-04-07T12:24:59Z</time></trkpt>
<trkpt lat="43.2558800000" lon="-1.0710170000"><ele>155</ele><time>2026-04-07T12:25:01Z</time></trkpt>
<trkpt lat="43.2558850000" lon="-1.0710470000"><ele>155</ele><time>2026-04-07T12:25:03Z</time></trkpt>
<trkpt lat="43.2559000000" lon="-1.0710670000"><ele>155</ele><time>2026-04-07T12:25:05Z</time></trkpt>
<trkpt lat="43.2559220000" lon="-1.0710870000"><ele>155</ele><time>2026-04-07T12:25:07Z</time></trkpt>
<trkpt lat="43.2559370000" lon="-1.0711070000"><ele>156</ele><time>2026-04-07T12:25:09Z</time></trkpt>
<trkpt lat="43.2559570000" lon="-1.0711200000"><ele>156</ele><time>2026-04-07T12:25:11Z</time></trkpt>
<trkpt lat="43.2559700000" lon="-1.0711430000"><ele>156</ele><time>2026-04-07T12:25:16Z</time></trkpt>
<trkpt lat="43.2559870000" lon="-1.0711500000"><ele>156</ele><time>2026-04-07T12:25:18Z</time></trkpt>
<trkpt lat="43.2560050000" lon="-1.0711720000"><ele>157</ele><time>2026-04-07T12:25:20Z</time></trkpt>
<trkpt lat="43.2560220000" lon="-1.0711920000"><ele>157</ele><time>2026-04-07T12:25:22Z</time></trkpt>
<trkpt lat="43.2560450000" lon="-1.0712120000"><ele>157</ele><time>2026-04-07T12:25:25Z</time></trkpt>
<trkpt lat="43.2560570000" lon="-1.0712370000"><ele>157</ele><time>2026-04-07T12:25:27Z</time></trkpt>
<trkpt lat="43.2560670000" lon="-1.0712600000"><ele>157</ele><time>2026-04-07T12:25:29Z</time></trkpt>
<trkpt lat="43.2560720000" lon="-1.0712870000"><ele>157</ele><time>2026-04-07T12:25:31Z</time></trkpt>
<trkpt lat="43.2560770000" lon="-1.0713150000"><ele>157</ele><time>2026-04-07T12:25:33Z</time></trkpt>
<trkpt lat="43.2560820000" lon="-1.0713400000"><ele>157</ele><time>2026-04-07T12:25:35Z</time></trkpt>
<trkpt lat="43.2560950000" lon="-1.0713670000"><ele>158</ele><time>2026-04-07T12:25:39Z</time></trkpt>
<trkpt lat="43.2560770000" lon="-1.0713770000"><ele>158</ele><time>2026-04-07T12:26:32Z</time></trkpt>
<trkpt lat="43.2561020000" lon="-1.0713630000"><ele>158</ele><time>2026-04-07T12:27:45Z</time></trkpt>
<trkpt lat="43.2561370000" lon="-1.0713470000"><ele>158</ele><time>2026-04-07T12:27:47Z</time></trkpt>
<trkpt lat="43.2561550000" lon="-1.0713420000"><ele>158</ele><time>2026-04-07T12:27:48Z</time></trkpt>
<trkpt lat="43.2561820000" lon="-1.0713400000"><ele>158</ele><time>2026-04-07T12:27:50Z</time></trkpt>
<trkpt lat="43.2562020000" lon="-1.0713370000"><ele>158</ele><time>2026-04-07T12:27:52Z</time></trkpt>
<trkpt lat="43.2562220000" lon="-1.0713500000"><ele>158</ele><time>2026-04-07T12:27:54Z</time></trkpt>
<trkpt lat="43.2562370000" lon="-1.0713730000"><ele>158</ele><time>2026-04-07T12:27:56Z</time></trkpt>
<trkpt lat="43.2562470000" lon="-1.0714020000"><ele>158</ele><time>2026-04-07T12:27:58Z</time></trkpt>
<trkpt lat="43.2562600000" lon="-1.0714270000"><ele>158</ele><time>2026-04-07T12:28:00Z</time></trkpt>
<trkpt lat="43.2562770000" lon="-1.0714500000"><ele>158</ele><time>2026-04-07T12:28:02Z</time></trkpt>
<trkpt lat="43.2562900000" lon="-1.0714750000"><ele>159</ele><time>2026-04-07T12:28:04Z</time></trkpt>
<trkpt lat="43.2563150000" lon="-1.0714900000"><ele>159</ele><time>2026-04-07T12:28:06Z</time></trkpt>
<trkpt lat="43.2563200000" lon="-1.0715270000"><ele>159</ele><time>2026-04-07T12:28:08Z</time></trkpt>
<trkpt lat="43.2563170000" lon="-1.0715600000"><ele>159</ele><time>2026-04-07T12:28:10Z</time></trkpt>
<trkpt lat="43.2563220000" lon="-1.0715920000"><ele>159</ele><time>2026-04-07T12:28:12Z</time></trkpt>
<trkpt lat="43.2563300000" lon="-1.0716270000"><ele>159</ele><time>2026-04-07T12:28:14Z</time></trkpt>
<trkpt lat="43.2563370000" lon="-1.0716570000"><ele>159</ele><time>2026-04-07T12:28:17Z</time></trkpt>
<trkpt lat="43.2563470000" lon="-1.0716820000"><ele>159</ele><time>2026-04-07T12:28:19Z</time></trkpt>
<trkpt lat="43.2563550000" lon="-1.0717070000"><ele>159</ele><time>2026-04-07T12:28:21Z</time></trkpt>
<trkpt lat="43.2563650000" lon="-1.0717300000"><ele>159</ele><time>2026-04-07T12:28:24Z</time></trkpt>
<trkpt lat="43.2563770000" lon="-1.0717620000"><ele>160</ele><time>2026-04-07T12:28:27Z</time></trkpt>
<trkpt lat="43.2563870000" lon="-1.0718000000"><ele>160</ele><time>2026-04-07T12:28:30Z</time></trkpt>
<trkpt lat="43.2563870000" lon="-1.0718300000"><ele>160</ele><time>2026-04-07T12:28:32Z</time></trkpt>
<trkpt lat="43.2563870000" lon="-1.0718570000"><ele>160</ele><time>2026-04-07T12:28:34Z</time></trkpt>
<trkpt lat="43.2563970000" lon="-1.0718820000"><ele>160</ele><time>2026-04-07T12:28:36Z</time></trkpt>
<trkpt lat="43.2564070000" lon="-1.0719120000"><ele>161</ele><time>2026-04-07T12:28:38Z</time></trkpt>
<trkpt lat="43.2564100000" lon="-1.0719370000"><ele>161</ele><time>2026-04-07T12:28:40Z</time></trkpt>
<trkpt lat="43.2564150000" lon="-1.0719650000"><ele>161</ele><time>2026-04-07T12:28:42Z</time></trkpt>
<trkpt lat="43.2564200000" lon="-1.0719920000"><ele>161</ele><time>2026-04-07T12:28:44Z</time></trkpt>
<trkpt lat="43.2564320000" lon="-1.0720070000"><ele>161</ele><time>2026-04-07T12:28:46Z</time></trkpt>
</trkseg>
</trk>
</gpx>